# Wetter Temperatur Luftdruck Luftfeuchtigkeit Sichtweite Windgeschwindigkeit Windrichtung Zeit
1 Clouds 10 1014 87 0 4.02 330 21:57 28.01.2020
2 Clouds 10 1014 87 0 4.02 330 21:38 28.01.2020
3 Clouds 10 1014 87 0 4.02 330 21:19 28.01.2020
4 Clouds 10 1014 87 0 4.02 330 21:19 28.01.2020
5 Clouds 10 1014 87 0 4.02 330 20:46 28.01.2020
6 Clear 10 1014 87 0 4.02 330 20:26 28.01.2020
7 Clear 10 1014 87 0 4.02 330 19:55 28.01.2020
8 Clear 10 1014 87 0 4.02 330 19:37 28.01.2020
9 Clear 10 1014 87 0 4.02 330 19:19 28.01.2020
10 Clear 10 1014 87 0 4.02 330 18:42 28.01.2020
11 Clear 10 1014 87 0 4.02 330 18:23 28.01.2020
12 Clear 10 1014 87 0 4.02 330 17:59 28.01.2020
13 Clear 10 1014 87 0 4.02 330 17:40 28.01.2020
14 Clear 10 1014 87 0 4.02 330 17:21 28.01.2020
15 Clear 10 1014 87 0 4.02 330 16:58 28.01.2020
16 Clear 10 1014 87 0 4.02 330 16:40 28.01.2020
17 Clouds 10 1014 87 10000 2.1 300 16:21 28.01.2020
18 Clouds 10 1014 87 10000 2.1 300 15:47 28.01.2020
19 Clouds 10 1014 87 10000 2.1 300 15:19 28.01.2020
20 Rain 10 1014 87 10000 2.6 320 14:58 28.01.2020
21 Rain 10 1014 87 10000 2.6 320 14:39 28.01.2020
22 Rain 10 1014 87 10000 2.6 320 14:18 28.01.2020
23 Clouds 10 1014 87 10000 4.1 330 13:41 28.01.2020
24 Clouds 10 1014 87 10000 4.1 330 13:23 28.01.2020
25 Clouds 11 1014 81 10000 4.1 310 12:43 28.01.2020
26 Clouds 11 1014 81 10000 4.1 310 12:24 28.01.2020
27 Clouds 10 1013 87 10000 5.1 320 11:56 28.01.2020
28 Clouds 10 1013 87 10000 5.1 320 11:38 28.01.2020
29 Clouds 10 1013 87 10000 5.1 320 11:19 28.01.2020
30 Clouds 11 1012 81 10000 5.7 340 10:41 28.01.2020
31 Clouds 11 1012 81 10000 5.7 340 10:23 28.01.2020
32 Clouds 12 1012 76 10000 6.7 340 09:58 28.01.2020
33 Clouds 12 1012 76 10000 6.7 340 09:38 28.01.2020
34 Clouds 12 1012 76 10000 6.7 340 09:19 28.01.2020
35 Clouds 13 1012 71 10000 3.6 330 08:42 28.01.2020
36 Clouds 13 1012 71 10000 3.6 330 08:21 28.01.2020
37 Rain 13 1012 76 10000 6.2 350 07:39 28.01.2020
38 Rain 14 1011 71 10000 5.7 360 06:52 28.01.2020
39 Rain 14 1011 71 10000 5.7 360 06:29 28.01.2020
40 Rain 14 1011 71 10000 5.7 360 06:29 28.01.2020
41 Clouds 14 1011 71 10000 6.2 350 05:56 28.01.2020
42 Clouds 14 1011 71 10000 6.2 350 05:34 28.01.2020
43 Clouds 14 1011 71 10000 5.7 340 04:39 28.01.2020
44 Rain 12 1012 87 10000 7.2 340 03:36 28.01.2020
45 Rain 12 1012 82 10000 7.2 330 02:32 28.01.2020
46 Rain 11 1011 87 10000 5.1 340 01:58 28.01.2020
47 Rain 11 1011 87 10000 5.1 340 01:40 28.01.2020
48 Rain 11 1011 87 10000 5.1 340 01:40 28.01.2020
49 Rain 10 1011 87 10000 4.1 310 00:51 28.01.2020
50 Rain 10 1011 87 10000 4.1 310 00:29 28.01.2020
51 Rain 9 1010 93 10000 3.6 320 23:53 27.01.2020
52 Rain 9 1010 93 10000 3.6 320 23:30 27.01.2020
53 Rain 8 1010 100 10000 9.72 337 22:59 27.01.2020
54 Rain 8 1010 100 10000 9.72 337 22:41 27.01.2020
55 Rain 8 1010 100 10000 9.72 337 22:20 27.01.2020
56 Clear 9 1005 93 0 5.36 320 21:56 27.01.2020
57 Clear 9 1005 93 0 5.36 320 21:37 27.01.2020
58 Clear 9 1005 93 0 5.36 320 21:18 27.01.2020
59 Clear 9 1005 93 0 5.36 320 20:54 27.01.2020
60 Clear 9 1005 93 0 5.36 320 20:36 27.01.2020
61 Clouds 9 1005 93 0 5.36 320 20:18 27.01.2020
62 Clouds 9 1005 93 0 5.36 320 19:41 27.01.2020
63 Clouds 9 1005 93 0 5.36 320 19:23 27.01.2020
64 Clouds 9 1005 93 0 5.36 320 18:56 27.01.2020
65 Clouds 9 1005 93 0 5.36 320 18:38 27.01.2020
66 Clouds 9 1005 93 0 5.36 320 18:19 27.01.2020
67 Clouds 9 1005 93 0 5.36 320 17:39 27.01.2020
68 Clear 9 1005 93 0 5.36 320 17:21 27.01.2020
69 Clear 9 1005 93 0 5.36 320 16:59 27.01.2020
70 Clear 9 1005 93 0 5.36 320 16:41 27.01.2020
71 Clouds 9 1006 93 10000 2.6 280 16:23 27.01.2020
72 Clouds 9 1006 93 10000 2.6 280 15:55 27.01.2020
73 Clouds 9 1006 93 10000 2.6 280 15:37 27.01.2020
74 Clouds 9 1006 93 10000 2.6 280 15:37 27.01.2020
75 Clouds 9 1006 93 10000 2.6 280 15:18 27.01.2020
76 Clouds 9 1006 93 10000 1.5 310 14:42 27.01.2020
77 Clouds 9 1006 93 10000 1.5 310 14:22 27.01.2020
78 Clouds 9 1006 93 10000 1.5 310 14:22 27.01.2020
79 Clouds 9 1005 93 10000 5.7 320 13:58 27.01.2020
80 Clouds 9 1005 93 10000 5.7 320 13:39 27.01.2020
81 Clouds 9 1005 93 10000 5.7 320 13:19 27.01.2020
82 Clouds 10 1005 87 10000 5.7 340 12:45 27.01.2020
83 Clouds 10 1005 87 10000 5.7 340 12:23 27.01.2020
84 Rain 10 1003 87 9000 7.2 350 11:58 27.01.2020
85 Rain 10 1003 87 9000 7.2 350 11:40 27.01.2020
86 Rain 10 1003 87 9000 7.2 350 11:20 27.01.2020
87 Clouds 10 1001 87 10000 11.3 350 10:43 27.01.2020
88 Clouds 10 1001 87 10000 11.3 350 10:24 27.01.2020
89 Rain 9 1001 93 10000 10.3 10 09:54 27.01.2020
90 Rain 9 1001 93 8000 11.8 10 09:36 27.01.2020
91 Rain 9 1001 93 8000 11.8 10 09:18 27.01.2020
92 Thunderstorm 10 1004 93 2500 10.3 300 08:42 27.01.2020
93 Rain 10 1002 93 3000 12.9 320 08:20 27.01.2020
94 Rain 11 998 87 10000 12.3 350 07:53 27.01.2020
95 Rain 11 998 87 10000 12.3 350 07:33 27.01.2020
96 Clouds 11 998 87 10000 8.2 10 06:51 27.01.2020
97 Rain 10 1001 81 10000 8.7 340 05:59 27.01.2020
98 Thunderstorm 11 1000 87 5000 4.6 70 05:18 27.01.2020
99 Clouds 10 1004 76 10000 6.2 10 03:37 27.01.2020
100 Thunderstorm 10 1004 81 8000 6.7 30 02:32 27.01.2020
101 Rain 9 1005 81 10000 8.2 10 01:29 27.01.2020
102 Rain 9 1005 81 10000 7.7 30 00:43 27.01.2020
103 Rain 9 1006 81 10000 7.7 20 00:22 27.01.2020
104 Rain 10 1006 81 10000 7.7 30 23:59 26.01.2020
105 Rain 9 1007 81 10000 6.2 20 23:41 26.01.2020
106 Rain 9 1007 81 10000 6.2 20 23:18 26.01.2020
107 Rain 9 1006 81 10000 6.2 30 22:39 26.01.2020
108 Rain 9 1006 81 10000 6.2 30 22:20 26.01.2020
109 Rain 11 1020 71 0 3.58 60 21:59 26.01.2020
110 Rain 11 1021 71 0 3.58 60 21:40 26.01.2020
111 Rain 11 1021 71 0 3.58 60 21:22 26.01.2020
112 Rain 11 1021 71 0 3.58 60 21:22 26.01.2020
113 Rain 11 1017 71 0 3.58 60 20:58 26.01.2020
114 Rain 11 1017 71 0 3.58 60 20:40 26.01.2020
115 Rain 11 1020 71 0 3.58 60 20:20 26.01.2020
116 Rain 11 1017 71 0 3.58 60 19:59 26.01.2020
117 Rain 11 1017 71 0 3.58 60 19:39 26.01.2020
118 Rain 11 1017 71 0 3.58 60 19:21 26.01.2020
119 Rain 11 1017 71 0 3.58 60 18:59 26.01.2020
120 Rain 11 1017 71 0 3.58 60 18:39 26.01.2020
121 Rain 11 1020 71 0 3.58 60 18:21 26.01.2020
122 Rain 11 1017 71 0 3.58 60 17:57 26.01.2020
123 Rain 11 1017 71 0 3.58 60 17:38 26.01.2020
124 Rain 11 1019 71 0 3.58 60 17:18 26.01.2020
125 Rain 11 1019 71 0 3.58 60 17:18 26.01.2020
126 Rain 11 1019 71 0 3.58 60 17:18 26.01.2020
127 Rain 11 1017 71 0 3.58 60 16:57 26.01.2020
128 Rain 11 1017 71 0 3.58 60 16:57 26.01.2020
129 Rain 11 1017 71 0 3.58 60 16:39 26.01.2020
130 Rain 10 1018 81 10000 6.7 50 16:19 26.01.2020
131 Rain 11 1017 71 0 3.58 60 15:45 26.01.2020
132 Rain 11 1017 71 0 3.58 60 15:22 26.01.2020
133 Rain 11 1017 71 0 3.58 60 14:58 26.01.2020
134 Rain 11 1017 71 0 3.58 60 14:39 26.01.2020
135 Rain 11 1017 71 0 3.58 60 14:19 26.01.2020
136 Rain 11 1017 71 0 3.58 60 13:41 26.01.2020
137 Rain 11 1019 71 0 3.58 60 13:20 26.01.2020
138 Rain 11 1018 66 0 4.47 40 12:56 26.01.2020
139 Rain 11 1018 66 0 4.47 40 12:37 26.01.2020
140 Rain 11 1018 66 0 4.47 40 12:19 26.01.2020
141 Rain 11 1018 66 0 4.47 40 12:19 26.01.2020
142 Rain 12 1020 58 0 4.92 50 11:57 26.01.2020
143 Rain 12 1018 58 0 4.92 50 11:37 26.01.2020
144 Rain 12 1018 66 10000 5.7 40 11:18 26.01.2020
145 Rain 12 1018 66 10000 5.7 40 10:55 26.01.2020
146 Rain 12 1018 66 10000 5.7 40 10:37 26.01.2020
147 Rain 12 1018 66 10000 5.7 40 10:19 26.01.2020
148 Rain 12 1018 66 10000 5.7 40 10:19 26.01.2020
149 Rain 11 1019 87 10000 3.1 130 09:42 26.01.2020
150 Rain 11 1019 87 10000 3.1 130 09:23 26.01.2020
151 Rain 12 1019 66 10000 5.1 50 08:57 26.01.2020
152 Rain 12 1019 66 10000 5.1 50 08:39 26.01.2020
153 Rain 12 1019 66 10000 5.1 50 08:21 26.01.2020
154 Clouds 13 1019 66 10000 4.6 60 07:50 26.01.2020
155 Clouds 13 1019 66 10000 4.6 60 07:25 26.01.2020
156 Clouds 13 1019 66 10000 1 0 06:38 26.01.2020
157 Clouds 13 1019 66 10000 1 0 06:18 26.01.2020
158 Rain 13 1019 62 10000 1 0 05:26 26.01.2020
159 Rain 11 1021 81 10000 2.6 140 03:23 26.01.2020
160 Clouds 11 1022 81 10000 1.5 210 02:23 26.01.2020
161 Clouds 10 1022 93 10000 1 0 01:40 26.01.2020
162 Clouds 10 1022 93 10000 1 0 01:20 26.01.2020
163 Clouds 10 1022 93 10000 3.1 130 00:40 26.01.2020
164 Clouds 10 1022 93 10000 3.1 130 00:20 26.01.2020
165 Clouds 10 1021 93 0 1.79 150 23:38 25.01.2020
166 Rain 10 1021 93 0 1.79 150 23:20 25.01.2020
167 Rain 10 1021 81 0 6.21 41 22:43 25.01.2020
168 Rain 10 1021 81 0 6.21 41 22:21 25.01.2020
169 Rain 10 1024 93 0 2.68 150 21:59 25.01.2020
170 Rain 10 1024 93 0 2.68 150 21:41 25.01.2020
171 Rain 10 1024 93 0 2.68 150 21:22 25.01.2020
172 Rain 10 1025 93 0 2.68 150 20:54 25.01.2020
173 Rain 10 1025 93 0 2.68 150 20:36 25.01.2020
174 Rain 10 1024 93 0 2.68 150 20:18 25.01.2020
175 Rain 10 1024 93 0 2.68 150 19:41 25.01.2020
176 Rain 10 1024 93 0 2.68 150 19:19 25.01.2020
177 Rain 10 1025 93 0 2.68 150 18:56 25.01.2020
178 Rain 10 1025 93 0 2.68 150 18:37 25.01.2020
179 Rain 10 1025 93 0 2.68 150 18:19 25.01.2020
180 Rain 10 1024 93 0 2.68 150 17:39 25.01.2020
181 Rain 10 1025 93 0 2.68 150 17:19 25.01.2020
182 Rain 10 1024 93 0 2.68 150 16:56 25.01.2020
183 Rain 10 1024 93 0 2.68 150 16:38 25.01.2020
184 Rain 10 1024 93 0 2.68 150 16:19 25.01.2020
185 Rain 10 1024 93 0 2.68 150 15:42 25.01.2020
186 Rain 10 1025 93 0 2.68 150 15:24 25.01.2020
187 Rain 10 1025 93 0 2.68 150 14:47 25.01.2020
188 Rain 10 1025 93 0 2.68 150 14:20 25.01.2020
189 Rain 10 1025 93 0 2.68 150 13:58 25.01.2020
190 Rain 10 1025 93 0 2.68 150 13:39 25.01.2020
191 Rain 10 1025 93 0 1.79 190 13:20 25.01.2020
192 Rain 10 1024 81 7000 5.1 10 12:43 25.01.2020
193 Rain 10 1024 81 7000 5.1 10 12:21 25.01.2020
194 Rain 10 1024 81 7000 5.1 10 11:45 25.01.2020
195 Rain 10 1023 87 10000 4.6 20 11:21 25.01.2020
196 Rain 10 1024 93 8000 7.2 340 10:56 25.01.2020
197 Rain 10 1024 81 10000 6.2 330 10:38 25.01.2020
198 Rain 10 1024 81 10000 6.2 330 10:19 25.01.2020
199 Rain 11 1022 81 10000 5.1 360 09:40 25.01.2020
200 Rain 11 1022 81 10000 5.1 360 09:21 25.01.2020
201 Rain 12 1022 76 10000 2.6 190 08:43 25.01.2020
202 Rain 12 1022 76 10000 2.6 190 08:21 25.01.2020
203 Rain 12 1022 76 10000 2.6 170 07:42 25.01.2020
204 Clouds 12 1023 71 10000 1 0 06:44 25.01.2020
205 Clouds 12 1023 71 10000 1 0 06:24 25.01.2020
206 Clouds 12 1023 71 10000 1 0 06:24 25.01.2020
207 Clouds 13 1023 71 10000 1.5 270 05:44 25.01.2020
208 Clouds 13 1024 71 10000 1 0 04:26 25.01.2020
209 Clouds 13 1024 71 10000 2.6 180 03:50 25.01.2020
210 Clouds 12 1024 76 10000 3.6 140 02:48 25.01.2020
211 Rain 12 1025 81 10000 1.5 150 01:59 25.01.2020
212 Rain 12 1025 81 10000 1.5 150 01:35 25.01.2020
213 Rain 11 1025 87 10000 1 0 00:42 25.01.2020
214 Rain 11 1025 87 10000 1 0 00:23 25.01.2020
215 Clouds 11 1024 87 10000 2.6 140 23:42 24.01.2020
216 Clouds 11 1024 87 10000 2.6 140 23:42 24.01.2020
217 Clouds 11 1024 87 10000 2.6 140 23:24 24.01.2020
218 Rain 11 1024 87 10000 0.5 0 22:56 24.01.2020
219 Rain 11 1024 87 10000 0.5 0 22:37 24.01.2020
220 Rain 11 1024 87 10000 0.5 0 22:19 24.01.2020
221 Clouds 13 1025 76 0 2.68 360 21:41 24.01.2020
222 Clouds 13 1025 76 0 2.68 360 21:19 24.01.2020
223 Clouds 13 1025 76 0 2.68 360 20:44 24.01.2020
224 Clouds 13 1024 76 0 2.68 360 20:23 24.01.2020
225 Clouds 13 1025 76 0 2.68 360 19:59 24.01.2020
226 Clouds 13 1025 76 0 2.68 360 19:41 24.01.2020
227 Clouds 13 1024 75 0 4.52 57 19:22 24.01.2020
228 Clouds 13 1024 75 0 4.52 57 18:57 24.01.2020
229 Clouds 13 1024 75 0 4.52 57 18:39 24.01.2020
230 Clouds 13 1024 75 0 4.52 57 18:21 24.01.2020
231 Clouds 13 1024 75 0 4.52 57 18:21 24.01.2020
232 Clouds 13 1024 75 0 4.52 57 17:42 24.01.2020
233 Clouds 13 1025 74 0 4.91 47 17:21 24.01.2020
234 Clouds 13 1025 74 0 4.91 47 16:55 24.01.2020
235 Clouds 13 1025 74 0 4.91 47 16:36 24.01.2020
236 Clouds 12 1025 71 10000 7.2 30 16:18 24.01.2020
237 Clouds 12 1025 71 10000 7.2 30 16:18 24.01.2020
238 Clouds 12 1025 71 10000 7.2 30 15:40 24.01.2020
239 Clouds 12 1025 71 10000 7.2 30 15:20 24.01.2020
240 Clouds 12 1026 71 10000 6.7 30 14:42 24.01.2020
241 Clouds 13 1026 71 10000 6.7 30 14:23 24.01.2020
242 Clouds 13 1025 76 10000 3.1 360 13:57 24.01.2020
243 Clouds 13 1025 76 10000 3.1 360 13:39 24.01.2020
244 Clouds 13 1025 76 10000 3.1 360 13:19 24.01.2020
245 Clouds 13 1025 76 10000 3.1 360 13:19 24.01.2020
246 Clouds 13 1024 76 10000 6.7 350 12:41 24.01.2020
247 Clouds 13 1024 76 10000 6.7 350 12:18 24.01.2020
248 Clouds 13 1024 76 10000 7.2 350 11:43 24.01.2020
249 Clouds 13 1024 76 10000 7.2 350 11:19 24.01.2020
250 Clouds 14 1023 71 10000 6.7 350 10:43 24.01.2020
251 Clouds 14 1023 71 10000 6.7 350 10:22 24.01.2020
252 Clouds 15 1023 72 10000 5.7 350 09:57 24.01.2020
253 Clouds 15 1023 72 10000 5.7 350 09:39 24.01.2020
254 Clouds 15 1023 72 10000 5.7 350 09:21 24.01.2020
255 Clouds 16 1022 67 10000 6.2 350 08:40 24.01.2020
256 Clouds 16 1022 67 10000 6.2 350 08:20 24.01.2020
257 Clouds 17 1022 67 10000 4.6 340 07:51 24.01.2020
258 Clouds 17 1022 67 10000 4.6 340 07:32 24.01.2020
259 Clouds 16 1023 72 10000 5.1 330 06:48 24.01.2020
260 Clouds 17 1022 67 10000 5.1 340 06:29 24.01.2020
261 Clouds 16 1022 72 10000 5.1 340 05:58 24.01.2020
262 Clouds 15 1023 77 10000 5.1 350 04:54 24.01.2020
263 Rain 13 1024 87 10000 3.6 360 02:53 24.01.2020
264 Rain 13 1024 87 10000 3.6 360 02:24 24.01.2020
265 Rain 13 1024 87 10000 1.5 330 01:42 24.01.2020
266 Rain 13 1024 87 10000 1.5 330 01:24 24.01.2020
267 Clouds 13 1024 87 10000 4.1 350 00:20 24.01.2020
268 Clouds 13 1023 87 10000 4.1 340 23:48 23.01.2020
269 Clouds 13 1023 87 10000 4.1 340 23:30 23.01.2020
270 Clouds 13 1023 87 10000 4.1 330 22:59 23.01.2020
271 Clouds 13 1023 87 10000 4.1 330 22:37 23.01.2020
272 Clouds 13 1023 87 10000 4.1 330 22:19 23.01.2020
273 Clouds 13 1021 93 0 4.92 320 21:57 23.01.2020
274 Clouds 13 1021 93 0 4.92 320 21:38 23.01.2020
275 Clouds 13 1020 93 0 4.92 320 21:20 23.01.2020
276 Clouds 13 1021 93 0 4.92 320 20:57 23.01.2020
277 Clouds 13 1021 93 0 4.92 320 20:38 23.01.2020
278 Clouds 13 1021 93 0 4.92 320 20:19 23.01.2020
279 Clouds 13 1021 93 0 4.92 320 19:44 23.01.2020
280 Clouds 13 1021 93 0 4.92 320 19:44 23.01.2020
281 Clouds 13 1021 93 0 4.92 320 19:24 23.01.2020
282 Clouds 13 1020 93 0 4.92 320 18:59 23.01.2020
283 Clouds 13 1020 93 0 4.92 320 18:40 23.01.2020
284 Clouds 13 1020 93 0 4.92 320 18:20 23.01.2020
285 Clouds 13 1021 93 0 4.92 320 17:57 23.01.2020
286 Clouds 13 1021 93 0 4.92 320 17:39 23.01.2020
287 Clouds 13 1021 93 0 4.92 320 17:19 23.01.2020
288 Clouds 13 1021 93 0 4.92 320 16:39 23.01.2020
289 Clouds 13 1021 93 10000 1.5 260 16:20 23.01.2020
290 Clouds 13 1021 93 10000 1.5 260 15:58 23.01.2020
291 Clouds 13 1021 93 10000 1.5 260 15:40 23.01.2020
292 Clouds 13 1021 93 10000 1.5 260 15:19 23.01.2020
293 Clouds 13 1021 93 10000 1.5 260 15:19 23.01.2020
294 Clouds 13 1021 93 10000 1 0 14:59 23.01.2020
295 Clouds 13 1021 93 10000 1 0 14:41 23.01.2020
296 Clouds 13 1021 93 10000 1 0 14:23 23.01.2020
297 Clouds 13 1021 93 10000 5.1 320 13:59 23.01.2020
298 Clouds 13 1021 93 10000 5.1 320 13:38 23.01.2020
299 Clouds 13 1021 93 10000 5.1 320 13:19 23.01.2020
300 Clouds 14 1020 93 10000 3.1 310 12:46 23.01.2020
301 Clouds 14 1020 93 10000 3.1 310 12:25 23.01.2020
302 Clouds 15 1019 87 10000 4.1 310 11:57 23.01.2020
303 Clouds 15 1019 87 10000 4.1 310 11:38 23.01.2020
304 Clouds 15 1019 87 10000 4.1 310 11:19 23.01.2020
305 Clouds 15 1019 87 10000 2.6 320 10:44 23.01.2020
306 Clouds 15 1019 87 10000 2.6 320 10:22 23.01.2020
307 Clouds 15 1018 87 10000 2.6 310 09:43 23.01.2020
308 Clouds 15 1018 87 10000 2.6 310 09:25 23.01.2020
309 Rain 16 1018 88 10000 3.6 350 08:59 23.01.2020
310 Rain 16 1018 88 10000 3.6 350 08:40 23.01.2020
311 Rain 16 1018 88 10000 3.6 350 08:21 23.01.2020
312 Clouds 17 1018 82 10000 5.1 320 07:44 23.01.2020
313 Clouds 17 1018 82 10000 5.1 320 07:24 23.01.2020
314 Clouds 17 1017 77 10000 3.1 280 06:51 23.01.2020
315 Clouds 17 1017 77 10000 3.1 280 06:22 23.01.2020
316 Clouds 16 1018 77 10000 1 0 05:37 23.01.2020
317 Clouds 16 1019 88 10000 1 0 04:24 23.01.2020
318 Fog 13 1019 100 6000 0.5 0 02:33 23.01.2020
319 Fog 12 1019 100 800 1.5 240 00:58 23.01.2020
320 Mist 11 1018 100 2000 2.01 131 00:27 23.01.2020
321 Fog 12 1018 100 900 2.01 131 23:47 22.01.2020
322 Clouds 11 1018 100 10000 0.5 0 23:29 22.01.2020
323 Fog 12 1018 100 800 1.5 10 22:58 22.01.2020
324 Clouds 12 1017 100 10000 0.5 0 22:39 22.01.2020
325 Clouds 12 1017 100 10000 0.5 0 22:21 22.01.2020
326 Rain 10 1021 99 0 7.6 140 21:40 22.01.2020
327 Rain 10 1020 99 0 7.6 140 21:22 22.01.2020
328 Rain 10 1021 99 0 7.6 140 20:57 22.01.2020
329 Rain 10 1021 99 0 7.6 140 20:37 22.01.2020
330 Rain 17 1019 87 0 14.12 201 20:18 22.01.2020
331 Rain 17 1019 87 0 14.12 201 19:55 22.01.2020
332 Rain 17 1019 87 0 14.12 201 19:37 22.01.2020
333 Rain 17 1019 87 0 14.12 201 19:18 22.01.2020
334 Rain 17 1019 87 0 14.12 201 18:56 22.01.2020
335 Rain 17 1019 87 0 14.12 201 18:37 22.01.2020
336 Rain 17 1019 87 0 14.12 201 18:18 22.01.2020
337 Rain 17 1019 87 0 14.12 201 17:40 22.01.2020
338 Rain 10 1021 99 0 7.6 140 17:21 22.01.2020
339 Rain 10 1020 99 0 7.6 140 16:58 22.01.2020
340 Rain 10 1020 99 0 7.6 140 16:58 22.01.2020
341 Rain 10 1020 99 0 7.6 140 16:39 22.01.2020
342 Rain 10 1019 100 1000 1.5 40 16:21 22.01.2020
343 Rain 10 1019 100 1000 1.5 40 15:55 22.01.2020
344 Rain 9 1019 100 1000 1.5 40 15:37 22.01.2020
345 Rain 9 1019 100 1000 1.5 40 15:18 22.01.2020
346 Rain 10 1020 100 1000 1.5 70 14:39 22.01.2020
347 Rain 10 1020 100 1000 1.5 70 14:20 22.01.2020
348 Rain 10 1020 100 1000 1.5 70 14:20 22.01.2020
349 Clouds 10 1020 100 9000 7.7 140 13:58 22.01.2020
350 Rain 10 1020 100 6000 6.2 140 13:37 22.01.2020
351 Rain 10 1020 100 6000 6.2 140 13:19 22.01.2020
352 Rain 10 1022 93 1000 1.5 60 12:57 22.01.2020
353 Rain 9 1021 100 7000 6.7 150 12:38 22.01.2020
354 Rain 9 1021 100 7000 6.7 150 12:19 22.01.2020
355 Rain 10 1021 93 5000 6.7 150 11:57 22.01.2020
356 Rain 9 1021 93 7000 7.2 150 11:39 22.01.2020
357 Rain 9 1021 93 7000 7.2 150 11:19 22.01.2020
358 Rain 9 1022 93 4000 7.2 150 10:45 22.01.2020
359 Rain 9 1022 93 4000 7.2 150 10:45 22.01.2020
360 Rain 9 1022 93 4000 7.2 150 10:21 22.01.2020
361 Rain 9 1022 100 3000 6.7 150 09:58 22.01.2020
362 Rain 9 1022 100 4000 6.7 150 09:40 22.01.2020
363 Rain 9 1022 100 4000 6.7 150 09:21 22.01.2020
364 Rain 9 1022 93 7000 7.2 150 08:55 22.01.2020
365 Rain 9 1022 93 7000 7.2 150 08:36 22.01.2020
366 Rain 9 1022 93 7000 7.2 150 08:18 22.01.2020
367 Clouds 9 1022 93 9000 6.2 150 07:42 22.01.2020
368 Clouds 9 1022 93 9000 6.2 150 07:23 22.01.2020
369 Rain 9 1023 93 7000 5.1 140 06:34 22.01.2020
370 Rain 9 1023 87 9000 8.2 140 05:45 22.01.2020
371 Clouds 9 1025 76 10000 1 0 04:25 22.01.2020
372 Clouds 9 1025 76 10000 1 0 03:26 22.01.2020
373 Clouds 8 1026 81 10000 3.6 120 02:39 22.01.2020
374 Clouds 7 1025 75 10000 5.1 140 00:47 22.01.2020
375 Clouds 7 1025 75 10000 5.1 140 00:47 22.01.2020
376 Clouds 7 1025 75 10000 5.1 140 00:27 22.01.2020
377 Clouds 6 1025 81 10000 2.1 120 23:55 21.01.2020
378 Clouds 6 1025 81 10000 2.1 120 23:37 21.01.2020
379 Clouds 6 1025 81 10000 2.1 120 23:18 21.01.2020
380 Clouds 7 1026 70 10000 4.1 140 22:40 21.01.2020
381 Clouds 7 1026 70 10000 4.1 140 22:21 21.01.2020
382 Clouds 6 1027 81 0 1.79 130 21:58 21.01.2020
383 Clouds 6 1027 81 0 1.79 130 21:38 21.01.2020
384 Clouds 6 1027 81 0 1.79 130 21:20 21.01.2020
385 Clouds 6 1027 81 0 1.79 130 20:57 21.01.2020
386 Clouds 6 1027 81 0 1.79 130 20:38 21.01.2020
387 Clouds 6 1027 81 0 1.79 130 20:19 21.01.2020
388 Clouds 6 1027 81 0 1.79 130 19:56 21.01.2020
389 Clouds 6 1027 81 0 1.79 130 19:56 21.01.2020
390 Clouds 6 1027 81 0 1.79 130 19:38 21.01.2020
391 Clouds 6 1027 81 0 1.79 130 19:20 21.01.2020
392 Clouds 6 1027 81 0 1.79 130 18:55 21.01.2020
393 Clouds 6 1027 81 0 1.79 130 18:55 21.01.2020
394 Clouds 6 1027 81 0 1.79 130 18:37 21.01.2020
395 Clouds 6 1027 81 0 1.79 130 18:18 21.01.2020
396 Clouds 6 1027 81 0 1.79 130 17:45 21.01.2020
397 Clear 6 1027 81 0 1.79 130 17:20 21.01.2020
398 Clear 6 1027 81 0 1.79 130 16:59 21.01.2020
399 Clear 6 1027 81 0 1.79 130 16:59 21.01.2020
400 Clear 6 1027 81 0 1.79 130 16:37 21.01.2020
401 Clouds 5 1027 86 10000 2.1 340 16:19 21.01.2020
402 Clouds 4 1027 86 10000 2.1 340 15:42 21.01.2020
403 Clouds 4 1027 86 10000 2.1 340 15:22 21.01.2020
404 Clouds 5 1027 75 10000 2.1 330 14:59 21.01.2020
405 Clouds 5 1027 75 10000 2.1 330 14:38 21.01.2020
406 Clouds 5 1027 75 10000 2.1 330 14:38 21.01.2020
407 Clouds 5 1027 75 10000 2.1 330 14:19 21.01.2020
408 Clear 5 1027 81 10000 2.1 130 13:40 21.01.2020
409 Clear 5 1027 81 10000 2.1 130 13:19 21.01.2020
410 Clear 7 1027 81 10000 2.1 140 12:44 21.01.2020
411 Clear 7 1027 81 10000 2.1 140 12:25 21.01.2020
412 Clear 7 1027 75 10000 2.1 140 11:57 21.01.2020
413 Clear 7 1027 75 10000 2.1 140 11:39 21.01.2020
414 Clear 7 1027 75 10000 2.1 140 11:21 21.01.2020
415 Clear 9 1026 61 10000 1 0 10:55 21.01.2020
416 Clear 9 1026 61 10000 1 0 10:37 21.01.2020
417 Clear 9 1026 61 10000 1 0 10:18 21.01.2020
418 Clear 11 1026 43 10000 2.6 150 09:41 21.01.2020
419 Clear 11 1026 43 10000 2.6 150 09:22 21.01.2020
420 Clear 12 1026 46 10000 2.1 200 08:49 21.01.2020
421 Clear 12 1026 46 10000 2.1 200 08:29 21.01.2020
422 Clear 12 1026 46 10000 2.1 250 07:59 21.01.2020
423 Clear 12 1026 46 10000 2.1 250 07:39 21.01.2020
424 Clear 12 1026 46 10000 2.1 250 07:21 21.01.2020
425 Clouds 11 1026 50 10000 4.1 160 06:48 21.01.2020
426 Clouds 11 1026 50 10000 4.1 160 06:25 21.01.2020
427 Clouds 11 1026 50 10000 1.5 0 05:42 21.01.2020
428 Clouds 11 1027 54 10000 3.1 20 04:39 21.01.2020
429 Clouds 9 1028 46 10000 5.1 360 02:56 21.01.2020
430 Clouds 6 1028 55 10000 1 0 01:51 21.01.2020
431 Clouds 4 1027 75 10000 1.5 80 00:57 21.01.2020
432 Clouds 4 1027 75 10000 1.5 80 00:35 21.01.2020
433 Clouds 4 1026 75 10000 0.5 0 23:57 20.01.2020
434 Clouds 4 1026 75 10000 0.5 0 23:37 20.01.2020
435 Clouds 4 1026 75 10000 0.5 0 23:18 20.01.2020
436 Clouds 4 1026 75 10000 0.5 0 23:18 20.01.2020
437 Clouds 4 1026 75 10000 1.5 70 22:56 20.01.2020
438 Clouds 4 1026 75 10000 1.5 70 22:37 20.01.2020
439 Clouds 4 1026 75 10000 1.5 70 22:18 20.01.2020
440 Clear 10 1022 53 0 3.58 290 21:57 20.01.2020
441 Clear 10 1022 53 0 3.58 290 21:36 20.01.2020
442 Clear 10 1022 53 0 3.58 290 21:18 20.01.2020
443 Clear 10 1022 53 0 3.58 290 20:55 20.01.2020
444 Clear 10 1022 53 0 3.58 290 20:36 20.01.2020
445 Clouds 9 1025 67 0 7.28 347 20:18 20.01.2020
446 Clouds 9 1025 67 0 7.28 347 20:18 20.01.2020
447 Clouds 9 1025 67 0 7.28 347 20:18 20.01.2020
448 -273 0 0 0 0 0 19:54 20.01.2020
449 Clouds 10 1022 53 0 3.58 290 19:54 20.01.2020
450 Clouds 10 1022 53 0 3.58 290 19:36 20.01.2020
451 Clouds 10 1022 53 0 3.58 290 19:18 20.01.2020
452 Clouds 10 1022 53 0 3.58 290 18:42 20.01.2020
453 Clouds 10 1022 53 0 3.58 290 18:21 20.01.2020
454 Clouds 10 1022 53 0 3.58 290 17:39 20.01.2020
455 Clear 10 1022 53 0 3.58 290 17:19 20.01.2020
456 Clear 10 1025 61 0 7.32 341 16:48 20.01.2020
457 Clouds 7 1024 65 10000 3.1 290 16:26 20.01.2020
458 Clouds 7 1024 65 10000 3.1 290 15:59 20.01.2020
459 Clouds 7 1024 65 10000 3.1 290 15:40 20.01.2020
460 Clouds 7 1024 65 10000 3.1 290 15:22 20.01.2020
461 Clouds 7 1023 75 10000 2.1 300 14:59 20.01.2020
462 Clouds 7 1023 75 10000 2.1 300 14:40 20.01.2020
463 Clouds 7 1023 75 10000 2.1 300 14:40 20.01.2020
464 Clouds 8 1023 75 10000 2.1 300 14:21 20.01.2020
465 Clouds 9 1022 53 10000 3.6 290 13:56 20.01.2020
466 Clouds 9 1022 53 10000 3.6 290 13:38 20.01.2020
467 Clouds 9 1022 53 10000 3.6 290 13:38 20.01.2020
468 Clouds 8 1022 53 10000 3.6 290 13:18 20.01.2020
469 Clouds 8 1022 57 10000 5.1 300 12:42 20.01.2020
470 Clouds 8 1022 57 10000 5.1 300 12:23 20.01.2020
471 Clouds 9 1022 57 10000 4.1 310 11:55 20.01.2020
472 Clouds 9 1022 57 10000 4.1 310 11:36 20.01.2020
473 Clouds 9 1022 57 10000 4.1 310 11:18 20.01.2020
474 Clouds 10 1021 53 10000 5.7 310 10:41 20.01.2020
475 Clouds 10 1021 53 10000 5.7 310 10:20 20.01.2020
476 Clouds 10 1021 53 10000 6.2 310 09:42 20.01.2020
477 Clouds 10 1021 53 10000 6.2 310 09:42 20.01.2020
478 Clouds 10 1021 53 10000 6.2 310 09:24 20.01.2020
479 Clouds 11 1020 53 10000 5.1 310 08:55 20.01.2020
480 Clouds 11 1020 53 10000 5.1 310 08:34 20.01.2020
481 Clouds 11 1020 53 10000 6.2 320 07:56 20.01.2020
482 Clouds 11 1020 53 10000 6.2 320 07:38 20.01.2020
483 Clouds 11 1020 53 10000 6.2 320 07:38 20.01.2020
484 Clouds 11 1020 53 10000 6.2 320 07:19 20.01.2020
485 Clouds 11 1020 53 10000 7.2 330 06:42 20.01.2020
486 Clouds 11 1020 53 10000 7.2 330 06:21 20.01.2020
487 Clouds 11 1021 50 10000 7.7 330 05:38 20.01.2020
488 Clouds 11 1021 50 10000 7.7 330 05:19 20.01.2020
489 Clouds 10 1022 57 10000 6.7 330 03:55 20.01.2020
490 Clouds 9 1021 61 10000 6.2 350 01:58 20.01.2020
491 Clouds 9 1021 61 10000 6.2 350 01:39 20.01.2020
492 Clouds 8 1021 61 10000 6.7 350 00:56 20.01.2020
493 Clouds 8 1021 61 10000 6.7 350 00:37 20.01.2020
494 Clouds 8 1021 61 10000 6.7 350 00:19 20.01.2020
495 Clouds 9 1020 61 10000 6.2 340 23:37 19.01.2020
496 Clouds 9 1020 61 10000 6.2 340 23:18 19.01.2020
497 Clouds 9 1020 57 10000 7.2 340 22:55 19.01.2020
498 Clouds 9 1020 57 10000 7.2 340 22:37 19.01.2020
499 Clouds 9 1020 57 10000 7.2 340 22:18 19.01.2020
500 Rain 9 1019 70 0 1.79 160 21:56 19.01.2020
501 Rain 9 1019 70 0 1.79 160 21:37 19.01.2020
502 Rain 9 1019 70 0 1.79 160 21:19 19.01.2020
503 Rain 9 1019 70 0 1.79 160 20:56 19.01.2020
504 Rain 9 1019 70 0 1.79 160 20:37 19.01.2020
505 Rain 9 1019 70 0 1.79 160 20:19 19.01.2020
506 Clouds 9 1019 70 0 1.79 160 19:55 19.01.2020
507 Clouds 9 1019 70 0 1.79 160 19:37 19.01.2020
508 Clouds 9 1019 70 0 1.79 160 19:19 19.01.2020
509 Clouds 9 1019 70 0 1.79 160 18:55 19.01.2020
510 Clouds 9 1019 70 0 1.79 160 18:37 19.01.2020
511 Clouds 9 1019 70 0 1.79 160 18:18 19.01.2020
512 Clouds 9 1019 70 0 1.79 160 18:18 19.01.2020
513 Clouds 9 1019 70 0 1.79 160 17:57 19.01.2020
514 Clouds 9 1019 70 0 1.79 160 17:38 19.01.2020
515 Rain 9 1019 70 0 1.79 160 17:19 19.01.2020
516 Rain 9 1019 70 0 1.79 160 16:55 19.01.2020
517 Rain 9 1019 70 0 1.79 160 16:36 19.01.2020
518 Clouds 9 1019 81 8000 2.6 340 16:18 19.01.2020
519 Clouds 9 1019 81 8000 2.6 340 15:54 19.01.2020
520 Clouds 8 1019 81 8000 2.6 340 15:36 19.01.2020
521 Clouds 8 1019 81 8000 2.6 340 15:18 19.01.2020
522 Clouds 8 1019 81 8000 2.6 340 15:18 19.01.2020
523 Clouds 8 1019 81 8000 2.6 340 15:18 19.01.2020
524 Clouds 9 1019 70 9000 2.1 190 14:40 19.01.2020
525 Clouds 9 1019 70 9000 2.1 190 14:20 19.01.2020
526 Clouds 9 1019 70 8000 2.1 160 13:59 19.01.2020
527 Clouds 9 1019 70 8000 2.1 160 13:40 19.01.2020
528 Clouds 9 1019 70 8000 2.1 160 13:21 19.01.2020
529 Clouds 10 1019 57 8000 1.5 60 12:59 19.01.2020
530 Clouds 10 1019 57 8000 1.5 60 12:40 19.01.2020
531 Clouds 10 1019 57 8000 1.5 60 12:21 19.01.2020
532 Clouds 9 1019 61 9000 2.1 20 11:57 19.01.2020
533 Clouds 9 1019 61 9000 2.1 20 11:37 19.01.2020
534 Clouds 9 1019 61 9000 2.1 20 11:18 19.01.2020
535 Clouds 10 1019 61 10000 5.7 340 10:40 19.01.2020
536 Clouds 10 1019 61 10000 5.7 340 10:20 19.01.2020
537 Clouds 10 1018 61 10000 4.1 340 09:57 19.01.2020
538 Clouds 10 1018 61 10000 4.1 340 09:38 19.01.2020
539 Clouds 10 1018 61 10000 4.1 340 09:19 19.01.2020
540 Clouds 10 1018 66 10000 4.1 340 08:55 19.01.2020
541 Clouds 10 1018 66 10000 4.1 340 08:32 19.01.2020
542 Rain 10 1018 66 10000 6.7 330 07:54 19.01.2020
543 Rain 10 1018 66 10000 6.7 330 07:28 19.01.2020
544 Clouds 10 1018 61 10000 6.2 330 06:55 19.01.2020
545 Clouds 10 1018 61 10000 6.2 330 06:22 19.01.2020
546 Clouds 9 1020 66 10000 5.7 310 03:55 19.01.2020
547 Clouds 8 1019 87 10000 0.5 0 02:33 19.01.2020
548 Rain 7 1019 87 10000 1.5 130 01:39 19.01.2020
549 Rain 7 1019 87 10000 1.5 130 01:19 19.01.2020
550 Clouds 6 1019 93 10000 1 0 00:44 19.01.2020
551 Mist 6 1019 100 3500 1 0 00:20 19.01.2020
552 Mist 5 1019 100 3500 1 0 23:45 18.01.2020
553 Clouds 5 1018 93 10000 0.5 120 23:25 18.01.2020
554 Rain 5 1018 93 10000 1.5 110 22:58 18.01.2020
555 Rain 5 1018 93 10000 1.5 110 22:40 18.01.2020
556 Rain 5 1018 93 10000 1.5 110 22:21 18.01.2020
557 Clouds 7 1017 87 0 1.34 120 21:58 18.01.2020
558 Clouds 7 1017 87 0 1.34 120 21:38 18.01.2020
559 Clouds 7 1017 87 0 1.34 120 21:20 18.01.2020
560 Clouds 7 1017 87 0 1.34 120 21:20 18.01.2020
561 Clouds 7 1017 87 0 1.34 120 20:55 18.01.2020
562 Clouds 7 1017 87 0 1.34 120 20:36 18.01.2020
563 Clouds 7 1017 87 0 1.34 120 20:18 18.01.2020
564 Clouds 7 1017 87 0 1.34 120 19:42 18.01.2020
565 Clouds 7 1017 87 0 1.34 120 19:24 18.01.2020
566 Clouds 7 1017 87 0 1.34 120 18:43 18.01.2020
567 Clouds 7 1017 87 0 1.34 120 18:24 18.01.2020
568 Clouds 7 1017 87 0 1.34 120 17:56 18.01.2020
569 Clouds 7 1017 87 0 1.34 120 17:38 18.01.2020
570 Clouds 7 1017 87 0 1.34 120 17:19 18.01.2020
571 Clouds 7 1017 87 0 1.34 120 16:55 18.01.2020
572 Clouds 7 1017 87 0 1.34 120 16:37 18.01.2020
573 Clouds 6 1018 93 10000 2.1 20 16:19 18.01.2020
574 Clouds 5 1018 93 10000 2.1 20 15:42 18.01.2020
575 Clouds 5 1018 93 10000 2.1 20 15:24 18.01.2020
576 Clouds 6 1017 93 10000 2.1 20 14:57 18.01.2020
577 Clouds 6 1017 93 10000 2.1 20 14:39 18.01.2020
578 Clouds 7 1017 93 10000 2.1 20 14:18 18.01.2020
579 Clouds 7 1017 87 10000 1.5 120 13:44 18.01.2020
580 Clouds 7 1017 87 10000 1.5 120 13:26 18.01.2020
581 Clouds 9 1017 81 10000 4.1 350 12:58 18.01.2020
582 Clouds 9 1017 81 10000 4.1 350 12:39 18.01.2020
583 Clouds 9 1017 81 10000 4.1 350 12:20 18.01.2020
584 Clouds 7 1017 93 10000 3.1 320 11:44 18.01.2020
585 Clouds 8 1017 93 10000 3.1 320 11:21 18.01.2020
586 Clouds 9 1016 81 10000 2.6 320 10:57 18.01.2020
587 Clouds 9 1016 81 10000 2.6 320 10:38 18.01.2020
588 Clouds 9 1016 81 10000 2.6 320 10:19 18.01.2020
589 Rain 9 1016 87 10000 5.1 360 09:42 18.01.2020
590 Rain 10 1014 76 10000 3.6 300 09:24 18.01.2020
591 Rain 10 1015 81 10000 4.1 300 08:55 18.01.2020
592 Rain 10 1015 81 10000 4.1 300 08:37 18.01.2020
593 Rain 10 1015 81 10000 4.1 300 08:18 18.01.2020
594 Rain 9 1015 87 10000 4.1 290 07:40 18.01.2020
595 Rain 9 1015 87 10000 4.1 290 07:21 18.01.2020
596 Rain 9 1015 81 10000 4.6 300 06:45 18.01.2020
597 Rain 10 1014 66 10000 7.7 320 05:55 18.01.2020
598 Clouds 13 1015 37 10000 5.7 310 04:29 18.01.2020
599 Clouds 11 1017 53 10000 5.1 330 02:49 18.01.2020
600 Clouds 8 1016 75 10000 1 0 01:47 18.01.2020
601 Clouds 5 1016 87 10000 0.5 0 00:40 18.01.2020
602 Clouds 5 1016 87 10000 0.5 0 00:21 18.01.2020
603 Clouds 6 1015 81 10000 0.5 210 23:59 17.01.2020
604 Clouds 6 1015 81 10000 0.5 210 23:40 17.01.2020
605 Clouds 6 1015 81 10000 0.5 210 23:40 17.01.2020
606 Clouds 6 1015 81 10000 0.5 210 23:18 17.01.2020
607 Clouds 6 1016 87 10000 1.5 40 22:42 17.01.2020
608 Clouds 6 1016 87 10000 1.5 40 22:20 17.01.2020
609 Clouds 9 1016 76 0 7.6 360 21:57 17.01.2020
610 Clouds 9 1016 76 0 7.6 360 21:38 17.01.2020
611 Clouds 9 1016 76 0 7.6 360 21:38 17.01.2020
612 Clouds 9 1016 76 0 7.6 360 21:20 17.01.2020
613 Clouds 9 1016 76 0 7.6 360 20:55 17.01.2020
614 Clouds 9 1016 76 0 7.6 360 20:36 17.01.2020
615 Rain 9 1016 76 0 7.6 360 20:18 17.01.2020
616 Rain 9 1016 76 0 7.6 360 19:54 17.01.2020
617 Rain 9 1016 76 0 7.6 360 19:36 17.01.2020
618 Rain 9 1014 76 0 7.6 360 19:18 17.01.2020
619 Rain 9 1016 76 0 7.6 360 18:41 17.01.2020
620 Rain 9 1016 76 0 7.6 360 18:23 17.01.2020
621 Rain 9 1016 76 0 7.6 360 17:54 17.01.2020
622 Rain 9 1016 76 0 7.6 360 17:36 17.01.2020
623 Rain 9 1016 76 0 7.6 360 17:18 17.01.2020
624 Rain 9 1016 76 0 7.6 360 16:41 17.01.2020
625 Clouds 8 1016 87 10000 3.6 290 16:19 17.01.2020
626 Clouds 8 1016 87 10000 3.6 290 15:45 17.01.2020
627 Clouds 8 1016 87 10000 3.6 290 15:26 17.01.2020
628 Clouds 8 1016 87 10000 5.1 300 14:46 17.01.2020
629 Clouds 8 1016 87 10000 5.1 300 14:27 17.01.2020
630 Rain 9 1016 76 10000 7.7 360 13:58 17.01.2020
631 Rain 9 1016 76 10000 7.7 360 13:58 17.01.2020
632 Rain 9 1016 76 10000 7.7 360 13:38 17.01.2020
633 Rain 9 1016 76 10000 7.7 360 13:19 17.01.2020
634 Clouds 9 1016 70 10000 6.7 350 12:44 17.01.2020
635 Clouds 9 1016 70 10000 6.7 350 12:22 17.01.2020
636 Clouds 9 1016 70 10000 7.2 350 11:40 17.01.2020
637 Clouds 9 1016 70 10000 7.2 350 11:19 17.01.2020
638 Clouds 11 1015 53 10000 7.2 360 10:44 17.01.2020
639 Clouds 11 1015 53 10000 7.2 360 10:23 17.01.2020
640 Clouds 11 1015 57 10000 6.7 340 09:58 17.01.2020
641 Clouds 11 1015 57 10000 6.7 340 09:39 17.01.2020
642 Clouds 11 1015 57 10000 6.7 340 09:39 17.01.2020
643 Clouds 11 1015 57 10000 6.7 340 09:19 17.01.2020
644 Clouds 12 1015 50 10000 6.2 340 08:43 17.01.2020
645 Clouds 12 1015 50 10000 6.2 340 08:25 17.01.2020
646 Clouds 13 1015 47 10000 5.7 340 07:54 17.01.2020
647 Clouds 12 1015 46 10000 2.6 270 07:31 17.01.2020
648 Clouds 12 1015 40 10000 7.2 330 06:58 17.01.2020
649 Clouds 12 1015 40 10000 7.2 330 06:40 17.01.2020
650 Clouds 12 1016 51 10000 6.7 330 05:53 17.01.2020
651 Clouds 10 1018 57 0 5.36 10 03:39 17.01.2020
652 Clouds 9 1018 66 0 5.36 10 02:47 17.01.2020
653 Clouds 7 1018 75 0 0.89 90 01:47 17.01.2020
654 Clouds 7 1019 81 0 2.24 140 01:28 17.01.2020
655 Clouds 7 1019 81 0 2.24 140 00:46 17.01.2020
656 Clouds 6 1019 87 10000 2.1 140 00:21 17.01.2020
657 Clouds 6 1019 87 10000 2.1 140 23:43 16.01.2020
658 Clouds 6 1019 87 10000 2.1 140 23:25 16.01.2020
659 Clouds 5 1019 81 10000 1.5 130 22:55 16.01.2020
660 Clouds 5 1019 81 10000 1.5 130 22:37 16.01.2020
661 Clouds 5 1019 81 10000 1.5 130 22:18 16.01.2020
662 Clouds 8 1021 65 0 1.79 120 21:54 16.01.2020
663 Clouds 8 1021 65 0 1.79 120 21:36 16.01.2020
664 Clouds 8 1021 65 0 1.79 120 21:18 16.01.2020
665 Clouds 8 1021 65 0 1.79 120 20:40 16.01.2020
666 Clouds 8 1021 65 0 1.79 120 20:21 16.01.2020
667 Clouds 8 1021 65 0 1.79 120 19:57 16.01.2020
668 Clouds 8 1021 65 0 1.79 120 19:39 16.01.2020
669 Clouds 8 1021 65 0 1.79 120 19:20 16.01.2020
670 Clouds 8 1021 65 0 1.79 120 18:57 16.01.2020
671 Clouds 8 1021 65 0 1.79 120 18:37 16.01.2020
672 Clouds 8 1021 65 0 1.79 120 18:18 16.01.2020
673 Clouds 8 1021 65 0 1.79 120 18:18 16.01.2020
674 Clouds 8 1021 65 0 1.79 120 17:56 16.01.2020
675 Clouds 8 1021 65 0 1.79 120 17:56 16.01.2020
676 Clouds 8 1021 65 0 1.79 120 17:38 16.01.2020
677 Rain 8 1021 65 0 1.79 120 17:20 16.01.2020
678 Rain 8 1021 65 0 1.79 120 16:40 16.01.2020
679 Clouds 7 1021 87 10000 1.5 350 16:21 16.01.2020
680 Clouds 7 1021 87 10000 1.5 350 15:56 16.01.2020
681 Clouds 7 1021 87 10000 1.5 350 15:38 16.01.2020
682 Clouds 7 1021 87 10000 1.5 350 15:38 16.01.2020
683 Clouds 7 1021 87 10000 1.5 350 15:19 16.01.2020
684 Clouds 7 1022 87 10000 2.1 330 14:42 16.01.2020
685 Clouds 7 1022 87 10000 2.1 330 14:23 16.01.2020
686 Clouds 7 1021 65 10000 2.1 120 13:47 16.01.2020
687 Clouds 7 1021 65 10000 2.1 120 13:29 16.01.2020
688 Clouds 8 1022 65 10000 2.1 140 12:57 16.01.2020
689 Clouds 8 1022 65 10000 2.1 140 12:39 16.01.2020
690 Clouds 8 1022 65 10000 2.1 140 12:20 16.01.2020
691 Clouds 8 1022 61 10000 2.6 150 11:42 16.01.2020
692 Clouds 8 1022 61 10000 2.6 150 11:42 16.01.2020
693 Clouds 8 1022 61 10000 2.6 150 11:24 16.01.2020
694 Rain 9 1021 57 10000 3.1 150 10:56 16.01.2020
695 Rain 9 1021 57 10000 3.1 150 10:37 16.01.2020
696 Rain 9 1021 57 10000 3.1 150 10:19 16.01.2020
697 Clouds 9 1021 57 10000 2.1 180 09:43 16.01.2020
698 Clouds 9 1021 57 10000 2.1 180 09:24 16.01.2020
699 Clouds 9 1021 80 10000 1 0 08:58 16.01.2020
700 Clouds 9 1021 80 10000 1 0 08:40 16.01.2020
701 Clouds 9 1021 73 10000 1 0 08:19 16.01.2020
702 Rain 9 1021 49 10000 1 0 07:42 16.01.2020
703 Rain 9 1021 49 10000 1 0 07:23 16.01.2020
704 Rain 9 1022 73 10000 1 0 06:52 16.01.2020
705 Rain 9 1022 73 10000 1 0 06:34 16.01.2020
706 Rain 8 1022 73 10000 1.5 160 05:49 16.01.2020
707 Clouds 8 1023 61 10000 1.5 130 04:50 16.01.2020
708 Clouds 7 1024 65 10000 2.1 150 03:56 16.01.2020
709 Clouds 6 1024 70 10000 4.1 140 02:46 16.01.2020
710 Clouds 5 1024 75 10000 3.1 150 01:32 16.01.2020
711 Clouds 5 1024 75 10000 3.1 140 00:43 16.01.2020
712 Clouds 5 1024 75 10000 3.1 140 00:43 16.01.2020
713 Clouds 5 1024 75 10000 3.1 140 00:23 16.01.2020
714 Clouds 5 1024 75 10000 1.5 130 23:44 15.01.2020
715 Clouds 5 1024 75 10000 1.5 130 23:44 15.01.2020
716 Clouds 5 1024 75 10000 1.5 130 23:22 15.01.2020
717 Clouds 5 1024 75 10000 1.5 130 23:22 15.01.2020
718 Clouds 5 1024 75 10000 1.5 130 23:21 15.01.2020
719 Clouds 5 1024 60 10000 0.5 0 22:56 15.01.2020
720 Clouds 5 1024 60 10000 0.5 0 22:37 15.01.2020
721 Clouds 5 1024 60 10000 0.5 0 22:18 15.01.2020
722 Clouds 5 1024 60 10000 0.5 0 22:18 15.01.2020
723 Clouds 6 1025 60 0 2.68 10 21:55 15.01.2020
724 Clouds 6 1025 60 0 2.68 10 21:36 15.01.2020
725 Clouds 6 1025 60 0 2.68 10 21:18 15.01.2020
726 Clouds 6 1025 60 0 2.68 10 20:54 15.01.2020
727 Clouds 6 1025 60 0 2.68 10 20:36 15.01.2020
728 Clouds 6 1025 55 0 2.68 10 20:18 15.01.2020
729 Clouds 6 1025 56 0 2.68 10 19:54 15.01.2020
730 Clouds 6 1025 56 0 2.68 10 19:36 15.01.2020
731 Clouds 6 1025 56 0 2.68 10 19:36 15.01.2020
732 Clouds 8 1024 56 0 3 12 19:18 15.01.2020
733 Clouds 8 1024 56 0 3 12 19:18 15.01.2020
734 Clouds 8 1024 56 0 3 12 18:54 15.01.2020
735 Clouds 8 1024 56 0 3 12 18:36 15.01.2020
736 Clouds 6 1025 56 0 2.68 10 18:18 15.01.2020
737 Clouds 6 1025 56 0 2.68 10 17:40 15.01.2020
738 Clouds 6 1025 56 0 2.68 10 17:40 15.01.2020
739 Clouds 6 1025 57 0 2.68 10 17:21 15.01.2020
740 Clouds 6 1025 57 0 2.68 10 16:56 15.01.2020
741 Clouds 6 1025 57 0 2.68 10 16:38 15.01.2020
742 Clouds 5 1025 57 10000 1.5 350 16:20 15.01.2020
743 Clouds 5 1025 57 10000 1.5 350 15:43 15.01.2020
744 Clouds 5 1025 57 10000 1.5 350 15:21 15.01.2020
745 Clouds 5 1025 57 10000 1.5 30 14:55 15.01.2020
746 Clouds 4 1025 57 10000 1.5 30 14:37 15.01.2020
747 Clouds 5 1025 59 10000 1.5 30 14:18 15.01.2020
748 Clouds 4 1025 59 10000 3.1 10 13:41 15.01.2020
749 Clouds 4 1025 57 10000 3.1 10 13:23 15.01.2020
750 Clouds 5 1025 60 10000 2.6 40 12:55 15.01.2020
751 Clouds 5 1025 60 10000 2.6 40 12:55 15.01.2020
752 Clouds 5 1025 60 10000 2.6 40 12:36 15.01.2020
753 Clouds 5 1025 60 10000 2.6 40 12:18 15.01.2020
754 Clouds 6 1025 60 10000 2.1 10 11:38 15.01.2020
755 Clouds 6 1025 60 10000 2.1 10 11:20 15.01.2020
756 Clouds 7 1025 56 10000 2.6 290 10:47 15.01.2020
757 Clouds 7 1025 56 10000 2.6 290 10:28 15.01.2020
758 Clouds 8 1024 52 10000 4.6 310 09:58 15.01.2020
759 Clouds 8 1024 52 10000 4.6 310 09:39 15.01.2020
760 Clouds 8 1024 52 10000 4.6 310 09:19 15.01.2020
761 Clouds 8 1024 58 10000 5.1 320 08:44 15.01.2020
762 Clouds 9 1024 57 10000 5.1 320 08:24 15.01.2020
763 Clouds 9 1023 49 10000 4.6 330 07:54 15.01.2020
764 Clouds 9 1023 49 10000 4.6 330 07:33 15.01.2020
765 Clouds 9 1023 45 10000 5.1 330 06:52 15.01.2020
766 Clouds 9 1023 45 10000 5.1 330 06:28 15.01.2020
767 Clouds 8 1025 49 10000 6.7 320 04:56 15.01.2020
768 Clouds 6 1026 56 10000 1.5 90 02:48 15.01.2020
769 Clouds 4 1026 75 10000 1.5 130 01:48 15.01.2020
770 Clouds 4 1026 75 10000 1.5 130 01:20 15.01.2020
771 Clouds 3 1025 56 10000 2.1 140 00:37 15.01.2020
772 Clouds 3 1025 56 10000 2.1 140 00:19 15.01.2020
773 Clouds 3 1024 56 10000 1 120 23:46 14.01.2020
774 Clouds 3 1024 56 10000 1 120 23:24 14.01.2020
775 Clouds 2 1024 86 10000 2.6 130 22:55 14.01.2020
776 Clouds 2 1024 86 10000 2.6 130 22:36 14.01.2020
777 Clouds 2 1024 86 10000 2.6 130 22:18 14.01.2020
778 Clouds 2 1024 86 10000 2.6 130 22:18 14.01.2020
779 Clouds 6 1023 75 0 2.24 20 21:55 14.01.2020
780 Clouds 6 1023 75 0 2.24 20 21:36 14.01.2020
781 Clouds 6 1023 75 0 2.24 20 21:18 14.01.2020
782 Clouds 6 1023 75 0 2.24 20 21:18 14.01.2020
783 Clouds 6 1023 75 0 2.24 20 20:42 14.01.2020
784 Clouds 6 1023 75 0 2.24 20 20:22 14.01.2020
785 Clouds 6 1023 75 0 2.24 20 19:56 14.01.2020
786 Clouds 6 1023 75 0 2.24 20 19:38 14.01.2020
787 Clouds 6 1023 75 0 2.24 20 19:19 14.01.2020
788 Clouds 6 1023 75 0 2.24 20 18:56 14.01.2020
789 Clouds 6 1023 75 0 2.24 20 18:38 14.01.2020
790 Clouds 6 1023 75 0 2.24 20 18:19 14.01.2020
791 Clouds 6 1023 75 0 2.24 20 18:19 14.01.2020
792 Clouds 6 1023 75 0 2.24 20 17:39 14.01.2020
793 Clouds 6 1023 75 0 2.24 20 17:19 14.01.2020
794 Clouds 6 1023 75 0 2.24 20 16:56 14.01.2020
795 Clouds 6 1023 75 0 2.24 20 16:38 14.01.2020
796 Clouds 5 1024 93 10000 1 90 16:19 14.01.2020
797 Clouds 5 1024 93 10000 1 90 15:43 14.01.2020
798 Clouds 5 1024 93 10000 1 90 15:19 14.01.2020
799 Clouds 4 1024 93 10000 0.5 80 14:59 14.01.2020
800 Clouds 4 1024 93 10000 0.5 80 14:41 14.01.2020
801 Clouds 5 1024 93 10000 0.5 80 14:19 14.01.2020
802 Clouds 6 1023 75 10000 2.6 20 13:42 14.01.2020
803 Clouds 6 1023 75 10000 2.6 20 13:20 14.01.2020
804 Clouds 6 1023 75 10000 8.7 340 12:56 14.01.2020
805 Clouds 6 1023 75 10000 8.7 340 12:56 14.01.2020
806 Clouds 6 1023 75 10000 8.7 340 12:38 14.01.2020
807 Clouds 6 1023 75 10000 8.7 340 12:20 14.01.2020
808 Clouds 6 1022 75 10000 5.7 10 11:41 14.01.2020
809 Clouds 6 1022 75 10000 5.7 10 11:22 14.01.2020
810 Clouds 7 1022 70 10000 7.2 360 10:56 14.01.2020
811 Clouds 7 1022 70 10000 7.2 360 10:38 14.01.2020
812 Clouds 7 1022 70 10000 7.2 360 10:19 14.01.2020
813 Clouds 8 1021 70 10000 5.1 360 09:55 14.01.2020
814 Clouds 8 1021 70 10000 5.1 360 09:37 14.01.2020
815 Clouds 8 1021 70 10000 5.1 360 09:19 14.01.2020
816 Clouds 8 1020 75 10000 2.6 160 08:41 14.01.2020
817 Clouds 8 1020 75 10000 2.6 160 08:41 14.01.2020
818 Clouds 8 1020 75 10000 2.6 160 08:41 14.01.2020
819 Clouds 8 1020 75 10000 2.6 160 08:22 14.01.2020
820 Rain 8 1020 75 10000 4.6 130 07:51 14.01.2020
821 Rain 8 1020 75 10000 4.6 130 07:25 14.01.2020
822 Rain 8 1020 70 10000 5.7 130 06:43 14.01.2020
823 Rain 8 1020 75 10000 5.1 130 05:59 14.01.2020
824 Rain 8 1021 66 10000 5.1 120 04:51 14.01.2020
825 Rain 8 1022 66 10000 3.1 340 03:47 14.01.2020
826 Clouds 7 1022 70 10000 3.1 320 02:39 14.01.2020
827 Clouds 7 1022 70 10000 1.5 320 01:21 14.01.2020
828 Clouds 6 1021 65 10000 1.5 210 00:48 14.01.2020
829 Clouds 6 1021 65 10000 1.5 210 00:21 14.01.2020
830 Clouds 5 1021 70 10000 2.6 110 23:44 13.01.2020
831 Clouds 6 1021 70 10000 2.6 110 23:19 13.01.2020
832 Clouds 5 1022 75 10000 2.1 120 22:57 13.01.2020
833 Clouds 5 1022 75 10000 2.1 120 22:39 13.01.2020
834 Clouds 5 1022 75 10000 2.1 120 22:19 13.01.2020
835 Clouds 7 1022 65 0 1.79 40 21:55 13.01.2020
836 Clouds 7 1022 65 0 1.79 40 21:36 13.01.2020
837 Clouds 7 1022 65 0 1.79 40 21:18 13.01.2020
838 Clouds 7 1022 65 0 1.79 40 20:55 13.01.2020
839 Clouds 7 1022 65 0 1.79 40 20:37 13.01.2020
840 Clouds 7 1022 65 0 1.79 40 20:37 13.01.2020
841 Clouds 7 1022 65 0 1.79 40 20:18 13.01.2020
842 Clouds 7 1022 65 0 1.79 40 19:41 13.01.2020
843 Clouds 7 1022 65 0 1.79 40 19:20 13.01.2020
844 Clouds 7 1022 65 0 1.79 40 18:58 13.01.2020
845 Clouds 7 1022 65 0 1.79 40 18:38 13.01.2020
846 Clouds 7 1022 65 0 1.79 40 18:38 13.01.2020
847 Clouds 7 1022 65 0 1.79 40 18:19 13.01.2020
848 Clouds 7 1022 65 0 1.79 40 18:19 13.01.2020
849 Clouds 7 1022 65 0 1.79 40 17:58 13.01.2020
850 Clouds 7 1022 65 0 1.79 40 17:38 13.01.2020
851 Clouds 7 1022 65 0 1.79 40 17:20 13.01.2020
852 Clouds 7 1022 65 0 1.79 40 17:20 13.01.2020
853 Clouds 7 1022 65 0 1.79 40 16:41 13.01.2020
854 Clouds 7 1022 65 0 1.79 40 16:22 13.01.2020
855 Clouds 7 1022 65 0 1.79 40 15:56 13.01.2020
856 Clouds 7 1022 65 0 1.79 40 15:38 13.01.2020
857 Clouds 7 1022 65 0 1.79 40 15:19 13.01.2020
858 Clouds 7 1022 65 0 1.79 40 14:42 13.01.2020
859 Clouds 7 1022 65 0 1.79 40 14:23 13.01.2020
860 Clouds 7 1022 65 0 1.79 40 13:58 13.01.2020
861 Clouds 7 1022 65 0 1.79 40 13:39 13.01.2020
862 Clouds 7 1022 65 0 1.79 40 13:21 13.01.2020
863 Clouds 7 1022 61 0 1.79 50 12:43 13.01.2020
864 Clouds 7 1022 61 10000 3.1 20 12:23 13.01.2020
865 Clouds 7 1022 61 10000 3.1 20 11:59 13.01.2020
866 Clouds 7 1022 61 10000 3.1 20 11:39 13.01.2020
867 Clouds 7 1022 62 10000 3.1 20 11:19 13.01.2020
868 Clouds 8 1021 62 10000 4.1 330 10:57 13.01.2020
869 Clouds 8 1021 62 10000 4.1 330 10:38 13.01.2020
870 Clouds 8 1021 62 10000 4.1 330 10:20 13.01.2020
871 Clouds 8 1021 62 10000 4.1 330 10:20 13.01.2020
872 Clouds 8 1021 62 10000 5.7 310 09:55 13.01.2020
873 Clouds 8 1021 62 10000 5.7 310 09:37 13.01.2020
874 Clouds 8 1021 62 10000 5.7 310 09:19 13.01.2020
875 Clouds 9 1021 62 10000 6.7 320 08:38 13.01.2020
876 Clouds 9 1021 63 10000 6.7 320 08:19 13.01.2020
877 Clouds 10 1020 43 10000 7.2 330 07:45 13.01.2020
878 Clouds 10 1020 43 10000 7.2 330 07:27 13.01.2020
879 Clouds 10 1020 63 10000 5.7 320 06:39 13.01.2020
880 Clouds 10 1020 63 10000 6.2 310 05:57 13.01.2020
881 Clouds 9 1020 66 10000 6.2 310 05:19 13.01.2020
882 Clouds 9 1022 57 10000 5.7 310 03:46 13.01.2020
883 Clouds 9 1022 49 10000 4.6 310 02:51 13.01.2020
884 Clouds 9 1022 49 10000 4.6 310 02:30 13.01.2020
885 Clouds 8 1021 57 10000 6.2 320 01:33 13.01.2020
886 Clouds 8 1020 65 10000 5.1 310 00:55 13.01.2020
887 Clouds 8 1020 65 10000 5.1 310 00:36 13.01.2020
888 Clouds 8 1020 65 10000 5.1 310 00:18 13.01.2020
889 Clouds 7 1020 52 10000 4.6 310 23:40 12.01.2020
890 Clouds 7 1020 52 10000 4.6 310 23:21 12.01.2020
891 Clouds 7 1020 66 10000 6.2 300 22:56 12.01.2020
892 Clouds 7 1020 66 10000 6.2 300 22:37 12.01.2020
893 Clouds 7 1020 66 10000 6.2 300 22:19 12.01.2020
894 Clouds 8 1017 61 0 5.36 300 21:42 12.01.2020
895 Clouds 8 1017 61 0 5.36 300 21:20 12.01.2020
896 Clouds 8 1017 61 0 5.36 300 20:59 12.01.2020
897 Clouds 8 1017 61 0 5.36 300 20:59 12.01.2020
898 Clouds 8 1017 61 0 5.36 300 20:40 12.01.2020
899 Clouds 8 1017 61 0 5.36 300 20:21 12.01.2020
900 Clouds 8 1017 61 0 5.36 300 19:57 12.01.2020
901 Clouds 8 1017 61 0 5.36 300 19:39 12.01.2020
902 Clouds 8 1017 61 0 5.36 300 19:19 12.01.2020
903 Clouds 8 1017 61 0 5.36 300 19:19 12.01.2020
904 Clouds 8 1017 61 0 5.36 300 19:19 12.01.2020
905 Clouds 8 1017 61 0 5.36 300 18:58 12.01.2020
906 Clouds 8 1017 61 0 5.36 300 18:40 12.01.2020
907 Clouds 8 1017 61 0 5.36 300 18:22 12.01.2020
908 Clouds 8 1017 61 0 5.36 300 17:59 12.01.2020
909 Clouds 8 1017 61 0 5.36 300 17:40 12.01.2020
910 Clouds 8 1017 61 0 5.36 300 17:19 12.01.2020
911 Clouds 8 1017 61 0 5.36 300 16:56 12.01.2020
912 Clouds 8 1017 61 0 5.36 300 16:37 12.01.2020
913 Clouds 8 1018 61 10000 6.2 270 16:19 12.01.2020
914 Clouds 8 1018 61 10000 6.2 270 15:43 12.01.2020
915 Clouds 8 1018 61 10000 6.2 270 15:24 12.01.2020
916 Clouds 8 1017 61 10000 5.7 270 14:57 12.01.2020
917 Clouds 8 1017 61 10000 5.7 270 14:38 12.01.2020
918 Clouds 8 1017 61 10000 5.7 270 14:19 12.01.2020
919 Clouds 8 1017 61 10000 5.7 300 13:44 12.01.2020
920 Clouds 8 1017 61 10000 5.7 300 13:25 12.01.2020
921 Clouds 8 1017 61 10000 5.7 300 12:59 12.01.2020
922 Clouds 8 1017 61 10000 5.7 300 12:39 12.01.2020
923 Clouds 8 1017 61 10000 5.7 300 12:20 12.01.2020
924 Clouds 9 1016 66 10000 6.7 310 11:58 12.01.2020
925 Clouds 9 1016 66 10000 6.7 310 11:38 12.01.2020
926 Clouds 9 1016 68 10000 6.7 310 11:19 12.01.2020
927 Clouds 9 1016 68 10000 7.7 310 10:41 12.01.2020
928 Clouds 9 1016 68 10000 7.7 310 10:41 12.01.2020
929 Clouds 9 1016 68 10000 7.7 310 10:22 12.01.2020
930 Clouds 9 1015 57 10000 7.2 310 09:57 12.01.2020
931 Clouds 9 1015 57 10000 7.2 310 09:38 12.01.2020
932 Clouds 9 1015 57 10000 7.2 310 09:18 12.01.2020
933 Clouds 9 1015 57 10000 7.2 310 08:44 12.01.2020
934 Clouds 9 1015 57 10000 7.2 310 08:20 12.01.2020
935 Clouds 9 1014 57 10000 7.7 310 07:40 12.01.2020
936 Clouds 9 1014 57 10000 7.7 310 07:22 12.01.2020
937 Clouds 9 1014 61 10000 6.2 310 06:43 12.01.2020
938 Clouds 9 1014 61 10000 6.2 310 06:24 12.01.2020
939 Clouds 9 1014 61 10000 6.7 300 05:24 12.01.2020
940 Clouds 9 1016 66 10000 6.7 300 03:55 12.01.2020
941 Clouds 9 1016 66 10000 6.7 300 03:22 12.01.2020
942 Clouds 10 1015 61 10000 6.7 300 02:33 12.01.2020
943 Clouds 10 1014 71 10000 5.1 290 01:43 12.01.2020
944 Clouds 10 1014 71 10000 5.1 290 01:22 12.01.2020
945 Clouds 9 1014 66 10000 3.6 310 00:40 12.01.2020
946 Clouds 9 1014 66 10000 3.6 310 00:20 12.01.2020
947 Clouds 9 1014 81 10000 2.6 0 23:42 11.01.2020
948 Clouds 9 1014 81 10000 2.6 0 23:19 11.01.2020
949 Rain 9 1014 87 10000 3.13 0 22:58 11.01.2020
950 Rain 9 1014 87 10000 3.13 0 22:39 11.01.2020
951 Rain 9 1014 87 10000 3.13 0 22:20 11.01.2020
952 Rain 11 1015 66 0 3.13 0 21:58 11.01.2020
953 Rain 11 1015 66 0 3.13 0 21:39 11.01.2020
954 Rain 11 1015 66 0 3.13 0 21:18 11.01.2020
955 Rain 11 1015 66 0 3.13 0 20:40 11.01.2020
956 Rain 11 1015 66 0 6.7 327 20:22 11.01.2020
957 Rain 11 1015 66 0 6.7 327 19:58 11.01.2020
958 Rain 11 1015 66 0 6.7 327 19:38 11.01.2020
959 Rain 11 1015 66 0 6.7 327 19:20 11.01.2020
960 Rain 11 1015 66 0 6.7 327 18:58 11.01.2020
961 Rain 11 1015 66 0 6.7 327 18:38 11.01.2020
962 Rain 11 1015 66 0 6.7 327 18:19 11.01.2020
963 Rain 11 1015 66 0 6.7 327 17:57 11.01.2020
964 Rain 11 1015 66 0 6.7 327 17:39 11.01.2020
965 Clouds 11 1015 66 0 6.05 322 17:19 11.01.2020
966 Clouds 11 1015 66 0 6.05 322 16:44 11.01.2020
967 Clouds 9 1014 76 10000 1.5 350 16:26 11.01.2020
968 Clouds 10 1014 76 10000 1.5 350 15:58 11.01.2020
969 Clouds 10 1014 76 10000 1.5 350 15:40 11.01.2020
970 Clouds 10 1014 76 10000 1.5 350 15:20 11.01.2020
971 Clouds 10 1015 71 10000 1.5 300 14:56 11.01.2020
972 Clouds 10 1015 71 10000 1.5 300 14:37 11.01.2020
973 Clouds 11 1015 71 10000 1.5 300 14:19 11.01.2020
974 Clouds 11 1015 66 10000 0.5 0 13:38 11.01.2020
975 Clouds 11 1015 66 10000 0.5 0 13:20 11.01.2020
976 Clouds 11 1015 62 10000 1.5 10 12:56 11.01.2020
977 Clouds 11 1015 62 10000 1.5 10 12:37 11.01.2020
978 Clouds 11 1015 62 10000 1.5 10 12:19 11.01.2020
979 Clouds 12 1015 54 10000 4.1 340 11:45 11.01.2020
980 Clouds 12 1015 54 10000 4.1 340 11:24 11.01.2020
981 Clouds 12 1015 54 10000 4.1 310 10:50 11.01.2020
982 Clouds 12 1015 54 10000 4.1 310 10:30 11.01.2020
983 Clouds 12 1015 58 10000 1.5 300 09:44 11.01.2020
984 Clouds 12 1015 58 10000 1.5 300 09:21 11.01.2020
985 Clouds 12 1015 58 10000 1.5 300 09:21 11.01.2020
986 Clouds 12 1015 58 10000 1.5 300 09:21 11.01.2020
987 Clouds 12 1015 58 10000 1.5 300 09:21 11.01.2020
988 Clouds 13 1014 47 10000 2.1 320 08:59 11.01.2020
989 Clouds 13 1014 47 10000 2.1 320 08:40 11.01.2020
990 Clouds 13 1014 47 10000 2.1 320 08:19 11.01.2020
991 Clouds 13 1014 44 10000 2.6 340 07:43 11.01.2020
992 Clouds 13 1014 44 10000 2.6 340 07:24 11.01.2020
993 Clouds 13 1015 41 10000 3.6 340 06:43 11.01.2020
994 Clouds 12 1016 54 10000 1.5 0 05:30 11.01.2020
995 Clouds 11 1017 58 10000 1 0 04:42 11.01.2020
996 Clouds 11 1017 58 10000 1 0 04:24 11.01.2020
997 Clouds 9 1018 71 10000 4.1 140 02:48 11.01.2020
998 Clouds 8 1018 76 10000 0.5 0 01:47 11.01.2020
999 Clouds 8 1018 76 10000 0.5 0 01:28 11.01.2020
1000 Clouds 7 1018 81 10000 1.5 110 00:54 11.01.2020
1001 Clouds 7 1018 81 10000 1.5 110 00:29 11.01.2020
1002 Clouds 7 1018 87 10000 1.5 130 23:59 10.01.2020
1003 Clouds 7 1018 87 10000 1.5 130 23:39 10.01.2020
1004 Clouds 7 1018 87 10000 1.5 130 23:20 10.01.2020
1005 Clouds 7 1018 87 10000 0.5 0 22:41 10.01.2020
1006 Clouds 7 1018 87 10000 0.5 0 22:22 10.01.2020
1007 Clouds 7 1019 75 0 1.34 360 21:59 10.01.2020
1008 Clouds 7 1019 75 0 1.34 360 21:41 10.01.2020
1009 Clouds 7 1019 75 0 1.34 360 21:20 10.01.2020
1010 Clouds 7 1019 75 0 1.34 360 20:57 10.01.2020
1011 Clouds 7 1019 75 0 1.34 360 20:38 10.01.2020
1012 Clouds 7 1019 75 0 1.34 360 20:38 10.01.2020
1013 Clouds 7 1019 75 0 1.34 360 20:20 10.01.2020
1014 Clouds 7 1019 75 0 1.34 360 19:41 10.01.2020
1015 Clouds 7 1019 75 0 1.34 360 19:21 10.01.2020
1016 Clouds 7 1019 75 0 1.34 360 18:56 10.01.2020
1017 Clouds 7 1019 75 0 1.34 360 18:37 10.01.2020
1018 Clouds 7 1019 75 0 1.34 360 18:18 10.01.2020
1019 Clouds 7 1019 75 0 1.34 360 17:56 10.01.2020
1020 Clouds 7 1019 75 0 1.34 360 17:38 10.01.2020
1021 Clouds 7 1019 75 0 1.34 360 17:19 10.01.2020
1022 Clouds 7 1019 75 0 1.34 360 17:19 10.01.2020
1023 Clouds 7 1019 75 0 1.34 360 16:42 10.01.2020
1024 Clouds 6 1018 86 10000 2.6 330 16:21 10.01.2020
1025 Clouds 6 1018 86 10000 2.6 330 16:21 10.01.2020
1026 Clouds 6 1018 86 10000 2.6 330 15:57 10.01.2020
1027 Clouds 6 1018 86 10000 2.6 330 15:38 10.01.2020
1028 Clouds 6 1018 86 10000 2.6 330 15:19 10.01.2020
1029 Clouds 7 1018 75 10000 1 330 14:58 10.01.2020
1030 Clouds 7 1018 75 10000 1 330 14:40 10.01.2020
1031 Clouds 7 1018 75 10000 1 330 14:19 10.01.2020
1032 Clouds 7 1019 75 10000 1.5 360 13:56 10.01.2020
1033 Clouds 7 1019 75 10000 1.5 360 13:37 10.01.2020
1034 Clouds 7 1019 75 10000 1.5 360 13:18 10.01.2020
1035 Clouds 9 1019 70 10000 1.5 40 12:56 10.01.2020
1036 Clouds 9 1019 70 10000 1.5 40 12:38 10.01.2020
1037 Clouds 9 1019 70 10000 1.5 40 12:18 10.01.2020
1038 Clouds 9 1019 61 10000 3.1 20 11:42 10.01.2020
1039 Clouds 9 1019 61 10000 3.1 20 11:42 10.01.2020
1040 Clouds 9 1019 61 10000 3.1 20 11:22 10.01.2020
1041 Clear 11 1018 62 10000 4.6 350 10:59 10.01.2020
1042 Clear 11 1018 62 10000 4.6 350 10:38 10.01.2020
1043 Clear 11 1018 62 10000 4.6 350 10:19 10.01.2020
1044 Clear 12 1018 54 10000 3.1 310 09:46 10.01.2020
1045 Clear 12 1018 54 10000 3.1 310 09:26 10.01.2020
1046 Clear 13 1018 47 10000 3.6 310 08:58 10.01.2020
1047 Clear 13 1018 47 10000 3.6 310 08:38 10.01.2020
1048 Clear 13 1018 47 10000 3.6 310 08:20 10.01.2020
1049 Clear 13 1017 50 10000 4.6 310 07:41 10.01.2020
1050 Clear 13 1017 50 10000 4.6 310 07:21 10.01.2020
1051 Clear 13 1017 47 10000 5.1 330 06:41 10.01.2020
1052 Clear 13 1017 47 10000 5.1 330 06:23 10.01.2020
1053 Clear 13 1018 47 10000 6.2 320 05:25 10.01.2020
1054 Clouds 11 1021 50 10000 2.1 340 03:32 10.01.2020
1055 Clear 9 1021 57 10000 2.1 350 02:53 10.01.2020
1056 Clear 9 1021 57 10000 2.1 350 02:33 10.01.2020
1057 Clouds 7 1021 65 10000 0.5 0 01:32 10.01.2020
1058 Clouds 5 1020 81 10000 6.24 33 00:51 10.01.2020
1059 Clouds 5 1020 81 10000 6.24 33 00:33 10.01.2020
1060 Clouds 5 1020 75 10000 1.5 90 23:57 09.01.2020
1061 Clouds 5 1020 75 10000 1.5 90 23:57 09.01.2020
1062 Clouds 5 1020 75 10000 1.5 90 23:36 09.01.2020
1063 Clouds 5 1020 75 10000 1.5 90 23:18 09.01.2020
1064 Clouds 6 1020 75 10000 1 0 22:56 09.01.2020
1065 Clouds 6 1020 75 10000 1 0 22:37 09.01.2020
1066 Clouds 6 1020 75 10000 1 0 22:18 09.01.2020
1067 Clouds 10 1020 66 0 2.24 350 21:55 09.01.2020
1068 Clouds 10 1020 66 0 2.24 350 21:37 09.01.2020
1069 Clouds 10 1020 66 0 2.24 350 21:18 09.01.2020
1070 Clouds 10 1020 66 0 2.24 350 20:54 09.01.2020
1071 Clouds 10 1020 66 0 2.24 350 20:36 09.01.2020
1072 Clouds 10 1020 66 0 2.24 350 20:18 09.01.2020
1073 Clouds 10 1020 66 0 2.24 350 19:39 09.01.2020
1074 Clouds 10 1020 66 0 2.24 350 19:20 09.01.2020
1075 Clouds 10 1020 66 0 2.24 350 18:57 09.01.2020
1076 Clouds 10 1020 66 0 2.24 350 18:39 09.01.2020
1077 Clouds 10 1020 66 0 2.24 350 18:20 09.01.2020
1078 Clouds 10 1020 66 0 2.24 350 17:41 09.01.2020
1079 Clouds 10 1020 66 0 2.24 350 17:41 09.01.2020
1080 Clouds 10 1020 66 0 2.24 350 17:19 09.01.2020
1081 Clouds 10 1020 66 0 2.24 350 16:58 09.01.2020
1082 Clouds 10 1020 66 0 2.24 350 16:39 09.01.2020
1083 Clouds 9 1019 87 10000 2.1 320 16:20 09.01.2020
1084 Clouds 9 1019 87 10000 2.1 320 15:43 09.01.2020
1085 Clouds 9 1019 87 10000 2.1 320 15:22 09.01.2020
1086 Clouds 9 1020 76 10000 1.5 280 14:58 09.01.2020
1087 Clouds 9 1020 76 10000 1.5 280 14:39 09.01.2020
1088 Clouds 10 1020 76 10000 1.5 280 14:19 09.01.2020
1089 Clouds 10 1020 66 10000 2.6 350 13:55 09.01.2020
1090 Clouds 10 1020 66 10000 2.6 350 13:37 09.01.2020
1091 Clouds 10 1020 66 10000 2.6 350 13:18 09.01.2020
1092 Clouds 10 1020 66 10000 3.1 360 12:42 09.01.2020
1093 Clouds 10 1020 66 10000 3.1 360 12:24 09.01.2020
1094 Clouds 10 1020 61 10000 5.7 340 11:59 09.01.2020
1095 Clouds 10 1020 61 10000 5.7 340 11:41 09.01.2020
1096 Clouds 10 1020 61 10000 5.7 340 11:23 09.01.2020
1097 Clouds 10 1020 66 10000 5.1 320 10:57 09.01.2020
1098 Clouds 10 1020 66 10000 5.1 320 10:39 09.01.2020
1099 Clouds 10 1020 66 10000 5.1 320 10:20 09.01.2020
1100 Clouds 11 1019 62 10000 4.6 300 09:41 09.01.2020
1101 Clouds 11 1019 62 10000 4.6 300 09:41 09.01.2020
1102 Clouds 11 1019 62 10000 4.6 300 09:41 09.01.2020
1103 Clouds 11 1019 62 10000 4.6 300 09:23 09.01.2020
1104 Clouds 11 1019 66 10000 4.1 300 08:57 09.01.2020
1105 Clouds 11 1019 66 10000 4.1 300 08:38 09.01.2020
1106 Clouds 12 1019 66 10000 4.1 300 08:19 09.01.2020
1107 Clouds 12 1019 62 10000 5.1 320 07:45 09.01.2020
1108 Clouds 12 1019 62 10000 5.1 320 07:27 09.01.2020
1109 Clouds 12 1019 58 10000 4.6 320 06:39 09.01.2020
1110 Clouds 12 1019 58 10000 4.6 320 06:21 09.01.2020
1111 Clouds 12 1019 62 10000 3.1 340 05:50 09.01.2020
1112 Clouds 11 1020 62 10000 3.6 330 04:46 09.01.2020
1113 Clouds 10 1021 66 10000 4.1 330 03:55 09.01.2020
1114 Clouds 10 1021 66 10000 4.1 330 03:26 09.01.2020
1115 Clouds 10 1021 66 10000 4.6 330 02:33 09.01.2020
1116 Clouds 10 1020 66 10000 3.6 350 01:41 09.01.2020
1117 Clouds 10 1020 66 10000 4.6 340 00:44 09.01.2020
1118 Clouds 10 1020 66 10000 4.6 340 00:23 09.01.2020
1119 Clouds 10 1020 66 10000 3.6 340 23:58 08.01.2020
1120 Clouds 10 1020 66 10000 3.6 340 23:38 08.01.2020
1121 Clouds 10 1020 66 10000 3.6 340 23:19 08.01.2020
1122 Clouds 10 1020 66 10000 5.1 320 22:40 08.01.2020
1123 Clouds 10 1019 76 10000 3.6 280 22:21 08.01.2020
1124 Clouds 10 1019 61 0 4.47 320 21:58 08.01.2020
1125 Clouds 10 1019 61 0 4.47 320 21:39 08.01.2020
1126 Clouds 10 1019 61 0 4.47 320 21:20 08.01.2020
1127 Clouds 10 1019 61 0 4.47 320 20:58 08.01.2020
1128 Clouds 10 1019 61 0 4.47 320 20:40 08.01.2020
1129 Clouds 10 1019 61 0 4.47 320 20:20 08.01.2020
1130 Clouds 10 1019 61 0 4.47 320 20:20 08.01.2020
1131 Clouds 10 1019 61 0 4.47 320 19:57 08.01.2020
1132 Clouds 10 1019 61 0 4.47 320 19:37 08.01.2020
1133 Clouds 10 1019 61 0 4.47 320 19:19 08.01.2020
1134 Clouds 10 1019 61 0 4.47 320 18:56 08.01.2020
1135 Clouds 10 1019 61 0 4.47 320 18:37 08.01.2020
1136 Clouds 10 1019 61 0 4.47 320 18:18 08.01.2020
1137 Clouds 10 1019 61 0 4.47 320 17:55 08.01.2020
1138 Clouds 10 1019 61 0 4.47 320 17:36 08.01.2020
1139 Clouds 10 1019 61 0 4.47 320 17:18 08.01.2020
1140 Clouds 10 1019 61 0 4.47 320 17:18 08.01.2020
1141 Clouds 10 1019 61 0 4.47 320 16:54 08.01.2020
1142 Clouds 10 1019 61 0 4.47 320 16:36 08.01.2020
1143 Clouds 9 1019 76 10000 6.2 270 16:18 08.01.2020
1144 Clouds 9 1019 76 10000 6.2 270 15:40 08.01.2020
1145 Clouds 10 1019 76 10000 6.2 270 15:20 08.01.2020
1146 Clouds 9 1019 70 10000 5.7 260 14:56 08.01.2020
1147 Clouds 9 1019 70 10000 5.7 260 14:38 08.01.2020
1148 Clouds 10 1019 70 10000 5.7 260 14:19 08.01.2020
1149 Clouds 10 1019 61 10000 4.6 320 13:40 08.01.2020
1150 Clouds 10 1019 61 10000 4.6 320 13:19 08.01.2020
1151 Clouds 10 1019 61 10000 6.2 310 12:42 08.01.2020
1152 Clouds 10 1019 61 10000 6.2 310 12:19 08.01.2020
1153 Clouds 10 1018 61 10000 7.7 310 11:55 08.01.2020
1154 Clouds 10 1018 61 10000 7.7 310 11:37 08.01.2020
1155 Clouds 10 1018 61 10000 7.7 310 11:18 08.01.2020
1156 Clouds 10 1018 61 10000 4.6 300 10:54 08.01.2020
1157 Clouds 10 1018 61 10000 4.6 300 10:36 08.01.2020
1158 Clouds 10 1018 61 10000 4.6 300 10:18 08.01.2020
1159 Clouds 10 1017 66 10000 8.2 310 09:41 08.01.2020
1160 Clouds 10 1017 66 10000 8.2 310 09:19 08.01.2020
1161 Clouds 11 1017 62 10000 9.3 300 08:56 08.01.2020
1162 Clouds 11 1017 62 10000 9.3 300 08:37 08.01.2020
1163 Clouds 11 1017 62 10000 9.3 300 08:18 08.01.2020
1164 Clouds 12 1016 66 10000 8.7 300 07:47 08.01.2020
1165 Clouds 12 1016 66 10000 8.7 300 07:29 08.01.2020
1166 Clouds 13 1016 54 10000 8.7 300 06:44 08.01.2020
1167 Clouds 13 1015 71 10000 6.2 290 05:59 08.01.2020
1168 Clouds 13 1015 71 10000 6.2 290 05:38 08.01.2020
1169 Rain 12 1015 76 10000 5.7 280 04:54 08.01.2020
1170 Rain 13 1016 66 10000 6.7 300 03:33 08.01.2020
1171 Rain 13 1015 66 10000 6.2 300 02:44 08.01.2020
1172 Rain 13 1015 66 10000 6.2 300 02:19 08.01.2020
1173 Rain 12 1014 76 10000 7.2 300 01:40 08.01.2020
1174 Clouds 13 1013 71 10000 7.7 260 00:54 08.01.2020
1175 Rain 13 1013 71 10000 6.7 300 00:26 08.01.2020
1176 Rain 13 1012 76 10000 8.2 280 23:47 07.01.2020
1177 Rain 13 1012 76 10000 8.2 280 23:22 07.01.2020
1178 Rain 14 1011 67 10000 6.2 270 22:58 07.01.2020
1179 Rain 14 1011 67 10000 6.2 270 22:39 07.01.2020
1180 Clouds 13 1010 82 10000 8.2 270 22:19 07.01.2020
1181 Rain 15 1012 70 0 15.5 271 21:54 07.01.2020
1182 Rain 15 1012 70 0 15.5 271 21:36 07.01.2020
1183 Rain 15 1012 70 0 15.5 271 21:36 07.01.2020
1184 Rain 15 1012 70 0 15.5 271 21:18 07.01.2020
1185 Rain 15 1012 70 0 15.5 271 20:41 07.01.2020
1186 Rain 18 1011 88 0 10.28 180 20:23 07.01.2020
1187 Rain 18 1011 88 0 10.28 180 19:59 07.01.2020
1188 Rain 18 1011 88 0 10.28 180 19:38 07.01.2020
1189 Rain 18 1011 88 0 10.28 180 19:19 07.01.2020
1190 Rain 18 1011 88 0 10.28 180 18:57 07.01.2020
1191 Rain 18 1011 88 0 10.28 180 18:38 07.01.2020
1192 Rain 18 1011 88 0 10.28 180 18:18 07.01.2020
1193 Rain 18 1011 88 0 10.28 180 17:57 07.01.2020
1194 Rain 18 1011 88 0 10.28 180 17:37 07.01.2020
1195 Rain 18 1011 88 0 10.28 180 17:19 07.01.2020
1196 Rain 18 1011 88 0 10.28 180 16:55 07.01.2020
1197 Rain 18 1011 88 0 10.28 180 16:37 07.01.2020
1198 Rain 17 1009 87 10000 9.8 140 16:18 07.01.2020
1199 Rain 17 1009 87 10000 9.8 140 15:43 07.01.2020
1200 Rain 17 1009 87 10000 9.8 140 15:24 07.01.2020
1201 Rain 17 1011 88 6000 10.3 180 14:58 07.01.2020
1202 Rain 17 1011 88 6000 10.3 180 14:40 07.01.2020
1203 Rain 17 1011 88 6000 10.3 180 14:21 07.01.2020
1204 Clouds 18 1012 77 10000 7.7 180 13:46 07.01.2020
1205 Rain 18 1012 77 10000 8.2 170 13:21 07.01.2020
1206 Clouds 17 1013 77 10000 9.3 170 12:56 07.01.2020
1207 Clouds 17 1013 77 10000 9.3 170 12:38 07.01.2020
1208 Clouds 17 1013 77 10000 8.7 160 12:19 07.01.2020
1209 Clouds 17 1014 77 10000 8.7 170 11:41 07.01.2020
1210 Clouds 17 1014 77 10000 8.7 170 11:23 07.01.2020
1211 Clouds 17 1015 72 10000 7.7 170 10:57 07.01.2020
1212 Clouds 17 1015 72 10000 7.7 170 10:39 07.01.2020
1213 Clouds 17 1015 72 10000 7.7 170 10:39 07.01.2020
1214 Clouds 17 1015 72 10000 7.7 170 10:39 07.01.2020
1215 Clouds 17 1015 72 10000 7.7 170 10:39 07.01.2020
1216 Clouds 17 1015 77 10000 7.7 170 10:21 07.01.2020
1217 Clouds 18 1015 72 10000 7.2 170 09:39 07.01.2020
1218 Clouds 18 1015 72 10000 7.2 170 09:21 07.01.2020
1219 Clouds 18 1015 72 10000 5.7 180 08:59 07.01.2020
1220 Clouds 18 1015 72 10000 5.7 180 08:41 07.01.2020
1221 Clouds 18 1015 72 10000 5.7 180 08:18 07.01.2020
1222 Clouds 17 1016 82 10000 3.6 160 07:47 07.01.2020
1223 Clouds 17 1016 82 10000 3.6 160 07:20 07.01.2020
1224 Rain 16 1016 82 10000 4.1 160 06:49 07.01.2020
1225 Rain 16 1016 82 10000 4.1 160 06:29 07.01.2020
1226 Rain 16 1017 82 10000 3.1 170 05:41 07.01.2020
1227 Rain 15 1019 93 8000 5.1 130 03:47 07.01.2020
1228 Rain 14 1019 93 8000 5.1 130 03:25 07.01.2020
1229 Rain 14 1020 93 10000 6.2 120 02:19 07.01.2020
1230 Rain 14 1020 93 6000 4.6 120 01:40 07.01.2020
1231 Rain 13 1019 93 10000 5.1 130 00:58 07.01.2020
1232 Rain 13 1019 93 10000 5.1 130 00:21 07.01.2020
1233 Rain 13 1019 93 10000 5.1 130 00:21 07.01.2020
1234 Rain 13 1019 93 10000 5.1 130 00:21 07.01.2020
1235 Rain 13 1020 87 10000 3.6 120 23:57 06.01.2020
1236 Rain 13 1020 87 10000 3.6 120 23:37 06.01.2020
1237 Rain 13 1020 87 10000 3.6 120 23:19 06.01.2020
1238 Rain 13 1020 87 9000 4.1 110 22:44 06.01.2020
1239 Rain 13 1020 87 9000 4.1 110 22:44 06.01.2020
1240 Clouds 12 1020 87 10000 1 60 22:25 06.01.2020
1241 Clouds 12 1023 71 0 7.15 150 21:58 06.01.2020
1242 Clouds 12 1023 71 0 7.15 150 21:39 06.01.2020
1243 Clouds 12 1023 71 0 7.15 150 21:20 06.01.2020
1244 Clouds 12 1023 71 0 7.15 150 21:20 06.01.2020
1245 Clouds 12 1023 71 0 7.15 150 20:57 06.01.2020
1246 Clouds 12 1023 71 0 7.15 150 20:39 06.01.2020
1247 Clouds 12 1023 71 0 7.15 150 20:20 06.01.2020
1248 Clouds 12 1023 71 0 7.15 150 19:57 06.01.2020
1249 Clouds 12 1023 71 0 7.15 150 19:38 06.01.2020
1250 Clouds 12 1023 71 0 7.15 150 19:20 06.01.2020
1251 Clouds 12 1023 71 0 7.15 150 18:48 06.01.2020
1252 Clouds 12 1023 71 0 7.15 150 18:48 06.01.2020
1253 Clouds 12 1023 71 0 7.15 150 18:23 06.01.2020
1254 Clouds 12 1023 71 0 7.15 150 17:59 06.01.2020
1255 Clouds 12 1023 71 0 7.15 150 17:38 06.01.2020
1256 Clouds 12 1023 71 0 7.15 150 17:18 06.01.2020
1257 Clouds 12 1023 71 0 7.15 150 16:46 06.01.2020
1258 Clouds 12 1023 71 0 7.15 150 16:46 06.01.2020
1259 Clouds 10 1023 87 8000 1.5 50 16:27 06.01.2020
1260 Clouds 11 1023 87 8000 1.5 50 15:59 06.01.2020
1261 Clouds 10 1023 87 8000 1.5 50 15:39 06.01.2020
1262 Clouds 11 1023 87 8000 1.5 50 15:20 06.01.2020
1263 Clouds 11 1023 87 8000 1.5 40 14:58 06.01.2020
1264 Clouds 11 1023 87 8000 1.5 40 14:40 06.01.2020
1265 Clouds 11 1023 87 8000 1.5 40 14:20 06.01.2020
1266 Clouds 11 1023 71 10000 7.2 150 13:55 06.01.2020
1267 Clouds 11 1023 71 10000 7.2 150 13:55 06.01.2020
1268 Clouds 11 1023 71 10000 7.2 150 13:37 06.01.2020
1269 Clouds 11 1023 71 10000 7.2 150 13:19 06.01.2020
1270 Clouds 11 1023 71 10000 6.7 150 12:42 06.01.2020
1271 Clouds 11 1023 71 10000 6.7 150 12:20 06.01.2020
1272 Clouds 12 1024 66 10000 6.7 150 11:57 06.01.2020
1273 Clouds 12 1024 66 10000 6.7 150 11:38 06.01.2020
1274 Clouds 12 1024 66 10000 6.7 150 11:20 06.01.2020
1275 Clouds 11 1024 66 10000 6.7 150 10:45 06.01.2020
1276 Clouds 11 1024 66 10000 6.7 150 10:45 06.01.2020
1277 Clouds 11 1024 66 10000 6.7 150 10:27 06.01.2020
1278 Rain 11 1024 71 10000 6.2 150 09:59 06.01.2020
1279 Rain 11 1024 71 10000 6.2 150 09:37 06.01.2020
1280 Rain 11 1024 71 10000 6.2 150 09:19 06.01.2020
1281 Clouds 11 1024 71 10000 5.7 150 08:42 06.01.2020
1282 Clouds 11 1024 71 10000 5.7 150 08:23 06.01.2020
1283 Clouds 12 1024 66 10000 5.1 140 07:48 06.01.2020
1284 Clouds 12 1024 66 10000 5.1 140 07:23 06.01.2020
1285 Clouds 11 1024 66 10000 4.6 140 06:44 06.01.2020
1286 Clouds 11 1024 62 10000 6.7 150 05:52 06.01.2020
1287 Clouds 11 1024 62 10000 6.7 150 05:33 06.01.2020
1288 Clouds 11 1026 66 10000 6.2 150 04:26 06.01.2020
1289 Clouds 10 1028 71 10000 3.6 140 03:53 06.01.2020
1290 Clouds 9 1028 71 10000 4.6 140 02:32 06.01.2020
1291 Clouds 8 1028 76 10000 5.1 150 01:56 06.01.2020
1292 Clouds 8 1028 76 10000 5.1 150 01:32 06.01.2020
1293 Clouds 7 1028 75 10000 3.6 140 00:57 06.01.2020
1294 Clouds 7 1028 75 10000 3.6 140 00:39 06.01.2020
1295 Clouds 7 1028 75 10000 3.6 140 00:18 06.01.2020
1296 Clouds 7 1028 70 10000 3.1 140 23:40 05.01.2020
1297 Clouds 7 1028 70 10000 3.1 140 23:21 05.01.2020
1298 Clouds 7 1027 75 10000 3.1 140 22:54 05.01.2020
1299 Clouds 7 1027 75 10000 3.1 140 22:36 05.01.2020
1300 Clear 6 1028 80 10000 0.5 0 22:18 05.01.2020
1301 Clear 8 1029 81 0 2.68 150 21:41 05.01.2020
1302 Clear 8 1029 81 0 2.68 150 21:20 05.01.2020
1303 Clear 8 1029 81 0 2.68 150 20:58 05.01.2020
1304 Clear 8 1029 81 0 2.68 150 20:39 05.01.2020
1305 Clouds 8 1029 81 0 2.68 150 20:19 05.01.2020
1306 Clouds 8 1029 81 0 2.68 150 19:59 05.01.2020
1307 Clouds 8 1029 81 0 2.68 150 19:39 05.01.2020
1308 Clouds 8 1029 81 0 2.68 150 19:20 05.01.2020
1309 Clouds 8 1029 81 0 2.68 150 18:56 05.01.2020
1310 Clouds 8 1029 81 0 2.68 150 18:38 05.01.2020
1311 Clouds 8 1029 81 0 2.68 150 18:19 05.01.2020
1312 Clouds 8 1029 81 0 2.68 150 17:58 05.01.2020
1313 Clouds 8 1029 81 0 2.68 150 17:39 05.01.2020
1314 Clear 8 1029 81 0 2.68 150 17:20 05.01.2020
1315 Clear 8 1029 81 0 2.68 150 16:57 05.01.2020
1316 Clear 8 1029 81 0 2.68 150 16:38 05.01.2020
1317 Clear 5 1029 86 10000 2.1 340 16:19 05.01.2020
1318 Clear 5 1029 86 10000 2.1 340 15:39 05.01.2020
1319 Clear 5 1029 86 10000 2.1 340 15:39 05.01.2020
1320 Clear 5 1029 86 10000 2.1 340 15:20 05.01.2020
1321 Clear 7 1029 75 10000 3.1 20 14:56 05.01.2020
1322 Clear 7 1029 75 10000 3.1 20 14:38 05.01.2020
1323 Clouds 7 1029 75 10000 3.1 20 14:20 05.01.2020
1324 Clouds 7 1029 81 10000 3.1 150 13:56 05.01.2020
1325 Clouds 7 1029 81 10000 3.1 150 13:38 05.01.2020
1326 Clouds 7 1029 81 10000 3.1 150 13:19 05.01.2020
1327 Clouds 7 1029 81 10000 3.1 150 13:19 05.01.2020
1328 Clear 8 1029 75 10000 0.5 0 12:55 05.01.2020
1329 Clear 8 1029 75 10000 0.5 0 12:55 05.01.2020
1330 Clear 8 1029 75 10000 0.5 0 12:37 05.01.2020
1331 Clear 8 1029 75 10000 0.5 0 12:18 05.01.2020
1332 Clear 8 1029 75 10000 0.5 0 12:18 05.01.2020
1333 Clear 9 1028 70 10000 0.5 0 11:43 05.01.2020
1334 Clear 9 1028 70 10000 0.5 0 11:20 05.01.2020
1335 Clouds 11 1028 62 10000 1 0 10:58 05.01.2020
1336 Clouds 11 1028 62 10000 1 0 10:39 05.01.2020
1337 Clouds 11 1028 62 10000 1 0 10:39 05.01.2020
1338 Clouds 11 1028 62 10000 1 0 10:39 05.01.2020
1339 Clouds 11 1028 62 10000 1 0 10:19 05.01.2020
1340 Clouds 12 1027 54 10000 2.1 170 09:42 05.01.2020
1341 Clouds 12 1027 54 10000 2.1 170 09:22 05.01.2020
1342 Clouds 13 1027 50 10000 3.6 170 08:50 05.01.2020
1343 Clouds 13 1027 50 10000 3.6 170 08:30 05.01.2020
1344 Clouds 14 1026 50 10000 2.6 0 07:56 05.01.2020
1345 Clouds 14 1026 50 10000 2.6 0 07:37 05.01.2020
1346 Clouds 14 1026 50 10000 2.6 0 07:19 05.01.2020
1347 Clouds 13 1026 54 10000 3.1 210 06:20 05.01.2020
1348 Clouds 12 1026 54 10000 2.6 260 05:33 05.01.2020
1349 Clouds 12 1026 54 10000 2.6 260 05:33 05.01.2020
1350 Clouds 11 1027 58 10000 2.1 240 04:44 05.01.2020
1351 Clouds 11 1027 58 10000 2.1 240 04:18 05.01.2020
1352 Clouds 9 1028 71 10000 1.5 270 02:46 05.01.2020
1353 Clouds 8 1028 71 10000 1.5 270 02:24 05.01.2020
1354 Clouds 6 1028 75 10000 1 0 01:48 05.01.2020
1355 Clouds 6 1028 75 10000 1 0 01:19 05.01.2020
1356 Clouds 4 1027 80 10000 1 0 00:41 05.01.2020
1357 Clouds 4 1027 80 10000 1 0 00:23 05.01.2020
1358 Clouds 2 1027 86 10000 1.5 100 23:59 04.01.2020
1359 Clouds 2 1027 86 10000 1.5 100 23:59 04.01.2020
1360 Clouds 3 1027 86 10000 1.5 100 23:39 04.01.2020
1361 Clouds 3 1027 86 10000 1.5 100 23:19 04.01.2020
1362 Clear 4 1027 80 10000 1 0 22:40 04.01.2020
1363 Clear 4 1027 80 10000 1 0 22:40 04.01.2020
1364 Clouds 3 1026 100 10000 2.1 50 22:21 04.01.2020
1365 Clear 7 1024 75 0 5.51 29 21:57 04.01.2020
1366 Clear 7 1024 75 0 5.51 29 21:57 04.01.2020
1367 Clear 7 1024 75 0 5.51 29 21:39 04.01.2020
1368 Clear 7 1024 75 0 5.51 29 21:20 04.01.2020
1369 Clear 7 1024 75 0 5.51 29 21:20 04.01.2020
1370 Clear 7 1024 75 0 5.51 29 20:58 04.01.2020
1371 Clear 7 1024 75 0 5.51 29 20:39 04.01.2020
1372 Clear 7 1024 75 0 5.51 29 20:39 04.01.2020
1373 Clear 7 1024 75 0 5.48 18 20:21 04.01.2020
1374 Clear 7 1024 75 0 5.48 18 19:56 04.01.2020
1375 Clear 7 1024 75 0 5.48 18 19:37 04.01.2020
1376 Clear 7 1024 75 0 5.48 18 19:18 04.01.2020
1377 Clear 7 1024 75 0 5.48 18 18:54 04.01.2020
1378 Clear 7 1024 75 0 5.48 18 18:36 04.01.2020
1379 Clear 7 1024 75 0 5.48 18 18:18 04.01.2020
1380 Clear 7 1024 75 0 5.48 18 17:41 04.01.2020
1381 Clear 7 1024 75 0 5.48 18 17:22 04.01.2020
1382 Clear 7 1024 75 0 7.8 357 16:55 04.01.2020
1383 Clear 7 1024 75 0 7.8 357 16:55 04.01.2020
1384 Clear 7 1024 75 0 7.8 357 16:36 04.01.2020
1385 Clear 7 1024 75 0 7.8 357 16:36 04.01.2020
1386 Clear 7 1024 70 10000 1.5 280 16:18 04.01.2020
1387 Clear 7 1024 70 10000 1.5 280 15:42 04.01.2020
1388 Clear 7 1024 70 10000 1.5 280 15:20 04.01.2020
1389 Clear 5 1024 80 10000 2.6 280 14:59 04.01.2020
1390 Clear 5 1024 80 10000 2.6 280 14:59 04.01.2020
1391 Clear 6 1024 80 10000 2.6 280 14:40 04.01.2020
1392 Clear 6 1024 80 10000 2.6 280 14:20 04.01.2020
1393 Clouds 7 1024 75 10000 1 0 13:58 04.01.2020
1394 Clouds 7 1024 75 10000 1 0 13:37 04.01.2020
1395 Clouds 7 1024 75 10000 1 0 13:37 04.01.2020
1396 Clouds 7 1024 75 10000 1 0 13:19 04.01.2020
1397 Clouds 8 1023 66 10000 3.1 360 12:56 04.01.2020
1398 Clouds 8 1023 66 10000 3.1 360 12:38 04.01.2020
1399 Clouds 8 1023 66 10000 3.1 360 12:18 04.01.2020
1400 Clouds 8 1023 61 10000 6.2 320 11:55 04.01.2020
1401 Clouds 8 1023 61 10000 6.2 320 11:36 04.01.2020
1402 Clouds 8 1023 61 10000 6.2 320 11:18 04.01.2020
1403 Clouds 10 1022 53 10000 5.7 310 10:40 04.01.2020
1404 Clouds 10 1022 53 10000 5.7 310 10:21 04.01.2020
1405 Clouds 11 1021 53 10000 6.2 300 09:44 04.01.2020
1406 Clouds 11 1021 53 10000 6.2 300 09:25 04.01.2020
1407 Clouds 13 1021 50 10000 6.2 310 08:49 04.01.2020
1408 Clouds 13 1021 50 10000 6.2 310 08:29 04.01.2020
1409 Clouds 13 1021 54 10000 6.7 310 07:55 04.01.2020
1410 Clouds 13 1021 54 10000 6.7 310 07:55 04.01.2020
1411 Clouds 13 1021 54 10000 6.7 310 07:37 04.01.2020
1412 Clouds 13 1020 47 10000 6.7 330 06:43 04.01.2020
1413 Clouds 11 1021 50 10000 3.6 340 05:57 04.01.2020
1414 Clouds 10 1022 46 10000 2.1 340 04:50 04.01.2020
1415 Clouds 10 1022 46 10000 2.1 340 04:29 04.01.2020
1416 Clouds 9 1023 71 10000 0.5 0 03:20 04.01.2020
1417 Clouds 6 1023 75 10000 0.5 0 02:38 04.01.2020
1418 Clouds 7 1023 75 10000 0.5 0 02:18 04.01.2020
1419 Clear 5 1023 81 10000 1.5 100 01:32 04.01.2020
1420 Clear 5 1023 81 10000 1.5 100 01:32 04.01.2020
1421 Clouds 2 1022 93 10000 2.6 140 00:58 04.01.2020
1422 Clouds 3 1022 93 10000 2.6 140 00:29 04.01.2020
1423 Clear 3 1022 93 10000 2.1 130 23:53 03.01.2020
1424 Clear 3 1022 93 10000 2.1 130 23:28 03.01.2020
1425 Clear 4 1022 86 10000 1.5 120 22:55 03.01.2020
1426 Clear 4 1022 86 10000 1.5 120 22:37 03.01.2020
1427 Clear 3 1022 53 7000 2.1 30 22:18 03.01.2020
1428 Clear 8 1023 75 0 1.34 10 21:56 03.01.2020
1429 Clear 8 1023 75 0 1.34 10 21:37 03.01.2020
1430 Clear 8 1023 75 0 1.34 10 21:18 03.01.2020
1431 Clear 8 1023 75 0 1.34 10 20:54 03.01.2020
1432 Clear 8 1023 75 0 1.34 10 20:36 03.01.2020
1433 Clear 8 1023 75 0 1.34 10 20:18 03.01.2020
1434 Clear 8 1023 75 0 1.34 10 19:41 03.01.2020
1435 Clear 11 1022 55 0 3.87 3 19:23 03.01.2020
1436 Clear 8 1024 75 0 1.34 10 18:47 03.01.2020
1437 Clear 8 1024 75 0 1.34 10 18:27 03.01.2020
1438 Clear 8 1024 75 0 1.34 10 17:58 03.01.2020
1439 Clear 8 1024 75 0 1.34 10 17:40 03.01.2020
1440 Clear 8 1023 75 0 1.34 10 17:21 03.01.2020
1441 Clear 8 1023 75 0 1.34 10 17:21 03.01.2020
1442 Clear 8 1023 75 0 1.34 10 16:44 03.01.2020
1443 Clear 7 1023 87 10000 1.5 220 16:25 03.01.2020
1444 Clear 7 1023 87 10000 1.5 220 15:59 03.01.2020
1445 Clear 6 1023 87 10000 1.5 220 15:41 03.01.2020
1446 Clear 7 1023 87 10000 1.5 220 15:19 03.01.2020
1447 Clear 7 1023 86 10000 0.5 0 14:40 03.01.2020
1448 Clouds 7 1023 86 10000 0.5 0 14:20 03.01.2020
1449 Clouds 8 1024 75 10000 1.5 10 13:57 03.01.2020
1450 Clouds 8 1024 75 10000 1.5 10 13:39 03.01.2020
1451 Clouds 8 1024 75 10000 1.5 10 13:20 03.01.2020
1452 Clouds 9 1023 70 10000 2.6 360 12:41 03.01.2020
1453 Clouds 9 1023 70 10000 2.6 360 12:22 03.01.2020
1454 Clouds 9 1023 71 10000 3.6 310 11:53 03.01.2020
1455 Clouds 9 1023 71 10000 3.6 310 11:34 03.01.2020
1456 Clouds 10 1023 66 10000 4.6 300 10:58 03.01.2020
1457 Clouds 10 1023 66 10000 4.6 300 10:39 03.01.2020
1458 Clouds 10 1023 66 10000 4.6 300 10:21 03.01.2020
1459 Clouds 11 1023 62 10000 4.1 300 09:54 03.01.2020
1460 Clouds 11 1023 62 10000 4.1 300 09:36 03.01.2020
1461 Clouds 11 1023 62 10000 4.1 300 09:18 03.01.2020
1462 Clouds 12 1022 58 10000 5.7 320 08:44 03.01.2020
1463 Clouds 12 1022 58 10000 5.7 320 08:21 03.01.2020
1464 Clouds 13 1023 54 10000 5.7 310 07:43 03.01.2020
1465 Clouds 12 1023 54 10000 5.7 310 07:19 03.01.2020
1466 Clouds 12 1023 54 10000 5.7 310 07:19 03.01.2020
1467 Clouds 12 1023 54 10000 5.7 320 06:57 03.01.2020
1468 Clouds 12 1023 54 10000 5.7 320 06:39 03.01.2020
1469 Clouds 12 1023 54 10000 5.7 320 06:20 03.01.2020
1470 Clouds 10 1024 66 10000 1 0 04:43 03.01.2020
1471 Clouds 9 1025 76 10000 1 0 03:37 03.01.2020
1472 Clouds 8 1026 87 10000 2.1 150 02:50 03.01.2020
1473 Clouds 6 1025 93 10000 1.5 120 01:47 03.01.2020
1474 Clouds 6 1025 87 10000 1.5 140 00:57 03.01.2020
1475 Clouds 6 1025 87 10000 1.5 140 00:33 03.01.2020
1476 Clouds 5 1025 93 10000 2.1 150 23:58 02.01.2020
1477 Clouds 5 1025 93 10000 2.1 150 23:39 02.01.2020
1478 Clouds 5 1025 93 10000 2.1 150 23:19 02.01.2020
1479 Clouds 4 1025 93 10000 1.5 130 22:58 02.01.2020
1480 Clouds 4 1025 93 10000 1.5 130 22:39 02.01.2020
1481 Fog 4 1025 93 6000 2.6 340 22:19 02.01.2020
1482 Clear 10 1026 71 0 1.79 30 21:55 02.01.2020
1483 Clear 10 1026 71 0 1.79 30 21:36 02.01.2020
1484 Clear 10 1026 71 0 1.79 30 21:18 02.01.2020
1485 Clear 10 1026 71 0 1.79 30 20:40 02.01.2020
1486 Clear 10 1026 71 0 1.79 30 20:21 02.01.2020
1487 Clear 10 1026 71 0 1.79 30 19:56 02.01.2020
1488 Clear 10 1026 71 0 1.79 30 19:38 02.01.2020
1489 Clear 10 1026 71 0 1.79 30 19:19 02.01.2020
1490 Clear 10 1026 71 0 1.79 30 18:59 02.01.2020
1491 Clear 10 1026 71 0 1.79 30 18:40 02.01.2020
1492 Clear 10 1026 71 0 1.79 30 18:22 02.01.2020
1493 Clear 10 1026 71 0 1.79 30 17:57 02.01.2020
1494 Clear 10 1026 71 0 1.79 30 17:38 02.01.2020
1495 Clear 10 1026 71 0 1.79 30 17:19 02.01.2020
1496 Clear 10 1026 71 0 1.79 30 16:57 02.01.2020
1497 Clear 10 1026 71 0 1.79 30 16:38 02.01.2020
1498 Clear 10 1026 71 0 1.79 30 16:38 02.01.2020
1499 Clouds 7 1027 86 10000 2.1 220 16:20 02.01.2020
1500 Clouds 7 1027 86 10000 2.1 220 15:56 02.01.2020
1501 Clouds 7 1027 86 10000 2.1 220 15:56 02.01.2020
1502 Clouds 7 1027 86 10000 2.1 220 15:37 02.01.2020
1503 Clouds 8 1027 86 10000 2.1 220 15:19 02.01.2020
1504 Clouds 8 1027 81 10000 0.5 0 14:55 02.01.2020
1505 Clouds 8 1027 81 10000 0.5 0 14:36 02.01.2020
1506 Clouds 9 1027 81 10000 0.5 0 14:18 02.01.2020
1507 Clouds 9 1026 71 10000 2.1 30 13:47 02.01.2020
1508 Clouds 9 1026 71 10000 2.1 30 13:29 02.01.2020
1509 Clouds 9 1027 76 10000 2.6 310 12:44 02.01.2020
1510 Clouds 9 1027 71 10000 2.6 310 12:25 02.01.2020
1511 Clouds 10 1027 71 10000 2.6 310 11:43 02.01.2020
1512 Clouds 10 1027 71 10000 2.6 310 11:25 02.01.2020
1513 Clouds 10 1026 66 10000 2.6 300 10:57 02.01.2020
1514 Clouds 10 1026 66 10000 2.6 300 10:37 02.01.2020
1515 Clouds 10 1026 66 10000 2.6 300 10:18 02.01.2020
1516 Clouds 10 1026 66 10000 3.6 300 09:41 02.01.2020
1517 Clouds 10 1026 66 10000 3.6 300 09:22 02.01.2020
1518 Clouds 11 1026 66 10000 2.6 290 08:44 02.01.2020
1519 Clouds 11 1026 66 10000 2.6 290 08:25 02.01.2020
1520 Clouds 11 1026 58 10000 2.6 350 07:48 02.01.2020
1521 Clouds 11 1026 58 10000 2.6 350 07:28 02.01.2020
1522 Clouds 11 1026 54 10000 2.6 350 06:43 02.01.2020
1523 Clouds 10 1026 57 10000 1 0 05:58 02.01.2020
1524 Clouds 9 1027 61 10000 1.5 100 04:38 02.01.2020
1525 Clouds 9 1027 61 10000 1.5 100 04:19 02.01.2020
1526 Clouds 7 1029 81 10000 2.6 130 02:25 02.01.2020
1527 Clouds 6 1029 81 10000 3.1 130 01:57 02.01.2020
1528 Clouds 6 1029 81 10000 3.1 130 01:30 02.01.2020
1529 Clouds 5 1028 75 10000 4.6 140 00:52 02.01.2020
1530 Clouds 5 1028 75 10000 4.6 140 00:28 02.01.2020
1531 Clouds 4 1028 81 10000 2.6 120 23:47 01.01.2020
1532 Clouds 4 1028 81 10000 2.6 120 23:24 01.01.2020
1533 Clouds 5 1028 75 10000 3.6 140 22:39 01.01.2020
1534 Clouds 5 1028 93 10000 1.5 60 22:21 01.01.2020
1535 Clear 7 1029 70 0 1.79 50 21:59 01.01.2020
1536 Clear 7 1029 70 0 1.79 50 21:41 01.01.2020
1537 Clear 7 1029 70 0 1.79 50 21:21 01.01.2020
1538 Clear 7 1029 70 0 1.79 50 20:58 01.01.2020
1539 Clear 7 1029 70 0 1.79 50 20:39 01.01.2020
1540 Clear 7 1029 70 0 1.79 50 20:20 01.01.2020
1541 Clear 7 1029 70 0 1.79 50 19:57 01.01.2020
1542 Clear 7 1029 70 0 1.79 50 19:38 01.01.2020
1543 Clear 7 1029 70 0 1.79 50 19:20 01.01.2020
1544 Clear 7 1029 70 0 1.79 50 18:57 01.01.2020
1545 Clear 7 1029 70 0 1.79 50 18:38 01.01.2020
1546 Clear 7 1029 70 0 1.79 50 18:20 01.01.2020
1547 Clear 7 1029 70 0 1.79 50 17:58 01.01.2020
1548 Clear 7 1029 70 0 1.79 50 17:39 01.01.2020
1549 Clear 7 1029 70 0 1.79 50 17:19 01.01.2020
1550 Clear 7 1029 70 0 1.79 50 16:57 01.01.2020
1551 Clear 7 1029 70 0 1.79 50 16:37 01.01.2020
1552 Clouds 5 1029 93 10000 2.6 10 16:19 01.01.2020
1553 Clouds 5 1029 93 10000 2.6 10 15:54 01.01.2020
1554 Clouds 5 1029 93 10000 2.6 10 15:36 01.01.2020
1555 Clouds 5 1029 93 10000 2.6 10 15:18 01.01.2020
1556 Clouds 5 1029 86 10000 2.6 50 14:41 01.01.2020
1557 Clouds 6 1029 86 10000 2.6 50 14:23 01.01.2020
1558 Clouds 6 1029 70 10000 2.1 50 13:57 01.01.2020
1559 Clouds 6 1029 70 10000 2.1 50 13:38 01.01.2020
1560 Clouds 5 1029 70 10000 2.1 50 13:19 01.01.2020
1561 Clouds 6 1029 75 10000 2.6 50 12:57 01.01.2020
1562 Clouds 6 1029 75 10000 2.6 50 12:39 01.01.2020
1563 Clouds 6 1029 75 10000 2.6 50 12:19 01.01.2020
1564 Clouds 6 1029 75 10000 2.6 50 12:19 01.01.2020
1565 Clouds 6 1029 70 10000 5.7 340 11:56 01.01.2020
1566 Clouds 6 1029 70 10000 5.7 340 11:37 01.01.2020
1567 Clouds 6 1029 70 10000 5.7 340 11:18 01.01.2020
1568 Clouds 7 1029 70 10000 5.1 310 10:41 01.01.2020
1569 Clouds 7 1029 70 10000 5.1 310 10:21 01.01.2020
1570 Clouds 8 1029 65 10000 5.1 310 09:59 01.01.2020
1571 Clouds 8 1029 65 10000 5.1 310 09:38 01.01.2020
1572 Clouds 8 1029 65 10000 5.1 310 09:19 01.01.2020
1573 Clouds 9 1028 53 10000 4.1 310 08:56 01.01.2020
1574 Clouds 9 1028 53 10000 4.1 310 08:37 01.01.2020
1575 Clouds 9 1028 53 10000 4.1 310 08:19 01.01.2020
1576 Clouds 9 1028 51 10000 4.1 330 07:54 01.01.2020
1577 Clouds 9 1028 51 10000 4.1 330 07:36 01.01.2020
1578 Clouds 8 1028 49 10000 3.6 350 06:45 01.01.2020
1579 Clouds 8 1028 49 10000 3.6 350 06:21 01.01.2020
1580 Clouds 8 1028 51 10000 3.6 340 05:23 01.01.2020
1581 Clouds 6 1031 65 10000 1.5 40 03:47 01.01.2020
1582 Clouds 6 1031 65 10000 1.5 40 03:23 01.01.2020
1583 Clouds 6 1031 65 10000 1.5 40 03:23 01.01.2020
1584 Clouds 5 1031 53 10000 1 0 02:57 01.01.2020
1585 Clouds 5 1031 53 10000 1 0 02:36 01.01.2020
1586 Clouds 2 1031 80 10000 2.1 150 01:57 01.01.2020
1587 Clouds 3 1031 80 10000 2.1 150 01:38 01.01.2020
1588 Clouds 3 1031 80 10000 2.1 150 01:20 01.01.2020
1589 Clouds 0 1030 52 10000 2.6 130 00:44 01.01.2020
1590 Clouds 0 1030 52 10000 2.6 130 00:44 01.01.2020
1591 Clouds 0 1030 52 10000 2.6 130 00:25 01.01.2020
1592 Clouds 0 1029 86 10000 2.1 90 23:41 31.12.2019
1593 Clouds 0 1029 86 10000 2.1 90 23:21 31.12.2019
1594 Clouds 0 1030 86 10000 2.6 90 22:57 31.12.2019
1595 Clouds 0 1030 86 10000 2.6 90 22:39 31.12.2019
1596 Clouds 0 1030 86 10000 2.6 90 22:39 31.12.2019
1597 Clouds -1 1030 92 10000 2.1 330 22:20 31.12.2019
1598 Clear 4 1029 55 0 4.02 30 21:57 31.12.2019
1599 Clear 4 1029 55 0 4.02 30 21:39 31.12.2019
1600 Clear 4 1029 55 0 4.02 30 21:39 31.12.2019
1601 Clear 4 1029 55 0 4.02 30 21:20 31.12.2019
1602 Clear 4 1029 55 0 4.02 30 20:55 31.12.2019
1603 Clear 4 1029 55 0 4.02 30 20:37 31.12.2019
1604 Clear 4 1029 55 0 4.02 30 20:18 31.12.2019
1605 Clear 4 1029 55 0 4.02 30 19:43 31.12.2019
1606 Clear 4 1029 55 0 4.02 30 19:24 31.12.2019
1607 Clear 4 1029 55 0 4.02 30 18:59 31.12.2019
1608 Clear 4 1029 55 0 4.02 30 18:40 31.12.2019
1609 Clear 4 1029 55 0 4.02 30 18:21 31.12.2019
1610 Clear 4 1029 55 0 4.02 30 17:57 31.12.2019
1611 Clear 4 1029 55 0 4.02 30 17:38 31.12.2019
1612 Clear 4 1029 55 0 4.02 30 17:19 31.12.2019
1613 Clear 4 1029 55 0 4.02 30 17:19 31.12.2019
1614 Clear 4 1029 55 0 4.02 30 16:57 31.12.2019
1615 Clear 4 1029 55 0 4.02 30 16:57 31.12.2019
1616 Clear 4 1029 55 0 4.02 30 16:38 31.12.2019
1617 Clouds 3 1029 74 10000 2.1 330 16:19 31.12.2019
1618 Clouds 3 1029 74 10000 2.1 330 15:57 31.12.2019
1619 Clouds 3 1029 74 10000 2.1 330 15:39 31.12.2019
1620 Clouds 3 1029 74 10000 2.1 330 15:21 31.12.2019
1621 Clouds 3 1029 74 10000 1.5 360 14:58 31.12.2019
1622 Clouds 3 1029 74 10000 1.5 360 14:38 31.12.2019
1623 Clouds 3 1029 74 10000 1.5 360 14:19 31.12.2019
1624 Clouds 4 1029 55 10000 4.1 30 13:57 31.12.2019
1625 Clouds 4 1029 55 10000 4.1 30 13:39 31.12.2019
1626 Clouds 4 1029 55 10000 4.1 30 13:21 31.12.2019
1627 Clouds 4 1029 55 10000 4.1 30 13:21 31.12.2019
1628 Clouds 4 1029 55 10000 7.2 340 12:58 31.12.2019
1629 Clouds 4 1029 55 10000 7.2 340 12:58 31.12.2019
1630 Clouds 4 1029 55 10000 7.2 340 12:39 31.12.2019
1631 Clouds 4 1029 55 10000 7.2 340 12:20 31.12.2019
1632 Clouds 4 1029 55 10000 7.7 350 11:56 31.12.2019
1633 Clouds 4 1029 55 10000 7.7 350 11:38 31.12.2019
1634 Clouds 4 1029 55 10000 7.7 350 11:20 31.12.2019
1635 Clouds 4 1028 55 10000 7.2 350 10:57 31.12.2019
1636 Clouds 4 1028 55 10000 7.2 350 10:38 31.12.2019
1637 Clouds 4 1028 55 10000 7.2 350 10:20 31.12.2019
1638 Clouds 4 1028 48 10000 6.7 360 09:58 31.12.2019
1639 Clouds 4 1028 48 10000 6.7 360 09:39 31.12.2019
1640 Clouds 4 1028 48 10000 6.7 360 09:39 31.12.2019
1641 Clouds 4 1028 48 10000 6.7 360 09:20 31.12.2019
1642 Clouds 5 1027 45 10000 9.8 330 08:57 31.12.2019
1643 Clouds 5 1027 45 10000 9.8 330 08:37 31.12.2019
1644 Clouds 5 1027 45 10000 9.8 330 08:18 31.12.2019
1645 Clouds 6 1027 39 10000 8.7 330 07:41 31.12.2019
1646 Clouds 6 1027 39 10000 8.7 330 07:19 31.12.2019
1647 Clouds 7 1027 45 10000 9.3 340 06:49 31.12.2019
1648 Clouds 8 1027 36 10000 8.7 340 05:55 31.12.2019
1649 Clouds 8 1028 45 10000 8.7 350 04:27 31.12.2019
1650 Clouds 7 1028 64 10000 9.3 350 03:27 31.12.2019
1651 Clouds 7 1028 56 10000 7.7 320 02:49 31.12.2019
1652 Clouds 7 1028 71 10000 10.8 320 01:55 31.12.2019
1653 Clouds 7 1028 71 10000 10.8 320 01:34 31.12.2019
1654 Clouds 7 1028 65 10000 9.3 310 00:58 31.12.2019
1655 Clouds 7 1028 65 10000 9.3 310 00:39 31.12.2019
1656 Clouds 7 1028 65 10000 9.3 310 00:21 31.12.2019
1657 Clouds 7 1027 72 10000 10.3 310 23:56 30.12.2019
1658 Clouds 7 1027 72 10000 10.3 310 23:37 30.12.2019
1659 Clouds 7 1027 76 10000 10.3 310 23:19 30.12.2019
1660 Clouds 8 1026 65 10000 10.3 310 22:56 30.12.2019
1661 Clouds 8 1026 65 10000 10.3 310 22:56 30.12.2019
1662 Clouds 8 1026 65 10000 10.3 310 22:37 30.12.2019
1663 Clouds 7 1025 75 10000 7.2 270 22:18 30.12.2019
1664 Clouds 9 1025 76 0 12.72 327 21:55 30.12.2019
1665 Clouds 9 1025 76 0 12.72 327 21:37 30.12.2019
1666 Clouds 9 1025 76 0 12.72 327 21:18 30.12.2019
1667 Clouds 9 1025 76 0 12.72 327 20:55 30.12.2019
1668 Clouds 9 1025 76 0 12.72 327 20:55 30.12.2019
1669 Clouds 9 1025 76 0 12.72 327 20:55 30.12.2019
1670 Clouds 9 1025 76 0 12.72 327 20:37 30.12.2019
1671 Clouds 13 1021 87 0 2.68 340 20:18 30.12.2019
1672 Clouds 13 1021 87 0 2.68 340 19:55 30.12.2019
1673 Clouds 13 1021 87 0 2.68 340 19:36 30.12.2019
1674 Clouds 13 1021 87 0 2.68 340 19:18 30.12.2019
1675 Clouds 13 1021 87 0 2.68 340 18:41 30.12.2019
1676 Clouds 13 1021 87 0 2.68 340 18:21 30.12.2019
1677 Clouds 13 1021 87 0 2.68 340 17:59 30.12.2019
1678 Clouds 13 1021 87 0 2.68 340 17:41 30.12.2019
1679 Clouds 13 1021 87 0 2.68 340 17:20 30.12.2019
1680 Clouds 13 1021 87 0 2.68 340 16:59 30.12.2019
1681 Clouds 13 1021 87 0 2.68 340 16:40 30.12.2019
1682 Clouds 12 1021 87 10000 3.6 280 16:20 30.12.2019
1683 Clouds 12 1021 87 10000 3.6 280 15:57 30.12.2019
1684 Clouds 12 1021 87 10000 3.6 280 15:38 30.12.2019
1685 Clouds 12 1021 87 10000 3.6 280 15:19 30.12.2019
1686 Clouds 12 1021 87 10000 3.6 280 15:19 30.12.2019
1687 Clouds 12 1020 93 10000 3.1 270 14:54 30.12.2019
1688 Clouds 12 1020 93 10000 3.1 270 14:36 30.12.2019
1689 Clouds 13 1020 93 10000 3.1 270 14:18 30.12.2019
1690 Clouds 13 1021 87 10000 3.1 340 13:41 30.12.2019
1691 Clouds 13 1021 87 10000 3.1 340 13:23 30.12.2019
1692 Clouds 13 1021 87 10000 3.1 340 13:23 30.12.2019
1693 Clouds 13 1021 87 10000 2.6 320 12:58 30.12.2019
1694 Clouds 13 1021 87 10000 2.6 320 12:39 30.12.2019
1695 Clouds 13 1021 87 10000 2.6 320 12:19 30.12.2019
1696 Clouds 13 1020 87 10000 4.6 320 11:56 30.12.2019
1697 Clouds 13 1020 87 10000 4.6 320 11:37 30.12.2019
1698 Clouds 13 1020 87 10000 4.6 320 11:18 30.12.2019
1699 Clouds 13 1020 87 10000 5.7 310 10:40 30.12.2019
1700 Clouds 13 1020 87 10000 5.7 310 10:19 30.12.2019
1701 Clouds 14 1019 87 10000 3.6 310 09:43 30.12.2019
1702 Clouds 14 1019 87 10000 3.6 310 09:21 30.12.2019
1703 Clouds 14 1018 93 10000 1.5 340 08:57 30.12.2019
1704 Clouds 14 1018 93 10000 1.5 340 08:38 30.12.2019
1705 Clouds 14 1018 93 10000 1.5 340 08:19 30.12.2019
1706 Mist 15 1019 93 3000 1.5 240 07:44 30.12.2019
1707 Clouds 15 1019 93 9000 1.5 290 07:18 30.12.2019
1708 Clouds 15 1019 93 6000 1 350 06:29 30.12.2019
1709 Clouds 13 1020 93 7000 1.5 160 04:29 30.12.2019
1710 Clouds 13 1021 93 7000 2.6 150 03:43 30.12.2019
1711 Rain 13 1021 100 6000 3.6 150 02:41 30.12.2019
1712 Rain 13 1021 100 6000 3.6 150 02:21 30.12.2019
1713 Rain 13 1021 100 8000 2.1 170 01:27 30.12.2019
1714 Rain 14 1020 93 10000 3.1 40 00:51 30.12.2019
1715 Rain 13 1020 93 10000 3.1 40 00:28 30.12.2019
1716 Rain 13 1021 100 6000 4.6 360 23:40 29.12.2019
1717 Rain 14 1021 93 8000 5.1 340 23:22 29.12.2019
1718 Rain 14 1020 100 7000 2.6 360 22:57 29.12.2019
1719 Rain 14 1020 100 7000 2.6 360 22:38 29.12.2019
1720 Rain 14 1020 100 7000 2.6 360 22:38 29.12.2019
1721 Rain 11 1020 100 3000 1.5 360 22:20 29.12.2019
1722 Rain 16 1021 92 0 3.84 174 21:54 29.12.2019
1723 Rain 16 1021 92 0 3.84 174 21:36 29.12.2019
1724 Rain 16 1021 92 0 3.84 174 21:18 29.12.2019
1725 Rain 16 1021 92 0 3.84 174 20:55 29.12.2019
1726 Rain 16 1021 92 0 3.84 174 20:36 29.12.2019
1727 Rain 11 1023 81 0 6.71 150 20:18 29.12.2019
1728 Rain 11 1023 81 0 6.71 150 19:40 29.12.2019
1729 Rain 11 1023 81 0 6.71 150 19:22 29.12.2019
1730 Rain 15 1021 90 0 4.81 159 18:59 29.12.2019
1731 Rain 15 1021 90 0 4.81 159 18:59 29.12.2019
1732 Rain 15 1021 90 0 4.81 159 18:40 29.12.2019
1733 Rain 15 1021 90 0 4.81 159 18:21 29.12.2019
1734 Rain 15 1021 90 0 4.81 159 17:58 29.12.2019
1735 Rain 15 1021 90 0 4.81 159 17:39 29.12.2019
1736 Rain 11 1023 81 0 6.71 150 17:20 29.12.2019
1737 Rain 11 1023 81 0 6.71 150 16:57 29.12.2019
1738 Rain 11 1023 81 0 6.71 150 16:57 29.12.2019
1739 Rain 11 1023 81 0 6.71 150 16:39 29.12.2019
1740 Clouds 10 1022 87 8000 1 60 16:21 29.12.2019
1741 Clouds 10 1022 87 8000 1 60 15:58 29.12.2019
1742 Clouds 10 1022 87 8000 1 60 15:39 29.12.2019
1743 Clouds 10 1022 87 8000 1 60 15:20 29.12.2019
1744 Clouds 10 1022 87 8000 1 60 15:20 29.12.2019
1745 Clouds 10 1023 81 6000 2.1 360 14:58 29.12.2019
1746 Clouds 10 1023 81 6000 2.1 360 14:39 29.12.2019
1747 Clouds 10 1023 81 6000 2.1 360 14:18 29.12.2019
1748 Clouds 10 1023 81 10000 6.7 150 13:58 29.12.2019
1749 Clouds 10 1023 81 10000 6.7 150 13:39 29.12.2019
1750 Clouds 10 1023 81 10000 6.7 150 13:21 29.12.2019
1751 Clouds 10 1023 76 10000 8.2 140 12:56 29.12.2019
1752 Clouds 10 1023 76 10000 8.2 140 12:37 29.12.2019
1753 Clouds 10 1023 76 10000 8.2 140 12:19 29.12.2019
1754 Clouds 10 1024 76 10000 8.2 150 11:40 29.12.2019
1755 Clouds 10 1024 76 10000 8.2 150 11:20 29.12.2019
1756 Clouds 10 1024 76 10000 6.7 150 10:55 29.12.2019
1757 Clouds 10 1024 76 10000 6.7 150 10:37 29.12.2019
1758 Clouds 9 1024 76 10000 6.7 150 10:18 29.12.2019
1759 Clouds 10 1024 71 10000 6.2 150 09:43 29.12.2019
1760 Clouds 10 1024 71 10000 6.2 150 09:25 29.12.2019
1761 Rain 10 1024 76 10000 6.2 150 08:50 29.12.2019
1762 Rain 10 1024 76 10000 6.2 150 08:29 29.12.2019
1763 Clouds 10 1024 71 10000 1 0 07:59 29.12.2019
1764 Clouds 10 1024 71 10000 1 0 07:32 29.12.2019
1765 Clouds 10 1024 71 10000 1 0 06:57 29.12.2019
1766 Clouds 10 1024 71 10000 1 0 06:27 29.12.2019
1767 Clouds 9 1025 71 10000 1.5 340 05:54 29.12.2019
1768 Clouds 9 1026 71 10000 1 0 04:42 29.12.2019
1769 Clouds 9 1026 71 10000 1 0 04:21 29.12.2019
1770 Clouds 8 1027 76 10000 1.5 130 03:21 29.12.2019
1771 Clouds 7 1027 75 10000 0.5 0 02:22 29.12.2019
1772 Clouds 7 1027 75 10000 1.5 150 01:42 29.12.2019
1773 Clouds 7 1027 75 10000 1.5 150 01:22 29.12.2019
1774 Clouds 6 1026 81 10000 3.1 130 00:42 29.12.2019
1775 Clouds 6 1026 81 10000 3.1 130 00:23 29.12.2019
1776 Clouds 6 1026 81 10000 2.6 130 23:44 28.12.2019
1777 Clouds 6 1026 81 10000 2.6 130 23:18 28.12.2019
1778 Clouds 6 1027 81 10000 2.6 130 22:40 28.12.2019
1779 Clouds 5 1027 86 10000 1.5 50 22:21 28.12.2019
1780 Clouds 7 1028 81 0 1.34 130 21:58 28.12.2019
1781 Clouds 7 1028 81 0 1.34 130 21:40 28.12.2019
1782 Clouds 7 1028 81 0 1.34 130 21:22 28.12.2019
1783 Clouds 7 1028 81 0 1.34 130 20:59 28.12.2019
1784 Clouds 7 1028 81 0 1.34 130 20:38 28.12.2019
1785 Clouds 7 1028 81 0 1.34 130 20:20 28.12.2019
1786 Clouds 7 1028 81 0 1.34 130 19:58 28.12.2019
1787 Clouds 7 1028 81 0 1.34 130 19:58 28.12.2019
1788 Clouds 7 1028 81 0 1.34 130 19:39 28.12.2019
1789 Clouds 7 1028 81 0 1.34 130 19:21 28.12.2019
1790 Clouds 7 1028 81 0 1.34 130 18:58 28.12.2019
1791 Clouds 7 1028 81 0 1.34 130 18:40 28.12.2019
1792 Clouds 7 1028 81 0 1.34 130 18:19 28.12.2019
1793 Clouds 7 1028 81 0 1.34 130 17:55 28.12.2019
1794 Clouds 7 1028 81 0 1.34 130 17:36 28.12.2019
1795 Clouds 7 1028 81 0 1.34 130 17:18 28.12.2019
1796 Clouds 7 1028 81 0 1.34 130 16:46 28.12.2019
1797 Clouds 4 1028 93 10000 2.1 10 16:26 28.12.2019
1798 Clouds 5 1028 93 10000 2.1 10 15:46 28.12.2019
1799 Clouds 5 1028 93 10000 2.1 10 15:24 28.12.2019
1800 Clouds 6 1028 86 10000 1 20 14:58 28.12.2019
1801 Clouds 6 1028 86 10000 1 20 14:38 28.12.2019
1802 Clear 6 1028 86 10000 1 20 14:20 28.12.2019
1803 Clouds 6 1028 81 10000 1.5 130 13:43 28.12.2019
1804 Clear 7 1028 86 10000 1 350 13:23 28.12.2019
1805 Clouds 7 1027 65 10000 2.1 120 12:59 28.12.2019
1806 Clouds 7 1027 65 10000 2.1 120 12:41 28.12.2019
1807 Clouds 7 1027 65 10000 2.1 120 12:23 28.12.2019
1808 Clouds 8 1027 65 10000 1.5 90 11:55 28.12.2019
1809 Clouds 8 1027 65 10000 1.5 90 11:37 28.12.2019
1810 Clouds 8 1027 65 10000 1.5 90 11:18 28.12.2019
1811 Clouds 7 1027 70 10000 2.1 330 10:43 28.12.2019
1812 Clouds 8 1027 70 10000 2.1 330 10:20 28.12.2019
1813 Clouds 10 1026 53 10000 1.5 310 09:56 28.12.2019
1814 Clouds 10 1026 53 10000 1.5 310 09:38 28.12.2019
1815 Clouds 10 1026 53 10000 1.5 310 09:18 28.12.2019
1816 Clouds 10 1026 53 10000 1.5 310 09:18 28.12.2019
1817 Clouds 10 1026 57 10000 3.1 310 08:43 28.12.2019
1818 Clouds 10 1026 57 10000 3.1 310 08:25 28.12.2019
1819 Clouds 10 1026 50 10000 2.1 280 07:49 28.12.2019
1820 Clouds 10 1026 50 10000 2.1 280 07:25 28.12.2019
1821 Clouds 9 1026 50 10000 1.5 20 05:52 28.12.2019
1822 Clouds 8 1027 66 10000 2.6 140 03:49 28.12.2019
1823 Clouds 7 1027 75 10000 2.1 130 02:52 28.12.2019
1824 Clouds 7 1027 75 10000 2.1 130 02:31 28.12.2019
1825 Clouds 5 1027 81 10000 4.1 140 01:56 28.12.2019
1826 Clouds 5 1027 81 10000 4.1 140 01:56 28.12.2019
1827 Clouds 5 1027 81 10000 4.1 140 01:24 28.12.2019
1828 Clouds 4 1026 86 10000 5.1 140 00:51 28.12.2019
1829 Clouds 4 1026 86 10000 5.1 140 00:32 28.12.2019
1830 Clouds 4 1026 80 10000 4.6 130 23:58 27.12.2019
1831 Clouds 4 1026 80 10000 4.6 130 23:39 27.12.2019
1832 Clouds 4 1026 80 10000 4.6 130 23:19 27.12.2019
1833 Clouds 4 1025 80 10000 4.6 140 22:57 27.12.2019
1834 Clouds 4 1025 80 10000 4.6 140 22:38 27.12.2019
1835 Clouds 4 1025 80 10000 4.6 140 22:38 27.12.2019
1836 Clouds 3 1025 55 10000 1 0 22:19 27.12.2019
1837 Clear 5 1025 55 0 1.79 130 21:43 27.12.2019
1838 Clear 5 1025 55 0 1.79 130 21:43 27.12.2019
1839 Clear 5 1025 55 0 1.79 130 21:25 27.12.2019
1840 Clear 5 1025 55 0 1.79 130 20:58 27.12.2019
1841 Clear 5 1025 55 0 1.79 130 20:40 27.12.2019
1842 Clear 5 1025 51 0 1.79 130 20:21 27.12.2019
1843 Clear 5 1025 51 0 1.79 130 19:41 27.12.2019
1844 Clear 5 1025 51 0 1.79 130 19:20 27.12.2019
1845 Clear 5 1025 51 0 1.79 130 18:57 27.12.2019
1846 Clear 5 1025 51 0 1.79 130 18:37 27.12.2019
1847 Clear 5 1025 51 0 1.79 130 18:19 27.12.2019
1848 Clear 5 1025 51 0 1.79 130 17:55 27.12.2019
1849 Clear 5 1025 51 0 1.79 130 17:37 27.12.2019
1850 Clear 5 1025 52 0 1.79 130 17:18 27.12.2019
1851 Clear 5 1025 52 0 1.79 130 16:44 27.12.2019
1852 Clouds 4 1026 52 10000 2.1 10 16:26 27.12.2019
1853 Clouds 4 1026 52 10000 2.1 10 15:58 27.12.2019
1854 Clouds 4 1026 52 10000 2.1 10 15:40 27.12.2019
1855 Clouds 4 1026 52 10000 2.1 10 15:19 27.12.2019
1856 Clouds 4 1025 86 10000 2.1 330 14:56 27.12.2019
1857 Clouds 4 1025 86 10000 2.1 330 14:38 27.12.2019
1858 Clouds 4 1025 86 10000 2.1 330 14:20 27.12.2019
1859 Clouds 5 1025 52 10000 2.1 130 13:47 27.12.2019
1860 Clouds 5 1025 52 10000 2.1 130 13:24 27.12.2019
1861 Clouds 6 1024 51 10000 1.5 50 12:56 27.12.2019
1862 Clouds 6 1024 51 10000 1.5 50 12:37 27.12.2019
1863 Clouds 6 1024 51 10000 1.5 50 12:18 27.12.2019
1864 Clouds 6 1024 51 10000 1.5 50 12:18 27.12.2019
1865 Clouds 6 1023 60 10000 1 0 11:42 27.12.2019
1866 Clouds 6 1023 60 10000 1 0 11:20 27.12.2019
1867 Clouds 7 1022 52 10000 4.1 320 10:47 27.12.2019
1868 Clouds 7 1022 52 10000 4.1 320 10:24 27.12.2019
1869 Clouds 8 1022 49 10000 5.7 310 09:59 27.12.2019
1870 Clouds 8 1022 49 10000 5.7 310 09:39 27.12.2019
1871 Clouds 8 1022 49 10000 5.7 310 09:21 27.12.2019
1872 Clouds 9 1021 42 10000 6.7 310 08:49 27.12.2019
1873 Clouds 9 1021 42 10000 6.7 310 08:30 27.12.2019
1874 Clouds 10 1021 43 10000 7.7 310 07:48 27.12.2019
1875 Clouds 10 1021 43 10000 7.7 310 07:26 27.12.2019
1876 Clouds 10 1020 39 10000 7.7 330 06:33 27.12.2019
1877 Clouds 10 1020 40 10000 7.7 330 04:51 27.12.2019
1878 Clouds 9 1021 42 10000 9.8 320 02:35 27.12.2019
1879 Clouds 8 1020 52 10000 8.2 320 01:48 27.12.2019
1880 Clouds 8 1020 52 10000 8.2 320 01:23 27.12.2019
1881 Clouds 7 1020 72 10000 8.7 310 00:52 27.12.2019
1882 Clouds 7 1019 72 10000 8.7 320 00:34 27.12.2019
1883 Clouds 7 1019 72 10000 8.7 320 00:34 27.12.2019
1884 Clouds 7 1019 52 10000 10.8 310 23:57 26.12.2019
1885 Clouds 7 1019 52 10000 10.8 310 23:38 26.12.2019
1886 Clouds 7 1018 52 10000 9.8 310 23:20 26.12.2019
1887 Clouds 8 1018 49 10000 11.8 310 22:42 26.12.2019
1888 Clouds 7 1017 65 10000 5.7 300 22:21 26.12.2019
1889 Rain 9 1018 71 0 13.24 328 21:55 26.12.2019
1890 Rain 9 1018 71 0 13.24 328 21:55 26.12.2019
1891 Rain 9 1018 71 0 13.24 328 21:37 26.12.2019
1892 Rain 9 1018 71 0 13.24 328 21:19 26.12.2019
1893 Rain 9 1018 71 0 13.24 328 20:44 26.12.2019
1894 Rain 9 1018 71 0 13.24 328 20:44 26.12.2019
1895 Rain 13 1011 87 0 10.28 320 20:22 26.12.2019
1896 Rain 10 1017 73 0 13.78 323 19:58 26.12.2019
1897 Rain 10 1017 73 0 13.78 323 19:38 26.12.2019
1898 Rain 10 1017 73 0 13.78 323 19:20 26.12.2019
1899 Rain 10 1017 73 0 13.78 323 18:57 26.12.2019
1900 Rain 10 1017 73 0 13.78 323 18:37 26.12.2019
1901 Rain 10 1017 73 0 13.78 323 18:19 26.12.2019
1902 Rain 10 1017 73 0 13.78 323 17:42 26.12.2019
1903 Rain 13 1009 87 0 10.28 320 17:22 26.12.2019
1904 Rain 13 1011 87 0 10.28 320 16:54 26.12.2019
1905 Rain 13 1009 87 0 10.28 320 16:36 26.12.2019
1906 Clouds 12 1012 76 10000 12.9 300 16:36 26.12.2019
1907 Clouds 12 1012 76 10000 12.9 300 16:18 26.12.2019
1908 Clouds 11 1012 76 10000 12.9 300 15:40 26.12.2019
1909 Clouds 11 1012 76 10000 12.9 300 15:19 26.12.2019
1910 Rain 11 1012 81 10000 10.3 290 14:43 26.12.2019
1911 Clouds 12 1011 87 10000 8.2 290 14:24 26.12.2019
1912 Clouds 12 1011 87 10000 8.2 290 14:24 26.12.2019
1913 Clouds 12 1011 87 10000 8.2 290 14:24 26.12.2019
1914 Clouds 12 1011 87 10000 8.2 290 14:24 26.12.2019
1915 Rain 12 1011 87 10000 10.3 320 13:58 26.12.2019
1916 Rain 12 1011 87 10000 10.3 320 13:40 26.12.2019
1917 Rain 12 1011 87 10000 9.8 320 13:18 26.12.2019
1918 Rain 12 1010 93 10000 10.3 310 12:56 26.12.2019
1919 Rain 12 1010 93 10000 10.3 310 12:36 26.12.2019
1920 Rain 13 1010 93 10000 10.3 310 12:18 26.12.2019
1921 Clouds 14 1008 93 10000 6.7 330 11:42 26.12.2019
1922 Clouds 14 1008 93 10000 6.7 330 11:42 26.12.2019
1923 Clouds 14 1008 93 10000 6.7 330 11:23 26.12.2019
1924 Rain 14 1007 93 4000 6.7 330 10:54 26.12.2019
1925 Rain 14 1007 93 4000 6.7 330 10:36 26.12.2019
1926 Rain 14 1006 93 8000 4.6 140 10:18 26.12.2019
1927 Mist 14 1007 93 4000 1 0 09:42 26.12.2019
1928 Rain 14 1006 93 10000 2.1 130 09:24 26.12.2019
1929 Rain 14 1007 93 5000 12 281 08:40 26.12.2019
1930 Rain 14 1007 93 4500 0.5 0 08:21 26.12.2019
1931 Rain 14 1008 93 3000 2.1 340 07:46 26.12.2019
1932 Rain 14 1008 93 6000 0.5 0 07:26 26.12.2019
1933 Rain 15 1008 87 10000 3.1 140 06:39 26.12.2019
1934 Rain 15 1008 87 10000 3.1 140 06:20 26.12.2019
1935 Clouds 14 1009 87 10000 2.6 140 05:43 26.12.2019
1936 Clouds 13 1010 93 10000 5.1 140 04:36 26.12.2019
1937 Clouds 13 1011 87 10000 4.6 130 03:32 26.12.2019
1938 Rain 12 1013 93 9000 4.6 140 02:46 26.12.2019
1939 Rain 12 1013 93 9000 4.6 140 02:27 26.12.2019
1940 Rain 12 1013 93 6000 5.1 140 01:44 26.12.2019
1941 Rain 11 1013 93 6000 5.1 140 01:25 26.12.2019
1942 Rain 11 1013 100 8000 4.1 140 00:44 26.12.2019
1943 Rain 11 1013 100 8000 4.1 140 00:23 26.12.2019
1944 Rain 11 1013 100 6000 1.5 140 23:57 25.12.2019
1945 Rain 11 1013 100 6000 1.5 140 23:37 25.12.2019
1946 Rain 11 1013 100 6000 1.5 140 23:19 25.12.2019
1947 Rain 10 1014 93 6000 1 0 22:56 25.12.2019
1948 Rain 10 1014 93 6000 1 0 22:37 25.12.2019
1949 Rain 10 1013 100 3500 2.6 290 22:18 25.12.2019
1950 Rain 10 1013 100 3500 2.6 290 22:18 25.12.2019
1951 Rain 10 1016 99 0 1.79 130 21:55 25.12.2019
1952 Rain 10 1016 99 0 1.79 130 21:55 25.12.2019
1953 Rain 10 1016 99 0 1.79 130 21:37 25.12.2019
1954 Rain 10 1016 99 0 1.79 130 21:18 25.12.2019
1955 Rain 10 1016 99 0 1.79 130 20:40 25.12.2019
1956 Rain 10 1016 99 0 1.79 130 20:21 25.12.2019
1957 Rain 10 1016 99 0 1.79 130 19:59 25.12.2019
1958 Rain 10 1016 99 0 1.79 130 19:40 25.12.2019
1959 Rain 10 1016 99 0 1.79 130 19:21 25.12.2019
1960 Rain 10 1016 99 0 1.79 130 18:40 25.12.2019
1961 Rain 14 1013 88 0 4.86 58 18:20 25.12.2019
1962 Rain 14 1013 88 0 4.86 58 17:57 25.12.2019
1963 Rain 14 1013 88 0 4.86 58 17:39 25.12.2019
1964 Rain 14 1015 90 0 6.56 37 17:18 25.12.2019
1965 Rain 14 1015 90 0 6.56 37 16:39 25.12.2019
1966 Rain 10 1016 93 3000 2.6 340 16:20 25.12.2019
1967 Rain 10 1016 93 3000 2.6 340 15:58 25.12.2019
1968 Rain 10 1016 93 3000 2.6 340 15:40 25.12.2019
1969 Rain 10 1016 93 3000 2.6 340 15:21 25.12.2019
1970 Rain 10 1017 100 3000 2.1 330 14:59 25.12.2019
1971 Rain 10 1017 100 3000 2.1 330 14:40 25.12.2019
1972 Rain 10 1017 100 3000 2.1 330 14:21 25.12.2019
1973 Rain 10 1016 100 4000 2.1 130 13:57 25.12.2019
1974 Rain 10 1016 100 4000 2.1 130 13:38 25.12.2019
1975 Rain 10 1016 100 4000 2.1 130 13:19 25.12.2019
1976 Rain 11 1017 93 4500 2.6 150 12:42 25.12.2019
1977 Rain 10 1017 93 4500 2.6 150 12:20 25.12.2019
1978 Rain 10 1017 93 8000 3.6 130 11:56 25.12.2019
1979 Rain 10 1017 93 8000 3.6 130 11:56 25.12.2019
1980 Rain 10 1017 93 8000 3.6 130 11:38 25.12.2019
1981 Rain 10 1017 93 8000 3.6 130 11:18 25.12.2019
1982 Rain 10 1018 93 8000 1 0 10:38 25.12.2019
1983 Rain 10 1018 93 8000 1 0 10:20 25.12.2019
1984 Clouds 10 1018 87 8000 1 0 09:51 25.12.2019
1985 Clouds 10 1018 87 8000 1 0 09:32 25.12.2019
1986 Clouds 10 1018 93 6000 3.83 72 08:51 25.12.2019
1987 Clouds 10 1018 93 6000 3.83 72 08:51 25.12.2019
1988 Clouds 10 1018 93 6000 3.83 72 08:31 25.12.2019
1989 Rain 10 1018 87 8000 3.6 130 07:52 25.12.2019
1990 Rain 10 1018 87 8000 3.6 130 07:34 25.12.2019
1991 Clouds 10 1019 93 8000 2.1 120 06:52 25.12.2019
1992 Clouds 9 1019 93 8000 2.1 120 06:23 25.12.2019
1993 Clouds 10 1020 93 7000 0.5 0 05:18 25.12.2019
1994 Rain 9 1021 93 6000 2.1 140 04:39 25.12.2019
1995 Rain 9 1021 93 6000 2.1 140 04:20 25.12.2019
1996 Rain 9 1023 81 6000 0.5 0 03:42 25.12.2019
1997 Rain 9 1024 76 8000 2.6 100 02:54 25.12.2019
1998 Rain 9 1024 76 8000 2.6 100 02:27 25.12.2019
1999 Clouds 9 1023 76 10000 2.6 130 01:25 25.12.2019
2000 Clouds 8 1023 81 10000 4.1 140 00:54 25.12.2019
2001 Clouds 8 1023 81 10000 4.1 140 00:32 25.12.2019
2002 Clouds 6 1023 87 10000 3.1 130 23:57 24.12.2019
2003 Clouds 7 1023 87 10000 3.1 130 23:38 24.12.2019
2004 Clouds 7 1023 87 10000 3.1 130 23:20 24.12.2019
2005 Clouds 6 1023 87 10000 3.1 130 22:41 24.12.2019
2006 Clouds 5 1023 93 10000 3.1 360 22:21 24.12.2019
2007 Clouds 9 1024 87 0 1.79 130 21:44 24.12.2019
2008 Clouds 9 1024 87 0 1.79 130 21:23 24.12.2019
2009 Clouds 9 1024 87 0 1.79 130 20:57 24.12.2019
2010 Clouds 9 1024 87 0 1.79 130 20:39 24.12.2019
2011 Clear 9 1024 87 0 1.79 130 20:18 24.12.2019
2012 Clear 9 1024 87 0 1.79 130 19:44 24.12.2019
2013 Clear 9 1024 87 0 1.79 130 19:20 24.12.2019
2014 Clear 9 1024 87 0 1.79 130 18:43 24.12.2019
2015 Clear 9 1024 87 0 1.79 130 18:24 24.12.2019
2016 Clear 9 1024 87 0 1.79 130 17:58 24.12.2019
2017 Clear 9 1024 87 0 1.79 130 17:38 24.12.2019
2018 Clear 9 1024 87 0 1.79 130 17:20 24.12.2019
2019 Clear 9 1024 87 0 1.79 130 16:55 24.12.2019
2020 Clear 9 1024 87 0 1.79 130 16:37 24.12.2019
2021 Clouds 8 1025 87 10000 2.1 320 16:19 24.12.2019
2022 Clouds 8 1025 87 10000 2.1 320 16:19 24.12.2019
2023 Clouds 8 1025 87 10000 2.1 320 15:54 24.12.2019
2024 Clouds 8 1025 87 10000 2.1 320 15:36 24.12.2019
2025 Clouds 8 1025 87 10000 2.1 320 15:18 24.12.2019
2026 Clouds 8 1025 81 10000 2.6 320 14:54 24.12.2019
2027 Clouds 8 1025 81 10000 2.6 320 14:36 24.12.2019
2028 Clouds 9 1025 81 10000 2.6 320 14:18 24.12.2019
2029 Clouds 9 1024 87 10000 2.1 130 13:54 24.12.2019
2030 Clouds 9 1024 87 10000 2.1 130 13:36 24.12.2019
2031 Clouds 9 1024 87 10000 2.1 130 13:18 24.12.2019
2032 Clouds 9 1023 87 10000 1 0 12:54 24.12.2019
2033 Clouds 9 1023 87 10000 1 0 12:36 24.12.2019
2034 Clouds 9 1023 87 10000 1 0 12:18 24.12.2019
2035 Clouds 10 1023 81 10000 1.5 350 11:54 24.12.2019
2036 Clouds 10 1023 81 10000 1.5 350 11:36 24.12.2019
2037 Clouds 10 1023 81 10000 1.5 350 11:18 24.12.2019
2038 Clouds 11 1023 76 10000 3.1 150 10:54 24.12.2019
2039 Clouds 11 1023 76 10000 3.1 150 10:54 24.12.2019
2040 Clouds 11 1023 76 10000 3.1 150 10:36 24.12.2019
2041 Clouds 11 1023 76 10000 3.1 150 10:18 24.12.2019
2042 Clouds 11 1023 66 10000 3.1 130 09:54 24.12.2019
2043 Clouds 11 1023 66 10000 3.1 130 09:36 24.12.2019
2044 Clouds 12 1023 66 10000 3.1 130 09:18 24.12.2019
2045 Clouds 13 1022 62 10000 2.1 170 08:42 24.12.2019
2046 Clouds 13 1022 62 10000 2.1 170 08:19 24.12.2019
2047 Clouds 13 1022 62 8000 2.1 170 07:44 24.12.2019
2048 Clouds 13 1022 62 8000 2.1 170 07:22 24.12.2019
2049 Clouds 12 1022 66 8000 1 0 06:41 24.12.2019
2050 Clouds 12 1022 66 8000 1 0 06:22 24.12.2019
2051 Clouds 12 1023 71 8000 1.5 160 05:56 24.12.2019
2052 Clouds 12 1023 71 8000 1.5 160 05:56 24.12.2019
2053 Clouds 12 1023 71 8000 1.5 160 05:20 24.12.2019
2054 Clouds 11 1024 71 8000 2.1 350 04:22 24.12.2019
2055 Clouds 10 1025 71 8000 1 0 03:50 24.12.2019
2056 Clouds 9 1025 81 8000 1 0 02:37 24.12.2019
2057 Clouds 9 1025 81 8000 1 0 02:18 24.12.2019
2058 Clouds 8 1024 87 8000 2.6 140 01:42 24.12.2019
2059 Clouds 8 1024 87 8000 2.6 140 01:42 24.12.2019
2060 Clouds 8 1024 87 8000 2.6 140 01:19 24.12.2019
2061 Clouds 7 1024 87 8000 3.1 130 00:40 24.12.2019
2062 Clouds 7 1024 87 8000 3.1 130 00:20 24.12.2019
2063 Clouds 7 1023 87 8000 3.1 130 23:43 23.12.2019
2064 Clouds 7 1023 87 8000 3.1 130 23:24 23.12.2019
2065 Clouds 7 1023 87 8000 2.1 100 22:57 23.12.2019
2066 Clouds 7 1023 87 8000 2.1 100 22:38 23.12.2019
2067 Clouds 6 1023 93 6000 2.1 330 22:20 23.12.2019
2068 Clouds 9 1022 87 0 1.79 130 21:57 23.12.2019
2069 Clouds 9 1022 87 0 1.79 130 21:37 23.12.2019
2070 Clouds 9 1022 87 0 1.79 130 21:19 23.12.2019
2071 Clouds 9 1022 87 0 1.79 130 20:59 23.12.2019
2072 Clouds 9 1022 87 0 1.79 130 20:41 23.12.2019
2073 Clouds 9 1022 87 0 1.79 130 20:19 23.12.2019
2074 Clouds 9 1022 87 0 1.79 130 19:58 23.12.2019
2075 Clouds 9 1022 87 0 1.79 130 19:40 23.12.2019
2076 Clouds 9 1022 87 0 1.79 130 19:21 23.12.2019
2077 Clouds 9 1022 87 0 1.79 130 18:58 23.12.2019
2078 Clouds 9 1022 87 0 1.79 130 18:58 23.12.2019
2079 Clouds 9 1022 87 0 1.79 130 18:39 23.12.2019
2080 Clouds 9 1022 87 0 1.79 130 18:20 23.12.2019
2081 Clouds 9 1022 87 0 1.79 130 17:59 23.12.2019
2082 Clouds 9 1022 87 0 1.79 130 17:40 23.12.2019
2083 Clouds 9 1022 87 0 1.79 130 17:19 23.12.2019
2084 Clouds 9 1022 87 0 1.79 130 16:57 23.12.2019
2085 Clouds 9 1022 87 0 1.79 130 16:39 23.12.2019
2086 Clouds 8 1022 100 10000 0.5 0 16:18 23.12.2019
2087 Clouds 8 1022 100 10000 0.5 0 15:57 23.12.2019
2088 Clouds 8 1022 100 10000 0.5 0 15:37 23.12.2019
2089 Clouds 8 1022 100 10000 0.5 0 15:19 23.12.2019
2090 Clouds 8 1022 93 10000 1.5 50 14:56 23.12.2019
2091 Clouds 8 1022 93 10000 1.5 50 14:56 23.12.2019
2092 Clouds 8 1022 93 10000 1.5 50 14:37 23.12.2019
2093 Clouds 8 1022 93 10000 1.5 50 14:18 23.12.2019
2094 Clouds 9 1022 87 10000 2.1 130 13:55 23.12.2019
2095 Clouds 9 1022 87 10000 2.1 130 13:37 23.12.2019
2096 Clouds 9 1022 87 10000 2.1 130 13:19 23.12.2019
2097 Clouds 9 1021 76 10000 1 0 12:41 23.12.2019
2098 Clouds 9 1021 76 10000 1 0 12:21 23.12.2019
2099 Clouds 11 1021 76 10000 2.1 350 11:57 23.12.2019
2100 Clouds 11 1021 76 10000 2.1 350 11:38 23.12.2019
2101 Clear 11 1021 76 10000 2.1 350 11:20 23.12.2019
2102 Clouds 12 1020 62 10000 3.1 310 10:55 23.12.2019
2103 Clouds 12 1020 62 10000 3.1 310 10:55 23.12.2019
2104 Clouds 12 1020 62 10000 3.1 310 10:37 23.12.2019
2105 Clouds 12 1020 62 10000 3.1 310 10:18 23.12.2019
2106 Clouds 12 1020 62 10000 3.1 310 09:54 23.12.2019
2107 Clouds 12 1020 62 10000 3.1 310 09:36 23.12.2019
2108 Clouds 12 1020 62 10000 3.1 310 09:18 23.12.2019
2109 Clouds 13 1020 50 10000 5.1 310 08:41 23.12.2019
2110 Clouds 13 1020 50 10000 5.1 310 08:22 23.12.2019
2111 Clouds 14 1019 44 10000 5.7 310 07:49 23.12.2019
2112 Clouds 14 1019 44 10000 5.7 310 07:22 23.12.2019
2113 Clouds 13 1019 58 10000 2.6 270 06:57 23.12.2019
2114 Clouds 13 1019 58 10000 2.6 270 06:30 23.12.2019
2115 Clouds 12 1019 66 10000 0.5 0 05:56 23.12.2019
2116 Clouds 12 1019 66 10000 0.5 0 05:30 23.12.2019
2117 Clouds 11 1020 71 10000 1 0 04:39 23.12.2019
2118 Clouds 10 1020 71 10000 1 0 03:28 23.12.2019
2119 Clouds 9 1021 81 10000 3.1 140 02:43 23.12.2019
2120 Clouds 9 1021 81 10000 3.1 140 02:19 23.12.2019
2121 Clouds 7 1020 93 10000 3.1 140 01:44 23.12.2019
2122 Clouds 7 1020 93 10000 3.1 140 01:26 23.12.2019
2123 Clouds 5 1019 93 10000 4.1 140 00:44 23.12.2019
2124 Clouds 5 1019 93 10000 4.1 140 00:44 23.12.2019
2125 Clouds 5 1019 93 10000 4.1 140 00:23 23.12.2019
2126 Clouds 4 1019 100 10000 2.1 130 23:40 22.12.2019
2127 Clouds 4 1019 100 10000 2.1 130 23:22 22.12.2019
2128 Clouds 4 1019 100 10000 2.1 130 23:22 22.12.2019
2129 Clouds 4 1019 93 10000 3.1 130 22:58 22.12.2019
2130 Clouds 4 1019 93 10000 3.1 130 22:40 22.12.2019
2131 Fog 3 1019 100 6000 2.1 340 22:22 22.12.2019
2132 Clear 8 1016 87 0 4.47 330 21:58 22.12.2019
2133 Clear 8 1016 87 0 4.47 330 21:40 22.12.2019
2134 Clear 8 1016 87 0 4.47 330 21:21 22.12.2019
2135 Clear 8 1016 87 0 4.47 330 20:58 22.12.2019
2136 Clear 8 1016 87 0 4.47 330 20:39 22.12.2019
2137 Clear 8 1016 87 0 4.47 330 20:19 22.12.2019
2138 Clear 8 1016 87 0 4.47 330 19:56 22.12.2019
2139 Clear 8 1016 87 0 4.47 330 19:37 22.12.2019
2140 Clear 8 1016 87 0 4.47 330 19:19 22.12.2019
2141 Clear 8 1016 87 0 4.47 330 18:41 22.12.2019
2142 Clear 8 1016 87 0 4.47 330 18:23 22.12.2019
2143 Clear 8 1016 87 0 4.47 330 17:56 22.12.2019
2144 Clear 8 1016 87 0 4.47 330 17:37 22.12.2019
2145 Clear 8 1016 87 0 4.47 330 17:18 22.12.2019
2146 Clear 8 1016 87 0 4.47 330 16:57 22.12.2019
2147 Clear 8 1016 87 0 4.47 330 16:38 22.12.2019
2148 Clouds 5 1017 93 10000 3.1 340 16:19 22.12.2019
2149 Clouds 6 1017 93 10000 3.1 340 15:56 22.12.2019
2150 Clouds 6 1017 93 10000 3.1 340 15:37 22.12.2019
2151 Clouds 6 1017 93 10000 3.1 340 15:19 22.12.2019
2152 Clouds 6 1017 93 10000 1.5 350 14:54 22.12.2019
2153 Clouds 6 1017 93 10000 1.5 350 14:36 22.12.2019
2154 Clouds 7 1017 93 10000 1.5 350 14:18 22.12.2019
2155 Clouds 7 1016 87 10000 4.6 330 13:55 22.12.2019
2156 Clouds 7 1016 87 10000 4.6 330 13:36 22.12.2019
2157 Clouds 7 1016 87 10000 4.6 330 13:18 22.12.2019
2158 Clouds 7 1016 87 10000 4.6 330 13:18 22.12.2019
2159 Clouds 7 1016 75 10000 6.7 10 12:54 22.12.2019
2160 Clouds 7 1016 75 10000 6.7 10 12:54 22.12.2019
2161 Clouds 7 1016 75 10000 6.7 10 12:54 22.12.2019
2162 Clouds 7 1016 75 10000 6.7 10 12:36 22.12.2019
2163 Clouds 7 1016 75 10000 6.7 10 12:18 22.12.2019
2164 Clouds 8 1014 70 10000 3.6 40 11:39 22.12.2019
2165 Clouds 8 1014 70 10000 3.6 40 11:20 22.12.2019
2166 Clouds 8 1014 76 10000 4.1 70 10:58 22.12.2019
2167 Clouds 8 1014 76 10000 4.1 70 10:40 22.12.2019
2168 Clouds 8 1014 76 10000 4.1 70 10:21 22.12.2019
2169 Rain 7 1013 87 10000 3.1 100 09:58 22.12.2019
2170 Rain 7 1013 87 10000 3.1 100 09:40 22.12.2019
2171 Rain 7 1013 87 10000 3.1 100 09:21 22.12.2019
2172 Rain 7 1013 81 10000 2.6 340 08:55 22.12.2019
2173 Rain 7 1013 81 10000 2.6 340 08:37 22.12.2019
2174 Rain 7 1013 81 10000 2.6 340 08:18 22.12.2019
2175 Rain 7 1013 81 10000 1 0 07:36 22.12.2019
2176 Rain 7 1013 81 10000 1 0 07:18 22.12.2019
2177 Rain 7 1012 81 10000 4.1 50 06:40 22.12.2019
2178 Rain 7 1013 81 6000 1.5 40 05:49 22.12.2019
2179 Rain 7 1012 81 10000 3.6 40 05:21 22.12.2019
2180 Rain 8 1015 81 8000 5.7 70 04:28 22.12.2019
2181 Rain 8 1016 81 10000 5.1 50 03:45 22.12.2019
2182 Rain 9 1018 76 10000 3.6 30 02:38 22.12.2019
2183 Rain 9 1018 76 9000 3.1 40 01:37 22.12.2019
2184 Rain 9 1018 76 9000 3.1 40 01:18 22.12.2019
2185 Rain 9 1019 81 8000 2.1 10 00:45 22.12.2019
2186 Rain 9 1018 76 10000 2.6 20 00:21 22.12.2019
2187 Rain 10 1018 71 10000 4.1 20 23:42 21.12.2019
2188 Rain 10 1018 71 10000 4.1 20 23:24 21.12.2019
2189 Rain 10 1018 53 10000 1.5 0 22:59 21.12.2019
2190 Rain 10 1018 53 10000 1.5 0 22:40 21.12.2019
2191 Clouds 10 1018 71 10000 5.7 40 22:19 21.12.2019
2192 Rain 11 1022 62 0 5.61 55 21:56 21.12.2019
2193 Rain 11 1022 62 0 5.61 55 21:37 21.12.2019
2194 Rain 11 1022 62 0 5.61 55 21:19 21.12.2019
2195 Rain 11 1022 62 0 5.61 55 20:57 21.12.2019
2196 Rain 11 1022 62 0 5.61 55 20:38 21.12.2019
2197 Rain 11 1022 62 0 3.73 34 20:20 21.12.2019
2198 Rain 11 1022 62 0 3.73 34 19:57 21.12.2019
2199 Rain 11 1022 62 0 3.73 34 19:57 21.12.2019
2200 Rain 11 1022 62 0 3.73 34 19:57 21.12.2019
2201 Rain 11 1022 62 0 3.73 34 19:39 21.12.2019
2202 Rain 11 1022 62 0 3.73 34 19:19 21.12.2019
2203 Rain 11 1022 62 0 3.73 34 18:42 21.12.2019
2204 Rain 11 1022 62 0 3.73 34 18:23 21.12.2019
2205 Rain 11 1022 62 0 3.73 34 17:57 21.12.2019
2206 Rain 11 1022 62 0 3.73 34 17:39 21.12.2019
2207 Clouds 11 1022 62 0 5.64 42 17:20 21.12.2019
2208 Clouds 11 1022 62 0 5.64 42 16:57 21.12.2019
2209 Clouds 11 1022 62 0 5.64 42 16:57 21.12.2019
2210 Clouds 11 1022 62 0 5.64 42 16:39 21.12.2019
2211 Clouds 10 1021 76 10000 5.7 30 16:18 21.12.2019
2212 Clouds 10 1021 76 10000 5.7 30 15:56 21.12.2019
2213 Clouds 10 1021 76 10000 5.7 30 15:37 21.12.2019
2214 Clouds 10 1021 76 10000 5.7 30 15:18 21.12.2019
2215 Clouds 10 1022 71 10000 6.7 40 14:43 21.12.2019
2216 Clouds 11 1022 71 10000 6.7 40 14:24 21.12.2019
2217 Rain 11 1022 62 10000 1 0 13:58 21.12.2019
2218 Rain 11 1022 62 10000 1 0 13:40 21.12.2019
2219 Rain 11 1022 62 10000 1 0 13:20 21.12.2019
2220 Rain 11 1022 62 10000 1 0 13:20 21.12.2019
2221 Rain 11 1023 62 10000 2.6 140 12:57 21.12.2019
2222 Rain 11 1023 62 10000 2.6 140 12:39 21.12.2019
2223 Rain 11 1023 62 10000 2.6 140 12:20 21.12.2019
2224 Clouds 11 1024 62 10000 0.5 0 11:55 21.12.2019
2225 Clouds 11 1024 62 10000 0.5 0 11:37 21.12.2019
2226 Clouds 11 1024 62 10000 0.5 0 11:19 21.12.2019
2227 Rain 10 1024 71 10000 4.1 140 10:41 21.12.2019
2228 Rain 10 1024 71 10000 4.1 140 10:22 21.12.2019
2229 Clouds 10 1024 71 10000 4.1 120 09:58 21.12.2019
2230 Clouds 10 1024 71 10000 4.1 120 09:39 21.12.2019
2231 Clouds 10 1024 71 10000 4.1 120 09:19 21.12.2019
2232 Clouds 11 1024 62 10000 1.5 360 08:51 21.12.2019
2233 Clouds 11 1024 62 10000 1.5 360 08:27 21.12.2019
2234 Clouds 11 1024 62 10000 6.7 350 07:58 21.12.2019
2235 Clouds 11 1024 62 10000 6.7 350 07:58 21.12.2019
2236 Clouds 11 1024 62 10000 6.7 350 07:39 21.12.2019
2237 Clouds 11 1024 62 10000 6.7 350 07:20 21.12.2019
2238 Clouds 11 1023 66 10000 4.6 350 06:40 21.12.2019
2239 Clouds 11 1023 66 10000 4.6 350 06:22 21.12.2019
2240 Clouds 10 1024 66 10000 5.82 26 05:25 21.12.2019
2241 Clouds 9 1025 70 10000 2.1 150 04:34 21.12.2019
2242 Clouds 8 1025 76 10000 3.6 150 03:56 21.12.2019
2243 Clouds 8 1025 76 10000 2.6 120 02:25 21.12.2019
2244 Clouds 8 1025 76 10000 2.6 120 02:25 21.12.2019
2245 Clouds 7 1026 87 10000 4.1 140 01:43 21.12.2019
2246 Clouds 7 1026 87 10000 4.1 140 01:24 21.12.2019
2247 Clouds 6 1026 87 10000 4.1 130 00:40 21.12.2019
2248 Clouds 6 1026 87 10000 4.1 130 00:21 21.12.2019
2249 Clouds 5 1025 87 10000 1.5 130 23:39 20.12.2019
2250 Clouds 5 1025 87 10000 1.5 130 23:39 20.12.2019
2251 Clouds 5 1025 87 10000 1.5 130 23:20 20.12.2019
2252 Clouds 5 1026 81 10000 1.5 90 22:57 20.12.2019
2253 Clouds 5 1026 81 10000 1.5 90 22:38 20.12.2019
2254 Clouds 5 1027 93 10000 1.5 350 22:18 20.12.2019
2255 Clouds 9 1028 66 0 4.92 360 21:41 20.12.2019
2256 Clouds 9 1028 66 0 4.92 360 21:21 20.12.2019
2257 Clouds 9 1028 66 0 4.92 360 20:57 20.12.2019
2258 Clouds 9 1028 66 0 4.92 360 20:38 20.12.2019
2259 Clouds 9 1028 66 0 4.92 360 20:19 20.12.2019
2260 Clouds 9 1028 66 0 4.92 360 19:43 20.12.2019
2261 Clouds 9 1028 66 0 4.92 360 19:21 20.12.2019
2262 Clouds 9 1028 66 0 4.92 360 18:58 20.12.2019
2263 Clouds 9 1028 66 0 4.92 360 18:39 20.12.2019
2264 Clouds 9 1028 66 0 4.92 360 18:21 20.12.2019
2265 Clouds 9 1028 66 0 4.92 360 18:21 20.12.2019
2266 Clouds 9 1028 66 0 4.92 360 17:56 20.12.2019
2267 Clouds 9 1028 66 0 4.92 360 17:56 20.12.2019
2268 Clouds 9 1028 66 0 4.92 360 17:38 20.12.2019
2269 Clouds 9 1028 66 0 4.92 360 17:20 20.12.2019
2270 Clouds 9 1028 66 0 4.92 360 16:41 20.12.2019
2271 Clouds 8 1029 75 10000 1.5 360 16:21 20.12.2019
2272 Clouds 8 1029 75 10000 1.5 360 15:57 20.12.2019
2273 Clouds 8 1029 75 10000 1.5 360 15:39 20.12.2019
2274 Clouds 8 1029 75 10000 1.5 360 15:20 20.12.2019
2275 Clouds 8 1028 66 10000 5.1 360 14:59 20.12.2019
2276 Clouds 8 1028 66 10000 5.1 360 14:59 20.12.2019
2277 Clouds 8 1028 66 10000 5.1 360 14:40 20.12.2019
2278 Clouds 8 1028 66 10000 5.1 360 14:22 20.12.2019
2279 Clouds 9 1028 61 10000 2.1 80 13:56 20.12.2019
2280 Clouds 9 1028 61 10000 2.1 80 13:56 20.12.2019
2281 Clouds 9 1028 61 10000 2.1 80 13:36 20.12.2019
2282 Clouds 9 1028 61 10000 2.1 80 13:18 20.12.2019
2283 Clouds 8 1028 65 10000 4.21 1 12:42 20.12.2019
2284 Clouds 8 1028 65 10000 4.21 1 12:20 20.12.2019
2285 Clouds 9 1026 61 10000 2.1 70 11:59 20.12.2019
2286 Clouds 9 1026 61 10000 2.1 70 11:40 20.12.2019
2287 Clouds 9 1026 61 10000 2.1 70 11:21 20.12.2019
2288 Clouds 9 1025 53 10000 2.6 30 10:59 20.12.2019
2289 Clouds 9 1025 53 10000 2.6 30 10:41 20.12.2019
2290 Clouds 8 1025 53 10000 2.6 30 10:22 20.12.2019
2291 Clouds 10 1025 53 10000 4.1 10 09:58 20.12.2019
2292 Clouds 10 1025 53 10000 4.1 10 09:40 20.12.2019
2293 Clouds 10 1025 53 10000 4.1 10 09:20 20.12.2019
2294 Clouds 11 1025 53 10000 4.1 360 08:44 20.12.2019
2295 Clouds 11 1025 53 10000 4.1 360 08:26 20.12.2019
2296 Clouds 11 1025 43 10000 5.7 350 07:59 20.12.2019
2297 Clouds 11 1025 43 10000 5.7 350 07:41 20.12.2019
2298 Clouds 11 1025 43 10000 5.7 350 07:20 20.12.2019
2299 Clouds 12 1025 45 10000 6.7 340 06:52 20.12.2019
2300 Clouds 12 1025 45 10000 6.7 340 06:33 20.12.2019
2301 Clouds 12 1025 45 10000 6.2 330 05:55 20.12.2019
2302 Clouds 12 1025 45 10000 6.2 330 05:36 20.12.2019
2303 Clouds 11 1026 40 10000 3.6 10 04:33 20.12.2019
2304 Clouds 11 1027 48 10000 5.7 360 03:30 20.12.2019
2305 Clouds 11 1027 48 10000 5.7 360 03:30 20.12.2019
2306 Clouds 10 1027 48 10000 5.7 340 02:43 20.12.2019
2307 Clouds 9 1028 57 10000 2.6 10 01:49 20.12.2019
2308 Clouds 9 1028 57 10000 2.6 10 01:49 20.12.2019
2309 Clouds 8 1028 56 10000 2.6 10 01:30 20.12.2019
2310 Clouds 7 1027 61 10000 2.6 30 00:43 20.12.2019
2311 Clouds 7 1027 61 10000 2.6 30 00:23 20.12.2019
2312 Clouds 7 1026 56 10000 3.1 30 23:44 19.12.2019
2313 Clouds 7 1026 56 10000 3.1 30 23:25 19.12.2019
2314 Clouds 7 1026 61 10000 4.1 20 22:59 19.12.2019
2315 Clouds 7 1026 61 10000 4.1 20 22:37 19.12.2019
2316 Clouds 7 1026 61 10000 4.1 20 22:18 19.12.2019
2317 Clear 11 1022 57 0 2.24 360 21:55 19.12.2019
2318 Clear 11 1022 57 0 2.24 360 21:37 19.12.2019
2319 Clear 11 1022 57 0 2.24 360 21:18 19.12.2019
2320 Clear 11 1022 57 0 2.24 360 20:55 19.12.2019
2321 Clear 11 1022 57 0 2.24 360 20:36 19.12.2019
2322 Clouds 11 1022 57 0 2.24 360 20:18 19.12.2019
2323 Clouds 11 1021 57 0 2.24 360 19:54 19.12.2019
2324 Clouds 11 1021 57 0 2.24 360 19:54 19.12.2019
2325 Clouds 11 1021 57 0 2.24 360 19:36 19.12.2019
2326 Clouds 11 1022 57 0 2.24 360 19:18 19.12.2019
2327 Clouds 11 1022 57 0 2.24 360 18:41 19.12.2019
2328 Clouds 11 1022 57 0 2.24 360 18:21 19.12.2019
2329 Clouds 11 1021 57 0 2.24 360 17:57 19.12.2019
2330 Clouds 11 1021 57 0 2.24 360 17:39 19.12.2019
2331 Clouds 11 1022 57 0 2.24 360 17:19 19.12.2019
2332 Clouds 11 1022 57 0 2.24 360 16:57 19.12.2019
2333 Clouds 11 1022 57 0 2.24 360 16:38 19.12.2019
2334 Clouds 10 1023 70 10000 3.1 300 16:20 19.12.2019
2335 Clouds 10 1023 70 10000 3.1 300 15:58 19.12.2019
2336 Clouds 10 1023 70 10000 3.1 300 15:39 19.12.2019
2337 Clouds 10 1023 70 10000 3.1 300 15:19 19.12.2019
2338 Clouds 10 1023 66 10000 3.1 270 14:57 19.12.2019
2339 Clouds 10 1023 66 10000 3.1 270 14:39 19.12.2019
2340 Clouds 11 1023 66 10000 3.1 270 14:18 19.12.2019
2341 Clouds 11 1022 57 10000 2.6 360 13:54 19.12.2019
2342 Clouds 11 1022 57 10000 2.6 360 13:36 19.12.2019
2343 Clouds 11 1022 57 10000 2.6 360 13:18 19.12.2019
2344 Clouds 11 1021 53 10000 4.1 340 12:54 19.12.2019
2345 Clouds 11 1021 53 10000 4.1 340 12:36 19.12.2019
2346 Clouds 11 1021 53 10000 4.1 340 12:18 19.12.2019
2347 Clouds 11 1021 53 10000 4.1 340 12:18 19.12.2019
2348 Clouds 11 1021 53 10000 6.2 330 11:42 19.12.2019
2349 Clouds 11 1021 53 10000 6.2 330 11:20 19.12.2019
2350 Clouds 11 1021 53 10000 6.2 330 11:20 19.12.2019
2351 Clouds 11 1021 53 10000 6.2 330 11:20 19.12.2019
2352 Clouds 12 1021 46 10000 6.7 330 10:59 19.12.2019
2353 Clouds 12 1021 46 10000 6.7 330 10:38 19.12.2019
2354 Clouds 12 1021 46 10000 6.7 330 10:20 19.12.2019
2355 Clouds 11 1020 66 10000 4.1 300 09:57 19.12.2019
2356 Clouds 11 1020 66 10000 4.1 300 09:38 19.12.2019
2357 Clouds 11 1020 66 10000 4.1 300 09:19 19.12.2019
2358 Clouds 11 1020 66 10000 4.1 300 09:19 19.12.2019
2359 Clouds 12 1020 54 10000 4.6 300 08:55 19.12.2019
2360 Clouds 12 1020 54 10000 4.6 300 08:37 19.12.2019
2361 Clouds 12 1020 54 10000 4.6 300 08:18 19.12.2019
2362 Clouds 13 1019 54 10000 6.2 310 07:54 19.12.2019
2363 Clouds 13 1019 54 10000 6.2 310 07:36 19.12.2019
2364 Clouds 13 1019 54 10000 6.2 310 07:18 19.12.2019
2365 Clouds 14 1019 54 10000 4.1 280 06:42 19.12.2019
2366 Clouds 14 1019 54 10000 4.1 280 06:23 19.12.2019
2367 Clouds 13 1019 58 10000 5.1 320 05:42 19.12.2019
2368 Clouds 13 1019 58 10000 5.1 320 05:19 19.12.2019
2369 Clouds 13 1021 62 10000 2.6 300 03:53 19.12.2019
2370 Clouds 13 1021 62 10000 3.1 300 02:28 19.12.2019
2371 Clouds 13 1021 62 10000 2.6 300 01:25 19.12.2019
2372 Clouds 11 1020 71 10000 2.6 310 00:57 19.12.2019
2373 Clouds 11 1020 71 10000 2.6 310 00:38 19.12.2019
2374 Clouds 11 1020 71 10000 2.6 310 00:19 19.12.2019
2375 Clouds 11 1019 71 10000 2.6 300 23:44 18.12.2019
2376 Clouds 11 1019 71 10000 2.6 300 23:19 18.12.2019
2377 Clouds 11 1019 76 10000 3.1 300 22:56 18.12.2019
2378 Clouds 11 1019 76 10000 3.1 300 22:56 18.12.2019
2379 Clouds 11 1019 76 10000 3.1 300 22:38 18.12.2019
2380 Clouds 11 1019 76 10000 3.1 300 22:20 18.12.2019
2381 Clear 12 1019 81 0 1.34 20 21:58 18.12.2019
2382 Clear 12 1019 81 0 1.34 20 21:58 18.12.2019
2383 Clear 12 1019 81 0 1.34 20 21:39 18.12.2019
2384 Clear 12 1020 81 0 1.34 20 21:20 18.12.2019
2385 Clear 12 1019 81 0 1.34 20 20:56 18.12.2019
2386 Clear 12 1019 81 0 1.34 20 20:38 18.12.2019
2387 Clear 12 1019 81 0 1.34 20 20:19 18.12.2019
2388 Clear 12 1020 81 0 1.34 20 19:56 18.12.2019
2389 Clear 12 1020 81 0 1.34 20 19:37 18.12.2019
2390 Clear 12 1020 81 0 1.34 20 19:18 18.12.2019
2391 Clear 12 1019 81 0 1.34 20 18:45 18.12.2019
2392 Clear 12 1019 81 0 1.34 20 18:25 18.12.2019
2393 Clear 12 1019 81 0 1.34 20 17:57 18.12.2019
2394 Clear 12 1019 81 0 1.34 20 17:39 18.12.2019
2395 Clear 12 1019 81 0 1.34 20 17:39 18.12.2019
2396 Clear 12 1019 81 0 1.34 20 17:20 18.12.2019
2397 Clear 12 1019 81 0 1.34 20 16:58 18.12.2019
2398 Clear 12 1019 81 0 1.34 20 16:39 18.12.2019
2399 Clouds 11 1019 87 10000 2.6 290 16:20 18.12.2019
2400 Clouds 11 1019 87 10000 2.6 290 15:56 18.12.2019
2401 Clouds 11 1019 87 10000 2.6 290 15:37 18.12.2019
2402 Clouds 11 1019 87 10000 2.6 290 15:19 18.12.2019
2403 Clouds 11 1019 93 8000 1 0 14:43 18.12.2019
2404 Clouds 11 1019 93 8000 1 0 14:22 18.12.2019
2405 Clouds 12 1020 81 10000 1.5 20 13:57 18.12.2019
2406 Clouds 12 1020 81 10000 1.5 20 13:39 18.12.2019
2407 Clouds 12 1020 81 10000 1.5 20 13:20 18.12.2019
2408 Clouds 12 1019 81 10000 3.6 310 12:59 18.12.2019
2409 Clouds 12 1019 81 10000 3.6 310 12:59 18.12.2019
2410 Clouds 12 1019 81 10000 3.6 310 12:39 18.12.2019
2411 Clouds 12 1019 81 10000 3.6 310 12:20 18.12.2019
2412 Clouds 12 1019 76 10000 3.6 310 11:56 18.12.2019
2413 Clouds 12 1019 76 10000 3.6 310 11:38 18.12.2019
2414 Clouds 12 1019 76 10000 3.6 310 11:19 18.12.2019
2415 Clouds 12 1018 76 10000 5.1 310 10:55 18.12.2019
2416 Clouds 12 1018 76 10000 5.1 310 10:37 18.12.2019
2417 Clouds 12 1018 76 10000 5.1 310 10:19 18.12.2019
2418 Clouds 13 1018 71 10000 5.1 300 09:50 18.12.2019
2419 Clouds 13 1018 71 10000 5.1 300 09:50 18.12.2019
2420 Clouds 13 1018 71 10000 5.1 300 09:50 18.12.2019
2421 Clouds 14 1018 71 10000 5.1 300 09:18 18.12.2019
2422 Clouds 15 1017 67 10000 4.6 310 08:41 18.12.2019
2423 Clouds 15 1017 67 10000 4.6 310 08:22 18.12.2019
2424 Clouds 16 1017 59 10000 4.6 300 07:45 18.12.2019
2425 Clouds 16 1017 59 10000 4.6 300 07:24 18.12.2019
2426 Clouds 16 1017 55 10000 4.1 300 06:57 18.12.2019
2427 Clouds 16 1017 55 10000 4.1 300 06:28 18.12.2019
2428 Clouds 16 1018 63 10000 5.7 320 05:57 18.12.2019
2429 Clouds 16 1018 72 10000 2.6 280 04:59 18.12.2019
2430 Clouds 15 1019 72 10000 1.5 270 02:55 18.12.2019
2431 Clouds 15 1019 72 10000 1.5 270 02:37 18.12.2019
2432 Clouds 15 1019 72 10000 1.5 270 02:18 18.12.2019
2433 Clouds 14 1019 76 10000 1 0 01:41 18.12.2019
2434 Clouds 14 1019 76 10000 1 0 01:22 18.12.2019
2435 Clouds 14 1019 76 10000 1 0 01:22 18.12.2019
2436 Clouds 13 1018 76 10000 4.6 300 00:41 18.12.2019
2437 Clouds 13 1018 76 10000 4.6 300 00:23 18.12.2019
2438 Clouds 13 1018 76 10000 4.6 300 00:23 18.12.2019
2439 Clouds 13 1017 82 10000 3.6 320 23:56 17.12.2019
2440 Clouds 13 1017 82 10000 3.6 320 23:38 17.12.2019
2441 Clouds 13 1017 82 10000 3.6 320 23:18 17.12.2019
2442 Rain 14 1018 76 10000 4.6 300 22:56 17.12.2019
2443 Rain 14 1018 76 10000 4.6 300 22:37 17.12.2019
2444 Clouds 14 1017 82 10000 3.1 270 22:18 17.12.2019
2445 Rain 16 1019 100 0 8.36 310 21:55 17.12.2019
2446 Rain 16 1019 100 0 8.36 310 21:37 17.12.2019
2447 Rain 16 1015 100 0 8.36 310 21:18 17.12.2019
2448 Rain 16 1019 100 0 8.36 310 20:55 17.12.2019
2449 Rain 16 1019 100 0 8.36 310 20:37 17.12.2019
2450 Clouds 16 1019 100 0 10.3 307 20:18 17.12.2019
2451 Clouds 16 1015 100 0 9.43 298 19:41 17.12.2019
2452 Clouds 16 1015 100 0 9.43 298 19:20 17.12.2019
2453 Clouds 16 1015 100 0 9.43 298 18:58 17.12.2019
2454 Clouds 16 1015 100 0 9.43 298 18:40 17.12.2019
2455 Clouds 16 1017 100 0 9.43 298 18:21 17.12.2019
2456 Clouds 16 1017 100 0 9.43 298 17:58 17.12.2019
2457 Clouds 16 1017 100 0 9.43 298 17:40 17.12.2019
2458 Rain 16 1017 100 0 9.03 302 17:19 17.12.2019
2459 Rain 16 1015 100 0 9.03 302 16:56 17.12.2019
2460 Rain 16 1015 100 0 9.03 302 16:37 17.12.2019
2461 Rain 16 1015 100 0 9.03 302 16:37 17.12.2019
2462 Mist 15 1014 100 1600 0.5 0 16:18 17.12.2019
2463 Mist 15 1014 100 1600 0.5 0 15:55 17.12.2019
2464 Mist 15 1014 100 1600 0.5 0 15:36 17.12.2019
2465 Mist 15 1014 100 1600 0.5 0 15:18 17.12.2019
2466 Mist 15 1014 100 1200 2.1 180 14:54 17.12.2019
2467 Mist 15 1014 100 1200 2.1 180 14:36 17.12.2019
2468 Mist 15 1014 100 1200 2.1 180 14:36 17.12.2019
2469 Mist 15 1014 100 1200 2.1 180 14:18 17.12.2019
2470 Clouds 15 1015 100 8000 0.5 0 13:54 17.12.2019
2471 Clouds 15 1015 100 8000 0.5 0 13:36 17.12.2019
2472 Clouds 15 1015 100 8000 0.5 0 13:18 17.12.2019
2473 Clouds 15 1015 100 7000 2.1 150 12:40 17.12.2019
2474 Clouds 15 1015 100 7000 2.1 150 12:19 17.12.2019
2475 Clouds 15 1015 100 8000 2.1 160 11:59 17.12.2019
2476 Clouds 16 1015 100 8000 2.1 160 11:37 17.12.2019
2477 Clouds 16 1015 100 8000 2.1 160 11:37 17.12.2019
2478 Clouds 16 1015 100 8000 2.1 160 11:19 17.12.2019
2479 Clouds 16 1015 93 9000 2.1 160 10:59 17.12.2019
2480 Clouds 16 1015 93 9000 2.1 160 10:40 17.12.2019
2481 Clouds 16 1015 93 9000 2.1 160 10:21 17.12.2019
2482 Clouds 16 1014 93 10000 2.1 150 09:59 17.12.2019
2483 Clouds 16 1014 93 10000 2.1 150 09:40 17.12.2019
2484 Clouds 16 1014 93 10000 2.1 150 09:19 17.12.2019
2485 Clouds 17 1014 88 10000 2.6 170 08:55 17.12.2019
2486 Clouds 17 1014 88 10000 2.6 170 08:37 17.12.2019
2487 Clouds 17 1014 88 10000 2.6 170 08:19 17.12.2019
2488 Clouds 17 1014 82 10000 1 0 07:45 17.12.2019
2489 Clouds 18 1014 82 10000 1 0 07:24 17.12.2019
2490 Rain 16 1014 93 10000 1.5 330 06:55 17.12.2019
2491 Rain 16 1014 93 10000 1.5 330 06:32 17.12.2019
2492 Rain 16 1014 93 9000 0.5 0 05:52 17.12.2019
2493 Thunderstorm 16 1014 93 10000 2.1 340 05:32 17.12.2019
2494 Rain 15 1014 93 6000 3.6 150 04:19 17.12.2019
2495 Rain 13 1017 93 4000 4.1 160 02:27 17.12.2019
2496 Clouds 13 1016 93 6000 5.1 140 01:34 17.12.2019
2497 Clouds 13 1016 93 6000 4.6 130 00:49 17.12.2019
2498 Clouds 13 1016 93 6000 4.6 130 00:22 17.12.2019
2499 Mist 12 1018 100 1200 1 0 23:59 16.12.2019
2500 Mist 12 1018 100 1200 1 0 23:40 16.12.2019
2501 Clouds 12 1017 100 8000 5.1 120 23:18 16.12.2019
2502 Mist 12 1017 100 5000 3.1 150 22:55 16.12.2019
2503 Mist 12 1017 100 5000 3.1 150 22:36 16.12.2019
2504 Mist 12 1017 100 5000 3.1 150 22:18 16.12.2019
2505 Clouds 13 1020 87 0 4.47 150 21:54 16.12.2019
2506 Clouds 13 1020 87 0 4.47 150 21:36 16.12.2019
2507 Clouds 13 1020 87 0 4.47 150 21:18 16.12.2019
2508 Clouds 13 1020 87 0 4.47 150 20:56 16.12.2019
2509 Clouds 13 1020 87 0 4.47 150 20:37 16.12.2019
2510 Rain 13 1020 87 0 4.47 150 20:18 16.12.2019
2511 Rain 13 1020 87 0 4.47 150 20:18 16.12.2019
2512 Rain 13 1020 87 0 4.47 150 19:54 16.12.2019
2513 Rain 13 1020 87 0 4.47 150 19:36 16.12.2019
2514 Rain 13 1020 87 0 4.47 150 19:18 16.12.2019
2515 Rain 13 1020 87 0 4.47 150 19:18 16.12.2019
2516 Rain 13 1020 87 0 4.47 150 18:42 16.12.2019
2517 Rain 13 1020 87 0 4.47 150 18:20 16.12.2019
2518 Rain 13 1020 87 0 4.47 150 17:59 16.12.2019
2519 Rain 13 1020 87 0 4.47 150 17:41 16.12.2019
2520 Rain 13 1020 87 0 4.47 150 17:22 16.12.2019
2521 Rain 13 1020 87 0 4.47 150 16:59 16.12.2019
2522 Rain 13 1020 87 0 4.47 150 16:39 16.12.2019
2523 Rain 13 1020 87 0 4.47 150 16:39 16.12.2019
2524 Mist 12 1019 93 4000 2.1 90 16:20 16.12.2019
2525 Mist 12 1019 93 4000 2.1 90 15:59 16.12.2019
2526 Mist 12 1019 93 4000 2.1 90 15:39 16.12.2019
2527 Mist 12 1019 93 4000 2.1 90 15:21 16.12.2019
2528 Mist 12 1020 93 5000 1 110 14:58 16.12.2019
2529 Mist 12 1020 93 5000 1 110 14:38 16.12.2019
2530 Mist 12 1020 93 5000 1 110 14:20 16.12.2019
2531 Clouds 12 1020 87 8000 4.6 150 13:58 16.12.2019
2532 Clouds 12 1020 87 8000 4.6 150 13:38 16.12.2019
2533 Clouds 12 1020 87 8000 4.6 150 13:20 16.12.2019
2534 Clouds 12 1020 93 7000 4.1 120 12:58 16.12.2019
2535 Clouds 12 1020 93 7000 4.1 120 12:39 16.12.2019
2536 Clouds 12 1020 93 7000 4.1 120 12:19 16.12.2019
2537 Clouds 12 1020 87 8000 5.7 150 11:59 16.12.2019
2538 Clouds 12 1020 87 8000 5.7 150 11:40 16.12.2019
2539 Clouds 12 1020 87 8000 5.7 150 11:21 16.12.2019
2540 Clouds 12 1020 87 8000 6.7 140 10:58 16.12.2019
2541 Clouds 12 1020 87 8000 6.7 140 10:40 16.12.2019
2542 Clouds 12 1020 87 8000 6.7 140 10:20 16.12.2019
2543 Clouds 12 1020 87 8000 5.7 150 09:45 16.12.2019
2544 Clouds 12 1020 87 8000 5.7 150 09:27 16.12.2019
2545 Clouds 13 1020 87 9000 4.6 160 08:57 16.12.2019
2546 Clouds 13 1020 87 9000 4.6 160 08:38 16.12.2019
2547 Clouds 13 1020 87 9000 4.6 160 08:18 16.12.2019
2548 Rain 12 1020 87 8000 5.7 140 07:47 16.12.2019
2549 Rain 12 1020 87 8000 5.7 140 07:28 16.12.2019
2550 Clouds 11 1021 87 10000 5.7 140 06:45 16.12.2019
2551 Clouds 11 1021 87 10000 5.7 140 06:26 16.12.2019
2552 Rain 13 1022 76 10000 5.1 140 05:52 16.12.2019
2553 Rain 13 1022 76 10000 5.1 140 05:33 16.12.2019
2554 Clouds 13 1023 76 10000 1 0 04:22 16.12.2019
2555 Clouds 10 1024 76 10000 2.1 140 02:31 16.12.2019
2556 Clouds 9 1024 81 10000 3.1 130 01:45 16.12.2019
2557 Clouds 9 1024 81 10000 3.1 130 01:45 16.12.2019
2558 Clouds 8 1024 87 10000 2.6 130 00:43 16.12.2019
2559 Clouds 8 1024 87 10000 2.6 130 00:25 16.12.2019
2560 Clouds 6 1024 87 10000 3.1 130 23:59 15.12.2019
2561 Clouds 7 1024 87 10000 3.1 130 23:39 15.12.2019
2562 Clouds 7 1024 87 10000 3.1 130 23:20 15.12.2019
2563 Clouds 8 1025 81 10000 5.7 140 22:56 15.12.2019
2564 Clouds 8 1025 81 10000 5.7 140 22:37 15.12.2019
2565 Clouds 7 1025 81 10000 5.7 140 22:18 15.12.2019
2566 Clouds 10 1025 81 0 2.68 150 21:56 15.12.2019
2567 Clouds 10 1025 81 0 2.68 150 21:56 15.12.2019
2568 Clouds 10 1025 81 0 2.68 150 21:37 15.12.2019
2569 Clouds 10 1025 81 0 2.68 150 21:37 15.12.2019
2570 Clouds 10 1025 81 0 2.68 150 21:19 15.12.2019
2571 Clouds 10 1025 81 0 2.68 150 20:56 15.12.2019
2572 Clouds 10 1025 81 0 2.68 150 20:37 15.12.2019
2573 Clouds 10 1025 81 0 2.68 150 20:18 15.12.2019
2574 Clouds 10 1025 81 0 2.68 150 19:56 15.12.2019
2575 Clouds 10 1025 81 0 2.68 150 19:38 15.12.2019
2576 Clouds 10 1025 81 0 2.68 150 19:18 15.12.2019
2577 Clouds 10 1025 81 0 2.68 150 18:55 15.12.2019
2578 Clouds 10 1025 81 0 2.68 150 18:37 15.12.2019
2579 Clouds 10 1025 81 0 2.68 150 18:18 15.12.2019
2580 Clouds 10 1025 81 0 2.68 150 17:55 15.12.2019
2581 Clouds 10 1025 81 0 2.68 150 17:36 15.12.2019
2582 Clouds 10 1025 81 0 2.68 150 17:18 15.12.2019
2583 Clouds 10 1025 81 0 2.68 150 16:43 15.12.2019
2584 Clouds 8 1025 81 10000 3.1 360 16:23 15.12.2019
2585 Clouds 8 1025 81 10000 3.1 360 15:57 15.12.2019
2586 Clouds 8 1025 81 10000 3.1 360 15:39 15.12.2019
2587 Clouds 9 1025 81 10000 3.1 360 15:19 15.12.2019
2588 Clouds 9 1025 70 10000 3.6 360 14:56 15.12.2019
2589 Clouds 9 1025 70 10000 3.6 360 14:38 15.12.2019
2590 Clouds 9 1025 70 10000 3.6 360 14:19 15.12.2019
2591 Clear 9 1025 81 10000 3.1 150 13:58 15.12.2019
2592 Clear 9 1025 81 10000 3.1 150 13:39 15.12.2019
2593 Clear 9 1025 81 10000 3.1 150 13:20 15.12.2019
2594 Clear 10 1025 71 10000 0.5 0 12:57 15.12.2019
2595 Clear 10 1025 71 10000 0.5 0 12:39 15.12.2019
2596 Clear 10 1025 71 10000 0.5 0 12:21 15.12.2019
2597 Clear 9 1025 76 10000 0.5 0 11:58 15.12.2019
2598 Clear 9 1025 76 10000 0.5 0 11:37 15.12.2019
2599 Clear 10 1025 76 10000 0.5 0 11:19 15.12.2019
2600 Clear 10 1025 76 10000 0.5 0 11:19 15.12.2019
2601 Clear 11 1025 58 10000 4.6 10 10:55 15.12.2019
2602 Clear 11 1025 58 10000 4.6 10 10:37 15.12.2019
2603 Clear 11 1025 58 10000 4.6 10 10:19 15.12.2019
2604 Clear 12 1025 58 10000 1.5 280 09:41 15.12.2019
2605 Clear 12 1025 58 10000 1.5 280 09:20 15.12.2019
2606 Clear 14 1024 44 10000 1.5 360 08:59 15.12.2019
2607 Clear 15 1024 44 10000 1.5 360 08:41 15.12.2019
2608 Clear 15 1024 44 10000 1.5 360 08:22 15.12.2019
2609 Clear 15 1025 44 10000 2.1 270 07:56 15.12.2019
2610 Clear 15 1025 44 10000 2.1 270 07:35 15.12.2019
2611 Clouds 15 1025 44 10000 2.1 320 06:52 15.12.2019
2612 Clouds 15 1025 44 10000 2.1 320 06:20 15.12.2019
2613 Clouds 15 1025 41 10000 2.1 280 05:26 15.12.2019
2614 Clouds 14 1025 47 10000 2.6 280 04:47 15.12.2019
2615 Clouds 14 1026 41 10000 1.5 220 03:31 15.12.2019
2616 Clear 12 1027 50 10000 1.5 160 02:34 15.12.2019
2617 Clouds 11 1027 50 10000 4.6 60 01:47 15.12.2019
2618 Clouds 11 1027 50 10000 4.6 60 01:28 15.12.2019
2619 Clouds 10 1026 57 10000 2.1 70 00:58 15.12.2019
2620 Clouds 10 1026 57 10000 2.1 70 00:40 15.12.2019
2621 Clouds 10 1026 57 10000 2.1 70 00:21 15.12.2019
2622 Clouds 10 1026 50 10000 4.6 40 23:40 14.12.2019
2623 Clouds 10 1026 50 10000 4.6 40 23:21 14.12.2019
2624 Clouds 9 1026 57 10000 1.5 70 22:58 14.12.2019
2625 Clouds 9 1026 57 10000 1.5 70 22:40 14.12.2019
2626 Clouds 9 1026 57 10000 1.5 70 22:21 14.12.2019
2627 Clouds 10 1024 71 0 2.24 360 21:56 14.12.2019
2628 Clouds 10 1024 71 0 2.24 360 21:56 14.12.2019
2629 Clouds 10 1024 71 0 2.24 360 21:37 14.12.2019
2630 Clouds 10 1024 71 0 2.24 360 21:18 14.12.2019
2631 Clouds 10 1024 71 0 2.24 360 20:56 14.12.2019
2632 Clouds 10 1024 71 0 2.24 360 20:37 14.12.2019
2633 Clouds 10 1024 71 0 2.24 360 20:19 14.12.2019
2634 Clouds 10 1024 71 0 2.24 360 20:19 14.12.2019
2635 Clouds 10 1024 71 0 2.24 360 19:54 14.12.2019
2636 Clouds 10 1024 71 0 2.24 360 19:36 14.12.2019
2637 Clouds 10 1024 71 0 2.24 360 19:18 14.12.2019
2638 Clouds 10 1024 71 0 2.24 360 18:55 14.12.2019
2639 Clouds 10 1024 71 0 2.24 360 18:36 14.12.2019
2640 Clouds 10 1024 71 0 2.24 360 18:18 14.12.2019
2641 Clouds 10 1024 71 0 2.24 360 17:42 14.12.2019
2642 Clouds 10 1024 71 0 2.24 360 17:22 14.12.2019
2643 Clouds 10 1024 71 0 2.24 360 16:42 14.12.2019
2644 Clouds 9 1026 65 10000 2.6 20 16:20 14.12.2019
2645 Clouds 9 1026 65 10000 2.6 20 15:58 14.12.2019
2646 Clouds 9 1026 65 10000 2.6 20 15:39 14.12.2019
2647 Clouds 9 1026 65 10000 2.6 20 15:20 14.12.2019
2648 Clouds 10 1025 57 10000 4.6 20 14:57 14.12.2019
2649 Clouds 10 1025 57 10000 4.6 20 14:38 14.12.2019
2650 Clouds 10 1025 57 10000 4.6 20 14:38 14.12.2019
2651 Clouds 10 1025 57 10000 4.6 20 14:19 14.12.2019
2652 Clouds 10 1024 71 10000 2.6 360 13:45 14.12.2019
2653 Clouds 10 1024 71 10000 2.6 360 13:20 14.12.2019
2654 Clouds 10 1025 66 10000 2.1 30 12:58 14.12.2019
2655 Clouds 10 1025 66 10000 2.1 30 12:58 14.12.2019
2656 Clouds 10 1025 66 10000 2.1 30 12:40 14.12.2019
2657 Clouds 10 1025 66 10000 2.1 30 12:20 14.12.2019
2658 Clouds 11 1024 66 10000 3.1 20 11:58 14.12.2019
2659 Clouds 11 1024 66 10000 3.1 20 11:58 14.12.2019
2660 Clouds 11 1024 66 10000 3.1 20 11:39 14.12.2019
2661 Clouds 11 1024 66 10000 3.1 20 11:19 14.12.2019
2662 Clouds 11 1024 66 10000 3.1 20 11:19 14.12.2019
2663 Clouds 12 1024 62 10000 5.1 330 10:57 14.12.2019
2664 Clouds 12 1024 62 10000 5.1 330 10:39 14.12.2019
2665 Clouds 12 1024 62 10000 5.1 330 10:20 14.12.2019
2666 Clouds 13 1024 58 10000 5.1 310 09:55 14.12.2019
2667 Clouds 13 1024 58 10000 5.1 310 09:55 14.12.2019
2668 Clouds 13 1024 58 10000 5.1 310 09:36 14.12.2019
2669 Clouds 13 1024 58 10000 5.1 310 09:18 14.12.2019
2670 Clouds 14 1023 62 10000 6.2 310 08:41 14.12.2019
2671 Clouds 14 1023 62 10000 6.2 310 08:19 14.12.2019
2672 Clouds 15 1023 59 10000 5.7 310 07:41 14.12.2019
2673 Clouds 15 1023 59 10000 5.7 310 07:22 14.12.2019
2674 Clouds 15 1023 51 10000 4.1 320 06:55 14.12.2019
2675 Clouds 15 1023 51 10000 4.1 320 06:36 14.12.2019
2676 Clouds 15 1024 48 10000 3.1 340 05:56 14.12.2019
2677 Clouds 13 1025 67 10000 1 0 04:35 14.12.2019
2678 Clouds 12 1026 71 10000 2.1 340 02:25 14.12.2019
2679 Clouds 10 1025 76 10000 1 0 01:44 14.12.2019
2680 Clouds 10 1025 76 10000 1 0 01:44 14.12.2019
2681 Clouds 10 1025 76 10000 1 0 01:44 14.12.2019
2682 Clouds 11 1025 76 10000 1 0 01:22 14.12.2019
2683 Rain 9 1025 81 10000 2.6 0 00:43 14.12.2019
2684 Rain 9 1025 81 10000 2.6 0 00:24 14.12.2019
2685 Clouds 8 1024 81 10000 4.1 140 23:42 13.12.2019
2686 Clouds 8 1024 81 10000 4.1 140 23:20 13.12.2019
2687 Clouds 7 1025 81 10000 2.6 140 22:59 13.12.2019
2688 Clouds 8 1025 81 10000 2.6 140 22:40 13.12.2019
2689 Clouds 8 1025 81 10000 2.6 140 22:19 13.12.2019
2690 Clouds 8 1024 75 0 1.34 120 21:55 13.12.2019
2691 Clouds 8 1024 75 0 1.34 120 21:36 13.12.2019
2692 Clouds 8 1024 75 0 1.34 120 21:18 13.12.2019
2693 Clouds 8 1024 75 0 1.34 120 20:40 13.12.2019
2694 Clouds 8 1024 75 0 1.34 120 20:21 13.12.2019
2695 Clouds 8 1024 75 0 1.34 120 19:57 13.12.2019
2696 Clouds 8 1024 75 0 1.34 120 19:39 13.12.2019
2697 Clouds 8 1024 75 0 1.34 120 19:20 13.12.2019
2698 Clouds 8 1024 75 0 1.34 120 18:56 13.12.2019
2699 Clouds 8 1024 75 0 1.34 120 18:38 13.12.2019
2700 Clouds 8 1024 75 0 1.34 120 18:38 13.12.2019
2701 Clouds 8 1024 75 0 1.34 120 18:18 13.12.2019
2702 Clouds 8 1024 75 0 1.34 120 17:40 13.12.2019
2703 Clouds 8 1024 75 0 1.34 120 17:19 13.12.2019
2704 Clouds 8 1024 75 0 1.34 120 17:19 13.12.2019
2705 Clouds 8 1024 75 0 1.34 120 16:58 13.12.2019
2706 Clouds 8 1024 75 0 1.34 120 16:39 13.12.2019
2707 Clouds 7 1024 75 10000 2.1 40 16:20 13.12.2019
2708 Clouds 7 1024 75 10000 2.1 40 15:43 13.12.2019
2709 Clouds 7 1024 75 10000 2.1 40 15:22 13.12.2019
2710 Clouds 6 1025 86 10000 1.5 310 14:57 13.12.2019
2711 Clouds 6 1025 86 10000 1.5 310 14:57 13.12.2019
2712 Clouds 6 1025 86 10000 1.5 310 14:39 13.12.2019
2713 Clouds 7 1025 86 10000 1.5 310 14:19 13.12.2019
2714 Clouds 7 1024 75 10000 1.5 120 13:44 13.12.2019
2715 Clouds 7 1024 75 10000 1.5 120 13:26 13.12.2019
2716 Clouds 8 1024 70 10000 2.6 140 12:59 13.12.2019
2717 Clouds 8 1024 70 10000 2.6 140 12:41 13.12.2019
2718 Clouds 8 1024 70 10000 2.6 140 12:19 13.12.2019
2719 Clouds 9 1024 57 10000 2.6 160 11:45 13.12.2019
2720 Clouds 9 1024 57 10000 2.6 160 11:45 13.12.2019
2721 Clouds 9 1024 57 10000 2.6 160 11:26 13.12.2019
2722 Clouds 10 1024 61 10000 3.6 130 10:58 13.12.2019
2723 Clouds 10 1024 61 10000 3.6 130 10:40 13.12.2019
2724 Clouds 10 1024 61 10000 3.6 130 10:21 13.12.2019
2725 Clouds 11 1025 53 10000 2.6 310 09:43 13.12.2019
2726 Clouds 11 1025 53 10000 2.6 310 09:22 13.12.2019
2727 Clouds 12 1025 30 10000 2.1 350 08:55 13.12.2019
2728 Clouds 12 1025 30 10000 2.1 350 08:55 13.12.2019
2729 Clouds 12 1025 30 10000 2.1 350 08:36 13.12.2019
2730 Clouds 13 1025 30 10000 2.1 350 08:18 13.12.2019
2731 Clouds 13 1025 37 10000 1 0 07:42 13.12.2019
2732 Clouds 13 1025 37 10000 1 0 07:19 13.12.2019
2733 Clouds 13 1025 43 10000 1.5 340 06:39 13.12.2019
2734 Clouds 13 1025 43 10000 1.5 340 06:20 13.12.2019
2735 Clouds 12 1026 50 10000 2.1 350 05:37 13.12.2019
2736 Clear 12 1026 50 10000 2.1 350 05:19 13.12.2019
2737 Clear 9 1028 49 10000 0.5 0 03:55 13.12.2019
2738 Clouds 8 1028 57 10000 1 0 02:35 13.12.2019
2739 Clear 7 1027 61 10000 3.1 130 01:54 13.12.2019
2740 Clear 7 1027 61 10000 3.1 130 01:27 13.12.2019
2741 Clear 4 1027 80 10000 1.5 110 00:47 13.12.2019
2742 Clear 4 1027 80 10000 1.5 110 00:26 13.12.2019
2743 Clear 2 1027 86 10000 2.1 90 23:42 12.12.2019
2744 Clear 2 1027 86 10000 2.1 90 23:24 12.12.2019
2745 Clear 4 1027 75 10000 0.5 0 22:56 12.12.2019
2746 Clear 4 1027 75 10000 0.5 0 22:38 12.12.2019
2747 Clear 4 1027 75 10000 0.5 0 22:19 12.12.2019
2748 Clear 6 1027 56 0 2.24 10 21:55 12.12.2019
2749 Clear 6 1027 56 0 2.24 10 21:37 12.12.2019
2750 Clear 6 1027 56 0 2.24 10 21:19 12.12.2019
2751 Clear 6 1027 56 0 2.24 10 20:58 12.12.2019
2752 Clear 6 1027 56 0 2.24 10 20:39 12.12.2019
2753 Clear 6 1027 56 0 2.24 10 20:21 12.12.2019
2754 Clear 6 1027 56 0 2.24 10 19:55 12.12.2019
2755 Clear 6 1027 56 0 2.24 10 19:37 12.12.2019
2756 Clear 6 1027 56 0 2.24 10 19:18 12.12.2019
2757 Clear 6 1027 56 0 2.24 10 18:55 12.12.2019
2758 Clear 6 1027 56 0 2.24 10 18:37 12.12.2019
2759 Clear 6 1027 56 0 2.24 10 18:18 12.12.2019
2760 Clear 6 1027 56 0 2.24 10 17:55 12.12.2019
2761 Clear 6 1027 56 0 2.24 10 17:37 12.12.2019
2762 Clear 6 1027 56 0 2.24 10 17:19 12.12.2019
2763 Clear 6 1027 56 0 2.24 10 16:54 12.12.2019
2764 Clear 6 1027 56 0 2.24 10 16:36 12.12.2019
2765 Clear 3 1028 80 10000 2.1 340 16:18 12.12.2019
2766 Clear 4 1028 80 10000 2.1 340 15:42 12.12.2019
2767 Clear 5 1028 80 10000 2.1 340 15:19 12.12.2019
2768 Clear 5 1027 74 10000 2.1 360 14:57 12.12.2019
2769 Clear 5 1027 74 10000 2.1 360 14:36 12.12.2019
2770 Clouds 5 1027 74 10000 2.1 360 14:18 12.12.2019
2771 Clouds 5 1027 56 10000 2.6 10 13:54 12.12.2019
2772 Clouds 5 1027 56 10000 2.6 10 13:36 12.12.2019
2773 Clouds 5 1027 56 10000 2.6 10 13:18 12.12.2019
2774 Clouds 5 1027 56 10000 2.6 10 13:18 12.12.2019
2775 Clouds 7 1027 45 10000 2.1 30 12:42 12.12.2019
2776 Clouds 7 1027 45 10000 2.1 30 12:22 12.12.2019
2777 Clouds 8 1026 49 10000 5.1 20 11:59 12.12.2019
2778 Clouds 8 1026 49 10000 5.1 20 11:40 12.12.2019
2779 Clouds 8 1026 49 10000 5.1 20 11:21 12.12.2019
2780 Clouds 8 1026 45 10000 6.7 360 10:58 12.12.2019
2781 Clouds 8 1026 45 10000 6.7 360 10:40 12.12.2019
2782 Clouds 8 1026 45 10000 6.7 360 10:22 12.12.2019
2783 Clouds 10 1025 39 10000 5.7 10 09:56 12.12.2019
2784 Clouds 10 1025 39 10000 5.7 10 09:38 12.12.2019
2785 Clouds 10 1025 39 10000 5.7 10 09:19 12.12.2019
2786 Clouds 11 1024 37 10000 5.7 350 08:47 12.12.2019
2787 Clouds 11 1024 37 10000 5.7 350 08:28 12.12.2019
2788 Clouds 12 1024 37 10000 7.2 340 07:54 12.12.2019
2789 Clouds 12 1024 37 10000 7.2 340 07:36 12.12.2019
2790 Clouds 12 1024 37 10000 7.2 340 07:18 12.12.2019
2791 Clouds 12 1024 55 10000 5.7 360 06:41 12.12.2019
2792 Clouds 12 1024 55 10000 5.7 360 06:21 12.12.2019
2793 Clouds 13 1024 43 10000 4.6 340 05:26 12.12.2019
2794 Clouds 12 1025 43 10000 2.6 360 04:31 12.12.2019
2795 Clouds 11 1025 50 10000 5.1 350 02:41 12.12.2019
2796 Clouds 11 1025 50 10000 5.1 350 02:23 12.12.2019
2797 Clouds 10 1025 53 10000 7.2 340 01:58 12.12.2019
2798 Clouds 10 1025 53 10000 7.2 340 01:35 12.12.2019
2799 Clouds 9 1024 53 10000 6.2 310 00:49 12.12.2019
2800 Clouds 9 1024 53 10000 6.2 310 00:22 12.12.2019
2801 Clouds 9 1024 57 10000 6.2 320 23:58 11.12.2019
2802 Clouds 9 1024 57 10000 6.2 320 23:36 11.12.2019
2803 Clouds 9 1024 57 10000 6.2 320 23:18 11.12.2019
2804 Clouds 10 1023 53 10000 7.2 330 22:55 11.12.2019
2805 Clouds 10 1023 53 10000 7.2 330 22:36 11.12.2019
2806 Clouds 10 1023 53 10000 7.2 330 22:18 11.12.2019
2807 Clear 12 1017 87 0 1.34 120 21:39 11.12.2019
2808 Clear 12 1017 87 0 1.34 120 21:20 11.12.2019
2809 Clear 12 1017 87 0 1.34 120 21:20 11.12.2019
2810 Clear 12 1017 87 0 1.34 120 20:58 11.12.2019
2811 Clear 12 1017 87 0 1.34 120 20:40 11.12.2019
2812 Clouds 12 1017 87 0 1.34 120 20:19 11.12.2019
2813 Clouds 12 1017 87 0 1.34 120 19:59 11.12.2019
2814 Clouds 12 1017 87 0 1.34 120 19:40 11.12.2019
2815 Clouds 12 1017 87 0 1.34 120 19:21 11.12.2019
2816 Clouds 12 1017 87 0 1.34 120 18:57 11.12.2019
2817 Clouds 12 1017 87 0 1.34 120 18:38 11.12.2019
2818 Clouds 12 1017 87 0 1.34 120 18:18 11.12.2019
2819 Clouds 12 1017 87 0 1.34 120 17:55 11.12.2019
2820 Clouds 12 1017 87 0 1.34 120 17:36 11.12.2019
2821 Rain 12 1017 87 0 1.34 120 17:18 11.12.2019
2822 Rain 12 1017 87 0 1.34 120 16:55 11.12.2019
2823 Rain 12 1017 87 0 1.34 120 16:55 11.12.2019
2824 Rain 12 1017 87 0 1.34 120 16:36 11.12.2019
2825 Mist 11 1018 93 5000 2.1 310 16:18 11.12.2019
2826 Mist 11 1018 93 5000 2.1 310 15:41 11.12.2019
2827 Mist 11 1018 93 5000 2.1 310 15:41 11.12.2019
2828 Mist 11 1018 93 5000 2.1 310 15:23 11.12.2019
2829 Mist 11 1018 93 5000 2.1 310 15:23 11.12.2019
2830 Mist 9 1017 100 4000 1.5 340 14:57 11.12.2019
2831 Mist 9 1017 100 4000 1.5 340 14:39 11.12.2019
2832 Mist 10 1017 100 4000 1.5 340 14:20 11.12.2019
2833 Clouds 11 1017 87 10000 1.5 120 13:58 11.12.2019
2834 Clouds 11 1017 87 10000 1.5 120 13:39 11.12.2019
2835 Clouds 11 1017 87 10000 1.5 120 13:20 11.12.2019
2836 Mist 11 1017 93 3500 1 0 12:57 11.12.2019
2837 Clouds 11 1017 93 10000 1.5 150 12:38 11.12.2019
2838 Clouds 11 1017 93 10000 1.5 150 12:19 11.12.2019
2839 Mist 12 1017 93 4000 1.5 20 11:57 11.12.2019
2840 Clouds 11 1016 87 10000 3.1 150 11:38 11.12.2019
2841 Clouds 11 1016 87 10000 3.1 150 11:18 11.12.2019
2842 Clouds 11 1016 87 10000 3.1 150 11:18 11.12.2019
2843 Clouds 12 1016 82 10000 1.5 140 10:55 11.12.2019
2844 Clouds 12 1016 82 10000 1.5 140 10:37 11.12.2019
2845 Clouds 11 1016 82 10000 1.5 140 10:19 11.12.2019
2846 Clouds 14 1015 77 10000 1 0 09:40 11.12.2019
2847 Clouds 14 1015 77 10000 1 0 09:21 11.12.2019
2848 Clouds 15 1015 67 10000 3.1 140 08:57 11.12.2019
2849 Clouds 15 1015 67 10000 3.1 140 08:38 11.12.2019
2850 Clouds 15 1015 67 10000 3.1 140 08:19 11.12.2019
2851 Clouds 15 1015 67 10000 3.6 140 07:47 11.12.2019
2852 Clouds 15 1015 67 10000 3.6 140 07:29 11.12.2019
2853 Clouds 14 1016 72 10000 3.6 130 06:59 11.12.2019
2854 Clouds 14 1016 72 10000 3.6 130 06:40 11.12.2019
2855 Clouds 14 1016 72 10000 3.6 130 06:21 11.12.2019
2856 Clouds 13 1016 82 10000 6.7 140 05:41 11.12.2019
2857 Clouds 12 1016 82 10000 6.7 140 05:19 11.12.2019
2858 Clouds 13 1017 76 10000 4.1 140 04:26 11.12.2019
2859 Clouds 9 1019 87 10000 5.1 140 02:49 11.12.2019
2860 Clouds 9 1019 87 10000 4.6 140 01:25 11.12.2019
2861 Clouds 8 1019 93 10000 5.7 140 00:47 11.12.2019
2862 Clouds 8 1019 93 10000 5.7 140 00:21 11.12.2019
2863 Clouds 7 1018 87 10000 4.1 140 23:47 10.12.2019
2864 Clouds 7 1018 87 10000 4.1 140 23:28 10.12.2019
2865 Clear 7 1019 93 10000 5.7 140 22:58 10.12.2019
2866 Clear 8 1019 93 10000 5.7 140 22:39 10.12.2019
2867 Clear 8 1019 93 10000 5.7 140 22:21 10.12.2019
2868 Clear 10 1020 81 0 1.79 150 21:55 10.12.2019
2869 Clear 10 1020 81 0 1.79 150 21:55 10.12.2019
2870 Clear 10 1020 81 0 1.79 150 21:37 10.12.2019
2871 Clear 10 1020 81 0 1.79 150 21:19 10.12.2019
2872 Clear 10 1020 81 0 1.79 150 20:57 10.12.2019
2873 Clear 10 1020 81 0 1.79 150 20:37 10.12.2019
2874 Clear 10 1020 81 0 1.79 150 20:37 10.12.2019
2875 Clear 10 1020 81 0 1.79 150 20:19 10.12.2019
2876 Clear 10 1020 81 0 1.79 150 19:55 10.12.2019
2877 Clear 10 1020 81 0 1.79 150 19:37 10.12.2019
2878 Clear 10 1020 81 0 1.79 150 19:18 10.12.2019
2879 Clear 10 1020 81 0 1.79 150 18:40 10.12.2019
2880 Clear 10 1020 81 0 1.79 150 18:20 10.12.2019
2881 Clear 10 1020 81 0 1.79 150 17:58 10.12.2019
2882 Clear 10 1020 81 0 1.79 150 17:39 10.12.2019
2883 Clear 10 1020 81 0 1.79 150 17:20 10.12.2019
2884 Clear 10 1020 81 0 1.79 150 16:43 10.12.2019
2885 Clear 7 1020 93 8000 2.6 20 16:21 10.12.2019
2886 Clear 7 1020 93 8000 2.6 20 16:21 10.12.2019
2887 Clear 8 1020 93 8000 2.6 20 15:59 10.12.2019
2888 Clear 8 1020 93 8000 2.6 20 15:37 10.12.2019
2889 Clear 9 1020 93 8000 2.6 20 15:18 10.12.2019
2890 Clear 9 1020 87 10000 2.6 40 14:55 10.12.2019
2891 Clear 9 1020 87 10000 2.6 40 14:37 10.12.2019
2892 Clouds 10 1020 87 10000 2.6 40 14:19 10.12.2019
2893 Clouds 9 1020 81 10000 2.1 150 13:56 10.12.2019
2894 Clouds 9 1020 81 10000 2.1 150 13:56 10.12.2019
2895 Clouds 10 1020 81 10000 2.1 150 13:38 10.12.2019
2896 Clouds 10 1020 81 10000 2.1 150 13:18 10.12.2019
2897 Clouds 10 1020 87 10000 2.1 140 12:41 10.12.2019
2898 Clouds 10 1020 87 10000 2.1 140 12:22 10.12.2019
2899 Clouds 11 1020 76 10000 1 0 11:44 10.12.2019
2900 Clouds 11 1020 76 10000 1 0 11:25 10.12.2019
2901 Clouds 12 1020 76 10000 3.1 130 10:57 10.12.2019
2902 Clouds 12 1020 76 10000 3.1 130 10:38 10.12.2019
2903 Clouds 12 1020 76 10000 3.1 130 10:38 10.12.2019
2904 Clouds 12 1020 76 10000 3.1 130 10:20 10.12.2019
2905 Clouds 12 1020 66 10000 0.5 0 09:56 10.12.2019
2906 Clouds 12 1020 66 10000 0.5 0 09:56 10.12.2019
2907 Clouds 12 1020 66 10000 0.5 0 09:56 10.12.2019
2908 Clouds 12 1020 66 10000 0.5 0 09:38 10.12.2019
2909 Clouds 12 1020 66 10000 0.5 0 09:38 10.12.2019
2910 Clouds 12 1020 66 10000 0.5 0 09:38 10.12.2019
2911 Clouds 13 1020 66 10000 0.5 0 09:19 10.12.2019
2912 Clouds 14 1020 58 10000 1 0 08:55 10.12.2019
2913 Clouds 14 1020 58 10000 1 0 08:36 10.12.2019
2914 Clouds 14 1020 58 10000 1 0 08:36 10.12.2019
2915 Clouds 15 1020 58 10000 1 0 08:18 10.12.2019
2916 Clouds 15 1020 51 10000 1.5 130 07:44 10.12.2019
2917 Clouds 15 1020 51 10000 1.5 130 07:44 10.12.2019
2918 Clouds 15 1020 51 10000 1.5 130 07:44 10.12.2019
2919 Clouds 15 1020 51 10000 1.5 130 07:25 10.12.2019
2920 Clouds 15 1020 55 10000 2.1 150 06:47 10.12.2019
2921 Clouds 15 1020 55 10000 2.1 150 06:19 10.12.2019
2922 Clouds 15 1021 55 10000 3.1 160 05:54 10.12.2019
2923 Clouds 13 1021 62 10000 4.6 150 04:55 10.12.2019
2924 Clouds 12 1022 66 10000 5.1 140 03:38 10.12.2019
2925 Clouds 9 1023 81 10000 4.6 140 02:46 10.12.2019
2926 Clouds 8 1023 87 10000 4.1 140 01:45 10.12.2019
2927 Clouds 8 1023 87 10000 4.1 140 01:21 10.12.2019
2928 Clouds 7 1023 87 10000 4.6 140 00:42 10.12.2019
2929 Clouds 7 1023 87 10000 4.6 140 00:21 10.12.2019
2930 Clouds 6 1023 87 10000 4.6 140 23:42 09.12.2019
2931 Clouds 6 1023 87 10000 4.6 140 23:42 09.12.2019
2932 Clouds 6 1023 87 10000 4.6 140 23:23 09.12.2019
2933 Clouds 6 1023 87 10000 4.6 140 23:23 09.12.2019
2934 Clouds 6 1023 93 10000 5.1 130 22:58 09.12.2019
2935 Clouds 5 1023 93 6000 2.1 350 22:40 09.12.2019
2936 Clouds 5 1023 93 6000 2.1 350 22:20 09.12.2019
2937 Clouds 9 1024 81 0 1.34 110 21:57 09.12.2019
2938 Clouds 9 1024 81 0 1.34 110 21:38 09.12.2019
2939 Clouds 9 1024 81 0 1.34 110 21:19 09.12.2019
2940 Clouds 9 1024 81 0 1.34 110 20:56 09.12.2019
2941 Clouds 9 1024 81 0 1.34 110 20:38 09.12.2019
2942 Clear 9 1024 81 0 1.34 110 20:20 09.12.2019
2943 Clear 9 1024 81 0 1.34 110 19:56 09.12.2019
2944 Clear 9 1024 81 0 1.34 110 19:37 09.12.2019
2945 Clear 9 1024 81 0 1.34 110 19:19 09.12.2019
2946 Clear 9 1024 81 0 1.34 110 18:56 09.12.2019
2947 Clear 9 1024 81 0 1.34 110 18:38 09.12.2019
2948 Clear 9 1024 81 0 1.34 110 18:19 09.12.2019
2949 Clear 9 1024 81 0 1.34 110 17:57 09.12.2019
2950 Clear 9 1024 81 0 1.34 110 17:38 09.12.2019
2951 Clear 9 1024 81 0 1.34 110 17:20 09.12.2019
2952 Clear 9 1024 81 0 1.34 110 16:56 09.12.2019
2953 Clear 9 1024 81 0 1.34 110 16:37 09.12.2019
2954 Clouds 6 1025 86 10000 2.1 350 16:19 09.12.2019
2955 Clouds 7 1025 86 10000 2.1 350 15:55 09.12.2019
2956 Clouds 7 1025 86 10000 2.1 350 15:55 09.12.2019
2957 Clouds 7 1025 86 10000 2.1 350 15:37 09.12.2019
2958 Clouds 7 1025 86 10000 2.1 350 15:37 09.12.2019
2959 Clouds 7 1025 86 10000 2.1 350 15:19 09.12.2019
2960 Clouds 8 1024 87 10000 1.5 20 14:42 09.12.2019
2961 Clouds 8 1024 87 10000 1.5 20 14:19 09.12.2019
2962 Clouds 8 1024 81 10000 1.5 110 13:58 09.12.2019
2963 Clouds 8 1024 81 10000 1.5 110 13:38 09.12.2019
2964 Clouds 8 1024 81 10000 1.5 110 13:19 09.12.2019
2965 Clouds 9 1024 87 10000 3.1 130 12:57 09.12.2019
2966 Clouds 9 1024 87 10000 3.1 130 12:38 09.12.2019
2967 Clouds 9 1024 87 10000 3.1 130 12:20 09.12.2019
2968 Clouds 10 1023 71 10000 2.1 130 11:58 09.12.2019
2969 Clouds 10 1023 71 10000 2.1 130 11:39 09.12.2019
2970 Clouds 10 1023 71 10000 2.1 130 11:21 09.12.2019
2971 Clouds 10 1023 66 10000 3.1 120 10:54 09.12.2019
2972 Clouds 11 1023 66 10000 3.1 120 10:36 09.12.2019
2973 Clouds 11 1023 66 10000 3.1 120 10:18 09.12.2019
2974 Clouds 12 1023 62 10000 3.6 120 09:41 09.12.2019
2975 Clouds 12 1023 62 10000 3.6 120 09:21 09.12.2019
2976 Clouds 12 1023 58 10000 4.6 140 08:54 09.12.2019
2977 Clouds 12 1023 58 10000 4.6 140 08:36 09.12.2019
2978 Clouds 13 1023 58 10000 4.6 140 08:18 09.12.2019
2979 Clouds 13 1023 58 10000 4.6 140 08:18 09.12.2019
2980 Clouds 13 1023 50 10000 4.1 140 07:42 09.12.2019
2981 Clouds 13 1023 50 10000 4.1 140 07:23 09.12.2019
2982 Clouds 13 1023 54 10000 5.1 140 06:47 09.12.2019
2983 Clouds 13 1023 54 10000 5.1 140 06:25 09.12.2019
2984 Clouds 13 1023 54 10000 4.1 150 05:29 09.12.2019
2985 Clouds 12 1024 50 10000 4.1 140 04:46 09.12.2019
2986 Clouds 11 1025 58 10000 5.7 140 03:21 09.12.2019
2987 Clouds 8 1025 76 10000 7.2 140 02:24 09.12.2019
2988 Clouds 7 1025 81 10000 6.2 140 01:42 09.12.2019
2989 Clouds 5 1025 81 10000 5.1 140 00:46 09.12.2019
2990 Clouds 5 1025 81 10000 5.1 140 00:27 09.12.2019
2991 Clouds 4 1025 86 10000 3.1 130 23:43 08.12.2019
2992 Clouds 4 1025 86 10000 3.1 130 23:24 08.12.2019
2993 Clouds 4 1025 93 10000 2.6 130 22:57 08.12.2019
2994 Clouds 4 1025 93 10000 2.6 130 22:39 08.12.2019
2995 Clouds 3 1025 93 10000 2.6 130 22:19 08.12.2019
2996 Clear 7 1026 70 0 1.79 360 21:58 08.12.2019
2997 Clear 7 1026 70 0 1.79 360 21:40 08.12.2019
2998 Clear 7 1026 70 0 1.79 360 21:20 08.12.2019
2999 Clear 7 1026 70 0 1.79 360 21:20 08.12.2019
3000 Clear 7 1026 70 0 1.79 360 20:57 08.12.2019
3001 Clear 7 1026 70 0 1.79 360 20:38 08.12.2019
3002 Clear 7 1026 70 0 1.79 360 20:20 08.12.2019
3003 Clear 7 1026 70 0 1.79 360 20:20 08.12.2019
3004 Clear 7 1026 70 0 1.79 360 19:58 08.12.2019
3005 Clear 7 1026 70 0 1.79 360 19:40 08.12.2019
3006 Clear 7 1026 70 0 1.79 360 19:22 08.12.2019
3007 Clear 7 1026 70 0 1.79 360 18:55 08.12.2019
3008 Clear 7 1026 70 0 1.79 360 18:37 08.12.2019
3009 Clear 7 1026 70 0 1.79 360 18:37 08.12.2019
3010 Clear 7 1026 70 0 1.79 360 18:18 08.12.2019
3011 Clear 7 1026 70 0 1.79 360 17:56 08.12.2019
3012 Clear 7 1026 70 0 1.79 360 17:56 08.12.2019
3013 Clear 7 1026 70 0 1.79 360 17:38 08.12.2019
3014 Clear 7 1026 70 0 1.79 360 17:19 08.12.2019
3015 Clear 7 1026 70 0 1.79 360 16:56 08.12.2019
3016 Clear 7 1026 70 0 1.79 360 16:38 08.12.2019
3017 Clear 6 1026 80 10000 1.5 10 16:20 08.12.2019
3018 Clear 6 1026 80 10000 1.5 10 15:54 08.12.2019
3019 Clear 6 1026 80 10000 1.5 10 15:36 08.12.2019
3020 Clear 6 1026 80 10000 1.5 10 15:18 08.12.2019
3021 Clear 6 1026 86 10000 2.6 330 14:40 08.12.2019
3022 Clear 6 1026 86 10000 2.6 330 14:40 08.12.2019
3023 Clear 6 1026 86 10000 2.6 330 14:22 08.12.2019
3024 Clear 6 1026 70 10000 2.1 360 13:57 08.12.2019
3025 Clear 6 1026 70 10000 2.1 360 13:38 08.12.2019
3026 Clear 7 1026 70 10000 2.1 360 13:20 08.12.2019
3027 Clear 7 1025 70 10000 2.1 360 12:54 08.12.2019
3028 Clear 7 1025 70 10000 2.1 360 12:36 08.12.2019
3029 Clear 7 1025 70 10000 2.1 360 12:18 08.12.2019
3030 Clouds 8 1025 61 10000 2.6 40 11:38 08.12.2019
3031 Clouds 8 1025 61 10000 2.6 40 11:38 08.12.2019
3032 Clouds 8 1025 61 10000 2.6 40 11:20 08.12.2019
3033 Clouds 9 1025 61 10000 4.1 20 10:59 08.12.2019
3034 Clouds 9 1025 61 10000 4.1 20 10:38 08.12.2019
3035 Clouds 9 1025 61 10000 4.1 20 10:20 08.12.2019
3036 Clouds 10 1025 57 10000 4.1 310 09:57 08.12.2019
3037 Clouds 10 1025 57 10000 4.1 310 09:38 08.12.2019
3038 Clouds 10 1025 57 10000 4.1 310 09:19 08.12.2019
3039 Clouds 11 1024 46 10000 4.1 330 08:57 08.12.2019
3040 Clouds 11 1024 46 10000 4.1 330 08:37 08.12.2019
3041 Clouds 11 1024 46 10000 4.1 330 08:37 08.12.2019
3042 Clouds 11 1024 46 10000 4.1 330 08:37 08.12.2019
3043 Clouds 12 1024 46 10000 4.1 330 08:18 08.12.2019
3044 Clouds 12 1024 47 10000 4.1 330 07:42 08.12.2019
3045 Clouds 12 1024 47 10000 4.1 330 07:19 08.12.2019
3046 Clouds 12 1024 43 10000 5.1 340 06:50 08.12.2019
3047 Clouds 12 1024 43 10000 5.1 340 06:22 08.12.2019
3048 Clouds 12 1025 43 10000 5.1 340 05:43 08.12.2019
3049 Clouds 12 1025 43 10000 5.7 340 04:59 08.12.2019
3050 Clouds 11 1026 46 10000 5.1 340 03:49 08.12.2019
3051 Clouds 11 1026 46 10000 5.1 340 03:21 08.12.2019
3052 Clouds 9 1027 53 10000 2.1 350 02:38 08.12.2019
3053 Clouds 7 1026 65 10000 1 0 01:54 08.12.2019
3054 Clouds 5 1026 81 10000 1 0 00:59 08.12.2019
3055 Clouds 5 1026 81 10000 1 0 00:39 08.12.2019
3056 Clouds 5 1026 81 10000 1 0 00:19 08.12.2019
3057 Clouds 5 1026 75 10000 1 0 23:40 07.12.2019
3058 Clouds 5 1026 75 10000 1 0 23:20 07.12.2019
3059 Clouds 5 1026 70 10000 1.5 100 22:56 07.12.2019
3060 Clouds 5 1026 70 10000 1.5 100 22:38 07.12.2019
3061 Clouds 5 1026 70 10000 1.5 100 22:20 07.12.2019
3062 Clear 7 1025 65 0 2.68 30 21:56 07.12.2019
3063 Clear 7 1025 65 0 2.68 30 21:56 07.12.2019
3064 Clear 7 1025 65 0 2.68 30 21:38 07.12.2019
3065 Clear 7 1025 65 0 2.68 30 21:19 07.12.2019
3066 Clear 7 1026 65 0 2.68 30 20:55 07.12.2019
3067 Clear 7 1025 65 0 2.68 30 20:36 07.12.2019
3068 Clear 7 1025 65 0 2.68 30 20:18 07.12.2019
3069 Clear 7 1026 65 0 2.68 30 19:55 07.12.2019
3070 Clear 7 1026 65 0 2.68 30 19:37 07.12.2019
3071 Clear 7 1026 65 0 2.68 30 19:18 07.12.2019
3072 Clear 7 1026 65 0 2.68 30 18:44 07.12.2019
3073 Clear 7 1026 65 0 2.68 30 18:19 07.12.2019
3074 Clear 7 1026 65 0 2.68 30 17:57 07.12.2019
3075 Clear 7 1026 65 0 2.68 30 17:39 07.12.2019
3076 Clear 7 1026 65 0 2.68 30 17:20 07.12.2019
3077 Clear 7 1026 65 0 2.68 30 16:56 07.12.2019
3078 Clear 7 1026 65 0 2.68 30 16:56 07.12.2019
3079 Clear 7 1026 65 0 2.68 30 16:37 07.12.2019
3080 Clouds 5 1026 80 10000 1.5 260 16:19 07.12.2019
3081 Clouds 5 1026 80 10000 1.5 260 15:42 07.12.2019
3082 Clouds 5 1026 80 10000 1.5 260 15:23 07.12.2019
3083 Clouds 5 1026 80 10000 1.5 260 15:23 07.12.2019
3084 Clouds 5 1026 80 10000 1.5 360 14:57 07.12.2019
3085 Clouds 6 1026 80 10000 1.5 360 14:39 07.12.2019
3086 Clouds 6 1026 80 10000 1.5 360 14:18 07.12.2019
3087 Clouds 6 1026 65 10000 3.1 30 13:41 07.12.2019
3088 Clouds 6 1026 65 10000 3.1 30 13:21 07.12.2019
3089 Clouds 6 1026 55 10000 2.6 20 12:58 07.12.2019
3090 Clouds 6 1026 55 10000 2.6 20 12:40 07.12.2019
3091 Clouds 6 1026 55 10000 2.6 20 12:22 07.12.2019
3092 Clouds 7 1025 55 10000 4.6 20 11:57 07.12.2019
3093 Clouds 7 1025 55 10000 4.6 20 11:38 07.12.2019
3094 Clouds 7 1025 58 10000 4.6 20 11:20 07.12.2019
3095 Clouds 8 1025 52 10000 5.7 10 10:38 07.12.2019
3096 Clouds 8 1025 52 10000 5.7 10 10:19 07.12.2019
3097 Clouds 8 1025 52 10000 5.7 10 10:19 07.12.2019
3098 Clouds 9 1024 49 10000 5.7 360 09:41 07.12.2019
3099 Clouds 9 1024 49 10000 5.7 360 09:22 07.12.2019
3100 Clouds 10 1024 58 10000 6.2 340 08:56 07.12.2019
3101 Clouds 10 1024 58 10000 6.2 340 08:37 07.12.2019
3102 Clouds 10 1024 47 10000 6.2 340 08:19 07.12.2019
3103 Clouds 11 1024 47 10000 6.7 330 07:44 07.12.2019
3104 Clouds 11 1024 47 10000 6.7 330 07:23 07.12.2019
3105 Clouds 12 1024 40 10000 6.2 330 06:45 07.12.2019
3106 Clouds 12 1024 40 10000 6.2 330 06:24 07.12.2019
3107 Clouds 11 1025 50 10000 4.6 330 05:19 07.12.2019
3108 Clouds 9 1027 53 10000 5.1 330 03:54 07.12.2019
3109 Clouds 9 1027 53 10000 5.7 340 02:56 07.12.2019
3110 Clouds 9 1027 53 10000 5.7 340 02:21 07.12.2019
3111 Clouds 8 1027 57 10000 4.1 360 01:31 07.12.2019
3112 Clouds 7 1027 61 10000 2.6 30 00:52 07.12.2019
3113 Clouds 7 1027 61 10000 2.6 30 00:19 07.12.2019
3114 Clouds 7 1026 61 10000 2.6 40 23:48 06.12.2019
3115 Clouds 7 1026 61 10000 2.6 40 23:24 06.12.2019
3116 Clouds 7 1026 61 10000 2.6 30 22:58 06.12.2019
3117 Clouds 7 1026 61 10000 2.6 30 22:37 06.12.2019
3118 Clouds 7 1026 61 10000 2.6 30 22:19 06.12.2019
3119 Rain 8 1029 70 0 2.68 10 21:56 06.12.2019
3120 Rain 8 1029 70 0 2.68 10 21:56 06.12.2019
3121 Rain 8 1029 70 0 2.68 10 21:38 06.12.2019
3122 Rain 8 1029 70 0 2.68 10 21:19 06.12.2019
3123 Rain 8 1029 70 0 2.68 10 20:42 06.12.2019
3124 Rain 8 1029 70 0 2.68 10 20:22 06.12.2019
3125 Rain 8 1029 70 0 2.68 10 19:57 06.12.2019
3126 Rain 8 1029 70 0 2.68 10 19:57 06.12.2019
3127 Rain 8 1029 70 0 2.68 10 19:39 06.12.2019
3128 Rain 8 1029 70 0 2.68 10 19:21 06.12.2019
3129 Rain 8 1029 70 0 2.68 10 18:45 06.12.2019
3130 Rain 8 1029 70 0 2.68 10 18:23 06.12.2019
3131 Rain 8 1029 70 0 2.68 10 17:58 06.12.2019
3132 Rain 8 1029 70 0 2.68 10 17:40 06.12.2019
3133 Clouds 8 1029 70 0 2.68 10 17:22 06.12.2019
3134 Clouds 8 1029 70 0 2.68 10 16:59 06.12.2019
3135 Clouds 8 1029 70 0 2.68 10 16:40 06.12.2019
3136 Clouds 7 1028 93 10000 1.5 340 16:21 06.12.2019
3137 Clouds 7 1028 93 10000 1.5 340 15:56 06.12.2019
3138 Clouds 7 1028 93 10000 1.5 340 15:38 06.12.2019
3139 Clouds 7 1028 93 10000 1.5 340 15:38 06.12.2019
3140 Clouds 7 1028 93 10000 1.5 340 15:18 06.12.2019
3141 Clouds 7 1028 93 10000 1.5 340 15:18 06.12.2019
3142 Clouds 7 1028 87 10000 2.1 340 14:41 06.12.2019
3143 Clouds 8 1028 87 10000 2.1 340 14:20 06.12.2019
3144 Clouds 8 1029 70 10000 3.1 10 13:58 06.12.2019
3145 Clouds 8 1029 70 10000 3.1 10 13:58 06.12.2019
3146 Clouds 8 1029 70 10000 3.1 10 13:40 06.12.2019
3147 Clouds 8 1029 70 10000 3.1 10 13:40 06.12.2019
3148 Clouds 8 1029 70 10000 3.1 10 13:21 06.12.2019
3149 Clouds 8 1029 70 10000 3.1 10 13:21 06.12.2019
3150 Clouds 8 1028 75 10000 3.6 10 12:40 06.12.2019
3151 Clouds 8 1028 75 10000 3.6 10 12:21 06.12.2019
3152 Clouds 8 1028 75 10000 4.1 10 11:43 06.12.2019
3153 Clouds 8 1028 75 10000 4.1 10 11:23 06.12.2019
3154 Clouds 8 1028 70 10000 3.1 20 10:58 06.12.2019
3155 Clouds 8 1028 70 10000 3.1 20 10:40 06.12.2019
3156 Clouds 8 1028 70 10000 3.1 20 10:20 06.12.2019
3157 Clouds 9 1028 61 10000 4.1 10 09:56 06.12.2019
3158 Clouds 9 1028 61 10000 4.1 10 09:37 06.12.2019
3159 Clouds 9 1028 61 10000 4.1 10 09:19 06.12.2019
3160 Clouds 9 1028 61 10000 4.1 10 09:19 06.12.2019
3161 Rain 9 1028 61 10000 3.6 10 08:43 06.12.2019
3162 Rain 9 1028 61 10000 3.6 10 08:25 06.12.2019
3163 Rain 9 1028 57 10000 5.1 10 07:43 06.12.2019
3164 Rain 9 1028 57 10000 5.1 10 07:23 06.12.2019
3165 Rain 9 1028 57 10000 5.1 10 07:23 06.12.2019
3166 Rain 9 1028 57 10000 5.1 10 07:23 06.12.2019
3167 Clouds 9 1028 63 10000 3.1 30 06:53 06.12.2019
3168 Clouds 9 1028 63 10000 3.1 30 06:26 06.12.2019
3169 Clouds 9 1029 46 10000 4.1 360 05:51 06.12.2019
3170 Clouds 8 1031 49 10000 4.1 10 03:50 06.12.2019
3171 Clouds 7 1031 71 10000 8.2 350 01:46 06.12.2019
3172 Clouds 6 1030 71 10000 6.2 10 00:56 06.12.2019
3173 Clouds 6 1030 71 10000 6.2 10 00:24 06.12.2019
3174 Clouds 6 1030 71 10000 6.2 20 23:56 05.12.2019
3175 Clouds 7 1030 67 10000 6.2 20 23:21 05.12.2019
3176 Clouds 8 1030 61 10000 5.7 20 22:59 05.12.2019
3177 Clouds 8 1030 61 10000 5.7 20 22:39 05.12.2019
3178 Clouds 8 1030 61 10000 5.7 20 22:39 05.12.2019
3179 Clouds 8 1030 61 10000 5.7 20 22:20 05.12.2019
3180 Clouds 10 1031 46 0 1.79 50 21:58 05.12.2019
3181 Clouds 10 1031 46 0 1.79 50 21:58 05.12.2019
3182 Clouds 10 1031 46 0 1.79 50 21:40 05.12.2019
3183 Clouds 10 1031 46 0 1.79 50 21:22 05.12.2019
3184 Clouds 10 1031 46 0 1.79 50 20:58 05.12.2019
3185 Clouds 10 1031 46 0 1.79 50 20:39 05.12.2019
3186 Clouds 10 1031 46 0 1.79 50 20:19 05.12.2019
3187 Clouds 10 1031 46 0 1.79 50 19:43 05.12.2019
3188 Clouds 10 1031 46 0 1.79 50 19:25 05.12.2019
3189 Clouds 10 1031 46 0 1.79 50 18:59 05.12.2019
3190 Clouds 10 1031 46 0 1.79 50 18:39 05.12.2019
3191 Clouds 10 1031 46 0 1.79 50 18:20 05.12.2019
3192 Clouds 10 1031 46 0 1.79 50 17:56 05.12.2019
3193 Clouds 10 1031 46 0 1.79 50 17:37 05.12.2019
3194 Clouds 10 1031 46 0 1.79 50 17:18 05.12.2019
3195 Clouds 10 1031 46 0 1.79 50 16:40 05.12.2019
3196 Clouds 8 1030 81 10000 1 340 16:22 05.12.2019
3197 Clouds 8 1030 81 10000 1 340 15:59 05.12.2019
3198 Clouds 7 1030 81 10000 1 340 15:40 05.12.2019
3199 Clouds 7 1030 81 10000 1 340 15:21 05.12.2019
3200 Clouds 7 1031 75 10000 1 270 14:57 05.12.2019
3201 Clouds 7 1031 75 10000 1 270 14:38 05.12.2019
3202 Clouds 9 1031 75 10000 1 270 14:20 05.12.2019
3203 Clouds 9 1031 46 10000 2.1 50 13:58 05.12.2019
3204 Clouds 9 1031 46 10000 2.1 50 13:40 05.12.2019
3205 Clouds 9 1031 46 10000 2.1 50 13:21 05.12.2019
3206 Clouds 9 1031 46 10000 1.5 50 12:59 05.12.2019
3207 Clouds 9 1031 46 10000 1.5 50 12:40 05.12.2019
3208 Clouds 9 1031 46 10000 1.5 50 12:21 05.12.2019
3209 Clouds 9 1031 49 10000 4.1 20 11:41 05.12.2019
3210 Clouds 9 1031 49 10000 4.1 20 11:23 05.12.2019
3211 Clouds 9 1029 57 10000 5.7 10 10:59 05.12.2019
3212 Clouds 9 1029 57 10000 5.7 10 10:41 05.12.2019
3213 Clouds 9 1029 57 10000 5.7 10 10:19 05.12.2019
3214 Clouds 9 1029 57 10000 6.2 10 09:57 05.12.2019
3215 Clouds 10 1029 57 10000 6.2 10 09:39 05.12.2019
3216 Clouds 10 1029 57 10000 6.2 10 09:20 05.12.2019
3217 Clouds 10 1029 57 10000 6.2 10 09:20 05.12.2019
3218 Clouds 10 1029 53 10000 5.7 360 08:56 05.12.2019
3219 Clouds 10 1029 53 10000 5.7 360 08:37 05.12.2019
3220 Clouds 10 1029 53 10000 5.7 360 08:19 05.12.2019
3221 Clouds 11 1029 46 10000 6.2 350 07:41 05.12.2019
3222 Clouds 11 1029 46 10000 6.2 350 07:22 05.12.2019
3223 Clouds 11 1029 46 10000 6.2 360 06:48 05.12.2019
3224 Clouds 11 1029 46 10000 6.2 360 06:24 05.12.2019
3225 Clouds 12 1029 47 10000 6.7 10 05:54 05.12.2019
3226 Clouds 12 1029 47 10000 6.7 10 05:24 05.12.2019
3227 Clouds 12 1029 50 10000 4.1 10 04:40 05.12.2019
3228 Clouds 12 1030 43 10000 5.7 350 03:39 05.12.2019
3229 Clouds 10 1031 50 10000 4.6 350 02:42 05.12.2019
3230 Clouds 10 1031 50 10000 4.6 350 02:22 05.12.2019
3231 Clouds 9 1030 57 10000 4.1 10 01:51 05.12.2019
3232 Clouds 9 1030 57 10000 4.1 10 01:23 05.12.2019
3233 Clouds 8 1030 57 10000 2.1 50 00:44 05.12.2019
3234 Clouds 8 1030 57 10000 2.1 50 00:20 05.12.2019
3235 Clouds 6 1029 75 10000 0.5 0 23:47 04.12.2019
3236 Clouds 7 1029 75 10000 0.5 0 23:22 04.12.2019
3237 Clouds 6 1029 81 10000 1 0 22:59 04.12.2019
3238 Clouds 6 1029 81 10000 1 0 22:38 04.12.2019
3239 Clouds 6 1029 86 10000 1.5 10 22:20 04.12.2019
3240 Clouds 9 1028 81 0 3.58 120 21:57 04.12.2019
3241 Clouds 9 1028 81 0 3.58 120 21:38 04.12.2019
3242 Clouds 9 1028 81 0 3.58 120 21:19 04.12.2019
3243 Clouds 9 1028 81 0 3.58 120 20:57 04.12.2019
3244 Clouds 9 1028 81 0 3.58 120 20:38 04.12.2019
3245 Clouds 9 1028 81 0 3.58 120 20:20 04.12.2019
3246 Clouds 9 1028 81 0 3.58 120 19:54 04.12.2019
3247 Clouds 9 1028 81 0 3.58 120 19:36 04.12.2019
3248 Clouds 9 1028 81 0 3.58 120 19:18 04.12.2019
3249 Clouds 9 1028 81 0 3.58 120 18:41 04.12.2019
3250 Clouds 9 1028 81 0 3.58 120 18:22 04.12.2019
3251 Clouds 9 1028 81 0 3.58 120 17:58 04.12.2019
3252 Clouds 9 1028 81 0 3.58 120 17:39 04.12.2019
3253 Clouds 9 1028 81 0 3.58 120 17:19 04.12.2019
3254 Clouds 9 1028 81 0 3.58 120 16:56 04.12.2019
3255 Clouds 9 1028 81 0 3.58 120 16:38 04.12.2019
3256 Clouds 9 1028 81 0 3.58 120 16:38 04.12.2019
3257 Clouds 6 1029 93 10000 0.5 60 16:18 04.12.2019
3258 Clouds 7 1029 93 10000 0.5 60 15:54 04.12.2019
3259 Clouds 7 1029 93 10000 0.5 60 15:36 04.12.2019
3260 Clouds 7 1029 93 10000 0.5 60 15:18 04.12.2019
3261 Clouds 8 1028 81 10000 1 0 14:41 04.12.2019
3262 Clouds 8 1028 81 10000 1 0 14:23 04.12.2019
3263 Clouds 8 1028 81 10000 3.6 120 13:56 04.12.2019
3264 Clouds 8 1028 81 10000 3.6 120 13:37 04.12.2019
3265 Clouds 8 1028 81 10000 3.6 120 13:18 04.12.2019
3266 Clouds 8 1028 70 10000 1.5 110 12:43 04.12.2019
3267 Clouds 8 1028 70 10000 1.5 110 12:23 04.12.2019
3268 Clouds 9 1027 66 10000 2.6 50 11:45 04.12.2019
3269 Clouds 9 1027 66 10000 2.6 50 11:26 04.12.2019
3270 Clouds 10 1027 53 10000 4.6 40 10:59 04.12.2019
3271 Clouds 10 1027 53 10000 4.6 40 10:40 04.12.2019
3272 Clouds 10 1027 53 10000 4.6 40 10:22 04.12.2019
3273 Clouds 11 1026 50 10000 5.1 10 09:44 04.12.2019
3274 Clouds 11 1026 50 10000 5.1 10 09:25 04.12.2019
3275 Clouds 13 1026 43 10000 4.6 320 08:56 04.12.2019
3276 Clouds 13 1026 43 10000 4.6 320 08:38 04.12.2019
3277 Clouds 12 1026 43 10000 4.6 320 08:19 04.12.2019
3278 Clouds 13 1026 41 10000 4.1 330 07:42 04.12.2019
3279 Clouds 13 1026 41 10000 4.1 330 07:22 04.12.2019
3280 Clouds 13 1026 44 10000 6.2 330 06:33 04.12.2019
3281 Clouds 12 1027 47 10000 4.1 320 05:48 04.12.2019
3282 Clouds 12 1027 47 10000 5.1 340 04:43 04.12.2019
3283 Clouds 12 1028 47 10000 4.1 350 03:54 04.12.2019
3284 Clouds 11 1028 50 10000 6.2 350 02:21 04.12.2019
3285 Clouds 8 1028 61 10000 3.6 20 00:50 04.12.2019
3286 Clouds 8 1028 61 10000 3.6 20 00:22 04.12.2019
3287 Clouds 7 1027 66 10000 4.1 20 23:56 03.12.2019
3288 Clouds 7 1027 66 10000 4.1 20 23:37 03.12.2019
3289 Clouds 7 1027 66 10000 4.1 20 23:18 03.12.2019
3290 Clouds 6 1027 75 10000 3.1 20 22:39 03.12.2019
3291 Clouds 6 1027 100 10000 1.5 340 22:18 03.12.2019
3292 Rain 9 1026 70 0 1.79 160 21:57 03.12.2019
3293 Rain 9 1026 70 0 1.79 160 21:37 03.12.2019
3294 Rain 9 1026 70 0 1.79 160 21:18 03.12.2019
3295 Rain 9 1026 70 0 1.79 160 20:54 03.12.2019
3296 Rain 12 1028 63 0 5.95 360 20:36 03.12.2019
3297 Rain 12 1028 63 0 5.37 342 20:18 03.12.2019
3298 Rain 12 1028 63 0 5.37 342 19:54 03.12.2019
3299 Rain 12 1028 63 0 5.37 342 19:54 03.12.2019
3300 Rain 12 1028 63 0 5.37 342 19:36 03.12.2019
3301 Rain 12 1028 63 0 5.37 342 19:18 03.12.2019
3302 Rain 12 1028 63 0 5.37 342 18:55 03.12.2019
3303 Rain 9 1026 70 0 1.79 160 18:36 03.12.2019
3304 Rain 9 1026 70 0 1.79 160 18:18 03.12.2019
3305 Rain 9 1026 70 0 1.79 160 17:40 03.12.2019
3306 Clouds 9 1026 70 0 1.79 160 17:19 03.12.2019
3307 Clouds 9 1026 70 0 1.79 160 16:59 03.12.2019
3308 Clouds 9 1026 70 0 1.79 160 16:59 03.12.2019
3309 Clouds 9 1026 70 0 1.79 160 16:40 03.12.2019
3310 Clouds 7 1026 87 10000 1.5 50 16:21 03.12.2019
3311 Clouds 7 1026 87 10000 1.5 50 16:21 03.12.2019
3312 Clouds 7 1026 87 10000 1.5 50 15:59 03.12.2019
3313 Clouds 7 1026 87 10000 1.5 50 15:38 03.12.2019
3314 Clouds 7 1026 87 10000 1.5 50 15:19 03.12.2019
3315 Clouds 8 1027 87 10000 1 60 14:44 03.12.2019
3316 Clouds 8 1027 87 10000 1 60 14:21 03.12.2019
3317 Rain 8 1026 70 10000 2.1 160 13:59 03.12.2019
3318 Rain 8 1026 70 10000 2.1 160 13:38 03.12.2019
3319 Rain 8 1026 70 10000 2.1 160 13:20 03.12.2019
3320 Clouds 8 1026 75 10000 2.6 50 12:57 03.12.2019
3321 Clouds 8 1026 75 10000 2.6 50 12:37 03.12.2019
3322 Clouds 8 1026 75 10000 2.6 50 12:18 03.12.2019
3323 Clouds 9 1026 57 10000 2.1 40 11:55 03.12.2019
3324 Clouds 9 1026 57 10000 2.1 40 11:37 03.12.2019
3325 Clouds 8 1026 57 10000 2.1 40 11:18 03.12.2019
3326 Clouds 9 1025 57 10000 2.1 80 10:43 03.12.2019
3327 Clouds 9 1025 57 10000 2.1 80 10:21 03.12.2019
3328 Clouds 9 1025 57 10000 2.1 20 09:58 03.12.2019
3329 Clouds 9 1025 57 10000 2.1 20 09:40 03.12.2019
3330 Clouds 9 1025 57 10000 2.1 20 09:21 03.12.2019
3331 Clouds 9 1025 57 10000 2.1 20 09:21 03.12.2019
3332 Clouds 9 1025 53 10000 0.5 0 08:54 03.12.2019
3333 Clouds 9 1025 53 10000 0.5 0 08:36 03.12.2019
3334 Clouds 9 1025 53 10000 0.5 0 08:18 03.12.2019
3335 Clouds 9 1024 53 10000 1.5 330 07:49 03.12.2019
3336 Clouds 9 1024 53 10000 1.5 330 07:23 03.12.2019
3337 Clouds 9 1024 53 10000 3.1 340 06:23 03.12.2019
3338 Clouds 10 1024 53 10000 4.1 360 05:58 03.12.2019
3339 Clouds 10 1025 43 10000 4.6 40 04:49 03.12.2019
3340 Clouds 10 1025 55 10000 6.2 30 03:39 03.12.2019
3341 Clouds 10 1025 55 10000 6.2 30 03:19 03.12.2019
3342 Clouds 10 1025 55 10000 6.2 30 03:19 03.12.2019
3343 Clouds 9 1025 49 10000 6.2 30 02:47 03.12.2019
3344 Clouds 9 1025 49 10000 6.2 30 02:26 03.12.2019
3345 Clouds 9 1025 57 10000 7.2 40 01:42 03.12.2019
3346 Clouds 9 1025 57 10000 7.2 40 01:23 03.12.2019
3347 Clouds 7 1024 61 10000 6.2 20 00:55 03.12.2019
3348 Clouds 7 1024 61 10000 6.2 20 00:37 03.12.2019
3349 Clouds 7 1024 61 10000 6.2 20 00:37 03.12.2019
3350 Clouds 7 1024 61 10000 6.2 20 00:18 03.12.2019
3351 Clouds 7 1023 65 10000 6.7 20 23:42 02.12.2019
3352 Clouds 7 1023 65 10000 6.7 20 23:19 02.12.2019
3353 Clouds 7 1023 65 10000 6.7 20 23:19 02.12.2019
3354 Clouds 8 1023 61 10000 5.7 20 22:41 02.12.2019
3355 Clouds 7 1023 70 10000 5.1 350 22:22 02.12.2019
3356 Clouds 11 1020 53 0 7.6 320 21:58 02.12.2019
3357 Clouds 11 1020 53 0 7.6 320 21:37 02.12.2019
3358 Clouds 11 1020 53 0 7.6 320 21:37 02.12.2019
3359 Clouds 11 1020 53 0 7.6 320 21:18 02.12.2019
3360 Clouds 11 1020 53 0 7.6 320 20:56 02.12.2019
3361 Clouds 11 1020 53 0 7.6 320 20:38 02.12.2019
3362 Clouds 11 1020 53 0 7.6 320 20:19 02.12.2019
3363 Clouds 11 1020 53 0 7.6 320 19:43 02.12.2019
3364 Clouds 11 1020 53 0 7.6 320 19:22 02.12.2019
3365 Clouds 11 1020 53 0 7.6 320 18:59 02.12.2019
3366 Clouds 11 1020 53 0 7.6 320 18:39 02.12.2019
3367 Clouds 11 1020 53 0 7.6 320 18:19 02.12.2019
3368 Clouds 11 1020 53 0 7.6 320 18:19 02.12.2019
3369 Clouds 11 1020 53 0 7.6 320 17:57 02.12.2019
3370 Clouds 11 1020 53 0 7.6 320 17:39 02.12.2019
3371 Rain 11 1020 53 0 7.6 320 17:19 02.12.2019
3372 Rain 11 1020 53 0 7.6 320 16:40 02.12.2019
3373 Rain 10 1021 57 10000 5.1 310 16:19 02.12.2019
3374 Rain 10 1021 57 10000 5.1 310 15:58 02.12.2019
3375 Rain 10 1021 57 10000 5.1 310 15:39 02.12.2019
3376 Rain 10 1021 57 10000 5.1 310 15:21 02.12.2019
3377 Clouds 10 1021 57 10000 3.6 310 14:59 02.12.2019
3378 Clouds 10 1021 57 10000 3.6 310 14:59 02.12.2019
3379 Clouds 11 1021 57 10000 3.6 310 14:38 02.12.2019
3380 Clouds 11 1021 57 10000 3.6 310 14:20 02.12.2019
3381 Clouds 10 1021 53 10000 7.7 320 13:57 02.12.2019
3382 Clouds 11 1021 53 10000 7.7 320 13:39 02.12.2019
3383 Clouds 11 1020 53 10000 8.2 310 13:19 02.12.2019
3384 Clouds 11 1020 50 10000 8.2 310 12:54 02.12.2019
3385 Clouds 11 1020 50 10000 8.2 310 12:54 02.12.2019
3386 Clouds 11 1020 50 10000 8.2 310 12:36 02.12.2019
3387 Clouds 11 1020 50 10000 8.2 310 12:18 02.12.2019
3388 Clouds 11 1020 58 10000 8.2 310 11:38 02.12.2019
3389 Rain 11 1020 66 10000 7.7 320 11:19 02.12.2019
3390 Clouds 11 1019 58 10000 8.2 320 10:57 02.12.2019
3391 Clouds 11 1019 58 10000 8.2 320 10:39 02.12.2019
3392 Clouds 11 1019 58 10000 8.2 320 10:21 02.12.2019
3393 Clouds 12 1019 58 10000 9.3 310 09:56 02.12.2019
3394 Clouds 12 1019 58 10000 9.3 310 09:38 02.12.2019
3395 Clouds 12 1019 58 10000 9.3 310 09:18 02.12.2019
3396 Clouds 12 1018 58 10000 9.3 310 08:55 02.12.2019
3397 Clouds 12 1018 58 10000 9.3 310 08:36 02.12.2019
3398 Clouds 12 1018 58 10000 9.3 310 08:18 02.12.2019
3399 Clouds 12 1018 62 10000 9.8 310 07:38 02.12.2019
3400 Clouds 12 1018 62 10000 9.8 310 07:38 02.12.2019
3401 Clouds 12 1018 62 10000 9.8 310 07:19 02.12.2019
3402 Clouds 12 1018 62 10000 11.3 320 06:40 02.12.2019
3403 Clouds 13 1018 54 10000 11.3 320 05:45 02.12.2019
3404 Clouds 13 1018 54 10000 11.3 320 05:18 02.12.2019
3405 Clouds 13 1018 66 10000 10.3 320 03:19 02.12.2019
3406 Clouds 14 1017 62 10000 11.8 320 02:47 02.12.2019
3407 Clouds 13 1016 76 10000 10.3 320 01:46 02.12.2019
3408 Clouds 13 1016 76 10000 10.3 320 01:19 02.12.2019
3409 Clouds 14 1016 82 10000 7.7 330 00:34 02.12.2019
3410 Clouds 14 1015 87 10000 7.7 340 23:59 01.12.2019
3411 Clouds 14 1015 87 10000 7.7 340 23:41 01.12.2019
3412 Clouds 14 1015 87 10000 7.7 340 23:21 01.12.2019
3413 Clouds 14 1014 93 10000 8.7 320 22:56 01.12.2019
3414 Clouds 14 1014 93 10000 8.7 320 22:38 01.12.2019
3415 Clouds 14 1013 87 10000 6.2 280 22:18 01.12.2019
3416 Rain 16 1014 100 0 4.47 120 21:56 01.12.2019
3417 Rain 16 1014 100 0 4.47 120 21:38 01.12.2019
3418 Rain 16 1015 100 0 4.47 120 21:19 01.12.2019
3419 Rain 16 1014 100 0 4.47 120 20:56 01.12.2019
3420 Rain 16 1014 100 0 4.47 120 20:37 01.12.2019
3421 Rain 16 1014 100 0 4.47 120 20:37 01.12.2019
3422 Rain 16 1014 100 0 4.47 120 20:19 01.12.2019
3423 Rain 16 1014 100 0 4.47 120 19:55 01.12.2019
3424 Rain 16 1015 100 0 4.47 120 19:37 01.12.2019
3425 Rain 16 1015 100 0 4.47 120 19:19 01.12.2019
3426 Rain 16 1015 100 0 4.47 120 18:55 01.12.2019
3427 Rain 16 1014 100 0 4.47 120 18:37 01.12.2019
3428 Rain 16 1014 100 0 4.47 120 18:18 01.12.2019
3429 Rain 16 1014 100 0 4.47 120 18:18 01.12.2019
3430 Rain 16 1014 100 0 4.47 120 18:18 01.12.2019
3431 Rain 16 1014 100 0 4.47 120 17:56 01.12.2019
3432 Rain 16 1014 100 0 4.47 120 17:38 01.12.2019
3433 Rain 16 1014 100 0 4.47 120 17:19 01.12.2019
3434 Rain 16 1014 100 0 4.47 120 16:43 01.12.2019
3435 Rain 15 1014 93 10000 2.1 40 16:24 01.12.2019
3436 Rain 15 1014 93 10000 2.1 40 15:53 01.12.2019
3437 Rain 15 1014 93 10000 2.1 40 15:33 01.12.2019
3438 Rain 15 1014 100 5000 4.1 110 14:59 01.12.2019
3439 Rain 15 1014 100 5000 4.1 110 14:38 01.12.2019
3440 Rain 15 1014 100 5000 4.6 120 14:19 01.12.2019
3441 Thunderstorm 15 1015 100 2500 3.1 90 13:40 01.12.2019
3442 Thunderstorm 15 1015 100 2500 3.1 90 13:40 01.12.2019
3443 Thunderstorm 15 1014 100 3000 3.1 120 13:21 01.12.2019
3444 Rain 15 1014 100 6000 2.1 150 12:47 01.12.2019
3445 Rain 15 1014 100 6000 2.1 150 12:19 01.12.2019
3446 Rain 15 1015 93 8000 2.6 50 11:44 01.12.2019
3447 Rain 15 1014 93 8000 6.7 140 11:24 01.12.2019
3448 Rain 15 1014 100 10000 6.2 110 10:55 01.12.2019
3449 Rain 15 1014 100 10000 6.2 110 10:55 01.12.2019
3450 Rain 14 1014 100 10000 6.2 110 10:37 01.12.2019
3451 Rain 14 1014 100 8000 3.1 120 10:18 01.12.2019
3452 Thunderstorm 15 1015 100 4000 1 0 09:41 01.12.2019
3453 Rain 15 1015 100 4500 1.5 340 09:21 01.12.2019
3454 Rain 15 1016 100 5000 3.1 290 08:49 01.12.2019
3455 Rain 15 1016 93 7000 0.5 0 08:22 01.12.2019
3456 Rain 17 1016 72 10000 4.1 140 07:52 01.12.2019
3457 Rain 17 1016 72 10000 4.1 140 07:32 01.12.2019
3458 Rain 17 1016 72 10000 4.1 140 07:32 01.12.2019
3459 Clouds 17 1016 72 10000 5.7 120 06:58 01.12.2019
3460 Clouds 17 1016 72 10000 5.7 120 06:36 01.12.2019
3461 Clouds 17 1017 68 10000 6.2 120 05:50 01.12.2019
3462 Clouds 18 1019 60 10000 7.2 120 04:53 01.12.2019
3463 Clouds 17 1021 59 10000 5.7 140 03:39 01.12.2019
3464 Clouds 15 1022 67 10000 3.6 130 02:38 01.12.2019
3465 Clouds 15 1022 67 10000 3.6 130 02:19 01.12.2019
3466 Clouds 13 1022 82 10000 8.2 150 01:52 01.12.2019
3467 Clouds 13 1022 82 10000 8.2 150 01:26 01.12.2019
3468 Clouds 12 1022 82 10000 7.7 150 00:43 01.12.2019
3469 Clouds 12 1022 82 10000 7.7 150 00:24 01.12.2019
3470 Clouds 10 1023 87 10000 5.1 150 23:44 30.11.2019
3471 Clouds 11 1023 87 10000 5.1 150 23:24 30.11.2019
3472 Clouds 11 1023 87 10000 5.1 150 23:24 30.11.2019
3473 Rain 10 1023 87 10000 7.2 150 22:58 30.11.2019
3474 Rain 10 1023 87 10000 7.2 150 22:39 30.11.2019
3475 Clouds 10 1024 93 10000 0.5 0 22:20 30.11.2019
3476 Clouds 12 1026 71 0 2.24 150 21:44 30.11.2019
3477 Clouds 12 1026 71 0 2.24 150 21:25 30.11.2019
3478 Clouds 12 1026 71 0 2.24 150 20:57 30.11.2019
3479 Clouds 12 1026 71 0 2.24 150 20:38 30.11.2019
3480 Clouds 12 1026 71 0 2.24 150 20:19 30.11.2019
3481 Clouds 12 1026 71 0 2.24 150 19:56 30.11.2019
3482 Clouds 12 1026 71 0 2.24 150 19:38 30.11.2019
3483 Clouds 12 1026 71 0 2.24 150 19:19 30.11.2019
3484 Clouds 12 1026 71 0 2.24 150 18:57 30.11.2019
3485 Clouds 12 1026 71 0 2.24 150 18:38 30.11.2019
3486 Clouds 12 1026 71 0 2.24 150 18:19 30.11.2019
3487 Clouds 12 1026 71 0 2.24 150 17:57 30.11.2019
3488 Clouds 12 1026 71 0 2.24 150 17:38 30.11.2019
3489 Clouds 12 1026 71 0 2.24 150 17:19 30.11.2019
3490 Clouds 12 1026 71 0 2.24 150 16:56 30.11.2019
3491 Clouds 12 1026 71 0 2.24 150 16:56 30.11.2019
3492 Clouds 12 1026 71 0 2.24 150 16:38 30.11.2019
3493 Clouds 9 1026 87 10000 3.1 80 16:19 30.11.2019
3494 Clouds 10 1026 87 10000 3.1 80 15:42 30.11.2019
3495 Clouds 10 1026 87 10000 3.1 80 15:19 30.11.2019
3496 Clouds 9 1027 87 10000 2.1 340 14:57 30.11.2019
3497 Clouds 10 1027 87 10000 2.1 340 14:38 30.11.2019
3498 Clouds 11 1027 87 10000 2.1 340 14:19 30.11.2019
3499 Clouds 10 1026 71 10000 2.6 150 13:57 30.11.2019
3500 Clouds 10 1026 71 10000 2.6 150 13:37 30.11.2019
3501 Clouds 10 1026 71 10000 2.6 150 13:37 30.11.2019
3502 Clouds 10 1026 71 10000 2.6 150 13:19 30.11.2019
3503 Clear 10 1026 71 10000 4.6 140 12:46 30.11.2019
3504 Clear 10 1026 71 10000 4.6 140 12:27 30.11.2019
3505 Clear 10 1026 76 10000 4.1 130 11:55 30.11.2019
3506 Clear 10 1026 76 10000 4.1 130 11:36 30.11.2019
3507 Clear 10 1026 76 10000 4.1 130 11:18 30.11.2019
3508 Clear 11 1026 71 10000 4.6 130 10:42 30.11.2019
3509 Clear 11 1026 71 10000 4.6 130 10:21 30.11.2019
3510 Clear 14 1025 47 10000 3.1 130 09:49 30.11.2019
3511 Clear 14 1025 47 10000 3.1 130 09:29 30.11.2019
3512 Clouds 16 1025 44 10000 3.1 130 08:55 30.11.2019
3513 Clouds 16 1025 44 10000 3.1 130 08:55 30.11.2019
3514 Clouds 16 1025 44 10000 3.1 130 08:37 30.11.2019
3515 Clouds 16 1025 44 10000 3.1 130 08:18 30.11.2019
3516 Clouds 16 1026 45 10000 2.6 130 07:42 30.11.2019
3517 Clouds 16 1026 45 10000 2.6 130 07:22 30.11.2019
3518 Clouds 15 1026 48 10000 4.6 140 06:30 30.11.2019
3519 Clouds 15 1026 48 10000 6.7 160 05:58 30.11.2019
3520 Clouds 14 1028 54 10000 1.5 0 03:54 30.11.2019
3521 Clouds 14 1028 54 10000 1.5 0 03:18 30.11.2019
3522 Clouds 11 1029 71 10000 1.5 150 02:25 30.11.2019
3523 Clouds 9 1029 81 10000 1.5 130 01:47 30.11.2019
3524 Clouds 9 1029 81 10000 1.5 130 01:24 30.11.2019
3525 Clouds 7 1029 93 10000 1 0 00:38 30.11.2019
3526 Clouds 7 1029 93 10000 1 0 00:20 30.11.2019
3527 Clouds 5 1029 93 10000 2.1 90 23:44 29.11.2019
3528 Clouds 5 1029 93 10000 2.1 90 23:23 29.11.2019
3529 Clouds 5 1029 93 10000 2.1 90 23:23 29.11.2019
3530 Clear 5 1029 87 10000 1.5 100 22:47 29.11.2019
3531 Clouds 4 1029 93 10000 2.6 10 22:26 29.11.2019
3532 Clear 6 1028 86 0 4.72 51 21:47 29.11.2019
3533 Clear 6 1028 86 0 4.72 51 21:26 29.11.2019
3534 Clear 6 1028 86 0 4.72 51 20:59 29.11.2019
3535 Clear 6 1028 86 0 4.72 51 20:40 29.11.2019
3536 Clear 6 1028 86 0 4.36 54 20:22 29.11.2019
3537 Clear 6 1028 86 0 5.1 54 19:59 29.11.2019
3538 Clear 6 1028 86 0 5.1 54 19:41 29.11.2019
3539 Clear 6 1028 86 0 5.1 54 19:21 29.11.2019
3540 Clear 6 1028 86 0 5.1 54 18:58 29.11.2019
3541 Clear 6 1028 86 0 5.1 54 18:40 29.11.2019
3542 Clear 6 1028 86 0 5.1 54 18:21 29.11.2019
3543 Clear 6 1028 86 0 5.1 54 17:45 29.11.2019
3544 Clear 6 1028 86 0 5.1 54 17:27 29.11.2019
3545 Clear 6 1028 86 0 5.36 53 16:59 29.11.2019
3546 Clear 6 1028 86 0 5.36 53 16:41 29.11.2019
3547 Clear 6 1028 81 10000 2.1 340 16:20 29.11.2019
3548 Clear 6 1028 81 10000 2.1 340 15:42 29.11.2019
3549 Clear 6 1028 81 10000 2.1 340 15:24 29.11.2019
3550 Clear 6 1028 75 10000 1.5 270 14:58 29.11.2019
3551 Clear 6 1028 75 10000 1.5 270 14:40 29.11.2019
3552 Clear 6 1028 75 10000 1.5 270 14:21 29.11.2019
3553 Clear 7 1028 87 10000 0.5 0 13:55 29.11.2019
3554 Clear 7 1028 87 10000 0.5 0 13:37 29.11.2019
3555 Clear 7 1028 87 10000 0.5 0 13:18 29.11.2019
3556 Clear 9 1028 61 10000 3.6 30 12:40 29.11.2019
3557 Clear 9 1028 61 10000 3.6 30 12:22 29.11.2019
3558 Clouds 11 1027 57 10000 3.6 30 11:55 29.11.2019
3559 Clouds 11 1027 57 10000 3.6 30 11:36 29.11.2019
3560 Clouds 11 1027 57 10000 3.6 30 11:18 29.11.2019
3561 Clouds 11 1027 54 10000 5.1 20 10:56 29.11.2019
3562 Clouds 11 1027 54 10000 5.1 20 10:37 29.11.2019
3563 Clouds 11 1027 54 10000 5.1 20 10:19 29.11.2019
3564 Clouds 13 1026 54 10000 6.2 10 09:55 29.11.2019
3565 Clouds 13 1026 54 10000 6.2 10 09:37 29.11.2019
3566 Clouds 13 1026 54 10000 6.2 10 09:18 29.11.2019
3567 Clouds 15 1026 47 10000 4.6 340 08:39 29.11.2019
3568 Clouds 15 1026 47 10000 4.6 340 08:21 29.11.2019
3569 Clouds 15 1026 48 10000 3.6 330 07:58 29.11.2019
3570 Clouds 15 1026 48 10000 3.6 330 07:39 29.11.2019
3571 Clouds 15 1026 48 10000 3.6 330 07:21 29.11.2019
3572 Clouds 15 1026 51 10000 2.6 260 06:42 29.11.2019
3573 Clouds 14 1026 54 10000 1.5 330 05:48 29.11.2019
3574 Clouds 14 1026 54 10000 1.5 330 05:24 29.11.2019
3575 Clouds 14 1027 54 10000 1.5 330 04:31 29.11.2019
3576 Clouds 12 1027 54 10000 1 0 03:22 29.11.2019
3577 Clouds 11 1028 62 10000 1.5 150 02:30 29.11.2019
3578 Clouds 9 1027 76 10000 3.6 130 01:52 29.11.2019
3579 Clouds 9 1027 76 10000 3.6 130 01:26 29.11.2019
3580 Clouds 8 1027 76 10000 2.1 130 00:43 29.11.2019
3581 Clouds 8 1027 76 10000 2.1 130 00:21 29.11.2019
3582 Clouds 5 1027 81 10000 2.6 90 23:55 28.11.2019
3583 Clouds 5 1027 81 10000 2.6 90 23:36 28.11.2019
3584 Clouds 6 1027 81 10000 2.6 90 23:18 28.11.2019
3585 Clouds 7 1027 87 10000 4.1 140 22:38 28.11.2019
3586 Clouds 6 1027 86 10000 2.1 30 22:20 28.11.2019
3587 Clear 11 1025 71 0 4.02 10 21:58 28.11.2019
3588 Clear 11 1025 71 0 4.02 10 21:40 28.11.2019
3589 Clear 11 1025 71 0 4.02 10 21:19 28.11.2019
3590 Clear 11 1025 71 0 4.02 10 20:56 28.11.2019
3591 Clear 11 1025 71 0 4.02 10 20:38 28.11.2019
3592 Clear 11 1025 71 0 4.02 10 20:18 28.11.2019
3593 Clear 11 1025 71 0 4.02 10 19:42 28.11.2019
3594 Clear 11 1025 71 0 4.02 10 19:42 28.11.2019
3595 Clear 11 1025 71 0 4.02 10 19:23 28.11.2019
3596 Clear 11 1025 71 0 4.02 10 18:59 28.11.2019
3597 Clear 11 1025 71 0 4.02 10 18:40 28.11.2019
3598 Clear 11 1025 71 0 4.02 10 18:19 28.11.2019
3599 Clear 11 1025 71 0 4.02 10 18:00 28.11.2019
3600 Clear 11 1025 71 0 4.02 10 17:41 28.11.2019
3601 Clear 11 1025 71 0 4.02 10 17:23 28.11.2019
3602 Clear 11 1025 71 0 4.02 10 16:58 28.11.2019
3603 Clear 11 1025 71 0 4.02 10 16:38 28.11.2019
3604 Clouds 10 1026 76 10000 3.6 30 16:19 28.11.2019
3605 Clouds 10 1026 76 10000 3.6 30 16:19 28.11.2019
3606 Clouds 10 1026 76 10000 3.6 30 15:43 28.11.2019
3607 Clouds 10 1026 76 10000 3.6 30 15:21 28.11.2019
3608 Clouds 10 1026 81 10000 3.1 60 14:59 28.11.2019
3609 Clouds 10 1026 81 10000 3.1 60 14:41 28.11.2019
3610 Clouds 11 1026 81 10000 3.1 60 14:22 28.11.2019
3611 Clear 11 1025 71 10000 4.1 10 13:58 28.11.2019
3612 Clear 11 1025 71 10000 4.1 10 13:58 28.11.2019
3613 Clear 11 1025 71 10000 4.1 10 13:40 28.11.2019
3614 Clear 11 1025 71 10000 4.1 10 13:21 28.11.2019
3615 Clouds 11 1024 71 10000 3.6 30 12:48 28.11.2019
3616 Clouds 11 1024 71 10000 3.6 30 12:29 28.11.2019
3617 Clouds 12 1024 71 10000 4.6 50 11:58 28.11.2019
3618 Clouds 12 1024 71 10000 4.6 50 11:40 28.11.2019
3619 Clouds 12 1024 71 10000 4.6 50 11:20 28.11.2019
3620 Clouds 12 1023 71 10000 5.1 30 10:56 28.11.2019
3621 Clouds 12 1023 71 10000 5.1 30 10:38 28.11.2019
3622 Clouds 12 1023 71 10000 5.1 30 10:18 28.11.2019
3623 Clouds 13 1022 66 10000 4.1 50 09:41 28.11.2019
3624 Clouds 13 1022 66 10000 4.1 50 09:22 28.11.2019
3625 Clouds 14 1021 62 10000 7.7 50 08:56 28.11.2019
3626 Clouds 14 1021 62 10000 7.7 50 08:37 28.11.2019
3627 Clouds 14 1021 62 10000 7.7 50 08:18 28.11.2019
3628 Clouds 14 1021 67 10000 8.2 60 07:41 28.11.2019
3629 Clouds 14 1021 67 10000 8.2 60 07:23 28.11.2019
3630 Clouds 14 1021 67 10000 8.2 60 07:23 28.11.2019
3631 Clouds 15 1020 59 10000 7.7 50 06:44 28.11.2019
3632 Clouds 16 1020 59 10000 7.7 50 06:23 28.11.2019
3633 Clouds 15 1020 63 10000 3.6 20 05:49 28.11.2019
3634 Clouds 15 1020 63 10000 3.6 20 05:18 28.11.2019
3635 Clouds 14 1021 72 10000 5.7 350 02:37 28.11.2019
3636 Clouds 14 1020 77 10000 2.6 40 01:40 28.11.2019
3637 Clouds 12 1020 82 10000 2.1 20 00:44 28.11.2019
3638 Clouds 12 1020 82 10000 2.1 20 00:22 28.11.2019
3639 Rain 12 1020 87 10000 2.1 60 23:54 27.11.2019
3640 Rain 12 1020 87 10000 2.1 60 23:36 27.11.2019
3641 Rain 12 1020 87 10000 2.1 60 23:18 27.11.2019
3642 Rain 12 1020 76 10000 4.6 50 22:38 27.11.2019
3643 Rain 12 1020 100 6000 0.5 30 22:20 27.11.2019
3644 Rain 15 1020 77 0 5.36 350 21:56 27.11.2019
3645 Rain 15 1020 77 0 5.36 350 21:37 27.11.2019
3646 Rain 15 1020 77 0 5.36 350 21:37 27.11.2019
3647 Rain 15 1020 77 0 5.36 350 21:19 27.11.2019
3648 Rain 15 1020 77 0 5.36 350 20:58 27.11.2019
3649 Rain 15 1020 77 0 5.36 350 20:39 27.11.2019
3650 Rain 15 1020 77 0 5.36 350 20:21 27.11.2019
3651 Rain 15 1020 77 0 5.36 350 19:57 27.11.2019
3652 Rain 15 1020 77 0 5.36 350 19:39 27.11.2019
3653 Rain 15 1020 77 0 5.36 350 19:19 27.11.2019
3654 Rain 15 1020 77 0 5.36 350 18:58 27.11.2019
3655 Rain 15 1020 77 0 5.36 350 18:58 27.11.2019
3656 Rain 15 1020 77 0 5.36 350 18:37 27.11.2019
3657 Rain 15 1020 77 0 5.36 350 18:19 27.11.2019
3658 Rain 15 1020 77 0 5.36 350 17:56 27.11.2019
3659 Rain 15 1020 77 0 5.36 350 17:37 27.11.2019
3660 Clouds 15 1020 77 0 5.36 350 17:19 27.11.2019
3661 Clouds 15 1020 77 0 5.36 350 16:56 27.11.2019
3662 Clouds 15 1020 77 0 5.36 350 16:36 27.11.2019
3663 Rain 14 1020 87 10000 4.6 30 16:18 27.11.2019
3664 Rain 14 1020 87 10000 4.6 30 15:56 27.11.2019
3665 Rain 14 1020 87 10000 4.6 30 15:55 27.11.2019
3666 Rain 14 1020 87 10000 4.6 30 15:37 27.11.2019
3667 Rain 14 1020 87 10000 4.6 30 15:19 27.11.2019
3668 Rain 14 1021 82 10000 4.6 30 14:55 27.11.2019
3669 Rain 14 1021 82 10000 4.6 30 14:36 27.11.2019
3670 Rain 14 1021 82 10000 4.6 30 14:18 27.11.2019
3671 Clouds 14 1020 77 10000 5.7 350 13:55 27.11.2019
3672 Clouds 14 1020 77 10000 5.7 350 13:36 27.11.2019
3673 Clouds 14 1020 77 10000 5.7 350 13:18 27.11.2019
3674 Clouds 15 1020 82 10000 4.6 350 12:40 27.11.2019
3675 Clouds 15 1020 82 10000 4.6 350 12:20 27.11.2019
3676 Rain 15 1020 77 10000 4.1 10 11:54 27.11.2019
3677 Rain 15 1020 77 10000 4.1 10 11:36 27.11.2019
3678 Rain 15 1019 67 10000 2.6 20 11:18 27.11.2019
3679 Rain 15 1019 67 10000 2.6 20 10:42 27.11.2019
3680 Rain 15 1019 67 10000 2.6 20 10:24 27.11.2019
3681 Clouds 16 1019 67 10000 4.6 350 09:49 27.11.2019
3682 Clouds 16 1019 67 10000 4.6 350 09:26 27.11.2019
3683 Clouds 16 1019 67 10000 4.6 30 08:59 27.11.2019
3684 Clouds 16 1019 67 10000 4.6 30 08:41 27.11.2019
3685 Clouds 16 1019 67 10000 4.6 30 08:22 27.11.2019
3686 Clouds 16 1019 67 10000 4.6 30 08:22 27.11.2019
3687 Rain 16 1019 63 10000 4.1 340 07:47 27.11.2019
3688 Rain 16 1019 63 10000 4.1 340 07:28 27.11.2019
3689 Clouds 17 1019 63 10000 1 0 06:53 27.11.2019
3690 Clouds 17 1019 63 10000 1 0 06:35 27.11.2019
3691 Clouds 17 1020 63 10000 1 0 05:45 27.11.2019
3692 Clouds 17 1020 63 10000 1 0 05:20 27.11.2019
3693 Clouds 17 1020 67 10000 2.1 170 04:47 27.11.2019
3694 Clouds 17 1020 67 10000 2.1 170 04:29 27.11.2019
3695 Clouds 16 1021 67 10000 1.5 160 03:39 27.11.2019
3696 Clouds 16 1021 67 10000 1.5 160 03:19 27.11.2019
3697 Clouds 15 1022 72 10000 1.5 170 02:20 27.11.2019
3698 Clouds 13 1022 87 10000 0.5 0 00:47 27.11.2019
3699 Clouds 13 1022 87 10000 0.5 0 00:29 27.11.2019
3700 Clouds 13 1021 82 10000 3.1 120 23:54 26.11.2019
3701 Clouds 13 1021 82 10000 3.1 120 23:54 26.11.2019
3702 Clouds 13 1021 82 10000 3.1 120 23:36 26.11.2019
3703 Clouds 13 1021 82 10000 5.1 140 23:18 26.11.2019
3704 Clouds 13 1021 82 10000 3.1 120 23:18 26.11.2019
3705 Clouds 14 1021 82 10000 5.1 140 22:39 26.11.2019
3706 Clouds 13 1022 76 10000 4.1 40 22:19 26.11.2019
3707 Clouds 13 1022 76 10000 4.1 40 22:19 26.11.2019
3708 Clouds 15 1024 77 0 3.58 160 21:59 26.11.2019
3709 Clouds 15 1024 77 0 3.58 160 21:38 26.11.2019
3710 Clouds 15 1024 77 0 3.58 160 21:38 26.11.2019
3711 Clouds 15 1024 77 0 3.58 160 21:19 26.11.2019
3712 Clouds 15 1024 77 0 3.58 160 20:55 26.11.2019
3713 Clouds 15 1024 77 0 3.58 160 20:37 26.11.2019
3714 Clouds 17 1022 71 0 2.96 63 20:19 26.11.2019
3715 Clouds 15 1024 77 0 3.58 160 19:55 26.11.2019
3716 Clouds 15 1024 77 0 3.58 160 19:55 26.11.2019
3717 Clouds 15 1024 77 0 3.58 160 19:55 26.11.2019
3718 Clouds 15 1024 77 0 3.58 160 19:37 26.11.2019
3719 Clouds 15 1024 77 0 3.58 160 19:18 26.11.2019
3720 Clouds 15 1024 77 0 3.58 160 18:56 26.11.2019
3721 Clouds 15 1024 77 0 3.58 160 18:38 26.11.2019
3722 Clouds 15 1024 77 0 3.58 160 18:20 26.11.2019
3723 Clouds 15 1024 77 0 3.58 160 17:55 26.11.2019
3724 Clouds 15 1024 77 0 3.58 160 17:37 26.11.2019
3725 Clouds 15 1024 77 0 3.58 160 17:18 26.11.2019
3726 Clouds 17 1023 72 0 4.7 55 16:55 26.11.2019
3727 Clouds 15 1024 77 0 3.58 160 16:37 26.11.2019
3728 Clouds 14 1023 71 10000 4.1 30 16:18 26.11.2019
3729 Clouds 14 1023 71 10000 4.1 30 15:56 26.11.2019
3730 Clouds 14 1023 71 10000 4.1 30 15:56 26.11.2019
3731 Clouds 14 1023 71 10000 4.1 30 15:37 26.11.2019
3732 Clouds 14 1023 71 10000 4.1 30 15:18 26.11.2019
3733 Clouds 14 1025 67 10000 3.6 20 14:43 26.11.2019
3734 Clouds 15 1025 67 10000 3.6 20 14:24 26.11.2019
3735 Clouds 15 1024 77 10000 3.6 160 13:43 26.11.2019
3736 Clouds 15 1024 77 10000 3.6 160 13:24 26.11.2019
3737 Clouds 15 1023 72 10000 3.6 160 12:57 26.11.2019
3738 Clouds 15 1023 72 10000 3.6 160 12:36 26.11.2019
3739 Clouds 15 1023 72 10000 3.6 160 12:18 26.11.2019
3740 Clouds 15 1023 72 10000 2.6 110 11:55 26.11.2019
3741 Clouds 15 1023 72 10000 2.6 110 11:36 26.11.2019
3742 Clouds 15 1023 72 10000 2.6 110 11:36 26.11.2019
3743 Clouds 15 1023 72 10000 2.6 110 11:18 26.11.2019
3744 Clouds 15 1023 72 10000 2.6 110 11:18 26.11.2019
3745 Clouds 16 1023 77 10000 3.1 140 10:54 26.11.2019
3746 Clouds 16 1023 77 10000 3.1 140 10:36 26.11.2019
3747 Clouds 16 1023 77 10000 3.1 140 10:18 26.11.2019
3748 Clouds 16 1022 67 10000 4.6 150 09:42 26.11.2019
3749 Clouds 16 1022 67 10000 4.6 150 09:23 26.11.2019
3750 Clouds 16 1022 67 10000 4.6 150 09:23 26.11.2019
3751 Clouds 17 1022 72 10000 5.1 150 08:47 26.11.2019
3752 Clouds 17 1022 63 10000 3.1 80 08:27 26.11.2019
3753 Clouds 18 1022 59 10000 4.6 340 07:57 26.11.2019
3754 Clouds 18 1022 59 10000 4.6 340 07:36 26.11.2019
3755 Clouds 18 1022 59 10000 4.6 340 07:18 26.11.2019
3756 Clouds 19 1022 59 10000 2.6 180 06:41 26.11.2019
3757 Clouds 18 1023 59 10000 2.1 210 05:58 26.11.2019
3758 Clouds 17 1023 59 10000 2.6 260 04:57 26.11.2019
3759 Clouds 16 1025 59 10000 1 0 02:53 26.11.2019
3760 Clouds 15 1025 67 10000 4.1 60 01:35 26.11.2019
3761 Clouds 14 1024 71 10000 7.2 60 00:53 26.11.2019
3762 Clouds 14 1024 71 10000 7.2 60 00:33 26.11.2019
3763 Clouds 12 1024 93 10000 1.5 130 23:56 25.11.2019
3764 Clouds 12 1024 93 10000 1.5 130 23:37 25.11.2019
3765 Clouds 12 1024 93 10000 1.5 130 23:18 25.11.2019
3766 Clouds 13 1024 82 10000 3.6 90 22:39 25.11.2019
3767 Clouds 13 1025 76 10000 7.2 40 22:19 25.11.2019
3768 Clouds 15 1022 87 0 3.58 350 21:59 25.11.2019
3769 Clouds 15 1022 87 0 3.58 350 21:59 25.11.2019
3770 Clouds 15 1022 87 0 3.58 350 21:40 25.11.2019
3771 Clouds 15 1022 87 0 3.58 350 21:21 25.11.2019
3772 Clouds 15 1022 87 0 3.58 350 20:57 25.11.2019
3773 Clouds 15 1022 87 0 3.58 350 20:39 25.11.2019
3774 Clouds 15 1022 87 0 3.58 350 20:20 25.11.2019
3775 Clouds 15 1022 87 0 3.58 350 20:20 25.11.2019
3776 Clouds 15 1022 87 0 3.58 350 19:56 25.11.2019
3777 Clouds 15 1022 87 0 3.58 350 19:38 25.11.2019
3778 Clouds 15 1022 87 0 3.58 350 19:19 25.11.2019
3779 Clouds 15 1022 87 0 3.58 350 18:57 25.11.2019
3780 Clouds 15 1022 87 0 3.58 350 18:39 25.11.2019
3781 Clouds 15 1022 87 0 3.58 350 18:21 25.11.2019
3782 Clouds 15 1022 87 0 3.58 350 17:58 25.11.2019
3783 Clouds 15 1022 87 0 3.58 350 17:39 25.11.2019
3784 Clouds 15 1022 87 0 3.58 350 17:20 25.11.2019
3785 Clouds 15 1022 87 0 3.58 350 16:57 25.11.2019
3786 Clouds 15 1022 87 0 3.58 350 16:39 25.11.2019
3787 Clouds 14 1023 93 10000 2.6 20 16:20 25.11.2019
3788 Clouds 14 1023 93 10000 2.6 20 15:55 25.11.2019
3789 Clouds 14 1023 93 10000 2.6 20 15:36 25.11.2019
3790 Clouds 14 1023 93 10000 2.6 20 15:18 25.11.2019
3791 Clouds 14 1023 87 10000 1.5 30 14:42 25.11.2019
3792 Clouds 14 1023 87 10000 1.5 30 14:22 25.11.2019
3793 Clouds 15 1022 87 10000 3.6 350 13:55 25.11.2019
3794 Clouds 15 1022 87 10000 3.6 350 13:36 25.11.2019
3795 Clouds 15 1022 87 10000 3.6 350 13:18 25.11.2019
3796 Clouds 15 1022 87 10000 4.1 330 12:54 25.11.2019
3797 Clouds 15 1022 87 10000 4.1 330 12:36 25.11.2019
3798 Clouds 15 1022 87 10000 4.1 330 12:18 25.11.2019
3799 Clouds 16 1022 82 10000 2.6 340 11:40 25.11.2019
3800 Clouds 16 1022 82 10000 2.6 340 11:20 25.11.2019
3801 Clouds 16 1021 82 10000 5.1 340 10:54 25.11.2019
3802 Clouds 16 1021 82 10000 5.1 340 10:36 25.11.2019
3803 Clouds 16 1021 82 10000 5.1 340 10:18 25.11.2019
3804 Clouds 17 1021 77 10000 7.2 360 09:41 25.11.2019
3805 Clouds 17 1021 77 10000 7.2 360 09:23 25.11.2019
3806 Clouds 18 1021 72 10000 6.7 330 08:42 25.11.2019
3807 Clouds 18 1021 72 10000 6.7 330 08:23 25.11.2019
3808 Clouds 18 1021 72 10000 9.3 330 07:47 25.11.2019
3809 Clouds 18 1021 72 10000 9.3 330 07:28 25.11.2019
3810 Clouds 20 1020 68 10000 8.2 310 06:58 25.11.2019
3811 Clouds 20 1020 68 10000 8.2 310 06:23 25.11.2019
3812 Clouds 20 1020 68 10000 8.2 310 06:23 25.11.2019
3813 Clouds 21 1020 68 10000 5.7 320 05:50 25.11.2019
3814 Clouds 21 1020 68 10000 5.7 320 05:30 25.11.2019
3815 Clouds 21 1020 68 10000 5.1 330 04:35 25.11.2019
3816 Clouds 19 1021 82 10000 4.1 330 02:35 25.11.2019
3817 Clouds 18 1021 88 10000 3.1 330 01:43 25.11.2019
3818 Clouds 18 1021 88 10000 3.1 330 01:24 25.11.2019
3819 Clouds 17 1020 88 10000 1.5 30 00:39 25.11.2019
3820 Clouds 17 1020 88 10000 1.5 30 00:18 25.11.2019
3821 Clouds 16 1019 88 10000 7.2 330 23:43 24.11.2019
3822 Clouds 16 1019 88 10000 7.2 330 23:20 24.11.2019
3823 Clouds 16 1019 88 10000 6.7 320 22:57 24.11.2019
3824 Fog 15 1018 100 200 1 0 22:37 24.11.2019
3825 Fog 15 1018 100 200 1 0 22:19 24.11.2019
3826 Clouds 18 1018 100 0 6.81 331 21:56 24.11.2019
3827 Clouds 18 1018 100 0 6.81 331 21:36 24.11.2019
3828 Clouds 18 1018 100 0 6.81 331 21:18 24.11.2019
3829 Clouds 18 1018 100 0 6.81 331 20:55 24.11.2019
3830 Clouds 18 1018 100 0 6.81 331 20:37 24.11.2019
3831 Rain 18 1018 100 0 8.25 331 20:18 24.11.2019
3832 Rain 18 1018 100 0 8.25 331 19:54 24.11.2019
3833 Rain 18 1018 100 0 8.25 331 19:36 24.11.2019
3834 Rain 18 1018 100 0 8.25 331 19:18 24.11.2019
3835 Rain 18 1018 100 0 8.25 331 18:54 24.11.2019
3836 Rain 18 1018 100 0 8.25 331 18:36 24.11.2019
3837 Rain 18 1018 100 0 8.25 331 18:18 24.11.2019
3838 Rain 18 1018 100 0 8.25 331 17:54 24.11.2019
3839 Rain 18 1018 100 0 8.25 331 17:36 24.11.2019
3840 Rain 18 1018 100 0 3.6 337 17:18 24.11.2019
3841 Rain 18 1018 100 0 3.6 337 16:41 24.11.2019
3842 Rain 17 1018 93 6000 1.5 350 16:23 24.11.2019
3843 Rain 17 1018 93 6000 1.5 350 15:57 24.11.2019
3844 Rain 17 1018 93 6000 1.5 350 15:39 24.11.2019
3845 Rain 17 1018 93 6000 1.5 350 15:21 24.11.2019
3846 Mist 17 1018 93 5000 2.1 80 14:40 24.11.2019
3847 Mist 18 1018 93 5000 2.1 80 14:20 24.11.2019
3848 Mist 18 1018 93 5000 2.1 80 14:20 24.11.2019
3849 Clouds 18 1018 100 10000 4.09 356 13:59 24.11.2019
3850 Clouds 18 1018 100 10000 4.09 356 13:38 24.11.2019
3851 Clouds 18 1018 100 10000 4.69 11 13:20 24.11.2019
3852 Clouds 18 1018 100 10000 4.69 11 12:56 24.11.2019
3853 Clouds 18 1018 100 10000 4.69 11 12:38 24.11.2019
3854 Clouds 18 1018 100 10000 4.69 11 12:38 24.11.2019
3855 Clouds 18 1018 100 10000 4.69 11 12:18 24.11.2019
3856 Clouds 19 1017 93 10000 1.5 360 11:54 24.11.2019
3857 Clouds 19 1017 93 10000 1.5 360 11:36 24.11.2019
3858 Clouds 19 1017 93 10000 1.5 360 11:18 24.11.2019
3859 Clouds 18 1016 100 10000 0.5 0 10:42 24.11.2019
3860 Clouds 18 1016 100 10000 0.5 0 10:24 24.11.2019
3861 Clouds 19 1015 88 10000 1 10 09:40 24.11.2019
3862 Clouds 19 1015 88 10000 1 10 09:20 24.11.2019
3863 Clouds 20 1014 82 10000 0.5 0 08:59 24.11.2019
3864 Clouds 20 1014 82 10000 0.5 0 08:40 24.11.2019
3865 Clouds 20 1014 82 10000 0.5 0 08:21 24.11.2019
3866 Clouds 20 1013 82 10000 3.1 320 07:52 24.11.2019
3867 Clouds 20 1013 82 10000 3.1 320 07:33 24.11.2019
3868 Clouds 20 1014 82 10000 4.1 350 06:55 24.11.2019
3869 Clouds 18 1015 88 10000 3.6 360 05:40 24.11.2019
3870 Clouds 16 1015 93 10000 7.7 140 04:42 24.11.2019
3871 Thunderstorm 16 1019 100 5000 4.1 190 02:43 24.11.2019
3872 Thunderstorm 16 1019 100 6000 3.1 340 01:56 24.11.2019
3873 Rain 16 1019 100 7000 1.5 30 01:35 24.11.2019
3874 Thunderstorm 16 1018 88 10000 2.1 10 00:57 24.11.2019
3875 Clouds 17 1017 82 10000 3.1 150 00:38 24.11.2019
3876 Clouds 17 1017 82 10000 3.1 150 00:19 24.11.2019
3877 Clouds 16 1017 93 10000 1 0 23:43 23.11.2019
3878 Clouds 16 1017 93 10000 1 0 23:21 23.11.2019
3879 Clouds 16 1018 88 10000 2.1 140 22:57 23.11.2019
3880 Clouds 16 1018 88 10000 2.1 140 22:37 23.11.2019
3881 Clouds 16 1018 88 10000 2.1 140 22:19 23.11.2019
3882 Clouds 15 1021 93 0 1.79 150 21:56 23.11.2019
3883 Clouds 15 1021 93 0 1.79 150 21:37 23.11.2019
3884 Clouds 15 1021 93 0 1.79 150 21:19 23.11.2019
3885 Clouds 15 1021 93 0 1.79 150 20:38 23.11.2019
3886 Clouds 15 1021 93 0 1.79 150 20:38 23.11.2019
3887 Clear 15 1021 93 0 1.79 150 20:20 23.11.2019
3888 Clear 15 1021 93 0 1.79 150 19:57 23.11.2019
3889 Clear 15 1021 93 0 1.79 150 19:57 23.11.2019
3890 Clear 15 1021 93 0 1.79 150 19:57 23.11.2019
3891 Clear 15 1021 93 0 1.79 150 19:39 23.11.2019
3892 Clear 15 1021 93 0 1.79 150 19:19 23.11.2019
3893 Clear 15 1021 93 0 1.79 150 19:19 23.11.2019
3894 Clear 15 1021 93 0 1.79 150 18:57 23.11.2019
3895 Clear 15 1021 93 0 1.79 150 18:38 23.11.2019
3896 Clear 15 1021 93 0 1.79 150 18:19 23.11.2019
3897 Clear 15 1021 93 0 1.79 150 18:19 23.11.2019
3898 Clear 15 1021 93 0 1.79 150 17:43 23.11.2019
3899 Clear 15 1021 93 0 1.79 150 17:21 23.11.2019
3900 Clear 15 1021 93 0 1.79 150 16:57 23.11.2019
3901 Clear 15 1021 93 0 1.79 150 16:38 23.11.2019
3902 Mist 13 1021 100 5000 2.1 350 16:20 23.11.2019
3903 Mist 13 1021 100 5000 2.1 350 16:20 23.11.2019
3904 Mist 13 1021 100 5000 2.1 350 15:58 23.11.2019
3905 Mist 13 1021 100 5000 2.1 350 15:39 23.11.2019
3906 Mist 14 1021 100 5000 2.1 350 15:19 23.11.2019
3907 Clouds 14 1021 93 7000 3.1 80 14:56 23.11.2019
3908 Clouds 14 1021 93 7000 3.1 80 14:38 23.11.2019
3909 Clouds 14 1021 93 7000 3.1 80 14:38 23.11.2019
3910 Clouds 14 1021 93 7000 3.1 80 14:20 23.11.2019
3911 Clouds 15 1021 93 10000 2.1 150 13:43 23.11.2019
3912 Clouds 15 1021 93 10000 2.1 150 13:20 23.11.2019
3913 Clouds 15 1021 93 10000 3.1 180 12:58 23.11.2019
3914 Clouds 15 1021 93 10000 3.1 180 12:39 23.11.2019
3915 Clouds 15 1021 93 10000 3.1 180 12:21 23.11.2019
3916 Clouds 15 1021 87 10000 1.5 140 11:42 23.11.2019
3917 Clouds 15 1021 87 10000 1.5 140 11:20 23.11.2019
3918 Clouds 17 1020 88 10000 2.1 20 10:45 23.11.2019
3919 Clouds 17 1020 88 10000 2.1 20 10:22 23.11.2019
3920 Clouds 18 1020 88 10000 2.6 290 09:42 23.11.2019
3921 Clouds 18 1020 88 10000 2.6 290 09:20 23.11.2019
3922 Clouds 21 1019 68 10000 1 180 08:43 23.11.2019
3923 Clouds 21 1019 68 10000 1 180 08:20 23.11.2019
3924 Clouds 21 1020 64 10000 1 0 07:54 23.11.2019
3925 Clouds 21 1020 64 10000 1 0 07:35 23.11.2019
3926 Clouds 20 1020 68 10000 0.5 0 06:46 23.11.2019
3927 Clouds 20 1020 68 10000 0.5 0 06:21 23.11.2019
3928 Clouds 19 1021 77 10000 0.5 0 05:50 23.11.2019
3929 Clouds 19 1021 77 10000 0.5 0 05:29 23.11.2019
3930 Clouds 17 1022 82 10000 1 0 04:48 23.11.2019
3931 Clouds 17 1022 82 10000 1 0 04:27 23.11.2019
3932 Clouds 15 1023 87 10000 1 0 02:45 23.11.2019
3933 Clouds 13 1023 93 10000 1.5 120 01:43 23.11.2019
3934 Clouds 13 1023 93 10000 1.5 120 01:21 23.11.2019
3935 Clouds 12 1023 100 10000 1 0 00:40 23.11.2019
3936 Clouds 12 1023 100 10000 1 0 00:18 23.11.2019
3937 Clouds 9 1023 100 9000 2.1 130 23:42 22.11.2019
3938 Clouds 9 1023 100 9000 2.1 130 23:20 22.11.2019
3939 Clear 9 1023 100 10000 2.6 310 22:57 22.11.2019
3940 Clear 10 1023 100 10000 2.6 310 22:38 22.11.2019
3941 Clear 10 1023 100 10000 2.6 310 22:20 22.11.2019
3942 Clear 13 1023 93 0 1.79 130 21:58 22.11.2019
3943 Clear 13 1023 93 0 1.79 130 21:39 22.11.2019
3944 Clear 13 1023 93 0 1.79 130 21:19 22.11.2019
3945 Clear 13 1023 93 0 1.79 130 20:43 22.11.2019
3946 Clear 13 1023 93 0 1.79 130 20:43 22.11.2019
3947 Clear 13 1023 93 0 1.79 130 20:22 22.11.2019
3948 Clear 13 1023 93 0 1.79 130 19:55 22.11.2019
3949 Clear 13 1023 93 0 1.79 130 19:37 22.11.2019
3950 Clear 13 1023 93 0 1.79 130 19:18 22.11.2019
3951 Clear 13 1023 93 0 1.79 130 18:39 22.11.2019
3952 Clear 13 1023 93 0 1.79 130 18:21 22.11.2019
3953 Clear 13 1023 93 0 1.79 130 17:56 22.11.2019
3954 Clear 13 1023 93 0 1.79 130 17:56 22.11.2019
3955 Clear 13 1023 93 0 1.79 130 17:38 22.11.2019
3956 Clear 13 1023 93 0 1.79 130 17:20 22.11.2019
3957 Clear 13 1023 93 0 1.79 130 16:41 22.11.2019
3958 Clear 11 1023 93 10000 3.1 330 16:23 22.11.2019
3959 Clear 11 1023 93 10000 3.1 330 15:44 22.11.2019
3960 Clear 11 1023 93 10000 3.1 330 15:24 22.11.2019
3961 Clear 11 1024 93 10000 2.6 310 14:56 22.11.2019
3962 Clear 11 1024 93 10000 2.6 310 14:38 22.11.2019
3963 Clouds 12 1024 93 10000 2.6 310 14:19 22.11.2019
3964 Clouds 12 1023 93 10000 2.1 130 13:56 22.11.2019
3965 Clouds 12 1023 93 10000 2.1 130 13:36 22.11.2019
3966 Clouds 12 1023 93 10000 2.1 130 13:18 22.11.2019
3967 Clouds 14 1023 87 10000 2.6 140 12:41 22.11.2019
3968 Clouds 14 1023 87 10000 2.6 140 12:20 22.11.2019
3969 Clouds 13 1022 93 10000 1.5 130 11:59 22.11.2019
3970 Clouds 13 1022 93 10000 1.5 130 11:39 22.11.2019
3971 Clouds 13 1022 93 10000 1.5 130 11:20 22.11.2019
3972 Clouds 14 1023 87 10000 3.1 140 10:59 22.11.2019
3973 Clouds 14 1023 87 10000 3.1 140 10:39 22.11.2019
3974 Clouds 14 1023 87 10000 3.1 140 10:21 22.11.2019
3975 Clouds 15 1023 82 10000 3.1 150 09:55 22.11.2019
3976 Clouds 15 1023 82 10000 3.1 150 09:37 22.11.2019
3977 Clouds 15 1023 82 10000 3.1 150 09:18 22.11.2019
3978 Clouds 15 1023 82 10000 3.1 150 09:18 22.11.2019
3979 Clouds 16 1023 77 10000 4.6 150 08:44 22.11.2019
3980 Clouds 16 1023 77 10000 4.6 150 08:25 22.11.2019
3981 Clouds 16 1023 72 10000 1 110 07:45 22.11.2019
3982 Clouds 16 1023 72 10000 1 110 07:23 22.11.2019
3983 Clouds 16 1023 72 10000 1 0 06:49 22.11.2019
3984 Clouds 16 1023 72 10000 1 0 06:30 22.11.2019
3985 Clouds 15 1024 82 10000 1 0 05:49 22.11.2019
3986 Clouds 15 1024 82 10000 0.5 0 04:49 22.11.2019
3987 Clouds 13 1026 82 10000 0.5 0 02:53 22.11.2019
3988 Clouds 13 1026 82 10000 0.5 0 02:30 22.11.2019
3989 Clouds 12 1026 87 10000 1.5 100 01:45 22.11.2019
3990 Clouds 12 1026 87 10000 1.5 100 01:20 22.11.2019
3991 Clouds 12 1026 87 10000 1 0 00:50 22.11.2019
3992 Clouds 12 1026 87 10000 1 0 00:23 22.11.2019
3993 Clouds 11 1025 93 10000 1.5 90 23:49 21.11.2019
3994 Clouds 11 1025 93 10000 1.5 90 23:30 21.11.2019
3995 Clouds 12 1025 82 10000 3.1 160 22:59 21.11.2019
3996 Clouds 12 1025 82 10000 3.1 160 22:39 21.11.2019
3997 Clouds 11 1025 87 10000 3.1 40 22:21 21.11.2019
3998 Clouds 12 1028 76 0 3.58 140 21:57 21.11.2019
3999 Clouds 12 1028 76 0 3.58 140 21:37 21.11.2019
4000 Clouds 12 1028 76 0 3.58 140 21:19 21.11.2019
4001 Clouds 12 1028 76 0 3.58 140 20:58 21.11.2019
4002 Clouds 12 1028 76 0 3.58 140 20:38 21.11.2019
4003 Clear 12 1028 76 0 3.58 140 20:19 21.11.2019
4004 Clouds 12 1028 76 0 3.58 140 19:59 21.11.2019
4005 Clouds 12 1028 76 0 3.58 140 19:40 21.11.2019
4006 Clouds 12 1028 76 0 3.58 140 19:21 21.11.2019
4007 Clouds 12 1028 76 0 3.58 140 18:56 21.11.2019
4008 Clouds 12 1028 76 0 3.58 140 18:37 21.11.2019
4009 Clouds 12 1028 76 0 3.58 140 18:19 21.11.2019
4010 Clouds 12 1028 76 0 3.58 140 17:57 21.11.2019
4011 Clouds 12 1028 76 0 3.58 140 17:38 21.11.2019
4012 Clear 12 1028 76 0 3.58 140 17:19 21.11.2019
4013 Clear 12 1028 76 0 3.58 140 16:41 21.11.2019
4014 Clear 11 1028 81 10000 4.1 40 16:21 21.11.2019
4015 Clear 11 1028 81 10000 4.1 40 15:57 21.11.2019
4016 Clear 11 1028 81 10000 4.1 40 15:38 21.11.2019
4017 -273 0 0 0 0 0 15:19 21.11.2019
4018 Clear 11 1028 76 10000 3.6 40 14:55 21.11.2019
4019 Clear 11 1028 76 10000 3.6 40 14:36 21.11.2019
4020 Clouds 11 1028 76 10000 3.6 40 14:18 21.11.2019
4021 Clouds 12 1028 76 10000 3.6 140 13:39 21.11.2019
4022 Clear 12 1028 76 10000 3.6 140 13:19 21.11.2019
4023 Clear 11 1028 81 10000 1.5 70 12:56 21.11.2019
4024 Clear 11 1028 81 10000 1.5 70 12:37 21.11.2019
4025 Clear 11 1028 81 10000 1.5 70 12:19 21.11.2019
4026 Clear 12 1027 76 10000 3.1 120 11:41 21.11.2019
4027 Clear 12 1027 76 10000 3.1 120 11:41 21.11.2019
4028 Clear 12 1027 76 10000 3.1 120 11:21 21.11.2019
4029 Clear 15 1027 62 10000 3.6 150 10:59 21.11.2019
4030 Clear 15 1027 62 10000 3.6 150 10:41 21.11.2019
4031 Clear 15 1027 62 10000 3.6 150 10:20 21.11.2019
4032 Clear 15 1027 58 10000 1.5 280 09:56 21.11.2019
4033 Clear 15 1027 58 10000 1.5 280 09:37 21.11.2019
4034 Clear 15 1027 58 10000 1.5 280 09:19 21.11.2019
4035 Clear 17 1026 48 10000 2.6 320 08:41 21.11.2019
4036 Clear 17 1026 48 10000 2.6 320 08:20 21.11.2019
4037 Clear 17 1026 48 10000 3.1 350 07:42 21.11.2019
4038 Clear 17 1026 48 10000 3.1 350 07:18 21.11.2019
4039 Clouds 17 1026 39 10000 1 0 06:57 21.11.2019
4040 Clouds 17 1026 39 10000 1 0 06:33 21.11.2019
4041 Clouds 16 1027 44 10000 4.6 170 05:36 21.11.2019
4042 Clouds 15 1027 51 10000 2.1 210 03:32 21.11.2019
4043 Clouds 13 1028 58 10000 2.6 190 02:41 21.11.2019
4044 Clouds 11 1028 66 10000 4.56 57 01:54 21.11.2019
4045 Clouds 11 1028 66 10000 4.56 57 01:54 21.11.2019
4046 Clouds 11 1028 66 10000 4.56 57 01:36 21.11.2019
4047 Clouds 9 1028 81 10000 3.6 130 00:54 21.11.2019
4048 Clouds 9 1028 81 10000 3.6 130 00:21 21.11.2019
4049 Clouds 6 1028 81 10000 3.1 80 23:55 20.11.2019
4050 Clouds 7 1028 81 10000 3.1 80 23:37 20.11.2019
4051 Clouds 7 1028 81 10000 3.1 80 23:19 20.11.2019
4052 Clouds 6 1028 87 10000 1 0 22:55 20.11.2019
4053 Clouds 6 1028 87 10000 1 0 22:36 20.11.2019
4054 Clear 5 1029 86 10000 3.6 20 22:18 20.11.2019
4055 Clear 5 1029 86 10000 3.6 20 22:18 20.11.2019
4056 Clear 9 1028 66 0 4.02 20 21:54 20.11.2019
4057 Clear 9 1028 66 0 4.02 20 21:36 20.11.2019
4058 Clear 9 1028 66 0 4.02 20 21:18 20.11.2019
4059 Clear 9 1028 66 0 4.02 20 20:54 20.11.2019
4060 Clear 9 1028 66 0 4.02 20 20:36 20.11.2019
4061 Clear 9 1028 66 0 4.02 20 20:18 20.11.2019
4062 Clear 9 1028 66 0 4.02 20 19:37 20.11.2019
4063 Clear 9 1028 66 0 4.02 20 19:37 20.11.2019
4064 Clear 9 1028 66 0 4.02 20 19:19 20.11.2019
4065 Clear 9 1028 66 0 4.02 20 19:19 20.11.2019
4066 Clear 9 1028 66 0 4.02 20 18:59 20.11.2019
4067 Clear 9 1028 66 0 4.02 20 18:40 20.11.2019
4068 Clear 9 1028 66 0 4.02 20 18:22 20.11.2019
4069 Clear 9 1028 66 0 4.02 20 17:59 20.11.2019
4070 Clear 9 1028 66 0 4.02 20 17:39 20.11.2019
4071 Clear 9 1028 66 0 4.02 20 17:21 20.11.2019
4072 Clear 9 1028 66 0 4.02 20 16:57 20.11.2019
4073 Clear 9 1028 66 0 4.02 20 16:39 20.11.2019
4074 Clear 7 1028 75 10000 2.6 360 16:20 20.11.2019
4075 Clear 7 1028 75 10000 2.6 360 16:20 20.11.2019
4076 Clear 7 1028 75 10000 2.6 360 15:57 20.11.2019
4077 Clear 7 1028 75 10000 2.6 360 15:38 20.11.2019
4078 Clear 7 1028 75 10000 2.6 360 15:19 20.11.2019
4079 Clear 7 1029 81 10000 2.1 360 14:41 20.11.2019
4080 Clear 8 1029 81 10000 2.1 360 14:22 20.11.2019
4081 Clear 8 1028 66 10000 4.1 20 13:59 20.11.2019
4082 Clear 8 1028 66 10000 4.1 20 13:40 20.11.2019
4083 Clear 8 1028 66 10000 4.1 20 13:20 20.11.2019
4084 Clear 9 1028 66 10000 6.2 20 12:59 20.11.2019
4085 Clear 9 1028 66 10000 6.2 20 12:38 20.11.2019
4086 Clear 9 1028 66 10000 6.2 20 12:38 20.11.2019
4087 Clear 9 1028 66 10000 6.2 20 12:19 20.11.2019
4088 Clear 9 1027 66 10000 6.2 10 11:46 20.11.2019
4089 Clear 9 1027 66 10000 6.2 10 11:23 20.11.2019
4090 Clear 10 1026 57 10000 7.7 10 10:58 20.11.2019
4091 Clear 10 1026 57 10000 7.7 10 10:39 20.11.2019
4092 Clear 10 1026 57 10000 7.7 10 10:20 20.11.2019
4093 Clouds 12 1025 58 10000 6.7 20 09:56 20.11.2019
4094 Clouds 12 1025 58 10000 6.7 20 09:37 20.11.2019
4095 Clouds 12 1025 58 10000 6.7 20 09:19 20.11.2019
4096 Clouds 14 1025 50 10000 6.7 360 08:42 20.11.2019
4097 Clouds 14 1025 50 10000 6.7 360 08:24 20.11.2019
4098 Clouds 15 1025 44 10000 5.7 340 07:50 20.11.2019
4099 Clouds 15 1025 44 10000 5.7 340 07:30 20.11.2019
4100 Clouds 15 1025 41 10000 7.2 350 06:55 20.11.2019
4101 Clouds 15 1025 41 10000 7.2 350 06:37 20.11.2019
4102 Clouds 15 1025 41 10000 7.2 350 06:18 20.11.2019
4103 Clouds 14 1026 44 10000 7.2 10 04:40 20.11.2019
4104 Clouds 12 1027 54 10000 6.2 10 02:23 20.11.2019
4105 Clouds 11 1027 57 10000 4.6 20 01:35 20.11.2019
4106 Clouds 8 1027 66 10000 3.6 40 00:44 20.11.2019
4107 Clouds 8 1027 66 10000 3.6 40 00:18 20.11.2019
4108 Clouds 8 1027 70 10000 4.1 30 23:40 19.11.2019
4109 Clouds 8 1027 70 10000 4.1 30 23:22 19.11.2019
4110 Clouds 7 1026 75 10000 4.1 40 22:54 19.11.2019
4111 Clouds 7 1026 81 10000 4.1 290 22:36 19.11.2019
4112 Clouds 7 1026 81 10000 4.1 290 22:18 19.11.2019
4113 Clear 12 1024 62 0 6.71 350 21:54 19.11.2019
4114 Clear 12 1024 62 0 6.71 350 21:36 19.11.2019
4115 Clear 12 1024 62 0 6.71 350 21:18 19.11.2019
4116 Clear 12 1024 62 0 6.71 350 20:54 19.11.2019
4117 Clear 12 1024 62 0 6.71 350 20:36 19.11.2019
4118 Clouds 12 1024 62 0 6.71 350 20:18 19.11.2019
4119 Clouds 12 1024 62 0 6.71 350 19:41 19.11.2019
4120 Clouds 12 1024 62 0 6.71 350 19:20 19.11.2019
4121 Clouds 12 1024 62 0 6.71 350 18:57 19.11.2019
4122 Clouds 12 1024 62 0 6.71 350 18:39 19.11.2019
4123 Clouds 12 1024 62 0 6.71 350 18:18 19.11.2019
4124 Clouds 12 1024 62 0 6.71 350 17:56 19.11.2019
4125 Clouds 12 1024 62 0 6.71 350 17:37 19.11.2019
4126 Clouds 12 1024 62 0 6.71 350 17:19 19.11.2019
4127 Clouds 12 1024 62 0 6.71 350 16:56 19.11.2019
4128 Clouds 12 1024 62 0 6.71 350 16:37 19.11.2019
4129 Clouds 10 1025 76 10000 1.5 60 16:18 19.11.2019
4130 Clouds 10 1025 76 10000 1.5 60 15:42 19.11.2019
4131 -273 0 0 0 0 0 15:23 19.11.2019
4132 Clouds 11 1024 76 10000 1 60 14:57 19.11.2019
4133 Clouds 11 1024 76 10000 1 60 14:39 19.11.2019
4134 Clouds 11 1024 76 10000 1 60 14:20 19.11.2019
4135 Clouds 11 1024 62 10000 6.7 350 13:41 19.11.2019
4136 Clouds 11 1024 62 10000 6.7 350 13:20 19.11.2019
4137 Clouds 11 1024 62 10000 6.7 350 13:20 19.11.2019
4138 Clouds 11 1024 62 10000 6.7 350 13:20 19.11.2019
4139 Clouds 12 1023 62 10000 6.2 330 12:42 19.11.2019
4140 Clouds 12 1023 62 10000 6.2 330 12:23 19.11.2019
4141 Clouds 12 1023 58 10000 7.7 320 11:59 19.11.2019
4142 Clouds 12 1023 58 10000 7.7 320 11:39 19.11.2019
4143 Clouds 12 1023 58 10000 7.7 320 11:20 19.11.2019
4144 Clouds 12 1022 62 10000 7.2 320 10:58 19.11.2019
4145 Clouds 12 1022 62 10000 7.2 320 10:40 19.11.2019
4146 Clouds 12 1022 62 10000 7.2 320 10:20 19.11.2019
4147 Clouds 12 1021 58 10000 7.7 320 09:42 19.11.2019
4148 Clouds 12 1021 58 10000 7.7 320 09:19 19.11.2019
4149 Clouds 12 1021 58 10000 7.7 320 09:19 19.11.2019
4150 Clouds 13 1021 54 10000 7.2 320 08:56 19.11.2019
4151 Clouds 13 1021 54 10000 7.2 320 08:37 19.11.2019
4152 Clouds 13 1021 54 10000 7.2 320 08:37 19.11.2019
4153 Clouds 13 1021 54 10000 7.2 320 08:19 19.11.2019
4154 Clouds 13 1021 58 10000 5.7 330 07:42 19.11.2019
4155 Clouds 13 1021 58 10000 5.7 330 07:22 19.11.2019
4156 Clouds 13 1020 58 10000 6.7 330 06:52 19.11.2019
4157 Clouds 13 1020 58 10000 6.7 330 06:33 19.11.2019
4158 Clouds 14 1020 54 10000 7.7 330 05:44 19.11.2019
4159 Clouds 13 1021 54 10000 7.2 330 04:26 19.11.2019
4160 Clouds 14 1021 50 10000 6.2 340 03:35 19.11.2019
4161 Clouds 13 1022 50 10000 6.7 350 02:57 19.11.2019
4162 Clouds 13 1022 50 10000 6.7 350 02:32 19.11.2019
4163 Clouds 12 1022 58 10000 8.2 330 01:43 19.11.2019
4164 Clouds 11 1021 62 10000 8.7 320 00:22 19.11.2019
4165 Clouds 11 1020 62 10000 8.7 320 23:57 18.11.2019
4166 Clouds 11 1020 62 10000 8.7 320 23:37 18.11.2019
4167 Clouds 11 1020 62 10000 8.7 320 23:18 18.11.2019
4168 Clouds 10 1020 62 10000 8.2 330 22:44 18.11.2019
4169 Clouds 10 1019 76 10000 4.1 280 22:23 18.11.2019
4170 Clouds 14 1018 71 0 7.15 320 21:56 18.11.2019
4171 Clouds 14 1018 71 0 7.15 320 21:37 18.11.2019
4172 Clouds 14 1018 71 0 7.15 320 21:19 18.11.2019
4173 Clouds 14 1018 71 0 7.15 320 20:56 18.11.2019
4174 Clouds 14 1018 71 0 7.15 320 20:38 18.11.2019
4175 Clouds 14 1018 71 0 7.15 320 20:18 18.11.2019
4176 Clouds 14 1018 71 0 7.15 320 19:55 18.11.2019
4177 Clouds 14 1018 71 0 7.15 320 19:36 18.11.2019
4178 Clouds 14 1018 71 0 7.15 320 19:18 18.11.2019
4179 Clouds 14 1018 71 0 7.15 320 18:54 18.11.2019
4180 Clouds 14 1018 71 0 7.15 320 18:54 18.11.2019
4181 Clouds 14 1018 71 0 7.15 320 18:36 18.11.2019
4182 Clouds 14 1018 71 0 7.15 320 18:18 18.11.2019
4183 Clouds 14 1018 71 0 7.15 320 17:38 18.11.2019
4184 Clouds 14 1018 71 0 7.15 320 17:19 18.11.2019
4185 Clouds 14 1018 71 0 7.15 320 16:54 18.11.2019
4186 Clouds 14 1018 71 0 7.15 320 16:54 18.11.2019
4187 Clouds 14 1018 71 0 7.15 320 16:36 18.11.2019
4188 Clouds 13 1019 71 10000 2.6 310 16:18 18.11.2019
4189 Clouds 13 1019 71 10000 2.6 310 15:54 18.11.2019
4190 Clouds 13 1019 71 10000 2.6 310 15:36 18.11.2019
4191 Clouds 13 1019 71 10000 2.6 310 15:18 18.11.2019
4192 Clouds 13 1019 71 10000 4.1 280 14:41 18.11.2019
4193 Clouds 14 1019 71 10000 4.1 280 14:22 18.11.2019
4194 Clouds 14 1018 71 10000 7.2 320 13:46 18.11.2019
4195 Clouds 14 1018 71 10000 7.2 320 13:27 18.11.2019
4196 Clouds 15 1018 72 10000 6.7 310 12:58 18.11.2019
4197 Clouds 15 1018 72 10000 6.7 310 12:37 18.11.2019
4198 Clouds 15 1018 72 10000 6.7 310 12:18 18.11.2019
4199 Clouds 15 1017 82 10000 8.2 310 11:43 18.11.2019
4200 Clouds 15 1017 82 10000 8.2 310 11:25 18.11.2019
4201 Rain 15 1017 87 10000 6.2 330 10:46 18.11.2019
4202 Rain 15 1017 87 10000 6.2 330 10:27 18.11.2019
4203 Clouds 16 1016 82 10000 7.7 310 09:59 18.11.2019
4204 Clouds 16 1016 82 10000 7.7 310 09:39 18.11.2019
4205 Clouds 16 1016 82 10000 7.7 310 09:21 18.11.2019
4206 Clouds 16 1016 82 10000 7.2 310 08:59 18.11.2019
4207 Clouds 16 1016 82 10000 7.2 310 08:41 18.11.2019
4208 Clouds 16 1016 82 10000 7.2 310 08:19 18.11.2019
4209 Rain 17 1015 88 10000 7.7 310 07:45 18.11.2019
4210 Rain 17 1015 88 10000 7.7 310 07:26 18.11.2019
4211 Rain 17 1015 93 10000 2.6 340 06:49 18.11.2019
4212 Rain 17 1015 93 10000 2.6 340 06:28 18.11.2019
4213 Rain 16 1015 100 7000 3.1 10 05:45 18.11.2019
4214 Rain 16 1016 100 6000 6.2 330 04:28 18.11.2019
4215 Rain 19 1016 88 5000 5.7 330 01:47 18.11.2019
4216 Rain 21 1015 83 10000 6.7 180 01:25 18.11.2019
4217 Rain 21 1015 83 10000 8.7 170 00:20 18.11.2019
4218 Clouds 20 1014 77 10000 9.3 170 23:41 17.11.2019
4219 Clouds 20 1014 77 10000 9.3 170 23:22 17.11.2019
4220 Clouds 20 1015 73 10000 7.7 150 22:57 17.11.2019
4221 Clouds 20 1015 73 10000 7.7 150 22:57 17.11.2019
4222 Clouds 20 1015 73 10000 7.7 150 22:39 17.11.2019
4223 Clouds 20 1015 73 10000 7.7 150 22:21 17.11.2019
4224 Rain 17 1020 72 0 7.15 140 21:57 17.11.2019
4225 Rain 17 1020 72 0 7.15 140 21:38 17.11.2019
4226 Rain 17 1020 72 0 7.15 140 21:18 17.11.2019
4227 Rain 17 1020 72 0 7.15 140 20:55 17.11.2019
4228 Rain 17 1020 72 0 7.15 140 20:36 17.11.2019
4229 Rain 17 1020 72 0 7.15 140 20:18 17.11.2019
4230 Rain 17 1020 72 0 7.15 140 19:55 17.11.2019
4231 Rain 17 1020 72 0 7.15 140 19:36 17.11.2019
4232 Rain 17 1020 72 0 7.15 140 19:18 17.11.2019
4233 Rain 17 1020 72 0 7.15 140 18:54 17.11.2019
4234 Rain 17 1020 72 0 7.15 140 18:36 17.11.2019
4235 Rain 17 1020 72 0 7.15 140 18:18 17.11.2019
4236 Rain 17 1020 72 0 7.15 140 17:56 17.11.2019
4237 Rain 17 1020 72 0 7.15 140 17:38 17.11.2019
4238 Clear 17 1020 72 0 7.15 140 17:18 17.11.2019
4239 Clear 17 1020 72 0 7.15 140 16:55 17.11.2019
4240 Clear 17 1020 72 0 7.15 140 16:37 17.11.2019
4241 Clouds 14 1020 81 7000 2.1 80 16:19 17.11.2019
4242 Clouds 14 1020 81 7000 2.1 80 15:41 17.11.2019
4243 Clouds 14 1020 81 7000 2.1 80 15:19 17.11.2019
4244 Clouds 14 1020 87 6000 2.6 20 14:57 17.11.2019
4245 Clouds 14 1020 87 6000 2.6 20 14:39 17.11.2019
4246 Clouds 15 1020 87 6000 2.6 20 14:20 17.11.2019
4247 Clouds 15 1020 72 10000 7.2 140 13:59 17.11.2019
4248 Clouds 15 1020 72 10000 7.2 140 13:59 17.11.2019
4249 Clouds 15 1020 72 10000 7.2 140 13:40 17.11.2019
4250 Clouds 16 1020 72 10000 7.2 140 13:20 17.11.2019
4251 Clouds 16 1019 77 10000 7.2 140 12:45 17.11.2019
4252 Clouds 16 1019 77 10000 7.2 140 12:24 17.11.2019
4253 Clouds 16 1020 67 10000 6.2 140 11:59 17.11.2019
4254 Clouds 16 1020 67 10000 6.2 140 11:40 17.11.2019
4255 Clouds 16 1020 67 10000 6.2 140 11:21 17.11.2019
4256 Clouds 17 1019 59 10000 6.2 140 10:56 17.11.2019
4257 Clouds 17 1019 59 10000 6.2 140 10:56 17.11.2019
4258 Clouds 17 1019 59 10000 6.2 140 10:36 17.11.2019
4259 Clouds 17 1019 59 10000 6.2 140 10:18 17.11.2019
4260 Clouds 18 1019 68 10000 3.6 160 09:41 17.11.2019
4261 Clouds 18 1019 68 10000 3.6 160 09:23 17.11.2019
4262 Clouds 19 1019 60 10000 3.6 120 08:44 17.11.2019
4263 Clouds 19 1019 60 10000 3.6 120 08:24 17.11.2019
4264 Clouds 20 1019 60 10000 3.6 140 07:56 17.11.2019
4265 Clouds 20 1019 60 10000 3.6 140 07:38 17.11.2019
4266 Clouds 20 1019 60 10000 3.6 140 07:19 17.11.2019
4267 Clouds 20 1019 53 10000 5.1 140 06:47 17.11.2019
4268 Clouds 20 1019 53 10000 5.1 140 06:27 17.11.2019
4269 Clouds 18 1021 55 10000 4.6 140 04:50 17.11.2019
4270 Clouds 16 1022 55 10000 4.1 140 03:58 17.11.2019
4271 Clouds 17 1022 55 10000 4.1 140 03:33 17.11.2019
4272 Clouds 14 1022 72 10000 1 0 02:40 17.11.2019
4273 Clouds 13 1022 76 10000 5.1 140 01:45 17.11.2019
4274 Clouds 11 1022 82 10000 5.7 140 00:56 17.11.2019
4275 Clouds 11 1022 82 10000 5.7 140 00:23 17.11.2019
4276 Clouds 10 1021 87 10000 6.2 140 23:54 16.11.2019
4277 Clouds 10 1021 87 10000 6.2 140 23:21 16.11.2019
4278 Clouds 10 1021 87 10000 4.6 140 22:59 16.11.2019
4279 Clouds 10 1021 87 10000 4.6 140 22:41 16.11.2019
4280 Clouds 9 1022 87 10000 1.5 350 22:20 16.11.2019
4281 Clouds 12 1021 87 0 2.24 130 21:56 16.11.2019
4282 Clouds 12 1021 87 0 2.24 130 21:38 16.11.2019
4283 Clouds 12 1021 87 0 2.24 130 21:19 16.11.2019
4284 Clouds 12 1021 87 0 2.24 130 20:55 16.11.2019
4285 Clouds 12 1021 87 0 2.24 130 20:37 16.11.2019
4286 Clouds 12 1021 87 0 2.24 130 20:18 16.11.2019
4287 Clouds 12 1021 87 0 2.24 130 19:40 16.11.2019
4288 Clouds 12 1021 87 0 2.24 130 19:22 16.11.2019
4289 Clouds 12 1021 87 0 2.24 130 18:47 16.11.2019
4290 Clouds 12 1021 87 0 2.24 130 18:29 16.11.2019
4291 Clouds 12 1021 87 0 2.24 130 17:58 16.11.2019
4292 Clouds 12 1021 87 0 2.24 130 17:39 16.11.2019
4293 Clear 12 1021 87 0 2.24 130 17:20 16.11.2019
4294 Clear 12 1021 87 0 2.24 130 16:56 16.11.2019
4295 Clear 12 1021 87 0 2.24 130 16:37 16.11.2019
4296 Clear 10 1022 81 10000 2.1 10 16:18 16.11.2019
4297 Clear 10 1022 81 10000 2.1 10 15:41 16.11.2019
4298 Clear 10 1022 81 10000 2.1 10 15:21 16.11.2019
4299 Clear 11 1022 76 10000 2.6 40 14:58 16.11.2019
4300 Clear 11 1022 76 10000 2.6 40 14:39 16.11.2019
4301 Clear 11 1022 76 10000 2.6 40 14:21 16.11.2019
4302 Clouds 12 1021 87 10000 2.6 130 13:55 16.11.2019
4303 Clouds 12 1021 87 10000 2.6 130 13:37 16.11.2019
4304 Clouds 12 1021 87 10000 2.6 130 13:18 16.11.2019
4305 Clear 12 1021 87 10000 2.6 140 12:43 16.11.2019
4306 Clear 12 1021 87 10000 2.6 140 12:23 16.11.2019
4307 Clear 13 1021 76 10000 2.1 90 11:57 16.11.2019
4308 Clear 13 1021 76 10000 2.1 90 11:38 16.11.2019
4309 Clear 13 1021 76 10000 2.1 90 11:38 16.11.2019
4310 Clear 13 1021 76 10000 2.1 90 11:20 16.11.2019
4311 Clear 15 1020 62 10000 3.1 110 10:44 16.11.2019
4312 Clear 15 1020 62 10000 3.1 110 10:25 16.11.2019
4313 Clouds 16 1020 67 10000 1.5 190 09:59 16.11.2019
4314 Clouds 16 1020 67 10000 1.5 190 09:59 16.11.2019
4315 Clouds 16 1020 67 10000 1.5 190 09:40 16.11.2019
4316 Clouds 16 1020 67 10000 1.5 190 09:40 16.11.2019
4317 Clouds 16 1020 67 10000 1.5 190 09:20 16.11.2019
4318 Clouds 18 1020 55 10000 1 0 08:41 16.11.2019
4319 Clouds 18 1020 55 10000 1 0 08:41 16.11.2019
4320 Clouds 18 1020 55 10000 1 0 08:21 16.11.2019
4321 Clouds 18 1019 45 10000 1 0 07:46 16.11.2019
4322 Clouds 18 1019 45 10000 1 0 07:22 16.11.2019
4323 Clouds 19 1020 42 10000 2.1 240 06:59 16.11.2019
4324 Clouds 19 1020 42 10000 2.1 240 06:59 16.11.2019
4325 Clouds 19 1020 42 10000 2.1 240 06:59 16.11.2019
4326 Clouds 19 1020 42 10000 2.1 240 06:41 16.11.2019
4327 Clouds 19 1020 42 10000 2.1 240 06:20 16.11.2019
4328 Clouds 17 1020 48 10000 3.6 160 04:45 16.11.2019
4329 Clear 16 1021 59 10000 4.6 150 03:26 16.11.2019
4330 Clear 12 1022 71 10000 4.1 140 02:36 16.11.2019
4331 Clear 12 1022 71 10000 4.1 140 02:36 16.11.2019
4332 Clear 12 1022 71 10000 4.1 140 02:36 16.11.2019
4333 Clear 11 1021 76 10000 4.6 150 01:38 16.11.2019
4334 Clouds 9 1021 87 10000 4.1 110 00:51 16.11.2019
4335 Clouds 9 1021 87 10000 4.1 110 00:30 16.11.2019
4336 Clear 5 1021 87 10000 2.6 120 23:56 15.11.2019
4337 Clear 5 1021 87 10000 2.6 120 23:38 15.11.2019
4338 Clear 6 1021 87 10000 2.6 120 23:20 15.11.2019
4339 Clear 7 1020 87 10000 3.6 120 22:40 15.11.2019
4340 Clear 6 1020 93 10000 2.6 360 22:20 15.11.2019
4341 Clear 6 1020 93 10000 2.6 360 22:20 15.11.2019
4342 Clear 10 1020 81 0 1.34 100 21:57 15.11.2019
4343 Clear 10 1020 81 0 1.34 100 21:38 15.11.2019
4344 Clear 10 1020 81 0 1.34 100 21:20 15.11.2019
4345 Clear 10 1020 81 0 1.34 100 20:56 15.11.2019
4346 Clear 10 1020 81 0 1.34 100 20:38 15.11.2019
4347 Clear 10 1020 81 0 1.34 100 20:19 15.11.2019
4348 Clear 10 1020 81 0 1.34 100 19:57 15.11.2019
4349 Clear 10 1020 81 0 1.34 100 19:38 15.11.2019
4350 Clear 10 1020 81 0 1.34 100 19:19 15.11.2019
4351 Clear 10 1020 81 0 1.34 100 18:43 15.11.2019
4352 Clear 10 1020 81 0 1.34 100 18:24 15.11.2019
4353 Clear 10 1020 81 0 1.34 100 17:58 15.11.2019
4354 Clear 10 1020 81 0 1.34 100 17:39 15.11.2019
4355 Clear 10 1020 81 0 1.34 100 17:21 15.11.2019
4356 Clear 10 1020 81 0 1.34 100 16:54 15.11.2019
4357 Clear 10 1020 81 0 1.34 100 16:36 15.11.2019
4358 Clear 8 1021 81 10000 2.6 30 16:18 15.11.2019
4359 Clear 8 1021 81 10000 2.6 30 15:38 15.11.2019
4360 Clear 9 1021 81 10000 2.6 30 15:19 15.11.2019
4361 Clear 9 1021 81 10000 2.6 360 14:56 15.11.2019
4362 Clear 9 1021 81 10000 2.6 360 14:38 15.11.2019
4363 Clear 9 1021 81 10000 2.6 360 14:19 15.11.2019
4364 Clear 10 1020 81 10000 1.5 100 13:56 15.11.2019
4365 Clear 10 1020 81 10000 1.5 100 13:38 15.11.2019
4366 Clear 10 1020 81 10000 1.5 100 13:20 15.11.2019
4367 Clear 10 1020 76 10000 2.1 130 12:57 15.11.2019
4368 Clear 10 1020 76 10000 2.1 130 12:37 15.11.2019
4369 Clear 10 1020 76 10000 2.1 130 12:18 15.11.2019
4370 Clear 11 1020 71 10000 2.1 110 11:55 15.11.2019
4371 Clear 11 1020 71 10000 2.1 110 11:37 15.11.2019
4372 Clear 11 1020 71 10000 2.1 110 11:18 15.11.2019
4373 Clear 11 1019 71 10000 1 0 10:39 15.11.2019
4374 Clear 11 1019 71 10000 1 0 10:21 15.11.2019
4375 Clear 14 1019 54 10000 1.5 340 09:56 15.11.2019
4376 Clear 14 1019 54 10000 1.5 340 09:56 15.11.2019
4377 Clear 14 1019 54 10000 1.5 340 09:38 15.11.2019
4378 Clear 14 1019 54 10000 1.5 340 09:18 15.11.2019
4379 Clear 17 1019 42 10000 1.5 0 08:42 15.11.2019
4380 Clear 17 1019 42 10000 1.5 0 08:21 15.11.2019
4381 Clear 17 1019 42 10000 1.5 300 07:45 15.11.2019
4382 Clear 17 1019 42 10000 1.5 300 07:26 15.11.2019
4383 Clouds 17 1019 39 10000 1.5 260 06:36 15.11.2019
4384 Clouds 14 1020 47 10000 2.1 10 05:57 15.11.2019
4385 Clouds 14 1020 47 10000 2.1 10 05:57 15.11.2019
4386 Clouds 14 1020 47 10000 2.1 10 05:38 15.11.2019
4387 Clouds 14 1021 54 10000 1.5 180 04:54 15.11.2019
4388 Clouds 13 1021 58 10000 1 0 03:43 15.11.2019
4389 Clouds 11 1022 62 10000 1.5 0 02:34 15.11.2019
4390 Clouds 10 1022 66 10000 1 0 01:57 15.11.2019
4391 Clouds 10 1022 66 10000 1 0 01:57 15.11.2019
4392 Clouds 10 1022 66 10000 1 0 01:32 15.11.2019
4393 Clouds 10 1022 66 10000 1 0 01:32 15.11.2019
4394 Clear 8 1022 76 10000 1.5 60 00:41 15.11.2019
4395 Clear 8 1022 76 10000 1.5 60 00:23 15.11.2019
4396 Clear 4 1021 87 10000 2.1 100 23:46 14.11.2019
4397 Clear 4 1021 87 10000 2.1 100 23:26 14.11.2019
4398 Clear 5 1021 81 10000 3.1 120 22:42 14.11.2019
4399 Clear 4 1021 93 10000 2.6 350 22:23 14.11.2019
4400 Clear 4 1021 93 10000 2.6 350 22:23 14.11.2019
4401 Clear 10 1021 61 0 5.36 20 21:59 14.11.2019
4402 Clear 10 1021 61 0 5.36 20 21:40 14.11.2019
4403 Clear 10 1021 61 0 5.36 20 21:40 14.11.2019
4404 Clear 10 1021 61 0 5.36 20 21:22 14.11.2019
4405 Clear 10 1021 61 0 5.36 20 20:55 14.11.2019
4406 Clear 10 1021 61 0 5.36 20 20:37 14.11.2019
4407 Clear 10 1021 61 0 5.36 20 20:19 14.11.2019
4408 Clear 10 1021 61 0 5.36 20 19:55 14.11.2019
4409 Clear 10 1021 61 0 5.36 20 19:36 14.11.2019
4410 Clear 10 1021 61 0 5.36 20 19:18 14.11.2019
4411 Clear 10 1021 61 0 5.36 20 18:42 14.11.2019
4412 Clear 10 1021 61 0 5.36 20 18:23 14.11.2019
4413 Clear 10 1021 61 0 5.36 20 17:57 14.11.2019
4414 Clear 10 1021 61 0 5.36 20 17:38 14.11.2019
4415 Clear 10 1021 61 0 5.36 20 17:20 14.11.2019
4416 Clear 10 1021 61 0 5.36 20 16:58 14.11.2019
4417 Clear 10 1021 61 0 5.36 20 16:37 14.11.2019
4418 Clear 7 1021 80 10000 1.5 350 16:19 14.11.2019
4419 Clear 7 1021 80 10000 1.5 350 15:57 14.11.2019
4420 Clear 7 1021 80 10000 1.5 350 15:38 14.11.2019
4421 Clear 8 1021 80 10000 1.5 350 15:19 14.11.2019
4422 Clear 8 1021 80 10000 1.5 350 15:19 14.11.2019
4423 Clear 8 1022 70 10000 1.5 30 14:46 14.11.2019
4424 Clouds 9 1022 70 10000 1.5 30 14:23 14.11.2019
4425 Clouds 9 1021 61 10000 5.7 20 13:58 14.11.2019
4426 Clouds 9 1021 61 10000 5.7 20 13:39 14.11.2019
4427 Clear 9 1021 61 10000 5.7 20 13:20 14.11.2019
4428 Clear 9 1021 57 10000 5.7 360 12:56 14.11.2019
4429 Clear 9 1021 57 10000 5.7 360 12:37 14.11.2019
4430 Clear 9 1021 57 10000 5.7 360 12:19 14.11.2019
4431 Clouds 9 1021 61 10000 6.2 10 11:39 14.11.2019
4432 Clouds 9 1021 61 10000 6.2 10 11:20 14.11.2019
4433 Clouds 9 1021 61 10000 6.2 10 11:20 14.11.2019
4434 Clouds 10 1020 53 10000 7.7 20 10:59 14.11.2019
4435 Clouds 10 1020 53 10000 7.7 20 10:40 14.11.2019
4436 Clouds 10 1020 53 10000 7.7 20 10:20 14.11.2019
4437 Clouds 12 1020 50 10000 7.7 10 09:56 14.11.2019
4438 Clear 12 1020 50 0 7.6 10 09:38 14.11.2019
4439 Clouds 13 1020 50 10000 7.2 10 09:19 14.11.2019
4440 Clouds 13 1020 50 10000 7.2 10 08:47 14.11.2019
4441 Clouds 13 1020 50 10000 7.2 10 08:25 14.11.2019
4442 Clouds 14 1020 50 10000 7.2 10 07:57 14.11.2019
4443 Clouds 14 1020 50 10000 7.2 10 07:37 14.11.2019
4444 Clouds 14 1020 50 10000 7.2 10 07:19 14.11.2019
4445 Clouds 15 1019 51 10000 7.7 360 06:42 14.11.2019
4446 Clouds 15 1019 51 10000 7.7 360 06:18 14.11.2019
4447 Clouds 16 1020 42 10000 6.2 340 04:42 14.11.2019
4448 Clouds 15 1020 44 10000 6.7 330 04:22 14.11.2019
4449 Clouds 15 1021 54 10000 6.2 340 02:47 14.11.2019
4450 Clouds 14 1021 51 10000 7.7 330 01:51 14.11.2019
4451 Clouds 14 1021 51 10000 7.7 330 01:32 14.11.2019
4452 Clouds 14 1020 58 10000 6.7 340 00:49 14.11.2019
4453 Clouds 14 1020 58 10000 6.7 340 00:29 14.11.2019
4454 Clouds 12 1019 62 10000 7.7 340 23:41 13.11.2019
4455 Clouds 12 1019 62 10000 7.7 340 23:22 13.11.2019
4456 Clouds 13 1019 58 10000 10.3 330 22:57 13.11.2019
4457 Clouds 13 1019 58 10000 10.3 330 22:39 13.11.2019
4458 Clouds 15 1019 66 10000 6.7 310 22:21 13.11.2019
4459 Clouds 15 1016 100 0 1.79 70 21:56 13.11.2019
4460 Clouds 15 1016 100 0 1.79 70 21:37 13.11.2019
4461 Clouds 15 1016 100 0 1.79 70 21:37 13.11.2019
4462 Clouds 15 1016 100 0 1.79 70 21:19 13.11.2019
4463 Clouds 15 1016 100 0 1.79 70 20:56 13.11.2019
4464 Clouds 15 1016 100 0 1.79 70 20:37 13.11.2019
4465 Clouds 15 1016 100 0 1.79 70 20:37 13.11.2019
4466 Rain 15 1016 100 0 1.79 70 20:19 13.11.2019
4467 Rain 15 1016 100 0 1.79 70 19:56 13.11.2019
4468 Rain 15 1016 100 0 1.79 70 19:37 13.11.2019
4469 Rain 15 1016 100 0 1.79 70 19:18 13.11.2019
4470 Rain 15 1016 100 0 1.79 70 18:54 13.11.2019
4471 Rain 15 1016 100 0 1.79 70 18:36 13.11.2019
4472 Rain 15 1016 100 0 1.79 70 18:18 13.11.2019
4473 Rain 15 1016 100 0 1.79 70 18:18 13.11.2019
4474 Rain 15 1016 100 0 1.79 70 17:40 13.11.2019
4475 Clouds 15 1016 100 0 1.79 70 17:22 13.11.2019
4476 Clouds 15 1016 100 0 1.79 70 16:59 13.11.2019
4477 Clouds 15 1016 100 0 1.79 70 16:40 13.11.2019
4478 Clouds 15 1016 100 0 1.79 70 16:40 13.11.2019
4479 Clouds 15 1016 100 0 1.79 70 16:40 13.11.2019
4480 Clouds 15 1016 100 0 1.79 70 16:40 13.11.2019
4481 Clouds 16 1016 87 10000 1.5 130 16:21 13.11.2019
4482 Clouds 16 1016 87 10000 1.5 130 15:58 13.11.2019
4483 Clouds 16 1016 87 10000 1.5 130 15:40 13.11.2019
4484 Clouds 16 1016 87 10000 1.5 130 15:22 13.11.2019
4485 Clouds 16 1017 87 10000 1 0 14:57 13.11.2019
4486 Clouds 16 1017 87 10000 1 0 14:37 13.11.2019
4487 Clouds 15 1017 87 10000 1 0 14:19 13.11.2019
4488 Clouds 15 1016 100 10000 2.1 70 13:37 13.11.2019
4489 Clouds 15 1016 100 10000 2.1 70 13:19 13.11.2019
4490 Clouds 15 1016 100 10000 1 0 12:57 13.11.2019
4491 Clouds 15 1016 100 10000 1 0 12:38 13.11.2019
4492 Clouds 15 1016 100 10000 1 0 12:38 13.11.2019
4493 Clouds 15 1016 100 10000 1 0 12:19 13.11.2019
4494 Rain 17 1016 93 10000 0.5 0 11:41 13.11.2019
4495 Rain 17 1016 93 10000 0.5 0 11:21 13.11.2019
4496 Rain 18 1017 93 6000 4.1 280 10:59 13.11.2019
4497 Rain 18 1017 93 6000 4.1 280 10:41 13.11.2019
4498 Rain 18 1017 93 6000 4.1 280 10:41 13.11.2019
4499 Rain 19 1016 93 3500 7.2 270 10:20 13.11.2019
4500 Clouds 20 1016 72 10000 4.6 210 09:57 13.11.2019
4501 Clouds 20 1016 72 10000 4.6 210 09:39 13.11.2019
4502 Clouds 20 1016 72 10000 4.6 210 09:20 13.11.2019
4503 Rain 20 1016 64 10000 5.1 230 08:39 13.11.2019
4504 Rain 20 1016 64 10000 5.1 230 08:39 13.11.2019
4505 Rain 20 1016 64 10000 5.1 230 08:20 13.11.2019
4506 Clouds 20 1016 68 10000 5.7 230 07:42 13.11.2019
4507 Clouds 20 1016 68 10000 5.7 230 07:21 13.11.2019
4508 Clouds 20 1016 68 10000 4.6 200 06:46 13.11.2019
4509 Clouds 20 1016 68 10000 4.6 200 06:19 13.11.2019
4510 Clouds 20 1016 68 10000 4.6 200 06:19 13.11.2019
4511 Clouds 20 1016 68 10000 4.6 200 06:19 13.11.2019
4512 Clouds 19 1017 72 10000 3.6 120 05:54 13.11.2019
4513 Clouds 18 1017 72 10000 3.6 120 05:34 13.11.2019
4514 Clouds 18 1018 77 10000 4.1 130 04:44 13.11.2019
4515 Clouds 17 1020 77 10000 4.6 140 02:19 13.11.2019
4516 Clouds 15 1020 87 10000 5.1 150 01:44 13.11.2019
4517 Clouds 13 1019 93 10000 3.1 130 00:45 13.11.2019
4518 Clouds 13 1019 93 10000 3.1 130 00:26 13.11.2019
4519 Clouds 12 1020 93 10000 4.1 140 23:42 12.11.2019
4520 Clouds 12 1020 93 10000 4.1 140 23:21 12.11.2019
4521 Clouds 12 1020 93 10000 3.1 130 22:55 12.11.2019
4522 Clouds 12 1020 93 10000 3.1 130 22:37 12.11.2019
4523 Clear 11 1020 93 7000 2.1 70 22:18 12.11.2019
4524 Clear 14 1019 87 0 1.79 10 21:43 12.11.2019
4525 Clear 14 1019 87 0 1.79 10 21:24 12.11.2019
4526 Clear 14 1019 87 0 1.79 10 20:57 12.11.2019
4527 Clear 14 1019 87 0 1.79 10 20:37 12.11.2019
4528 Clouds 14 1019 87 0 1.79 10 20:19 12.11.2019
4529 Clouds 14 1019 87 0 1.79 10 19:57 12.11.2019
4530 Clouds 14 1019 87 0 1.79 10 19:39 12.11.2019
4531 Clouds 14 1019 87 0 1.79 10 19:19 12.11.2019
4532 Clouds 14 1019 87 0 1.79 10 19:19 12.11.2019
4533 Clouds 14 1019 87 0 1.79 10 18:58 12.11.2019
4534 Clouds 14 1019 87 0 1.79 10 18:39 12.11.2019
4535 Clouds 14 1019 87 0 1.79 10 18:21 12.11.2019
4536 Clouds 14 1019 87 0 1.79 10 17:57 12.11.2019
4537 Clouds 14 1019 87 0 1.79 10 17:39 12.11.2019
4538 Clouds 14 1019 87 0 1.79 10 17:21 12.11.2019
4539 Clouds 14 1019 87 0 1.79 10 16:56 12.11.2019
4540 Clouds 14 1019 87 0 1.79 10 16:38 12.11.2019
4541 Clouds 14 1020 87 10000 1 320 16:20 12.11.2019
4542 Clouds 14 1020 87 10000 1 320 15:41 12.11.2019
4543 Clouds 14 1020 87 10000 1 320 15:21 12.11.2019
4544 Clouds 14 1020 82 10000 1.5 330 14:56 12.11.2019
4545 Clouds 14 1020 82 10000 1.5 330 14:37 12.11.2019
4546 Clouds 14 1020 82 10000 1.5 330 14:18 12.11.2019
4547 Clouds 14 1019 87 10000 2.1 10 13:55 12.11.2019
4548 Clouds 14 1019 87 10000 2.1 10 13:36 12.11.2019
4549 Clouds 14 1019 87 10000 2.1 10 13:18 12.11.2019
4550 Clouds 14 1019 87 10000 2.1 10 13:18 12.11.2019
4551 Clouds 16 1019 77 10000 3.1 20 12:42 12.11.2019
4552 Clouds 16 1019 77 10000 3.1 20 12:19 12.11.2019
4553 Clouds 16 1020 77 10000 4.1 10 11:57 12.11.2019
4554 Clouds 16 1020 77 10000 4.1 10 11:39 12.11.2019
4555 Clouds 17 1020 77 10000 4.1 10 11:21 12.11.2019
4556 Clouds 18 1019 72 10000 5.7 310 10:55 12.11.2019
4557 Clouds 18 1019 72 10000 5.7 310 10:37 12.11.2019
4558 Clouds 18 1019 72 10000 5.7 310 10:19 12.11.2019
4559 Clouds 18 1018 68 10000 2.1 290 09:40 12.11.2019
4560 Clouds 19 1018 68 10000 2.1 290 09:20 12.11.2019
4561 Clouds 21 1018 56 10000 3.1 240 08:50 12.11.2019
4562 Clouds 20 1018 49 10000 2.6 230 08:29 12.11.2019
4563 Clouds 21 1018 49 10000 2.6 230 07:43 12.11.2019
4564 Clouds 21 1018 49 10000 2.6 230 07:25 12.11.2019
4565 Clouds 20 1018 49 10000 3.1 280 06:54 12.11.2019
4566 Clouds 20 1018 49 10000 3.1 280 06:29 12.11.2019
4567 Clouds 20 1018 49 10000 1 350 05:57 12.11.2019
4568 Clouds 20 1018 49 10000 1 350 05:57 12.11.2019
4569 Clouds 19 1019 52 10000 1 0 04:59 12.11.2019
4570 Clouds 19 1019 52 10000 1 0 04:39 12.11.2019
4571 Clouds 17 1020 72 10000 0.5 0 02:48 12.11.2019
4572 Clouds 15 1019 87 10000 2.1 90 01:38 12.11.2019
4573 Clouds 15 1019 87 10000 2.1 90 01:18 12.11.2019
4574 Clouds 13 1019 87 10000 3.1 170 00:40 12.11.2019
4575 Clouds 13 1019 87 10000 3.1 170 00:21 12.11.2019
4576 Clouds 12 1017 93 10000 3.1 140 23:42 11.11.2019
4577 Clouds 12 1017 93 10000 3.1 140 23:21 11.11.2019
4578 Clouds 10 1018 93 10000 2.6 70 22:39 11.11.2019
4579 Clouds 10 1018 100 8000 2.6 360 22:20 11.11.2019
4580 Clear 13 1014 87 0 0.89 110 21:59 11.11.2019
4581 Clear 13 1014 87 0 0.89 110 21:39 11.11.2019
4582 Clear 13 1014 87 0 0.89 110 21:21 11.11.2019
4583 Clear 13 1014 87 0 0.89 110 20:59 11.11.2019
4584 Clear 13 1014 87 0 0.89 110 20:40 11.11.2019
4585 Clear 13 1014 87 0 0.89 110 20:20 11.11.2019
4586 Clear 13 1014 87 0 0.89 110 19:56 11.11.2019
4587 Clear 13 1014 87 0 0.89 110 19:37 11.11.2019
4588 Clear 13 1014 87 0 0.89 110 19:18 11.11.2019
4589 Clear 13 1014 87 0 0.89 110 18:41 11.11.2019
4590 Clear 13 1014 87 0 0.89 110 18:21 11.11.2019
4591 Clear 13 1014 87 0 0.89 110 17:46 11.11.2019
4592 Clear 13 1014 87 0 0.89 110 17:28 11.11.2019
4593 Clear 13 1014 87 0 0.89 110 16:59 11.11.2019
4594 Clear 13 1014 87 0 0.89 110 16:39 11.11.2019
4595 Clouds 12 1015 93 10000 1 120 16:20 11.11.2019
4596 Clouds 12 1015 93 10000 1 120 15:42 11.11.2019
4597 Clouds 12 1015 93 10000 1 120 15:20 11.11.2019
4598 Clouds 12 1015 87 10000 2.1 60 14:57 11.11.2019
4599 Clouds 12 1015 87 10000 2.1 60 14:39 11.11.2019
4600 Clouds 13 1015 87 10000 2.1 60 14:21 11.11.2019
4601 Clouds 13 1014 87 10000 1 110 13:57 11.11.2019
4602 Clouds 13 1014 87 10000 1 110 13:37 11.11.2019
4603 Clouds 13 1014 87 10000 1 110 13:37 11.11.2019
4604 Clouds 13 1014 87 10000 1 110 13:19 11.11.2019
4605 Clouds 15 1014 82 10000 2.1 60 12:55 11.11.2019
4606 Clouds 15 1014 82 10000 2.1 60 12:37 11.11.2019
4607 Clouds 15 1014 82 10000 2.1 60 12:19 11.11.2019
4608 Clouds 16 1014 67 10000 4.1 310 11:41 11.11.2019
4609 Clouds 16 1014 67 10000 4.1 310 11:21 11.11.2019
4610 Clouds 16 1013 63 10000 5.7 310 10:44 11.11.2019
4611 Clouds 16 1013 63 10000 5.7 310 10:20 11.11.2019
4612 Clouds 16 1013 63 10000 5.7 310 10:20 11.11.2019
4613 Clouds 18 1013 59 10000 6.2 310 09:59 11.11.2019
4614 Clouds 18 1013 59 10000 6.2 310 09:41 11.11.2019
4615 Clouds 18 1013 59 10000 6.2 310 09:20 11.11.2019
4616 Clouds 19 1012 55 10000 7.7 300 08:43 11.11.2019
4617 Clouds 19 1012 55 10000 7.7 300 08:23 11.11.2019
4618 Clouds 21 1011 46 10000 8.2 300 07:57 11.11.2019
4619 Clouds 21 1011 46 10000 8.2 300 07:57 11.11.2019
4620 Clouds 21 1011 46 10000 8.2 300 07:38 11.11.2019
4621 Clouds 21 1011 46 10000 8.2 300 07:19 11.11.2019
4622 Clouds 20 1011 56 10000 8.7 300 06:56 11.11.2019
4623 Clouds 20 1011 56 10000 8.7 300 06:37 11.11.2019
4624 Clouds 20 1011 56 10000 8.7 300 06:19 11.11.2019
4625 Clouds 21 1011 56 10000 7.2 290 05:43 11.11.2019
4626 Clouds 20 1011 56 10000 7.7 290 03:27 11.11.2019
4627 Clouds 19 1011 64 10000 7.7 310 02:30 11.11.2019
4628 Clouds 19 1011 60 10000 6.2 280 01:58 11.11.2019
4629 Clouds 19 1011 60 10000 6.2 280 01:36 11.11.2019
4630 Clouds 16 1010 68 10000 5.7 290 00:54 11.11.2019
4631 Clouds 17 1010 68 10000 5.7 290 00:33 11.11.2019
4632 Clouds 16 1010 72 10000 4.1 280 23:57 10.11.2019
4633 Clouds 16 1010 72 10000 4.1 280 23:37 10.11.2019
4634 Clouds 16 1010 72 10000 4.1 280 23:19 10.11.2019
4635 Clouds 16 1010 72 10000 4.6 270 22:55 10.11.2019
4636 Clouds 16 1010 72 10000 4.6 270 22:55 10.11.2019
4637 Clouds 16 1010 72 10000 4.6 270 22:36 10.11.2019
4638 Clouds 15 1009 87 10000 1.5 280 22:18 10.11.2019
4639 Rain 16 1012 67 0 1.79 140 21:54 10.11.2019
4640 Rain 16 1012 67 0 1.79 140 21:36 10.11.2019
4641 Rain 16 1012 67 0 1.79 140 21:18 10.11.2019
4642 Rain 16 1012 67 0 1.79 140 20:39 10.11.2019
4643 Rain 16 1012 67 0 1.79 140 20:21 10.11.2019
4644 Rain 16 1012 67 0 1.79 140 19:55 10.11.2019
4645 Rain 16 1012 67 0 1.79 140 19:37 10.11.2019
4646 Rain 16 1012 67 0 1.79 140 19:18 10.11.2019
4647 Rain 16 1012 67 0 1.79 140 19:18 10.11.2019
4648 Rain 16 1012 67 0 1.79 140 18:56 10.11.2019
4649 Rain 16 1012 67 0 1.79 140 18:56 10.11.2019
4650 Rain 16 1012 67 0 1.79 140 18:38 10.11.2019
4651 Rain 16 1012 67 0 1.79 140 18:19 10.11.2019
4652 Rain 16 1012 67 0 1.79 140 17:55 10.11.2019
4653 Rain 16 1012 67 0 1.79 140 17:37 10.11.2019
4654 Clouds 16 1012 67 0 1.79 140 17:19 10.11.2019
4655 Clouds 16 1012 67 0 1.79 140 16:44 10.11.2019
4656 Clouds 17 1011 67 10000 4.6 180 16:26 10.11.2019
4657 Clouds 16 1011 67 10000 4.6 180 15:57 10.11.2019
4658 Clouds 16 1011 67 10000 4.6 180 15:38 10.11.2019
4659 Clouds 16 1011 67 10000 4.6 180 15:19 10.11.2019
4660 Clouds 15 1012 82 10000 1 340 14:59 10.11.2019
4661 Clouds 15 1012 82 10000 1 340 14:39 10.11.2019
4662 Clouds 15 1012 82 10000 1 340 14:21 10.11.2019
4663 Clouds 16 1012 67 10000 2.1 140 13:56 10.11.2019
4664 Clouds 16 1012 67 10000 2.1 140 13:38 10.11.2019
4665 Clouds 16 1012 67 10000 2.1 140 13:19 10.11.2019
4666 Clouds 17 1011 59 10000 4.1 180 12:41 10.11.2019
4667 Clouds 17 1011 59 10000 4.1 180 12:20 10.11.2019
4668 Clouds 17 1011 67 10000 3.6 140 11:57 10.11.2019
4669 Clouds 17 1011 67 10000 3.6 140 11:38 10.11.2019
4670 Clouds 17 1011 67 10000 3.6 140 11:20 10.11.2019
4671 Clouds 17 1012 67 10000 2.6 190 10:42 10.11.2019
4672 Clouds 17 1012 67 10000 2.6 190 10:22 10.11.2019
4673 Clouds 18 1012 63 10000 3.1 250 09:59 10.11.2019
4674 Clouds 18 1012 63 10000 3.1 250 09:40 10.11.2019
4675 Clouds 18 1012 63 10000 3.1 250 09:21 10.11.2019
4676 Clouds 19 1012 55 10000 1.5 330 08:40 10.11.2019
4677 Clouds 19 1012 55 10000 1.5 330 08:21 10.11.2019
4678 -273 0 0 0 0 0 07:53 10.11.2019
4679 Clouds 20 1013 52 10000 2.1 270 07:34 10.11.2019
4680 Clouds 20 1014 49 10000 0.5 0 06:59 10.11.2019
4681 Clouds 20 1014 49 10000 0.5 0 06:22 10.11.2019
4682 Clouds 18 1016 55 10000 1 0 03:55 10.11.2019
4683 Clouds 17 1016 72 10000 1 0 02:33 10.11.2019
4684 Clouds 15 1017 77 10000 1 0 01:41 10.11.2019
4685 Clouds 15 1017 77 10000 1 0 01:18 10.11.2019
4686 Clouds 13 1017 87 10000 3.6 70 00:37 10.11.2019
4687 Clouds 10 1017 93 10000 2.1 90 23:42 09.11.2019
4688 Clouds 11 1017 93 10000 2.1 90 23:20 09.11.2019
4689 Clouds 10 1016 93 10000 2.6 140 22:54 09.11.2019
4690 Clouds 10 1016 93 10000 2.6 140 22:36 09.11.2019
4691 Clouds 9 1016 93 10000 2.6 330 22:18 09.11.2019
4692 Clear 15 1017 67 0 4.02 20 21:54 09.11.2019
4693 Clear 15 1017 67 0 4.02 20 21:36 09.11.2019
4694 Clear 15 1017 67 0 4.02 20 21:18 09.11.2019
4695 Clear 15 1017 67 0 4.02 20 20:41 09.11.2019
4696 Clear 15 1017 67 0 4.02 20 20:21 09.11.2019
4697 Clear 15 1017 67 0 4.02 20 19:55 09.11.2019
4698 Clear 15 1017 67 0 4.02 20 19:36 09.11.2019
4699 Clear 15 1017 67 0 4.02 20 19:18 09.11.2019
4700 Clear 15 1017 67 0 4.02 20 18:39 09.11.2019
4701 Clear 15 1017 67 0 4.02 20 18:19 09.11.2019
4702 Clear 15 1017 67 0 4.02 20 17:44 09.11.2019
4703 Clear 15 1017 67 0 4.02 20 17:23 09.11.2019
4704 Clear 15 1017 67 0 4.02 20 16:59 09.11.2019
4705 Clear 15 1017 67 0 4.02 20 16:41 09.11.2019
4706 Clear 13 1018 76 10000 2.1 330 16:20 09.11.2019
4707 Clear 13 1018 76 10000 2.1 330 16:20 09.11.2019
4708 Clear 13 1018 76 10000 2.1 330 15:43 09.11.2019
4709 Clear 14 1018 76 10000 2.1 330 15:24 09.11.2019
4710 Clear 13 1018 76 10000 2.1 330 14:59 09.11.2019
4711 Clear 13 1018 76 10000 2.1 330 14:59 09.11.2019
4712 Clear 13 1018 76 10000 2.1 330 14:40 09.11.2019
4713 Clouds 14 1018 76 10000 2.1 330 14:19 09.11.2019
4714 Clouds 15 1017 67 10000 4.1 20 13:56 09.11.2019
4715 Clouds 15 1017 67 10000 4.1 20 13:36 09.11.2019
4716 Clear 15 1017 67 10000 4.1 20 13:18 09.11.2019
4717 Clear 15 1017 67 10000 4.1 20 13:18 09.11.2019
4718 Clouds 15 1017 63 10000 4.6 10 12:44 09.11.2019
4719 Clouds 15 1017 63 10000 4.6 10 12:25 09.11.2019
4720 Clouds 15 1017 67 10000 4.1 20 11:56 09.11.2019
4721 Clouds 15 1017 67 10000 4.1 20 11:38 09.11.2019
4722 Clouds 15 1017 67 10000 4.1 20 11:18 09.11.2019
4723 Clouds 16 1017 63 10000 5.7 10 10:41 09.11.2019
4724 Clouds 16 1017 63 10000 5.7 10 10:19 09.11.2019
4725 Clouds 18 1016 59 10000 6.7 10 09:56 09.11.2019
4726 Clouds 18 1016 59 10000 6.7 10 09:56 09.11.2019
4727 Clouds 18 1016 59 10000 6.7 10 09:38 09.11.2019
4728 Clouds 18 1016 59 10000 6.7 10 09:18 09.11.2019
4729 Clouds 20 1016 52 10000 7.7 360 08:43 09.11.2019
4730 Clouds 20 1016 52 10000 7.7 360 08:24 09.11.2019
4731 Clouds 21 1016 49 10000 6.2 350 07:46 09.11.2019
4732 Clouds 21 1016 49 10000 6.2 350 07:24 09.11.2019
4733 Clouds 21 1016 49 10000 4.1 330 06:50 09.11.2019
4734 Clouds 21 1016 49 10000 4.1 330 06:32 09.11.2019
4735 Clouds 21 1016 46 10000 5.1 330 05:47 09.11.2019
4736 Clouds 21 1016 46 10000 5.1 330 05:23 09.11.2019
4737 Clouds 19 1018 64 10000 1.5 250 03:57 09.11.2019
4738 Clouds 19 1018 64 10000 1.5 250 03:57 09.11.2019
4739 Clouds 17 1018 72 10000 1 0 02:44 09.11.2019
4740 Clouds 15 1018 82 10000 2.1 140 01:55 09.11.2019
4741 Clouds 14 1018 87 10000 2.6 150 00:54 09.11.2019
4742 Clouds 14 1018 87 10000 2.6 150 00:36 09.11.2019
4743 Clouds 11 1018 87 10000 3.1 120 23:58 08.11.2019
4744 Clouds 12 1018 87 10000 3.1 120 23:39 08.11.2019
4745 Clouds 12 1018 87 10000 3.1 120 23:20 08.11.2019
4746 Clear 11 1018 93 10000 2.1 130 22:48 08.11.2019
4747 Clear 11 1018 93 10000 2.1 130 22:48 08.11.2019
4748 Clear 10 1018 93 10000 2.6 360 22:22 08.11.2019
4749 Clear 14 1017 76 0 1.34 350 21:57 08.11.2019
4750 Clear 14 1017 76 0 1.34 350 21:39 08.11.2019
4751 Clear 14 1017 76 0 1.34 350 21:19 08.11.2019
4752 Clear 14 1017 76 0 1.34 350 20:43 08.11.2019
4753 Clear 14 1017 76 0 1.34 350 20:22 08.11.2019
4754 Clear 14 1017 76 0 1.34 350 19:59 08.11.2019
4755 Clear 14 1017 76 0 1.34 350 19:38 08.11.2019
4756 Clear 14 1017 76 0 1.34 350 19:18 08.11.2019
4757 Clear 14 1017 76 0 1.34 350 19:18 08.11.2019
4758 Clear 14 1017 76 0 1.34 350 18:55 08.11.2019
4759 Clear 14 1017 76 0 1.34 350 18:37 08.11.2019
4760 Clear 14 1017 76 0 1.34 350 18:37 08.11.2019
4761 Clear 14 1017 76 0 1.34 350 18:19 08.11.2019
4762 Clear 14 1017 76 0 1.34 350 17:55 08.11.2019
4763 Clear 14 1017 76 0 1.34 350 17:37 08.11.2019
4764 Clear 14 1017 76 0 1.34 350 17:18 08.11.2019
4765 Clear 14 1017 76 0 1.34 350 16:57 08.11.2019
4766 Clear 14 1017 76 0 1.34 350 16:39 08.11.2019
4767 Clouds 13 1017 81 10000 2.1 330 16:19 08.11.2019
4768 Clouds 13 1017 81 10000 2.1 330 15:56 08.11.2019
4769 Clouds 13 1017 81 10000 2.1 330 15:38 08.11.2019
4770 Clouds 13 1017 81 10000 2.1 330 15:19 08.11.2019
4771 Clouds 13 1018 81 10000 1.5 320 14:55 08.11.2019
4772 Clouds 13 1018 81 10000 1.5 320 14:36 08.11.2019
4773 Clouds 13 1018 81 10000 1.5 320 14:18 08.11.2019
4774 Clear 14 1017 76 10000 1.5 350 13:43 08.11.2019
4775 Clear 14 1017 76 10000 1.5 350 13:22 08.11.2019
4776 Clear 15 1017 72 10000 3.1 30 12:58 08.11.2019
4777 Clear 15 1017 72 10000 3.1 30 12:39 08.11.2019
4778 Clear 15 1017 72 10000 3.1 30 12:21 08.11.2019
4779 Clouds 16 1017 67 10000 2.6 40 11:55 08.11.2019
4780 Clouds 16 1017 67 10000 2.6 40 11:55 08.11.2019
4781 Clouds 16 1017 67 10000 2.6 40 11:37 08.11.2019
4782 Clouds 16 1017 67 10000 2.6 40 11:19 08.11.2019
4783 Clouds 18 1016 63 10000 4.1 310 10:43 08.11.2019
4784 Clouds 18 1016 63 10000 4.1 310 10:22 08.11.2019
4785 Clouds 19 1016 48 10000 4.6 320 09:59 08.11.2019
4786 Clouds 19 1016 48 10000 4.6 320 09:40 08.11.2019
4787 Clouds 19 1016 48 10000 4.6 320 09:19 08.11.2019
4788 Clouds 20 1015 43 10000 4.1 320 08:46 08.11.2019
4789 Clouds 20 1015 43 10000 4.1 320 08:25 08.11.2019
4790 Clouds 21 1015 37 10000 4.1 310 07:57 08.11.2019
4791 Clouds 21 1015 37 10000 4.1 310 07:38 08.11.2019
4792 Clouds 21 1015 37 10000 4.1 310 07:19 08.11.2019
4793 Clouds 21 1015 35 10000 2.1 330 06:38 08.11.2019
4794 Clouds 21 1015 35 10000 2.1 330 06:19 08.11.2019
4795 Clouds 20 1016 37 10000 2.6 320 05:38 08.11.2019
4796 Clouds 20 1017 46 10000 3.6 320 04:30 08.11.2019
4797 Clouds 19 1017 56 10000 3.6 300 03:43 08.11.2019
4798 Clouds 19 1017 56 10000 3.6 300 03:19 08.11.2019
4799 Clouds 17 1018 59 10000 2.6 320 02:24 08.11.2019
4800 Clouds 15 1018 72 10000 0.5 0 01:42 08.11.2019
4801 Clouds 12 1018 87 10000 1 0 00:59 08.11.2019
4802 Clouds 12 1018 87 10000 1 0 00:24 08.11.2019
4803 Clouds 10 1017 93 10000 1.5 70 23:55 07.11.2019
4804 Clouds 10 1017 93 10000 1.5 70 23:33 07.11.2019
4805 Clouds 11 1017 93 10000 2.6 70 22:59 07.11.2019
4806 Clouds 11 1017 93 10000 2.6 70 22:41 07.11.2019
4807 Clouds 10 1017 93 10000 2.1 20 22:21 07.11.2019
4808 Clouds 17 1017 56 0 3.75 12 21:55 07.11.2019
4809 Clouds 14 1016 76 0 1.34 100 21:36 07.11.2019
4810 Clouds 14 1016 76 0 1.34 100 21:18 07.11.2019
4811 Clouds 14 1016 76 0 1.34 100 20:55 07.11.2019
4812 Clouds 14 1016 76 0 1.34 100 20:36 07.11.2019
4813 Clouds 14 1016 76 0 1.34 100 20:18 07.11.2019
4814 Clouds 14 1016 76 0 1.34 100 19:40 07.11.2019
4815 Clouds 14 1016 76 0 1.34 100 19:21 07.11.2019
4816 Clouds 14 1016 76 0 1.34 100 18:58 07.11.2019
4817 Clouds 14 1016 76 0 1.34 100 18:58 07.11.2019
4818 Clouds 14 1016 76 0 1.34 100 18:39 07.11.2019
4819 Clouds 14 1016 76 0 1.34 100 18:39 07.11.2019
4820 Clouds 14 1016 76 0 1.34 100 18:19 07.11.2019
4821 Clouds 14 1016 76 0 1.34 100 17:57 07.11.2019
4822 Clouds 14 1016 76 0 1.34 100 17:38 07.11.2019
4823 Clouds 14 1016 76 0 1.34 100 17:20 07.11.2019
4824 Clouds 14 1016 76 0 1.34 100 16:55 07.11.2019
4825 Clouds 14 1016 76 0 1.34 100 16:55 07.11.2019
4826 Clouds 14 1016 76 0 1.34 100 16:37 07.11.2019
4827 Clouds 12 1016 87 10000 1.5 330 16:19 07.11.2019
4828 Clouds 12 1016 87 10000 1.5 330 15:43 07.11.2019
4829 Clouds 12 1016 87 10000 1.5 330 15:21 07.11.2019
4830 Clouds 13 1016 81 10000 2.1 360 14:59 07.11.2019
4831 Clouds 13 1016 81 10000 2.1 360 14:39 07.11.2019
4832 Clouds 13 1016 81 10000 2.1 360 14:21 07.11.2019
4833 Clouds 14 1016 76 10000 1.5 100 13:55 07.11.2019
4834 Clouds 14 1016 76 10000 1.5 100 13:37 07.11.2019
4835 Clouds 14 1016 76 10000 1.5 100 13:19 07.11.2019
4836 Clouds 14 1016 72 10000 2.6 60 12:57 07.11.2019
4837 Clouds 14 1016 72 10000 2.6 60 12:38 07.11.2019
4838 Clouds 14 1016 72 10000 2.6 60 12:18 07.11.2019
4839 Clouds 14 1015 72 10000 3.1 40 11:42 07.11.2019
4840 Clouds 14 1015 72 10000 3.1 40 11:42 07.11.2019
4841 Clouds 14 1015 72 10000 3.1 40 11:23 07.11.2019
4842 Clouds 14 1015 72 10000 3.1 40 11:23 07.11.2019
4843 Clouds 16 1015 59 10000 3.1 20 10:43 07.11.2019
4844 Clouds 16 1015 59 10000 3.1 20 10:20 07.11.2019
4845 Clouds 18 1014 48 10000 4.1 340 09:57 07.11.2019
4846 Clouds 18 1014 48 10000 4.1 340 09:38 07.11.2019
4847 Clouds 18 1014 48 10000 4.1 340 09:20 07.11.2019
4848 Clouds 20 1014 49 10000 4.1 350 08:46 07.11.2019
4849 Clouds 20 1014 49 10000 4.1 350 08:25 07.11.2019
4850 Clouds 20 1014 49 10000 4.1 350 08:25 07.11.2019
4851 Clouds 21 1014 46 10000 6.2 320 07:58 07.11.2019
4852 Clouds 21 1014 46 10000 6.2 320 07:40 07.11.2019
4853 Clouds 21 1014 46 10000 6.2 320 07:21 07.11.2019
4854 Clouds 21 1014 46 10000 6.2 320 07:21 07.11.2019
4855 Clouds 20 1014 56 10000 6.7 310 06:46 07.11.2019
4856 Clouds 20 1014 56 10000 6.7 310 06:27 07.11.2019
4857 Clouds 20 1014 56 10000 6.7 310 06:26 07.11.2019
4858 Clouds 18 1014 68 10000 3.1 360 05:51 07.11.2019
4859 Clouds 18 1014 68 10000 3.1 360 05:32 07.11.2019
4860 Clouds 18 1014 68 10000 3.1 360 05:32 07.11.2019
4861 -273 0 0 0 0 0 04:53 07.11.2019
4862 Clouds 19 1015 64 10000 3.6 350 04:52 07.11.2019
4863 Clouds 19 1015 64 10000 3.6 350 04:52 07.11.2019
4864 Clouds 19 1015 64 10000 3.6 350 04:29 07.11.2019
4865 Clouds 14 1015 82 10000 2.6 140 01:30 07.11.2019
4866 -273 0 0 0 0 0 01:29 07.11.2019
4867 Clouds 13 1015 87 10000 3.1 130 00:41 07.11.2019
4868 Clouds 13 1015 87 10000 3.1 130 00:18 07.11.2019
4869 Clouds 12 1015 93 10000 2.1 120 23:43 06.11.2019
4870 Clouds 12 1015 93 10000 2.1 120 23:20 06.11.2019
4871 Clouds 12 1015 93 10000 3.6 140 22:40 06.11.2019
4872 Clouds 12 1015 93 10000 3.6 140 22:21 06.11.2019
4873 Clouds 14 1015 82 0 1.34 130 21:58 06.11.2019
4874 Clouds 14 1015 82 0 1.34 130 21:58 06.11.2019
4875 Clouds 14 1015 82 0 1.34 130 21:39 06.11.2019
4876 Clouds 14 1015 82 0 1.34 130 21:20 06.11.2019
4877 Clouds 14 1015 82 0 1.34 130 20:57 06.11.2019
4878 Clouds 14 1015 82 0 1.34 130 20:39 06.11.2019
4879 Clouds 14 1015 82 0 1.34 130 20:20 06.11.2019
4880 Clouds 14 1015 82 0 1.34 130 19:57 06.11.2019
4881 Clouds 14 1015 82 0 1.34 130 19:37 06.11.2019
4882 Clouds 14 1015 82 0 1.34 130 19:19 06.11.2019
4883 Clouds 14 1015 82 0 1.34 130 18:55 06.11.2019
4884 Clouds 14 1015 82 0 1.34 130 18:36 06.11.2019
4885 Clouds 14 1015 82 0 1.34 130 18:18 06.11.2019
4886 Clouds 14 1015 82 0 1.34 130 17:42 06.11.2019
4887 Clouds 14 1015 82 0 1.34 130 17:23 06.11.2019
4888 Clouds 14 1015 82 0 1.34 130 16:57 06.11.2019
4889 Clouds 14 1015 82 0 1.34 130 16:39 06.11.2019
4890 Clouds 14 1015 82 0 1.34 130 16:39 06.11.2019
4891 Clouds 11 1015 87 10000 2.1 360 16:21 06.11.2019
4892 Clouds 12 1015 87 10000 2.1 360 15:58 06.11.2019
4893 Clouds 12 1015 87 10000 2.1 360 15:37 06.11.2019
4894 Clouds 13 1015 87 10000 2.1 360 15:19 06.11.2019
4895 Clouds 12 1015 87 10000 1 360 14:57 06.11.2019
4896 Clouds 12 1015 87 10000 1 360 14:39 06.11.2019
4897 Clear 13 1015 87 10000 1 360 14:20 06.11.2019
4898 Clouds 12 1015 82 10000 1.5 130 13:58 06.11.2019
4899 Clouds 13 1015 82 10000 1.5 130 13:37 06.11.2019
4900 Clouds 13 1015 82 10000 1.5 130 13:18 06.11.2019
4901 Clouds 13 1014 82 10000 2.1 70 12:55 06.11.2019
4902 Clouds 13 1014 82 10000 2.1 70 12:37 06.11.2019
4903 Clouds 13 1014 82 10000 2.1 70 12:18 06.11.2019
4904 Clouds 16 1014 77 10000 2.1 160 11:55 06.11.2019
4905 Clouds 16 1014 77 10000 2.1 160 11:36 06.11.2019
4906 Clouds 16 1014 77 10000 2.1 160 11:18 06.11.2019
4907 Clouds 18 1013 63 10000 2.1 220 10:42 06.11.2019
4908 Clouds 18 1013 63 10000 2.1 220 10:24 06.11.2019
4909 Clouds 18 1013 63 10000 2.1 220 10:24 06.11.2019
4910 Clear 18 1013 59 10000 1 170 09:58 06.11.2019
4911 Clear 18 1013 59 10000 1 170 09:39 06.11.2019
4912 Clear 18 1013 59 10000 1 170 09:20 06.11.2019
4913 Clear 21 1013 40 10000 1.5 190 08:55 06.11.2019
4914 Clear 21 1013 40 10000 1.5 190 08:37 06.11.2019
4915 Clear 21 1013 40 10000 1.5 190 08:18 06.11.2019
4916 Clear 21 1013 40 10000 1.5 190 08:18 06.11.2019
4917 Clear 21 1013 40 10000 2.1 220 07:44 06.11.2019
4918 Clear 21 1013 40 10000 2.1 220 07:26 06.11.2019
4919 Clouds 21 1014 37 10000 2.1 180 06:48 06.11.2019
4920 Clouds 21 1014 37 10000 2.1 180 06:30 06.11.2019
4921 Clouds 20 1014 42 10000 2.1 170 05:37 06.11.2019
4922 Clouds 17 1016 52 10000 1 0 03:22 06.11.2019
4923 Clouds 14 1017 67 10000 5.1 140 01:41 06.11.2019
4924 Clouds 10 1017 87 10000 3.6 130 00:46 06.11.2019
4925 Clouds 8 1017 93 10000 3.6 120 23:59 05.11.2019
4926 Clouds 8 1017 93 10000 3.6 120 23:40 05.11.2019
4927 Clouds 8 1017 93 10000 3.6 120 23:21 05.11.2019
4928 Clouds 8 1017 87 10000 2.6 120 22:55 05.11.2019
4929 Clouds 8 1017 87 10000 2.6 120 22:37 05.11.2019
4930 Clouds 5 1017 86 10000 3.6 10 22:18 05.11.2019
4931 Clear 15 1016 62 0 1.34 10 21:42 05.11.2019
4932 Clear 15 1016 62 0 1.34 10 21:21 05.11.2019
4933 Clear 15 1016 62 0 1.34 10 20:59 05.11.2019
4934 Clear 15 1016 62 0 1.34 10 20:39 05.11.2019
4935 Clear 15 1016 62 0 1.34 10 20:20 05.11.2019
4936 Clear 15 1016 62 0 1.34 10 19:58 05.11.2019
4937 Clear 15 1016 62 0 1.34 10 19:38 05.11.2019
4938 Clear 15 1016 62 0 1.34 10 19:20 05.11.2019
4939 Clear 15 1016 62 0 1.34 10 18:57 05.11.2019
4940 Clear 15 1016 62 0 1.34 10 18:39 05.11.2019
4941 Clear 15 1016 62 0 1.34 10 18:39 05.11.2019
4942 Clear 15 1016 62 0 1.34 10 18:20 05.11.2019
4943 Clear 15 1016 62 0 1.34 10 17:58 05.11.2019
4944 Clear 15 1016 62 0 1.34 10 17:39 05.11.2019
4945 Clear 15 1016 62 0 1.34 10 17:18 05.11.2019
4946 Clear 15 1016 62 0 1.34 10 16:55 05.11.2019
4947 Clear 15 1016 62 0 1.34 10 16:37 05.11.2019
4948 Clear 10 1017 87 10000 2.1 340 16:18 05.11.2019
4949 Clear 11 1017 87 10000 2.1 340 15:38 05.11.2019
4950 Clear 12 1017 87 10000 2.1 340 15:19 05.11.2019
4951 Clear 12 1017 76 10000 3.1 340 14:58 05.11.2019
4952 Clear 12 1017 76 10000 3.1 340 14:39 05.11.2019
4953 Clear 13 1017 76 10000 3.1 340 14:21 05.11.2019
4954 Clear 14 1016 62 10000 1.5 10 13:44 05.11.2019
4955 Clear 14 1016 62 10000 1.5 10 13:25 05.11.2019
4956 Clear 14 1016 62 10000 3.6 30 12:59 05.11.2019
4957 Clear 14 1016 62 10000 3.6 30 12:39 05.11.2019
4958 Clear 14 1016 62 10000 3.6 30 12:39 05.11.2019
4959 Clear 14 1016 62 10000 3.6 30 12:20 05.11.2019
4960 Clouds 13 1016 62 10000 6.2 350 11:55 05.11.2019
4961 Clouds 14 1016 62 10000 6.2 350 11:36 05.11.2019
4962 Clouds 14 1016 62 10000 6.2 350 11:18 05.11.2019
4963 Clouds 16 1015 51 10000 7.7 360 10:42 05.11.2019
4964 Clouds 16 1015 51 10000 7.7 360 10:23 05.11.2019
4965 Clouds 18 1015 42 10000 6.7 360 09:57 05.11.2019
4966 Clouds 18 1015 42 10000 6.7 360 09:38 05.11.2019
4967 Clouds 18 1015 42 10000 6.7 360 09:19 05.11.2019
4968 Clouds 20 1015 45 10000 6.2 350 08:41 05.11.2019
4969 Clouds 20 1015 45 10000 6.2 350 08:21 05.11.2019
4970 Clouds 21 1014 43 10000 6.7 330 07:59 05.11.2019
4971 Clouds 21 1014 43 10000 6.7 330 07:41 05.11.2019
4972 Clouds 21 1014 43 10000 6.7 330 07:23 05.11.2019
4973 Clouds 22 1015 35 10000 5.7 330 06:51 05.11.2019
4974 Clouds 21 1015 40 10000 5.7 330 05:51 05.11.2019
4975 Clouds 21 1015 40 10000 5.7 330 05:29 05.11.2019
4976 Clouds 20 1016 45 10000 4.6 330 04:47 05.11.2019
4977 Clouds 18 1017 48 10000 1.5 360 03:58 05.11.2019
4978 Clouds 17 1018 55 10000 1 0 02:59 05.11.2019
4979 Clouds 17 1018 55 10000 1 0 02:41 05.11.2019
4980 Clouds 15 1018 67 10000 2.6 150 01:26 05.11.2019
4981 Clouds 12 1018 82 10000 2.6 130 00:38 05.11.2019
4982 Clouds 9 1017 100 10000 1 0 23:59 04.11.2019
4983 Clouds 9 1017 100 10000 1 0 23:40 04.11.2019
4984 Clouds 9 1017 100 10000 1 0 23:18 04.11.2019
4985 Clouds 9 1017 93 10000 3.1 90 22:43 04.11.2019
4986 Clear 9 1018 93 10000 3.1 360 22:24 04.11.2019
4987 Clear 15 1019 62 0 5.81 10 21:57 04.11.2019
4988 Clear 15 1019 62 0 5.81 10 21:38 04.11.2019
4989 Clear 15 1019 62 0 5.81 10 21:20 04.11.2019
4990 Clear 15 1019 62 0 5.81 10 20:59 04.11.2019
4991 Clear 15 1019 62 0 5.81 10 20:40 04.11.2019
4992 Clear 15 1019 62 0 5.81 10 20:21 04.11.2019
4993 Clear 15 1019 62 0 5.81 10 19:59 04.11.2019
4994 Clear 15 1019 62 0 5.81 10 19:41 04.11.2019
4995 Clear 15 1019 62 0 5.81 10 19:22 04.11.2019
4996 Clear 15 1019 62 0 5.81 10 18:58 04.11.2019
4997 Clear 15 1019 62 0 5.81 10 18:39 04.11.2019
4998 Clear 15 1019 62 0 5.81 10 18:19 04.11.2019
4999 Clear 15 1019 62 0 5.81 10 17:55 04.11.2019
5000 Clear 15 1019 62 0 5.81 10 17:55 04.11.2019
5001 Clear 15 1019 62 0 5.81 10 17:36 04.11.2019
5002 Clear 15 1019 62 0 5.81 10 17:18 04.11.2019
5003 Clear 15 1019 62 0 5.81 10 16:41 04.11.2019
5004 Clear 12 1019 81 10000 2.6 340 16:23 04.11.2019
5005 Clear 12 1019 81 10000 2.6 340 15:57 04.11.2019
5006 Clear 12 1019 81 10000 2.6 340 15:39 04.11.2019
5007 Clear 13 1019 81 10000 2.6 340 15:19 04.11.2019
5008 Clear 13 1019 81 10000 4.1 360 14:57 04.11.2019
5009 Clear 13 1019 81 10000 4.1 360 14:39 04.11.2019
5010 Clear 14 1019 81 10000 4.1 360 14:19 04.11.2019
5011 Clouds 14 1019 62 10000 6.2 10 13:55 04.11.2019
5012 Clouds 14 1019 62 10000 6.2 10 13:37 04.11.2019
5013 Clouds 14 1019 62 10000 6.2 10 13:19 04.11.2019
5014 Clouds 14 1019 59 10000 6.7 20 12:44 04.11.2019
5015 Clouds 14 1019 59 10000 6.7 20 12:24 04.11.2019
5016 Clouds 15 1019 67 10000 5.1 10 11:57 04.11.2019
5017 Clouds 15 1019 67 10000 5.1 10 11:39 04.11.2019
5018 Clouds 15 1019 67 10000 5.1 10 11:21 04.11.2019
5019 Clouds 16 1018 63 10000 7.7 10 10:45 04.11.2019
5020 Clouds 16 1018 63 10000 7.7 10 10:26 04.11.2019
5021 Clouds 17 1018 59 10000 7.7 10 09:55 04.11.2019
5022 Clouds 17 1018 59 10000 7.7 10 09:37 04.11.2019
5023 Clouds 17 1018 59 10000 7.7 10 09:18 04.11.2019
5024 Clouds 19 1017 52 10000 8.7 10 08:41 04.11.2019
5025 Clouds 19 1017 52 10000 8.7 10 08:21 04.11.2019
5026 Clouds 19 1017 52 10000 8.7 10 08:21 04.11.2019
5027 Clouds 20 1017 52 10000 7.7 360 07:45 04.11.2019
5028 Clouds 20 1017 52 10000 7.7 360 07:25 04.11.2019
5029 Clouds 21 1017 49 10000 8.7 360 06:59 04.11.2019
5030 Clouds 21 1017 49 10000 8.7 360 06:36 04.11.2019
5031 Clouds 21 1018 49 10000 7.2 10 05:59 04.11.2019
5032 Clouds 21 1019 56 10000 6.2 10 04:50 04.11.2019
5033 Clouds 21 1019 56 10000 6.2 10 04:25 04.11.2019
5034 Clouds 20 1019 60 10000 3.1 10 02:59 04.11.2019
5035 Clouds 18 1019 72 10000 3.6 0 01:22 04.11.2019
5036 Clouds 16 1019 77 10000 4.6 20 00:51 04.11.2019
5037 Clouds 16 1019 77 10000 4.6 20 00:21 04.11.2019
5038 Clouds 14 1018 87 10000 2.6 60 23:58 03.11.2019
5039 Clouds 14 1018 87 10000 2.6 60 23:36 03.11.2019
5040 Clouds 14 1018 87 10000 2.6 60 23:18 03.11.2019
5041 Clouds 14 1018 87 10000 2.1 30 22:55 03.11.2019
5042 Clouds 14 1018 87 10000 2.1 30 22:36 03.11.2019
5043 Clouds 13 1018 100 8000 2.1 10 22:18 03.11.2019
5044 Clear 16 1018 87 0 1.34 90 21:42 03.11.2019
5045 Clear 16 1018 87 0 1.34 90 21:21 03.11.2019
5046 Clear 16 1018 87 0 1.34 90 21:21 03.11.2019
5047 Clear 16 1018 87 0 1.34 90 20:56 03.11.2019
5048 Clear 16 1018 87 0 1.34 90 20:37 03.11.2019
5049 Clouds 16 1018 87 0 1.34 90 20:18 03.11.2019
5050 Clouds 16 1018 87 0 1.34 90 20:18 03.11.2019
5051 Clouds 16 1018 87 0 1.34 90 19:56 03.11.2019
5052 Clouds 16 1018 87 0 1.34 90 19:38 03.11.2019
5053 Clouds 16 1018 87 0 1.34 90 19:19 03.11.2019
5054 Clouds 16 1018 87 0 1.34 90 18:39 03.11.2019
5055 Clouds 16 1018 87 0 1.34 90 18:19 03.11.2019
5056 Clouds 16 1018 87 0 1.34 90 17:59 03.11.2019
5057 Clouds 16 1018 87 0 1.34 90 17:40 03.11.2019
5058 Clouds 16 1018 87 0 1.34 90 17:19 03.11.2019
5059 Clouds 16 1018 87 0 1.34 90 16:56 03.11.2019
5060 Clouds 16 1018 87 0 1.34 90 16:38 03.11.2019
5061 Clouds 14 1018 87 10000 1 330 16:19 03.11.2019
5062 Clouds 14 1018 87 10000 1 330 15:56 03.11.2019
5063 Clouds 14 1018 87 10000 1 330 15:38 03.11.2019
5064 Clouds 14 1018 87 10000 1 330 15:20 03.11.2019
5065 Clouds 15 1018 87 10000 1 320 14:40 03.11.2019
5066 Clouds 15 1018 87 10000 1 320 14:19 03.11.2019
5067 Clouds 16 1018 87 10000 1.5 90 13:56 03.11.2019
5068 Clouds 16 1018 87 10000 1.5 90 13:37 03.11.2019
5069 Clouds 16 1018 87 10000 1.5 90 13:18 03.11.2019
5070 Clouds 16 1017 82 10000 0.5 110 12:38 03.11.2019
5071 Clouds 16 1017 82 10000 0.5 110 12:19 03.11.2019
5072 Clouds 17 1017 72 10000 2.6 40 11:56 03.11.2019
5073 Clouds 17 1017 72 10000 2.6 40 11:37 03.11.2019
5074 Clouds 17 1017 72 10000 2.6 40 11:19 03.11.2019
5075 Clouds 18 1017 68 10000 2.1 40 10:40 03.11.2019
5076 Clouds 18 1017 68 10000 2.1 40 10:22 03.11.2019
5077 Clouds 19 1016 68 10000 3.6 20 09:58 03.11.2019
5078 Clouds 19 1016 68 10000 3.6 20 09:39 03.11.2019
5079 Clouds 19 1016 68 10000 3.6 20 09:39 03.11.2019
5080 Clouds 19 1016 68 10000 3.6 20 09:21 03.11.2019
5081 Clouds 20 1016 68 10000 2.1 360 08:42 03.11.2019
5082 Clouds 20 1016 68 10000 2.1 360 08:24 03.11.2019
5083 Clouds 20 1015 68 10000 2.1 360 07:46 03.11.2019
5084 Clouds 20 1015 68 10000 2.1 360 07:28 03.11.2019
5085 Clouds 20 1016 72 10000 2.6 320 06:52 03.11.2019
5086 Clouds 20 1016 72 10000 2.6 320 06:33 03.11.2019
5087 Clouds 20 1016 77 10000 2.6 330 05:40 03.11.2019
5088 Clouds 20 1017 77 10000 1 0 04:58 03.11.2019
5089 Clouds 20 1017 77 10000 1 0 04:37 03.11.2019
5090 Clouds 20 1017 77 8000 3.1 150 03:35 03.11.2019
5091 Clouds 18 1017 88 8000 2.6 170 02:42 03.11.2019
5092 Clouds 18 1017 88 8000 2.6 170 02:20 03.11.2019
5093 Clouds 18 1017 88 8000 2.6 170 02:20 03.11.2019
5094 Clouds 17 1018 93 6000 0.5 0 01:39 03.11.2019
5095 Clouds 17 1018 93 6000 0.5 0 01:20 03.11.2019
5096 Clouds 17 1017 93 6000 1.5 130 00:45 03.11.2019
5097 Clouds 17 1017 93 6000 1.5 130 00:26 03.11.2019
5098 Clouds 14 1017 100 6000 1 0 23:58 02.11.2019
5099 Clouds 14 1017 100 6000 1 0 23:38 02.11.2019
5100 Clouds 14 1017 100 6000 1 0 23:19 02.11.2019
5101 Clouds 14 1017 100 9000 1.5 130 22:55 02.11.2019
5102 Clouds 15 1017 100 9000 1.5 130 22:37 02.11.2019
5103 Clouds 15 1017 87 8000 2.1 20 22:18 02.11.2019
5104 Clouds 17 1017 93 0 2.24 140 21:56 02.11.2019
5105 Clouds 17 1017 93 0 2.24 140 21:38 02.11.2019
5106 Clouds 17 1017 93 0 2.24 140 21:18 02.11.2019
5107 Clouds 17 1017 93 0 2.24 140 21:18 02.11.2019
5108 Clouds 17 1017 93 0 2.24 140 20:58 02.11.2019
5109 Clouds 17 1017 93 0 2.24 140 20:39 02.11.2019
5110 Clouds 17 1017 93 0 2.24 140 20:39 02.11.2019
5111 Clouds 17 1017 93 0 2.24 140 20:19 02.11.2019
5112 Clouds 17 1017 93 0 2.24 140 19:41 02.11.2019
5113 Clouds 17 1017 93 0 2.24 140 19:23 02.11.2019
5114 Clouds 17 1017 93 0 2.24 140 18:56 02.11.2019
5115 Clouds 17 1017 93 0 2.24 140 18:38 02.11.2019
5116 Clouds 17 1017 93 0 2.24 140 18:38 02.11.2019
5117 Clouds 17 1017 93 0 2.24 140 18:20 02.11.2019
5118 Clouds 17 1017 93 0 2.24 140 17:57 02.11.2019
5119 Clouds 17 1017 93 0 2.24 140 17:38 02.11.2019
5120 Clear 17 1017 93 0 2.24 140 17:19 02.11.2019
5121 Clear 17 1017 93 0 2.24 140 16:57 02.11.2019
5122 Clear 17 1017 93 0 2.24 140 16:36 02.11.2019
5123 Clear 15 1017 87 8000 2.1 50 16:18 02.11.2019
5124 Clear 15 1017 87 8000 2.1 50 16:18 02.11.2019
5125 Clear 15 1017 87 8000 2.1 50 16:18 02.11.2019
5126 Clear 15 1017 87 8000 2.1 50 15:41 02.11.2019
5127 Clear 15 1017 87 8000 2.1 50 15:19 02.11.2019
5128 Clear 15 1018 87 10000 1.5 10 14:42 02.11.2019
5129 Clouds 16 1018 87 10000 1.5 10 14:23 02.11.2019
5130 Clouds 16 1017 93 10000 2.6 140 13:57 02.11.2019
5131 Clouds 16 1017 93 10000 2.6 140 13:57 02.11.2019
5132 Clouds 16 1017 93 10000 2.6 140 13:38 02.11.2019
5133 Clouds 16 1017 93 10000 2.6 140 13:18 02.11.2019
5134 Clouds 16 1017 88 10000 1.5 80 12:41 02.11.2019
5135 Clouds 16 1017 88 10000 1.5 80 12:22 02.11.2019
5136 Clouds 16 1017 93 10000 0.5 300 11:57 02.11.2019
5137 Clouds 16 1017 93 10000 0.5 300 11:39 02.11.2019
5138 Clouds 16 1017 93 10000 0.5 300 11:20 02.11.2019
5139 Clouds 18 1017 82 10000 1.5 270 10:46 02.11.2019
5140 Clouds 18 1017 82 10000 1.5 270 10:27 02.11.2019
5141 Clouds 21 1017 68 10000 4.1 240 09:57 02.11.2019
5142 Clouds 21 1017 68 10000 4.1 240 09:38 02.11.2019
5143 Clouds 21 1017 68 10000 4.1 240 09:19 02.11.2019
5144 Clouds 22 1017 60 10000 2.6 270 08:44 02.11.2019
5145 Clouds 22 1017 60 10000 2.6 270 08:21 02.11.2019
5146 Clouds 22 1017 60 10000 3.6 240 07:47 02.11.2019
5147 Clouds 22 1017 60 10000 3.6 240 07:27 02.11.2019
5148 Clouds 22 1017 56 10000 2.1 290 06:54 02.11.2019
5149 Clouds 22 1017 56 10000 2.1 290 06:26 02.11.2019
5150 Clouds 22 1017 53 10000 1 0 05:55 02.11.2019
5151 Clouds 21 1018 60 10000 2.6 350 04:53 02.11.2019
5152 Clouds 21 1018 60 10000 2.6 350 04:20 02.11.2019
5153 Clouds 21 1019 60 10000 2.1 100 03:46 02.11.2019
5154 Clouds 18 1020 68 10000 1 0 02:38 02.11.2019
5155 Clouds 17 1020 72 10000 2.1 140 01:42 02.11.2019
5156 Clouds 17 1020 72 10000 2.1 140 01:20 02.11.2019
5157 Clouds 14 1020 87 9000 2.6 130 00:42 02.11.2019
5158 Clouds 14 1020 87 9000 2.6 130 00:24 02.11.2019
5159 Clouds 12 1019 93 10000 3.1 140 23:44 01.11.2019
5160 Clouds 12 1019 93 10000 3.1 140 23:20 01.11.2019
5161 Clouds 12 1019 93 10000 3.1 140 22:55 01.11.2019
5162 Clouds 12 1019 93 10000 3.1 140 22:37 01.11.2019
5163 Mist 11 1019 100 5000 2.1 340 22:18 01.11.2019
5164 Clouds 16 1019 67 0 1.34 50 21:38 01.11.2019
5165 Clouds 16 1019 67 0 1.34 50 21:20 01.11.2019
5166 Clouds 16 1019 67 0 1.34 50 20:55 01.11.2019
5167 Clouds 16 1019 67 0 1.34 50 20:36 01.11.2019
5168 Clouds 16 1019 67 0 1.34 50 20:18 01.11.2019
5169 Clouds 16 1019 67 0 1.34 50 19:41 01.11.2019
5170 Clouds 16 1019 67 0 1.34 50 19:22 01.11.2019
5171 Clouds 16 1020 67 0 1.34 50 18:57 01.11.2019
5172 Clouds 16 1019 67 0 1.34 50 18:38 01.11.2019
5173 Clouds 16 1019 67 0 1.34 50 18:18 01.11.2019
5174 Clouds 16 1019 67 0 1.34 50 17:41 01.11.2019
5175 Clear 16 1019 67 0 1.34 50 17:23 01.11.2019
5176 Clear 16 1019 67 0 1.34 50 16:58 01.11.2019
5177 Clear 16 1019 67 0 1.34 50 16:36 01.11.2019
5178 Clear 16 1019 67 0 1.34 50 16:36 01.11.2019
5179 Clear 15 1020 87 10000 1.5 340 16:18 01.11.2019
5180 Clear 15 1020 87 10000 1.5 340 16:18 01.11.2019
5181 Clear 15 1020 87 10000 1.5 340 15:40 01.11.2019
5182 Clear 15 1020 87 10000 1.5 340 15:22 01.11.2019
5183 Clear 14 1020 82 10000 2.6 30 14:55 01.11.2019
5184 Clear 15 1020 82 10000 2.6 30 14:36 01.11.2019
5185 Clear 15 1020 82 10000 2.6 30 14:36 01.11.2019
5186 Clear 15 1020 82 10000 2.6 30 14:18 01.11.2019
5187 Clear 15 1019 67 10000 1.5 50 13:41 01.11.2019
5188 Clear 15 1019 67 10000 1.5 50 13:22 01.11.2019
5189 Clear 17 1019 68 10000 3.1 50 12:56 01.11.2019
5190 Clear 17 1019 68 10000 3.1 50 12:56 01.11.2019
5191 Clear 17 1019 68 10000 3.1 50 12:37 01.11.2019
5192 Clear 17 1019 68 10000 3.1 50 12:19 01.11.2019
5193 Clear 18 1019 68 10000 5.7 350 11:42 01.11.2019
5194 Clear 18 1019 68 10000 5.7 350 11:24 01.11.2019
5195 Clear 19 1019 64 10000 6.2 10 10:56 01.11.2019
5196 Clear 19 1019 64 10000 6.2 10 10:37 01.11.2019
5197 Clear 19 1019 64 10000 6.2 10 10:18 01.11.2019
5198 Clear 21 1018 56 10000 6.7 360 09:42 01.11.2019
5199 Clear 21 1018 56 10000 6.7 360 09:23 01.11.2019
5200 Clouds 23 1018 56 10000 1.5 270 08:55 01.11.2019
5201 Clouds 23 1018 56 10000 1.5 270 08:37 01.11.2019
5202 Clouds 23 1018 56 10000 1.5 270 08:37 01.11.2019
5203 Clouds 23 1018 56 10000 1.5 270 08:18 01.11.2019
5204 Clouds 23 1018 53 10000 2.1 210 07:46 01.11.2019
5205 Clouds 23 1018 53 10000 2.1 210 07:22 01.11.2019
5206 Clouds 22 1018 56 10000 1.5 190 06:55 01.11.2019
5207 Clouds 22 1018 56 10000 1.5 190 06:23 01.11.2019
5208 Clouds 21 1018 56 10000 1.5 200 05:57 01.11.2019
5209 Clouds 21 1018 56 10000 1.5 200 05:35 01.11.2019
5210 Clouds 20 1020 68 10000 2.1 170 03:32 01.11.2019
5211 Clouds 16 1021 82 10000 2.1 140 01:48 01.11.2019
5212 Clouds 14 1021 87 10000 2.1 140 00:58 01.11.2019
5213 Clouds 14 1021 87 10000 2.1 140 00:20 01.11.2019
5214 Clouds 12 1020 100 10000 2.6 110 23:44 31.10.2019
5215 Clouds 12 1020 100 10000 2.6 110 23:24 31.10.2019
5216 Clouds 12 1020 100 10000 4.6 130 22:58 31.10.2019
5217 Clouds 12 1020 100 10000 4.6 130 22:40 31.10.2019
5218 Clouds 12 1020 100 10000 4.6 130 22:40 31.10.2019
5219 Clouds 11 1020 93 7000 2.1 350 22:21 31.10.2019
5220 Clouds 14 1020 87 0 1.79 60 21:45 31.10.2019
5221 Clouds 14 1020 87 0 1.79 60 21:23 31.10.2019
5222 Clouds 14 1020 87 0 1.79 60 20:58 31.10.2019
5223 Clouds 14 1020 87 0 1.79 60 20:40 31.10.2019
5224 Clouds 14 1020 87 0 1.79 60 20:22 31.10.2019
5225 Clouds 14 1020 87 0 1.79 60 19:45 31.10.2019
5226 Clouds 14 1020 87 0 1.79 60 19:26 31.10.2019
5227 Clouds 14 1020 87 0 1.79 60 18:58 31.10.2019
5228 Clouds 14 1020 87 0 1.79 60 18:39 31.10.2019
5229 Clouds 14 1020 87 0 1.79 60 18:20 31.10.2019
5230 Clouds 14 1020 87 0 1.79 60 17:43 31.10.2019
5231 Clouds 14 1020 87 0 1.79 60 17:24 31.10.2019
5232 Clear 14 1020 87 0 1.79 60 16:59 31.10.2019
5233 Clear 14 1020 87 0 1.79 60 16:40 31.10.2019
5234 Clear 12 1021 93 10000 1 40 16:20 31.10.2019
5235 Clear 12 1021 93 10000 1 40 15:57 31.10.2019
5236 Clear 12 1021 93 10000 1 40 15:38 31.10.2019
5237 Clear 12 1021 93 10000 1 40 15:19 31.10.2019
5238 Clear 14 1020 87 10000 2.6 310 14:56 31.10.2019
5239 Clear 14 1020 87 10000 2.6 310 14:38 31.10.2019
5240 Clear 14 1020 87 10000 2.6 310 14:20 31.10.2019
5241 Clear 14 1020 87 10000 2.1 60 13:56 31.10.2019
5242 Clear 14 1020 87 10000 2.1 60 13:37 31.10.2019
5243 Clear 14 1020 87 10000 2.1 60 13:19 31.10.2019
5244 Clear 16 1020 77 10000 1 0 12:43 31.10.2019
5245 Clear 16 1020 77 10000 1 0 12:24 31.10.2019
5246 Clear 17 1020 72 10000 3.1 310 11:58 31.10.2019
5247 Clear 17 1020 72 10000 3.1 310 11:40 31.10.2019
5248 Clear 17 1020 72 10000 3.1 310 11:19 31.10.2019
5249 Clear 18 1019 68 10000 4.1 310 10:57 31.10.2019
5250 Clear 18 1019 68 10000 4.1 310 10:38 31.10.2019
5251 Clear 18 1019 68 10000 4.1 310 10:19 31.10.2019
5252 Clear 20 1019 63 10000 3.6 340 09:43 31.10.2019
5253 Clear 20 1019 63 10000 3.6 340 09:18 31.10.2019
5254 Clouds 21 1019 56 10000 2.6 320 08:49 31.10.2019
5255 Clouds 21 1019 56 10000 2.6 320 08:31 31.10.2019
5256 Clouds 21 1019 56 10000 2.1 290 07:56 31.10.2019
5257 Clouds 21 1019 56 10000 2.1 290 07:56 31.10.2019
5258 Clouds 21 1019 56 10000 2.1 290 07:38 31.10.2019
5259 Clouds 21 1019 56 10000 2.1 290 07:19 31.10.2019
5260 Clouds 21 1019 56 10000 3.6 360 06:38 31.10.2019
5261 Clouds 21 1019 56 10000 3.6 360 06:19 31.10.2019
5262 Clouds 20 1020 56 10000 2.6 10 04:35 31.10.2019
5263 Clouds 18 1021 72 10000 4.6 150 02:44 31.10.2019
5264 Clouds 16 1022 82 10000 4.6 140 01:53 31.10.2019
5265 Clouds 14 1022 87 10000 3.6 140 00:39 31.10.2019
5266 Clouds 14 1022 87 10000 3.6 140 00:20 31.10.2019
5267 Clouds 12 1021 93 10000 2.6 120 23:30 30.10.2019
5268 Clouds 11 1021 93 10000 4.1 140 22:44 30.10.2019
5269 Clouds 11 1021 93 10000 2.1 360 22:23 30.10.2019
5270 Clouds 14 1021 87 0 1.79 60 21:57 30.10.2019
5271 Clouds 14 1021 87 0 1.79 60 21:38 30.10.2019
5272 Clouds 14 1021 87 0 1.79 60 21:19 30.10.2019
5273 Clouds 14 1021 87 0 1.79 60 20:59 30.10.2019
5274 Clouds 14 1021 87 0 1.79 60 20:41 30.10.2019
5275 Clouds 14 1021 87 0 1.79 60 20:22 30.10.2019
5276 Clouds 14 1021 87 0 1.79 60 19:59 30.10.2019
5277 Clouds 14 1021 87 0 1.79 60 19:39 30.10.2019
5278 Clouds 14 1021 87 0 1.79 60 19:20 30.10.2019
5279 Clouds 14 1021 87 0 1.79 60 18:58 30.10.2019
5280 Clouds 14 1021 87 0 1.79 60 18:37 30.10.2019
5281 Clouds 14 1021 87 0 1.79 60 18:18 30.10.2019
5282 Clouds 14 1021 87 0 1.79 60 17:41 30.10.2019
5283 Clouds 14 1021 87 0 1.79 60 17:20 30.10.2019
5284 Clouds 14 1021 87 0 1.79 60 16:59 30.10.2019
5285 Clouds 14 1021 87 0 1.79 60 16:40 30.10.2019
5286 Clouds 13 1021 87 10000 2.6 350 16:22 30.10.2019
5287 Clouds 13 1021 87 10000 2.6 350 15:57 30.10.2019
5288 Clouds 13 1021 87 10000 2.6 350 15:38 30.10.2019
5289 Clouds 13 1021 87 10000 2.6 350 15:19 30.10.2019
5290 Clouds 15 1021 77 10000 2.1 340 14:56 30.10.2019
5291 Clouds 15 1021 77 10000 2.1 340 14:56 30.10.2019
5292 Clouds 14 1021 77 10000 2.1 340 14:38 30.10.2019
5293 Clear 14 1021 77 10000 2.1 340 14:18 30.10.2019
5294 Clouds 14 1021 87 10000 2.1 60 13:42 30.10.2019
5295 Clouds 14 1021 87 10000 2.1 60 13:21 30.10.2019
5296 Clouds 15 1020 82 10000 2.1 360 12:59 30.10.2019
5297 Clouds 15 1020 82 10000 2.1 360 12:41 30.10.2019
5298 Clouds 15 1020 82 10000 2.1 360 12:22 30.10.2019
5299 Clouds 16 1021 77 10000 4.1 310 11:43 30.10.2019
5300 Clouds 16 1021 77 10000 4.1 310 11:25 30.10.2019
5301 Clouds 16 1020 77 10000 4.6 310 10:46 30.10.2019
5302 Clouds 16 1020 77 10000 4.6 310 10:28 30.10.2019
5303 Clouds 18 1019 68 10000 5.1 320 09:59 30.10.2019
5304 Clouds 18 1019 68 10000 5.1 320 09:40 30.10.2019
5305 Clouds 18 1019 68 10000 5.1 320 09:22 30.10.2019
5306 Clouds 20 1019 64 10000 5.1 330 08:54 30.10.2019
5307 Clouds 20 1019 64 10000 5.1 330 08:36 30.10.2019
5308 Clouds 20 1019 64 10000 5.1 330 08:18 30.10.2019
5309 Clouds 21 1019 52 10000 2.1 350 07:42 30.10.2019
5310 Clouds 21 1019 52 10000 3.6 360 06:48 30.10.2019
5311 Clouds 21 1019 52 10000 3.6 360 06:29 30.10.2019
5312 Clouds 21 1020 56 10000 2.1 360 05:55 30.10.2019
5313 Clouds 21 1020 56 10000 2.1 360 05:37 30.10.2019
5314 Clouds 19 1021 63 10000 2.1 360 03:51 30.10.2019
5315 Clouds 19 1021 63 10000 2.1 360 03:21 30.10.2019
5316 Clouds 19 1021 59 10000 0.5 0 02:48 30.10.2019
5317 Clouds 18 1021 68 10000 3.1 140 01:43 30.10.2019
5318 Clouds 16 1020 82 10000 4.1 130 00:37 30.10.2019
5319 Clouds 16 1020 82 10000 4.1 130 00:18 30.10.2019
5320 Clouds 13 1020 82 10000 1.5 130 23:39 29.10.2019
5321 Clouds 13 1020 82 10000 1.5 130 23:18 29.10.2019
5322 Clouds 15 1020 82 10000 2.6 50 22:41 29.10.2019
5323 Clouds 16 1019 93 10000 1.5 10 22:19 29.10.2019
5324 Clouds 18 1018 82 0 1.34 80 21:55 29.10.2019
5325 Clouds 18 1018 82 0 1.34 80 21:36 29.10.2019
5326 Clouds 18 1018 82 0 1.34 80 21:18 29.10.2019
5327 Clouds 18 1018 82 0 1.34 80 20:42 29.10.2019
5328 Clear 18 1018 82 0 1.34 80 20:23 29.10.2019
5329 Clear 18 1017 82 0 1.34 80 19:58 29.10.2019
5330 Clear 18 1017 82 0 1.34 80 19:58 29.10.2019
5331 Clear 18 1017 82 0 1.34 80 19:39 29.10.2019
5332 Clear 18 1018 82 0 1.34 80 19:20 29.10.2019
5333 Clear 18 1017 82 0 1.34 80 18:58 29.10.2019
5334 Clear 18 1017 82 0 1.34 80 18:58 29.10.2019
5335 Clear 18 1017 82 0 1.34 80 18:38 29.10.2019
5336 Clear 18 1018 82 0 1.34 80 18:20 29.10.2019
5337 Clear 18 1017 82 0 1.34 80 17:56 29.10.2019
5338 Clear 18 1017 82 0 1.34 80 17:38 29.10.2019
5339 Clear 18 1018 82 0 1.34 80 17:19 29.10.2019
5340 Clear 18 1017 82 0 1.34 80 16:41 29.10.2019
5341 Clouds 17 1018 82 10000 3.1 300 16:22 29.10.2019
5342 Clouds 17 1018 82 10000 3.1 300 15:58 29.10.2019
5343 Clouds 17 1018 82 10000 3.1 300 15:39 29.10.2019
5344 Clouds 17 1018 82 10000 3.1 300 15:20 29.10.2019
5345 Clouds 17 1018 82 10000 3.1 280 14:56 29.10.2019
5346 Clouds 17 1018 82 10000 3.1 280 14:38 29.10.2019
5347 Clouds 18 1018 82 10000 3.1 280 14:19 29.10.2019
5348 Clouds 18 1017 82 10000 1.5 80 13:40 29.10.2019
5349 Clouds 18 1017 82 10000 1.5 80 13:40 29.10.2019
5350 Clouds 18 1017 82 10000 1.5 80 13:22 29.10.2019
5351 Clouds 18 1017 82 10000 1.5 80 13:22 29.10.2019
5352 Clouds 19 1017 77 10000 2.1 300 12:55 29.10.2019
5353 Clouds 19 1017 77 10000 2.1 300 12:37 29.10.2019
5354 Clouds 19 1017 77 10000 2.1 300 12:19 29.10.2019
5355 Clouds 18 1016 77 10000 1.5 230 11:42 29.10.2019
5356 Clouds 18 1016 77 10000 1.5 230 11:22 29.10.2019
5357 Clouds 19 1015 68 10000 2.1 280 10:58 29.10.2019
5358 Clouds 19 1015 68 10000 2.1 280 10:39 29.10.2019
5359 Clouds 19 1015 68 10000 2.1 280 10:20 29.10.2019
5360 Clouds 20 1015 60 10000 4.1 300 09:57 29.10.2019
5361 Clouds 20 1015 60 10000 4.1 300 09:39 29.10.2019
5362 Clouds 20 1015 60 10000 4.1 300 09:21 29.10.2019
5363 Clouds 22 1015 56 10000 2.6 360 08:45 29.10.2019
5364 Clouds 22 1015 56 10000 2.6 360 08:25 29.10.2019
5365 Clouds 22 1015 64 10000 3.1 10 07:55 29.10.2019
5366 Clouds 22 1015 64 10000 3.1 10 07:36 29.10.2019
5367 Clouds 22 1015 64 10000 3.1 10 07:18 29.10.2019
5368 Clouds 22 1015 68 10000 1.5 200 06:44 29.10.2019
5369 Clouds 22 1015 68 10000 1.5 200 06:21 29.10.2019
5370 Clouds 20 1015 77 10000 0.5 0 05:50 29.10.2019
5371 Clouds 20 1015 77 10000 0.5 0 05:25 29.10.2019
5372 Clouds 20 1015 72 10000 1 0 04:30 29.10.2019
5373 Clouds 19 1016 72 10000 1.5 160 02:32 29.10.2019
5374 Clouds 18 1016 82 10000 3.1 140 01:46 29.10.2019
5375 Clouds 18 1016 82 10000 3.1 140 01:18 29.10.2019
5376 Clouds 17 1015 82 10000 2.6 130 00:31 29.10.2019
5377 Clouds 16 1015 82 10000 3.6 140 23:43 28.10.2019
5378 Clouds 16 1015 82 10000 3.6 140 23:20 28.10.2019
5379 Clouds 15 1015 82 10000 3.6 150 22:57 28.10.2019
5380 Clouds 16 1015 82 10000 3.6 150 22:37 28.10.2019
5381 Clouds 15 1015 93 10000 2.1 100 22:18 28.10.2019
5382 Clouds 17 1016 77 0 1.34 90 21:54 28.10.2019
5383 Clouds 17 1016 77 0 1.34 90 21:54 28.10.2019
5384 Clouds 17 1016 77 0 1.34 90 21:36 28.10.2019
5385 Clouds 18 1016 56 0 2.49 124 21:18 28.10.2019
5386 Clouds 17 1016 77 0 1.34 90 20:44 28.10.2019
5387 Clouds 17 1016 77 0 1.34 90 20:24 28.10.2019
5388 Clouds 17 1016 77 0 1.34 90 19:58 28.10.2019
5389 Clouds 17 1016 77 0 1.34 90 19:39 28.10.2019
5390 Clouds 17 1016 77 0 1.34 90 19:20 28.10.2019
5391 Clouds 17 1016 77 0 1.34 90 18:58 28.10.2019
5392 Clouds 17 1016 77 0 1.34 90 18:39 28.10.2019
5393 Clouds 17 1016 77 0 1.34 90 18:21 28.10.2019
5394 Clouds 17 1016 77 0 1.34 90 18:21 28.10.2019
5395 Clouds 17 1016 77 0 1.34 90 17:56 28.10.2019
5396 Clouds 17 1016 77 0 1.34 90 17:56 28.10.2019
5397 Clouds 17 1016 77 0 1.34 90 17:38 28.10.2019
5398 Clouds 17 1016 77 0 1.34 90 17:19 28.10.2019
5399 Clouds 17 1016 77 0 1.34 90 16:55 28.10.2019
5400 Clouds 17 1016 77 0 1.34 90 16:37 28.10.2019
5401 Clouds 16 1016 82 10000 1 340 16:19 28.10.2019
5402 Clouds 16 1016 82 10000 1 340 15:56 28.10.2019
5403 Clouds 16 1016 82 10000 1 340 15:37 28.10.2019
5404 Clouds 16 1016 82 10000 1 340 15:18 28.10.2019
5405 Clouds 16 1017 82 10000 2.1 340 14:55 28.10.2019
5406 Clouds 16 1017 82 10000 2.1 340 14:36 28.10.2019
5407 Clouds 16 1017 82 10000 2.1 340 14:36 28.10.2019
5408 Clouds 16 1017 82 10000 2.1 340 14:18 28.10.2019
5409 Clouds 16 1017 82 10000 2.1 340 14:18 28.10.2019
5410 Clouds 16 1016 77 10000 1.5 90 13:41 28.10.2019
5411 Clouds 16 1016 77 10000 1.5 90 13:19 28.10.2019
5412 Clouds 17 1016 68 10000 1.5 90 12:59 28.10.2019
5413 Clouds 17 1016 68 10000 1.5 90 12:40 28.10.2019
5414 Clouds 17 1016 68 10000 1.5 90 12:19 28.10.2019
5415 Clouds 18 1015 67 10000 1 0 11:38 28.10.2019
5416 Clouds 18 1015 67 10000 1 0 11:20 28.10.2019
5417 Clouds 18 1015 59 10000 2.1 260 10:42 28.10.2019
5418 Clouds 18 1015 59 10000 2.1 260 10:24 28.10.2019
5419 Clouds 20 1015 52 10000 2.1 260 09:58 28.10.2019
5420 Clouds 20 1015 52 10000 2.1 260 09:39 28.10.2019
5421 Clouds 20 1015 52 10000 2.1 260 09:20 28.10.2019
5422 Clouds 21 1015 46 10000 2.1 270 08:57 28.10.2019
5423 Clouds 21 1015 46 10000 2.1 270 08:39 28.10.2019
5424 Clouds 21 1015 46 10000 2.1 270 08:19 28.10.2019
5425 Clouds 21 1015 46 10000 1 0 07:57 28.10.2019
5426 Clouds 21 1015 46 10000 1 0 07:38 28.10.2019
5427 Clouds 21 1015 46 10000 1 0 07:19 28.10.2019
5428 Clouds 20 1015 52 10000 2.1 10 06:40 28.10.2019
5429 Clouds 20 1016 52 10000 3.1 360 05:53 28.10.2019
5430 Clouds 20 1017 56 10000 2.6 10 03:56 28.10.2019
5431 Clouds 20 1017 56 10000 2.6 10 03:38 28.10.2019
5432 Clouds 18 1017 63 10000 2.1 360 02:40 28.10.2019
5433 Clear 14 1017 82 10000 2.1 120 00:59 28.10.2019
5434 Clear 14 1017 82 10000 2.1 120 00:38 28.10.2019
5435 Clear 14 1017 82 10000 2.1 120 00:19 28.10.2019
5436 Clear 12 1017 87 10000 3.1 110 23:42 27.10.2019
5437 Clear 12 1017 87 10000 3.1 110 23:42 27.10.2019
5438 Clear 12 1017 87 10000 3.1 110 23:18 27.10.2019
5439 Clear 11 1017 87 10000 3.1 130 22:42 27.10.2019
5440 Clear 11 1017 93 10000 2.6 330 22:22 27.10.2019
5441 Clear 17 1017 51 0 4.02 10 21:58 27.10.2019
5442 Clear 17 1017 51 0 4.02 10 21:39 27.10.2019
5443 Clear 17 1017 51 0 4.02 10 21:21 27.10.2019
5444 Clear 17 1017 51 0 4.02 10 20:57 27.10.2019
5445 Clear 17 1017 51 0 4.02 10 20:38 27.10.2019
5446 Clouds 17 1017 51 0 4.02 10 20:20 27.10.2019
5447 Clouds 17 1017 51 0 4.02 10 19:55 27.10.2019
5448 Clouds 17 1017 51 0 4.02 10 19:36 27.10.2019
5449 Clouds 17 1017 51 0 4.02 10 19:18 27.10.2019
5450 Clouds 17 1017 51 0 4.02 10 18:55 27.10.2019
5451 Clouds 17 1017 51 0 4.02 10 18:36 27.10.2019
5452 Clouds 17 1017 51 0 4.02 10 18:18 27.10.2019
5453 Clouds 17 1017 51 0 4.02 10 17:40 27.10.2019
5454 Clouds 17 1017 51 0 4.02 10 17:19 27.10.2019
5455 Clouds 17 1017 51 0 4.02 10 16:58 27.10.2019
5456 Clouds 17 1017 51 0 4.02 10 16:39 27.10.2019
5457 Clouds 16 1017 72 10000 1.5 10 16:21 27.10.2019
5458 Clouds 16 1017 72 10000 1.5 10 15:56 27.10.2019
5459 Clouds 16 1017 72 10000 1.5 10 15:37 27.10.2019
5460 Clouds 16 1017 72 10000 1.5 10 15:19 27.10.2019
5461 Clouds 16 1017 77 10000 1.5 20 14:42 27.10.2019
5462 Clouds 16 1017 77 10000 1.5 20 14:21 27.10.2019
5463 Clouds 16 1017 51 10000 4.1 10 13:58 27.10.2019
5464 Clouds 16 1017 51 10000 4.1 10 13:38 27.10.2019
5465 Clouds 16 1017 51 10000 4.1 10 13:20 27.10.2019
5466 Clouds 16 1016 51 10000 3.6 30 12:46 27.10.2019
5467 Clouds 16 1016 51 10000 3.6 30 12:46 27.10.2019
5468 Clouds 16 1016 51 10000 3.6 30 12:24 27.10.2019
5469 Clouds 17 1016 48 10000 5.1 20 11:59 27.10.2019
5470 Clouds 17 1016 48 10000 5.1 20 11:41 27.10.2019
5471 Clouds 17 1016 48 10000 5.1 20 11:21 27.10.2019
5472 Clouds 17 1015 52 10000 5.7 350 10:44 27.10.2019
5473 Clouds 17 1015 52 10000 5.7 350 10:25 27.10.2019
5474 Clouds 19 1015 52 10000 7.7 320 09:56 27.10.2019
5475 Clouds 19 1015 52 10000 7.7 320 09:38 27.10.2019
5476 Clouds 19 1015 52 10000 7.7 320 09:18 27.10.2019
5477 Clouds 19 1015 52 10000 7.7 320 09:18 27.10.2019
5478 Clouds 20 1015 52 10000 8.2 320 08:42 27.10.2019
5479 Clouds 20 1015 52 10000 8.2 320 08:22 27.10.2019
5480 Clouds 22 1015 53 10000 6.7 320 07:56 27.10.2019
5481 Clouds 22 1015 53 10000 6.7 320 07:38 27.10.2019
5482 Clouds 22 1015 53 10000 6.7 320 07:19 27.10.2019
5483 Clouds 22 1015 49 10000 4.1 310 06:42 27.10.2019
5484 Clouds 22 1015 49 10000 4.1 310 06:42 27.10.2019
5485 Clouds 22 1015 49 10000 4.1 310 06:23 27.10.2019
5486 Clouds 22 1015 49 10000 4.1 310 05:39 27.10.2019
5487 Clouds 22 1016 53 10000 2.6 350 04:50 27.10.2019
5488 Clouds 20 1017 64 10000 0.5 0 02:52 27.10.2019
5489 Clouds 18 1017 77 10000 1.5 140 02:19 27.10.2019
5490 Clouds 16 1016 88 10000 2.6 140 01:24 27.10.2019
5491 Clouds 14 1016 93 10000 2.1 130 00:51 27.10.2019
5492 Clouds 14 1016 93 10000 2.1 130 00:29 27.10.2019
5493 Clouds 14 1016 87 10000 2.1 130 23:57 26.10.2019
5494 Clouds 14 1016 87 10000 2.1 130 23:39 26.10.2019
5495 Clouds 14 1016 93 10000 1.5 40 23:21 26.10.2019
5496 Clouds 17 1016 72 0 2.68 300 22:56 26.10.2019
5497 Clouds 17 1016 72 0 2.68 300 22:37 26.10.2019
5498 Clouds 17 1016 72 0 2.68 300 22:18 26.10.2019
5499 Clouds 17 1016 72 0 2.68 300 21:44 26.10.2019
5500 Clouds 17 1016 72 0 2.68 300 21:22 26.10.2019
5501 Clouds 17 1016 72 0 2.68 300 20:58 26.10.2019
5502 Clouds 17 1016 72 0 2.68 300 20:38 26.10.2019
5503 Clouds 17 1016 72 0 2.68 300 20:18 26.10.2019
5504 Clouds 17 1016 72 0 2.68 300 19:42 26.10.2019
5505 Clouds 17 1016 72 0 2.68 300 19:20 26.10.2019
5506 Clouds 17 1016 72 0 2.68 300 19:20 26.10.2019
5507 Clouds 17 1016 72 0 2.68 300 18:57 26.10.2019
5508 Clouds 17 1016 72 0 2.68 300 18:39 26.10.2019
5509 Clouds 17 1016 72 0 2.68 300 18:19 26.10.2019
5510 Clouds 17 1016 72 0 2.68 300 17:56 26.10.2019
5511 Clouds 17 1016 72 0 2.68 300 17:37 26.10.2019
5512 Clouds 16 1016 77 10000 2.6 290 17:19 26.10.2019
5513 Clouds 16 1016 77 10000 2.6 290 16:43 26.10.2019
5514 Clouds 16 1016 77 10000 2.6 290 16:24 26.10.2019
5515 Clouds 16 1016 77 10000 3.1 290 15:44 26.10.2019
5516 Clouds 17 1016 77 10000 3.1 290 15:22 26.10.2019
5517 Clouds 17 1016 72 10000 3.1 300 14:58 26.10.2019
5518 Clouds 17 1016 72 10000 3.1 300 14:37 26.10.2019
5519 Clouds 17 1016 72 10000 3.1 300 14:18 26.10.2019
5520 Clouds 18 1017 61 0 6.07 309 13:42 26.10.2019
5521 Clouds 18 1017 61 0 6.07 309 13:22 26.10.2019
5522 Clouds 18 1017 61 0 6.07 309 13:22 26.10.2019
5523 Clouds 16 1015 67 0 4.47 300 12:49 26.10.2019
5524 Clouds 17 1015 68 10000 4.6 300 12:26 26.10.2019
5525 Clouds 17 1015 68 10000 4.6 300 11:56 26.10.2019
5526 Clouds 17 1015 68 10000 4.6 300 11:37 26.10.2019
5527 Clouds 17 1015 68 10000 4.6 300 11:18 26.10.2019
5528 Clouds 19 1015 72 10000 5.7 310 10:44 26.10.2019
5529 Clouds 19 1015 72 10000 5.7 310 10:24 26.10.2019
5530 Clouds 21 1015 64 10000 5.7 300 09:48 26.10.2019
5531 Clouds 21 1015 64 10000 5.7 300 09:28 26.10.2019
5532 Clouds 22 1014 68 10000 6.2 310 08:44 26.10.2019
5533 Clouds 22 1014 68 10000 6.2 310 08:25 26.10.2019
5534 Clouds 22 1014 68 10000 6.2 310 08:25 26.10.2019
5535 Clouds 22 1014 64 10000 5.1 280 07:56 26.10.2019
5536 Clouds 22 1014 64 10000 7.2 300 07:31 26.10.2019
5537 Clouds 24 1014 64 10000 6.7 330 06:47 26.10.2019
5538 Clouds 24 1014 64 10000 6.7 330 06:28 26.10.2019
5539 Clouds 23 1015 64 10000 4.1 320 05:21 26.10.2019
5540 Clouds 23 1016 69 10000 3.6 330 04:32 26.10.2019
5541 Clouds 21 1017 77 10000 3.6 330 02:57 26.10.2019
5542 Clouds 19 1016 100 10000 3.6 330 01:57 26.10.2019
5543 Clouds 19 1016 100 10000 3.6 330 01:34 26.10.2019
5544 Rain 18 1016 93 10000 1.5 140 00:26 26.10.2019
5545 Clouds 18 1016 100 10000 3.05 348 23:46 25.10.2019
5546 Clouds 17 1015 100 10000 3.05 348 23:21 25.10.2019
5547 Rain 20 1016 88 0 4.02 330 22:41 25.10.2019
5548 Rain 20 1016 88 0 4.02 330 22:23 25.10.2019
5549 Rain 20 1016 88 0 4.02 330 21:58 25.10.2019
5550 Rain 20 1016 88 0 4.02 330 21:40 25.10.2019
5551 Clouds 20 1016 88 0 4.02 330 21:21 25.10.2019
5552 Clouds 20 1016 88 0 4.02 330 20:56 25.10.2019
5553 Clouds 20 1016 88 0 4.02 330 20:38 25.10.2019
5554 Clouds 20 1016 88 0 4.02 330 20:19 25.10.2019
5555 Clouds 20 1016 88 0 4.02 330 19:44 25.10.2019
5556 Clouds 20 1016 88 0 4.02 330 19:25 25.10.2019
5557 Clouds 20 1016 88 0 4.02 330 18:46 25.10.2019
5558 Clouds 20 1016 88 0 4.02 330 18:24 25.10.2019
5559 Clouds 20 1016 88 0 4.02 330 17:42 25.10.2019
5560 Clouds 19 1015 93 10000 3.32 330 17:22 25.10.2019
5561 Clouds 19 1015 93 10000 3.32 330 16:58 25.10.2019
5562 Clouds 19 1015 93 10000 3.32 330 16:58 25.10.2019
5563 Clouds 19 1015 93 10000 3.32 330 16:40 25.10.2019
5564 Clouds 19 1015 93 10000 3.32 330 16:19 25.10.2019
5565 Clouds 19 1015 88 10000 1.5 330 15:41 25.10.2019
5566 Clouds 20 1015 88 10000 1.5 330 15:22 25.10.2019
5567 Clouds 20 1016 88 10000 4.1 330 14:58 25.10.2019
5568 Clouds 20 1016 88 10000 4.1 330 14:39 25.10.2019
5569 Clouds 20 1016 88 10000 4.1 330 14:20 25.10.2019
5570 Clouds 20 1015 88 10000 4.1 350 13:42 25.10.2019
5571 Clouds 20 1015 88 10000 4.1 350 13:24 25.10.2019
5572 Clouds 20 1015 88 10000 5.1 350 12:56 25.10.2019
5573 Clouds 20 1015 88 10000 5.1 350 12:38 25.10.2019
5574 Clouds 20 1015 88 10000 5.1 350 12:19 25.10.2019
5575 Clouds 21 1014 83 10000 6.2 350 11:40 25.10.2019
5576 Clouds 21 1014 83 10000 6.2 350 11:22 25.10.2019
5577 Clouds 21 1014 77 10000 7.2 350 10:57 25.10.2019
5578 Clouds 21 1014 77 10000 7.2 350 10:38 25.10.2019
5579 Clouds 21 1014 77 10000 7.2 350 10:19 25.10.2019
5580 Clouds 22 1013 78 10000 7.7 10 09:42 25.10.2019
5581 Clouds 22 1013 78 10000 7.7 10 09:21 25.10.2019
5582 Clouds 23 1013 73 10000 6.2 10 08:57 25.10.2019
5583 Clouds 23 1013 73 10000 6.2 10 08:39 25.10.2019
5584 Clouds 23 1013 73 10000 6.2 10 08:39 25.10.2019
5585 Clouds 23 1013 73 10000 6.2 10 08:39 25.10.2019
5586 Clouds 23 1013 73 10000 6.2 10 08:20 25.10.2019
5587 Clouds 23 1013 65 10000 7.7 330 07:45 25.10.2019
5588 Clouds 23 1013 65 10000 7.7 330 07:26 25.10.2019
5589 Clouds 24 1013 69 10000 5.7 330 06:38 25.10.2019
5590 Clouds 24 1014 69 10000 6.7 320 05:49 25.10.2019
5591 Clouds 24 1014 69 10000 6.7 320 05:28 25.10.2019
5592 Clouds 24 1014 69 10000 6.2 330 04:30 25.10.2019
5593 Clouds 22 1014 78 10000 6.7 340 02:35 25.10.2019
5594 Clouds 21 1013 88 10000 3.6 360 01:52 25.10.2019
5595 Clouds 19 1013 88 10000 3.1 350 00:34 25.10.2019
5596 Clouds 19 1013 93 10000 4.1 340 23:43 24.10.2019
5597 Clouds 19 1012 93 10000 0.5 250 23:24 24.10.2019
5598 Clear 20 1011 88 0 7.15 350 22:57 24.10.2019
5599 Clear 20 1011 88 0 7.15 350 22:38 24.10.2019
5600 Clear 20 1011 88 0 7.15 350 22:19 24.10.2019
5601 Clear 20 1011 88 0 7.15 350 21:57 24.10.2019
5602 Clear 20 1011 88 0 7.15 350 21:38 24.10.2019
5603 Clouds 20 1011 88 0 7.15 350 21:20 24.10.2019
5604 Clouds 20 1011 88 0 7.15 350 20:58 24.10.2019
5605 Clouds 20 1011 88 0 7.15 350 20:38 24.10.2019
5606 Clouds 20 1011 88 0 7.15 350 20:20 24.10.2019
5607 Clouds 20 1011 88 0 7.15 350 19:55 24.10.2019
5608 Clouds 20 1011 88 0 7.15 350 19:37 24.10.2019
5609 Clouds 20 1011 88 0 7.15 350 19:18 24.10.2019
5610 Clouds 20 1011 88 0 7.15 350 18:41 24.10.2019
5611 Clouds 20 1009 88 0 7.15 350 18:23 24.10.2019
5612 Clouds 20 1011 88 0 7.15 350 17:59 24.10.2019
5613 Clouds 20 1011 88 0 7.15 350 17:40 24.10.2019
5614 Clouds 19 1011 100 10000 1 320 17:20 24.10.2019
5615 Clouds 19 1011 100 10000 1 320 17:20 24.10.2019
5616 Clouds 19 1011 100 10000 1 320 16:56 24.10.2019
5617 Clouds 19 1011 100 10000 1 320 16:37 24.10.2019
5618 Clouds 19 1011 100 10000 1 320 16:19 24.10.2019
5619 Rain 19 1011 100 7000 2.1 320 15:55 24.10.2019
5620 Rain 19 1011 100 7000 2.1 320 15:37 24.10.2019
5621 Rain 19 1011 100 7000 2.1 320 15:19 24.10.2019
5622 Clouds 19 1011 88 10000 7.2 350 14:44 24.10.2019
5623 Clouds 19 1011 88 10000 7.2 350 14:26 24.10.2019
5624 Rain 19 1012 100 5000 2.6 330 13:59 24.10.2019
5625 Rain 19 1012 100 5000 2.6 330 13:39 24.10.2019
5626 Clouds 19 1011 93 10000 6.2 350 13:19 24.10.2019
5627 Thunderstorm 19 1011 88 10000 6.7 350 12:57 24.10.2019
5628 Thunderstorm 19 1011 88 10000 6.7 350 12:38 24.10.2019
5629 Clouds 19 1010 88 10000 5.7 340 12:19 24.10.2019
5630 Thunderstorm 19 1010 88 10000 6.2 350 11:56 24.10.2019
5631 Thunderstorm 19 1010 88 10000 6.2 350 11:36 24.10.2019
5632 Thunderstorm 19 1010 88 10000 6.2 350 11:18 24.10.2019
5633 Thunderstorm 19 1010 88 10000 6.2 350 11:18 24.10.2019
5634 Rain 19 1010 94 10000 6.7 350 10:42 24.10.2019
5635 Rain 19 1010 94 10000 6.7 350 10:23 24.10.2019
5636 Rain 19 1010 100 10000 4.1 350 09:40 24.10.2019
5637 Rain 19 1010 100 10000 4.1 350 09:19 24.10.2019
5638 Rain 19 1010 100 3000 5.7 350 08:59 24.10.2019
5639 Rain 19 1010 100 3000 5.7 350 08:41 24.10.2019
5640 Thunderstorm 19 1010 100 9000 8.2 330 08:20 24.10.2019
5641 Rain 19 1011 100 6000 1.5 300 07:47 24.10.2019
5642 Thunderstorm 19 1010 100 4000 1.5 350 07:23 24.10.2019
5643 Rain 19 1010 100 3500 1.5 360 06:54 24.10.2019
5644 Rain 19 1010 100 3500 1.5 360 06:36 24.10.2019
5645 Rain 19 1011 100 3500 1.5 50 05:54 24.10.2019
5646 Rain 19 1011 94 4500 2.6 100 05:31 24.10.2019
5647 Rain 20 1011 83 10000 1 0 04:22 24.10.2019
5648 Rain 20 1011 83 10000 1 0 04:22 24.10.2019
5649 Clouds 20 1012 83 10000 2.6 110 03:33 24.10.2019
5650 Rain 20 1012 82 10000 4.1 50 02:37 24.10.2019
5651 Rain 20 1012 82 10000 4.1 50 02:18 24.10.2019
5652 Rain 19 1012 88 10000 4.1 10 01:30 24.10.2019
5653 Rain 18 1012 93 10000 3.1 340 00:55 24.10.2019
5654 Rain 18 1012 93 10000 3.1 340 00:25 24.10.2019
5655 Rain 19 1012 93 9000 5.1 10 23:45 23.10.2019
5656 Rain 19 1012 93 6000 5.7 20 23:27 23.10.2019
5657 Rain 19 1012 93 6000 5.7 20 23:27 23.10.2019
5658 Rain 20 1016 93 0 4.02 350 22:58 23.10.2019
5659 Rain 20 1016 93 0 4.02 350 22:39 23.10.2019
5660 Rain 20 1016 93 0 4.02 350 22:19 23.10.2019
5661 Rain 20 1016 93 0 4.02 350 21:59 23.10.2019
5662 Rain 20 1016 93 0 4.02 350 21:40 23.10.2019
5663 Rain 20 1016 93 0 4.02 350 21:21 23.10.2019
5664 Rain 20 1016 93 0 4.02 350 20:59 23.10.2019
5665 Rain 20 1015 93 0 4.02 350 20:40 23.10.2019
5666 Rain 20 1015 93 0 4.02 350 20:40 23.10.2019
5667 Rain 20 1016 93 0 4.02 350 20:21 23.10.2019
5668 Rain 20 1016 93 0 4.02 350 19:59 23.10.2019
5669 Rain 20 1016 93 0 4.02 350 19:41 23.10.2019
5670 Rain 20 1016 93 0 4.02 350 19:19 23.10.2019
5671 Rain 20 1015 93 0 4.02 350 18:57 23.10.2019
5672 Rain 20 1015 93 0 4.02 350 18:38 23.10.2019
5673 Rain 20 1015 93 0 4.02 350 18:19 23.10.2019
5674 Rain 20 1016 93 0 4.02 350 17:45 23.10.2019
5675 Rain 19 1015 100 7000 3.1 70 17:21 23.10.2019
5676 Rain 19 1015 100 7000 3.1 70 16:58 23.10.2019
5677 Rain 19 1015 100 7000 3.1 70 16:58 23.10.2019
5678 Rain 19 1015 100 7000 3.1 70 16:40 23.10.2019
5679 Rain 19 1015 100 7000 3.1 70 16:20 23.10.2019
5680 Rain 19 1015 100 7000 3.1 70 16:20 23.10.2019
5681 Rain 20 1016 93 6000 2.6 10 15:42 23.10.2019
5682 Rain 20 1016 93 6000 2.6 10 15:23 23.10.2019
5683 Rain 20 1016 94 10000 4.1 350 14:58 23.10.2019
5684 Rain 20 1016 94 10000 4.1 350 14:58 23.10.2019
5685 Rain 20 1016 94 10000 4.1 350 14:39 23.10.2019
5686 Rain 20 1016 94 10000 4.1 350 14:20 23.10.2019
5687 Rain 19 1014 94 9000 6.7 10 13:59 23.10.2019
5688 Rain 19 1014 94 9000 6.7 10 13:41 23.10.2019
5689 Rain 19 1014 94 9000 6.7 10 13:23 23.10.2019
5690 Rain 19 1015 100 7000 4.1 350 12:56 23.10.2019
5691 Rain 19 1015 100 7000 4.1 350 12:37 23.10.2019
5692 Rain 19 1015 100 7000 4.1 350 12:18 23.10.2019
5693 Rain 19 1014 100 5000 2.6 300 11:57 23.10.2019
5694 Rain 19 1014 100 5000 2.6 300 11:38 23.10.2019
5695 Rain 19 1014 100 5000 2.6 300 11:20 23.10.2019
5696 Rain 20 1015 100 5000 1.5 300 10:45 23.10.2019
5697 Rain 20 1014 94 4500 1.5 320 10:26 23.10.2019
5698 Rain 20 1014 94 4500 1.5 320 10:26 23.10.2019
5699 Rain 21 1014 94 7000 0.5 0 09:56 23.10.2019
5700 Rain 21 1014 94 7000 0.5 0 09:37 23.10.2019
5701 Rain 21 1014 94 7000 0.5 0 09:19 23.10.2019
5702 Rain 21 1014 94 3000 2.6 310 08:42 23.10.2019
5703 Rain 21 1014 94 3000 2.6 310 08:42 23.10.2019
5704 Rain 22 1013 88 8000 5.1 300 08:23 23.10.2019
5705 Clouds 23 1012 78 10000 4.6 320 07:46 23.10.2019
5706 Clouds 23 1012 78 10000 4.6 320 07:22 23.10.2019
5707 Clouds 24 1012 73 10000 1.5 0 06:47 23.10.2019
5708 Clouds 24 1012 73 10000 1.5 0 06:22 23.10.2019
5709 Clouds 23 1013 78 10000 0.5 0 05:47 23.10.2019
5710 Clouds 22 1014 78 10000 0.5 0 04:54 23.10.2019
5711 Clouds 21 1014 77 10000 1 0 03:35 23.10.2019
5712 Clouds 21 1015 83 10000 1 0 02:40 23.10.2019
5713 Clouds 19 1014 88 10000 1.5 150 01:33 23.10.2019
5714 Clouds 18 1013 93 10000 3.1 150 00:56 23.10.2019
5715 Clouds 18 1013 93 10000 3.1 150 00:28 23.10.2019
5716 Clouds 19 1014 93 10000 2.1 130 23:40 22.10.2019
5717 Clouds 19 1014 88 10000 3.1 360 23:18 22.10.2019
5718 Clouds 21 1014 83 0 1.79 30 22:57 22.10.2019
5719 Clouds 21 1014 83 0 1.79 30 22:38 22.10.2019
5720 Clouds 21 1014 83 0 1.79 30 22:20 22.10.2019
5721 Clouds 21 1013 83 0 1.79 30 21:56 22.10.2019
5722 Clouds 21 1013 83 0 1.79 30 21:37 22.10.2019
5723 Clouds 21 1013 83 0 1.79 30 21:18 22.10.2019
5724 Clouds 21 1013 83 0 1.79 30 20:55 22.10.2019
5725 Clouds 21 1013 83 0 1.79 30 20:37 22.10.2019
5726 Clouds 21 1014 83 0 1.79 30 20:19 22.10.2019
5727 Clouds 21 1014 83 0 1.79 30 19:45 22.10.2019
5728 Clouds 21 1014 83 0 1.79 30 19:26 22.10.2019
5729 Clouds 21 1014 83 0 1.79 30 18:58 22.10.2019
5730 Clouds 21 1014 83 0 1.79 30 18:40 22.10.2019
5731 Clouds 21 1014 83 0 1.79 30 18:21 22.10.2019
5732 Clouds 21 1013 83 0 1.79 30 17:56 22.10.2019
5733 Clouds 21 1013 83 0 1.79 30 17:38 22.10.2019
5734 Clouds 18 1014 88 10000 2.6 360 17:19 22.10.2019
5735 Clouds 19 1014 88 10000 2.6 360 16:57 22.10.2019
5736 Clouds 19 1014 88 10000 2.6 360 16:37 22.10.2019
5737 Clouds 19 1014 88 10000 2.6 360 16:18 22.10.2019
5738 Clouds 19 1014 88 10000 2.1 350 15:43 22.10.2019
5739 Clouds 20 1014 88 10000 2.1 350 15:21 22.10.2019
5740 Clouds 20 1013 83 10000 2.1 30 14:57 22.10.2019
5741 Clouds 20 1013 83 10000 2.1 30 14:39 22.10.2019
5742 Clouds 20 1013 83 10000 2.1 30 14:18 22.10.2019
5743 Clouds 20 1013 83 10000 2.6 30 13:41 22.10.2019
5744 Clouds 20 1013 83 10000 2.6 30 13:20 22.10.2019
5745 Clouds 21 1012 83 10000 3.1 350 12:57 22.10.2019
5746 Clouds 21 1012 83 10000 3.1 350 12:38 22.10.2019
5747 Clouds 21 1012 83 10000 3.1 350 12:20 22.10.2019
5748 Clouds 22 1012 83 10000 4.1 350 11:41 22.10.2019
5749 Clouds 22 1012 83 10000 4.1 350 11:22 22.10.2019
5750 Clouds 25 1011 57 10000 1.5 280 10:59 22.10.2019
5751 Clouds 25 1011 57 10000 1.5 280 10:38 22.10.2019
5752 Clouds 25 1011 57 10000 1.5 280 10:19 22.10.2019
5753 Clouds 27 1011 50 10000 0.5 0 09:59 22.10.2019
5754 Clouds 27 1011 50 10000 0.5 0 09:41 22.10.2019
5755 Clouds 26 1011 50 10000 0.5 0 09:21 22.10.2019
5756 Clouds 27 1011 54 10000 1.5 200 08:55 22.10.2019
5757 Clouds 27 1011 54 10000 1.5 200 08:37 22.10.2019
5758 Clouds 26 1011 54 10000 1.5 200 08:18 22.10.2019
5759 Clouds 26 1011 54 10000 1.5 200 08:18 22.10.2019
5760 Clouds 27 1011 57 10000 1.5 280 07:41 22.10.2019
5761 Clouds 27 1011 57 10000 1.5 280 07:22 22.10.2019
5762 Clouds 26 1012 54 10000 2.6 220 06:40 22.10.2019
5763 Clouds 26 1012 54 10000 2.6 220 06:20 22.10.2019
5764 Clouds 25 1012 57 10000 2.1 220 05:27 22.10.2019
5765 Clouds 24 1013 64 10000 2.6 270 04:19 22.10.2019
5766 Clouds 20 1013 77 10000 2.6 140 02:30 22.10.2019
5767 Clouds 18 1012 88 10000 3.1 150 01:37 22.10.2019
5768 Clouds 18 1012 88 10000 3.1 150 01:18 22.10.2019
5769 Clouds 16 1012 93 10000 2.6 120 00:42 22.10.2019
5770 Clouds 16 1012 93 10000 2.6 120 00:24 22.10.2019
5771 Clouds 15 1013 93 10000 3.1 130 23:58 21.10.2019
5772 Clouds 15 1013 93 10000 3.1 130 23:37 21.10.2019
5773 Clouds 15 1013 93 10000 2.6 340 23:19 21.10.2019
5774 Clouds 15 1013 93 10000 2.6 340 23:19 21.10.2019
5775 Clouds 19 1012 77 0 5.36 10 22:57 21.10.2019
5776 Clouds 19 1012 77 0 5.36 10 22:38 21.10.2019
5777 Clouds 19 1012 77 0 5.36 10 22:19 21.10.2019
5778 Clouds 19 1012 77 0 5.36 10 21:56 21.10.2019
5779 Clouds 19 1012 77 0 5.36 10 21:37 21.10.2019
5780 Clear 19 1012 77 0 5.36 10 21:19 21.10.2019
5781 Clear 19 1012 77 0 5.36 10 20:56 21.10.2019
5782 Clear 19 1012 77 0 5.36 10 20:37 21.10.2019
5783 Clear 19 1012 77 0 5.36 10 20:19 21.10.2019
5784 Clear 19 1012 77 0 5.36 10 19:41 21.10.2019
5785 Clear 19 1012 77 0 5.36 10 19:23 21.10.2019
5786 Clear 19 1012 77 0 5.36 10 18:57 21.10.2019
5787 Clear 19 1012 77 0 5.36 10 18:39 21.10.2019
5788 Clear 19 1012 77 0 5.36 10 18:39 21.10.2019
5789 Clear 19 1012 77 0 5.36 10 18:19 21.10.2019
5790 Clear 19 1012 77 0 5.36 10 17:59 21.10.2019
5791 Clear 19 1012 77 0 5.36 10 17:38 21.10.2019
5792 Clouds 17 1013 82 10000 2.1 360 17:19 21.10.2019
5793 Clouds 17 1013 82 10000 2.1 360 16:57 21.10.2019
5794 Clouds 17 1013 82 10000 2.1 360 16:39 21.10.2019
5795 Clouds 17 1013 82 10000 2.1 360 16:21 21.10.2019
5796 Clear 17 1013 87 10000 2.6 350 15:47 21.10.2019
5797 Clear 18 1013 87 10000 2.6 350 15:27 21.10.2019
5798 Clouds 18 1012 77 10000 5.7 10 14:59 21.10.2019
5799 Clouds 18 1012 77 10000 5.7 10 14:40 21.10.2019
5800 Clouds 18 1012 77 10000 5.7 10 14:21 21.10.2019
5801 Clouds 19 1012 77 10000 7.2 350 13:57 21.10.2019
5802 Clouds 19 1012 77 10000 7.2 350 13:39 21.10.2019
5803 Clouds 19 1012 77 10000 7.2 350 13:19 21.10.2019
5804 Clouds 20 1011 72 10000 8.2 360 12:42 21.10.2019
5805 Clouds 20 1011 72 10000 8.2 360 12:23 21.10.2019
5806 Clouds 20 1011 72 10000 8.2 360 12:23 21.10.2019
5807 Clouds 20 1011 73 10000 7.7 10 11:58 21.10.2019
5808 Clouds 21 1011 73 10000 7.7 10 11:39 21.10.2019
5809 Clouds 20 1011 73 10000 7.7 10 11:20 21.10.2019
5810 Clouds 23 1011 69 10000 6.7 360 10:57 21.10.2019
5811 Clouds 23 1011 69 10000 6.7 360 10:38 21.10.2019
5812 Clouds 23 1011 69 10000 6.7 360 10:19 21.10.2019
5813 Clouds 25 1010 53 10000 2.1 150 09:48 21.10.2019
5814 Clouds 25 1010 53 10000 2.1 150 09:26 21.10.2019
5815 Clouds 26 1010 50 10000 4.1 40 08:58 21.10.2019
5816 Clouds 26 1010 50 10000 4.1 40 08:39 21.10.2019
5817 Clouds 26 1010 50 10000 4.1 40 08:21 21.10.2019
5818 Clouds 26 1010 50 10000 6.7 350 07:44 21.10.2019
5819 Clouds 26 1010 50 10000 6.7 350 07:21 21.10.2019
5820 Clouds 25 1011 54 10000 5.1 360 06:57 21.10.2019
5821 Clouds 25 1011 54 10000 5.1 360 06:39 21.10.2019
5822 Clouds 24 1012 57 10000 3.1 340 05:57 21.10.2019
5823 Clouds 23 1012 60 10000 3.6 50 04:46 21.10.2019
5824 Clouds 22 1013 68 10000 1 0 03:38 21.10.2019
5825 Clouds 20 1013 82 10000 1.5 140 02:25 21.10.2019
5826 Clouds 19 1014 82 10000 5.1 30 01:59 21.10.2019
5827 Clouds 18 1013 88 10000 2.6 140 01:23 21.10.2019
5828 Clouds 17 1013 93 10000 1.5 100 00:48 21.10.2019
5829 Clouds 17 1013 93 10000 1.5 100 00:26 21.10.2019
5830 Clouds 17 1014 88 10000 1.5 120 23:42 20.10.2019
5831 Clouds 15 1014 93 10000 2.6 340 23:22 20.10.2019
5832 Clouds 15 1014 93 10000 2.6 340 23:22 20.10.2019
5833 Clouds 19 1016 82 0 2.24 120 22:57 20.10.2019
5834 Clouds 19 1016 82 0 2.24 120 22:38 20.10.2019
5835 Clouds 19 1016 82 0 2.24 120 22:18 20.10.2019
5836 Clouds 19 1017 82 0 2.24 120 21:57 20.10.2019
5837 Clouds 19 1017 82 0 2.24 120 21:57 20.10.2019
5838 Clouds 19 1017 82 0 2.24 120 21:38 20.10.2019
5839 Clouds 19 1016 82 0 2.24 120 21:20 20.10.2019
5840 Clouds 19 1016 82 0 2.24 120 20:41 20.10.2019
5841 Clouds 19 1016 82 0 2.24 120 20:19 20.10.2019
5842 Clouds 19 1016 82 0 2.24 120 19:57 20.10.2019
5843 Clouds 19 1016 82 0 2.24 120 19:39 20.10.2019
5844 Clouds 19 1016 82 0 2.24 120 19:20 20.10.2019
5845 Clouds 19 1016 82 0 2.24 120 18:56 20.10.2019
5846 Clouds 19 1016 82 0 2.24 120 18:37 20.10.2019
5847 Clouds 19 1016 82 0 2.24 120 18:19 20.10.2019
5848 Clouds 19 1016 82 0 2.24 120 17:43 20.10.2019
5849 Clouds 18 1016 82 10000 4.1 30 17:24 20.10.2019
5850 Clouds 18 1016 82 10000 4.1 30 16:59 20.10.2019
5851 Clouds 18 1016 82 10000 4.1 30 16:41 20.10.2019
5852 Clouds 18 1016 82 10000 4.1 30 16:22 20.10.2019
5853 Clouds 18 1016 82 10000 3.6 40 15:57 20.10.2019
5854 Clouds 18 1016 82 10000 3.6 40 15:38 20.10.2019
5855 Clouds 19 1016 82 10000 3.6 40 15:19 20.10.2019
5856 Clouds 19 1016 82 10000 2.6 120 14:56 20.10.2019
5857 Clouds 19 1016 82 10000 2.6 120 14:37 20.10.2019
5858 Clouds 19 1016 82 10000 2.6 120 14:18 20.10.2019
5859 Clouds 19 1016 77 10000 2.6 120 13:54 20.10.2019
5860 Clouds 19 1016 77 10000 2.6 120 13:36 20.10.2019
5861 Clouds 19 1016 77 10000 2.6 120 13:18 20.10.2019
5862 Clouds 20 1016 60 10000 3.6 20 12:55 20.10.2019
5863 Clouds 20 1016 60 10000 3.6 20 12:36 20.10.2019
5864 Clouds 20 1016 60 10000 3.6 20 12:18 20.10.2019
5865 Clouds 21 1016 56 10000 6.7 30 11:41 20.10.2019
5866 Clouds 21 1016 56 10000 6.7 30 11:41 20.10.2019
5867 Clouds 21 1016 56 10000 6.7 30 11:23 20.10.2019
5868 Clouds 22 1016 60 10000 5.1 40 10:58 20.10.2019
5869 Clouds 22 1016 60 10000 5.1 40 10:39 20.10.2019
5870 Clouds 22 1016 60 10000 5.1 40 10:21 20.10.2019
5871 Clouds 23 1016 60 10000 3.1 40 09:56 20.10.2019
5872 Clouds 23 1016 60 10000 3.1 40 09:37 20.10.2019
5873 Clouds 23 1016 60 10000 3.1 40 09:19 20.10.2019
5874 Clouds 24 1016 53 10000 2.1 200 08:40 20.10.2019
5875 Clouds 24 1016 53 10000 2.1 200 08:21 20.10.2019
5876 Clouds 25 1015 53 10000 1 0 07:47 20.10.2019
5877 Clouds 25 1015 53 10000 1 0 07:26 20.10.2019
5878 Clouds 24 1016 57 10000 1.5 140 06:30 20.10.2019
5879 Clouds 24 1018 60 10000 5.1 40 04:29 20.10.2019
5880 Clouds 22 1018 64 10000 4.1 90 03:50 20.10.2019
5881 Clouds 23 1018 64 10000 4.1 90 03:22 20.10.2019
5882 Clouds 21 1019 68 10000 4.6 360 02:48 20.10.2019
5883 Clouds 21 1019 68 10000 4.6 360 02:22 20.10.2019
5884 Clouds 19 1019 77 10000 5.1 360 01:47 20.10.2019
5885 Clouds 19 1019 77 10000 5.1 360 01:20 20.10.2019
5886 Clouds 18 1018 72 10000 3.1 70 00:48 20.10.2019
5887 Clouds 18 1018 72 10000 3.1 70 00:20 20.10.2019
5888 Clouds 17 1018 77 10000 6.2 360 23:44 19.10.2019
5889 Clear 17 1019 100 10000 2.6 320 23:24 19.10.2019
5890 Clouds 20 1018 82 0 5.81 360 22:59 19.10.2019
5891 Clouds 20 1018 82 0 5.81 360 22:40 19.10.2019
5892 Clouds 20 1018 82 0 5.81 360 22:20 19.10.2019
5893 Clouds 20 1018 82 0 5.81 360 21:54 19.10.2019
5894 Clouds 20 1018 82 0 5.81 360 21:36 19.10.2019
5895 Clouds 20 1018 82 0 5.81 360 21:18 19.10.2019
5896 Clear 20 1018 82 0 5.81 360 20:41 19.10.2019
5897 Clear 20 1018 82 0 5.81 360 20:20 19.10.2019
5898 Clear 20 1018 82 0 5.81 360 19:41 19.10.2019
5899 Clear 20 1018 82 0 5.81 360 19:23 19.10.2019
5900 Clear 20 1018 82 0 5.81 360 18:54 19.10.2019
5901 Clear 20 1018 82 0 5.81 360 18:54 19.10.2019
5902 Clear 20 1018 82 0 5.81 360 18:36 19.10.2019
5903 Clear 20 1018 82 0 5.81 360 18:18 19.10.2019
5904 Clear 20 1018 82 0 5.81 360 18:18 19.10.2019
5905 Clear 20 1018 82 0 5.81 360 18:18 19.10.2019
5906 Clear 20 1018 82 0 5.81 360 17:40 19.10.2019
5907 Clouds 18 1018 88 10000 1.5 30 17:21 19.10.2019
5908 Clouds 18 1018 88 10000 1.5 30 16:54 19.10.2019
5909 Clouds 18 1018 88 10000 1.5 30 16:36 19.10.2019
5910 Clouds 19 1018 88 10000 1.5 30 16:18 19.10.2019
5911 Clouds 19 1018 88 10000 3.1 20 15:40 19.10.2019
5912 Clouds 19 1018 88 10000 3.1 20 15:40 19.10.2019
5913 Clouds 19 1018 88 10000 3.1 20 15:22 19.10.2019
5914 Clouds 19 1018 82 10000 6.2 360 14:38 19.10.2019
5915 Clouds 19 1018 82 10000 6.2 360 14:20 19.10.2019
5916 Clouds 19 1017 82 10000 6.2 360 13:56 19.10.2019
5917 Clouds 19 1017 82 10000 6.2 360 13:38 19.10.2019
5918 Clouds 19 1017 82 10000 6.2 360 13:18 19.10.2019
5919 Clouds 21 1017 83 10000 5.7 360 12:42 19.10.2019
5920 Clouds 21 1017 83 10000 5.7 360 12:23 19.10.2019
5921 Clouds 22 1017 78 10000 5.7 360 11:59 19.10.2019
5922 Clouds 22 1017 78 10000 5.7 360 11:40 19.10.2019
5923 Clouds 22 1017 78 10000 5.7 360 11:22 19.10.2019
5924 Clouds 23 1016 69 10000 6.7 350 10:54 19.10.2019
5925 Clouds 23 1016 69 10000 6.7 350 10:36 19.10.2019
5926 Clouds 23 1016 69 10000 6.7 350 10:18 19.10.2019
5927 Clouds 24 1016 69 10000 8.2 360 09:41 19.10.2019
5928 Clouds 24 1016 69 10000 8.2 360 09:23 19.10.2019
5929 Clouds 25 1015 65 10000 7.7 350 08:57 19.10.2019
5930 Clouds 25 1015 65 10000 7.7 350 08:39 19.10.2019
5931 Clouds 26 1015 65 10000 7.7 350 08:20 19.10.2019
5932 Clouds 26 1015 61 10000 6.7 350 07:42 19.10.2019
5933 Clouds 26 1015 61 10000 6.7 350 07:23 19.10.2019
5934 Clouds 26 1015 61 10000 6.7 350 07:23 19.10.2019
5935 Clouds 26 1015 65 10000 8.2 350 06:39 19.10.2019
5936 Rain 24 1016 69 10000 8.2 10 05:54 19.10.2019
5937 Rain 24 1016 69 10000 8.2 10 05:26 19.10.2019
5938 Clouds 23 1016 78 10000 7.7 360 03:22 19.10.2019
5939 Clouds 23 1016 78 10000 7.7 360 03:22 19.10.2019
5940 Clouds 22 1015 83 10000 7.7 360 02:34 19.10.2019
5941 Clouds 21 1015 83 10000 5.7 360 01:50 19.10.2019
5942 Rain 21 1014 88 10000 4.6 30 00:57 19.10.2019
5943 Rain 21 1014 88 10000 4.6 30 00:37 19.10.2019
5944 Rain 21 1014 88 10000 4.6 30 00:19 19.10.2019
5945 Rain 20 1014 88 10000 6.2 340 23:39 18.10.2019
5946 Rain 20 1014 100 6000 0.5 70 23:21 18.10.2019
5947 Rain 21 1013 100 0 3.58 160 22:55 18.10.2019
5948 Rain 21 1013 100 0 3.58 160 22:36 18.10.2019
5949 Rain 21 1013 100 0 3.58 160 22:18 18.10.2019
5950 Rain 21 1013 100 0 3.58 160 21:55 18.10.2019
5951 Rain 21 1013 100 0 3.58 160 21:36 18.10.2019
5952 Rain 21 1013 100 0 3.58 160 21:18 18.10.2019
5953 Rain 21 1013 100 0 3.58 160 21:18 18.10.2019
5954 Rain 21 1013 100 0 3.58 160 20:43 18.10.2019
5955 Rain 21 1013 100 0 3.58 160 20:23 18.10.2019
5956 Rain 21 1013 100 0 3.58 160 19:58 18.10.2019
5957 Rain 21 1013 100 0 3.58 160 19:40 18.10.2019
5958 Rain 21 1013 100 0 3.58 160 19:22 18.10.2019
5959 Rain 21 1013 100 0 3.58 160 18:59 18.10.2019
5960 Rain 21 1013 100 0 3.58 160 18:59 18.10.2019
5961 Rain 21 1013 100 0 3.58 160 18:41 18.10.2019
5962 Rain 21 1013 100 0 3.58 160 18:22 18.10.2019
5963 Rain 21 1013 100 0 3.58 160 17:55 18.10.2019
5964 Rain 21 1013 100 0 3.58 160 17:36 18.10.2019
5965 Clouds 20 1013 94 10000 1.5 30 17:18 18.10.2019
5966 Clouds 20 1013 94 10000 1.5 30 16:39 18.10.2019
5967 Clouds 20 1013 94 10000 1.5 30 16:20 18.10.2019
5968 Rain 21 1014 100 10000 2.1 350 15:57 18.10.2019
5969 Rain 21 1014 100 10000 2.1 350 15:37 18.10.2019
5970 Rain 21 1014 100 10000 2.1 350 15:19 18.10.2019
5971 Clouds 20 1014 100 10000 3.1 170 14:56 18.10.2019
5972 Clouds 20 1014 100 10000 3.1 170 14:38 18.10.2019
5973 Clouds 21 1013 100 10000 1 0 14:19 18.10.2019
5974 Clouds 21 1013 100 10000 2.6 280 13:55 18.10.2019
5975 Clouds 21 1013 100 10000 2.6 280 13:36 18.10.2019
5976 Clouds 21 1013 100 10000 2.6 280 13:18 18.10.2019
5977 Thunderstorm 21 1013 100 10000 1.5 220 12:40 18.10.2019
5978 Thunderstorm 21 1012 100 10000 3.6 30 12:22 18.10.2019
5979 Thunderstorm 20 1012 100 3500 3.1 10 11:59 18.10.2019
5980 Thunderstorm 20 1012 100 3500 3.1 10 11:41 18.10.2019
5981 Thunderstorm 21 1012 100 5000 1.5 330 11:20 18.10.2019
5982 Thunderstorm 20 1012 100 10000 3.6 180 10:57 18.10.2019
5983 Thunderstorm 20 1012 100 10000 3.6 180 10:39 18.10.2019
5984 Thunderstorm 20 1012 100 10000 3.6 180 10:19 18.10.2019
5985 Rain 20 1012 100 8000 2.1 50 09:57 18.10.2019
5986 Rain 20 1012 100 8000 2.1 50 09:39 18.10.2019
5987 Rain 20 1012 100 8000 2.1 50 09:18 18.10.2019
5988 Thunderstorm 21 1014 94 6000 1 0 08:43 18.10.2019
5989 Rain 21 1013 94 8000 1 0 08:24 18.10.2019
5990 Rain 21 1014 94 8000 0.5 0 07:51 18.10.2019
5991 Rain 21 1014 94 10000 0.5 0 07:30 18.10.2019
5992 Clouds 22 1014 83 10000 1.5 150 06:41 18.10.2019
5993 Clouds 22 1014 83 10000 1.5 150 06:23 18.10.2019
5994 Rain 21 1015 83 10000 1.5 330 05:59 18.10.2019
5995 Rain 21 1015 83 10000 1.5 330 05:24 18.10.2019
5996 Rain 22 1016 83 10000 1.5 100 04:49 18.10.2019
5997 Clouds 22 1016 83 10000 3.6 170 03:34 18.10.2019
5998 Clouds 21 1016 83 10000 1 100 02:37 18.10.2019
5999 Clouds 21 1016 83 10000 1 100 02:18 18.10.2019
6000 Clouds 19 1017 94 10000 1 0 01:31 18.10.2019
6001 Rain 19 1017 93 10000 2.1 90 00:46 18.10.2019
6002 Rain 19 1017 93 10000 2.1 90 00:46 18.10.2019
6003 Rain 19 1017 93 10000 2.1 90 00:21 18.10.2019
6004 Rain 19 1017 93 10000 2.1 90 00:21 18.10.2019
6005 Rain 18 1017 100 10000 1 0 23:59 17.10.2019
6006 Rain 18 1017 100 10000 1 0 23:38 17.10.2019
6007 Rain 18 1017 93 10000 5.1 30 23:19 17.10.2019
6008 Clouds 17 1020 100 0 3.79 60.781 22:55 17.10.2019
6009 Clouds 17 1020 100 0 3.79 60.781 22:55 17.10.2019
6010 Clouds 17 1020 100 0 3.79 60.781 22:55 17.10.2019
6011 Clouds 17 1020 100 0 3.79 60.781 22:37 17.10.2019
6012 Clouds 17 1020 100 0 3.79 60.781 22:37 17.10.2019
6013 Clouds 17 1020 100 0 3.79 60.781 22:18 17.10.2019
6014 Clouds 17 1020 100 0 3.79 60.781 21:56 17.10.2019
6015 Clouds 17 1020 100 0 3.79 60.781 21:37 17.10.2019
6016 Clouds 17 1020 100 0 4.36 55.085 21:19 17.10.2019
6017 Clouds 17 1020 100 0 4.17 57.244 20:56 17.10.2019
6018 Clouds 17 1020 100 0 4.17 57.244 20:56 17.10.2019
6019 Clouds 17 1020 100 0 4.17 57.244 20:37 17.10.2019
6020 Clouds 17 1020 100 0 4.17 57.244 20:18 17.10.2019
6021 Clouds 17 1020 100 0 4.17 57.244 19:42 17.10.2019
6022 Clouds 17 1020 100 0 4.17 57.244 19:42 17.10.2019
6023 Clouds 17 1020 100 0 4.17 57.244 19:21 17.10.2019
6024 Clouds 17 1020 100 0 4.17 57.244 18:59 17.10.2019
6025 Clouds 17 1020 100 0 4.17 57.244 18:39 17.10.2019
6026 Rain 17 1020 100 0 4.36 15.091 18:21 17.10.2019
6027 Clouds 17 1020 100 0 3.803 51 17:44 17.10.2019
6028 Clouds 17 1020 93 10000 2.6 360 17:25 17.10.2019
6029 Clouds 17 1020 93 10000 2.6 360 16:59 17.10.2019
6030 Clouds 17 1020 93 10000 2.6 360 16:41 17.10.2019
6031 Clouds 17 1020 93 10000 2.6 360 16:19 17.10.2019
6032 Rain 16 1021 100 8000 2.1 320 15:57 17.10.2019
6033 Rain 16 1021 100 8000 2.1 320 15:39 17.10.2019
6034 Rain 17 1021 100 8000 2.1 320 15:20 17.10.2019
6035 Rain 17 1021 100 8000 2.1 320 15:20 17.10.2019
6036 Clouds 17 1020 100 10000 1 0 14:57 17.10.2019
6037 Clouds 17 1020 100 10000 1 0 14:38 17.10.2019
6038 Clouds 17 1020 100 10000 1 0 14:20 17.10.2019
6039 Rain 18 1020 93 10000 4.6 360 13:40 17.10.2019
6040 Rain 18 1020 93 10000 4.6 360 13:20 17.10.2019
6041 Rain 18 1019 93 9000 3.1 140 12:58 17.10.2019
6042 Rain 18 1019 93 9000 3.1 140 12:37 17.10.2019
6043 Rain 18 1019 93 9000 3.1 140 12:19 17.10.2019
6044 Rain 18 1020 93 9000 2.6 150 11:42 17.10.2019
6045 Rain 18 1020 93 9000 2.6 150 11:22 17.10.2019
6046 Rain 18 1020 93 8000 0.5 0 10:59 17.10.2019
6047 Rain 18 1020 93 8000 0.5 0 10:41 17.10.2019
6048 Rain 18 1020 93 8000 0.5 0 10:41 17.10.2019
6049 Rain 18 1020 93 8000 0.5 0 10:19 17.10.2019
6050 Rain 18 1020 93 9000 1.5 340 09:56 17.10.2019
6051 Rain 18 1020 93 9000 1.5 340 09:37 17.10.2019
6052 Rain 18 1020 93 9000 1.5 340 09:19 17.10.2019
6053 Rain 18 1020 93 8000 0.5 0 08:48 17.10.2019
6054 Rain 18 1020 93 8000 0.5 0 08:27 17.10.2019
6055 Rain 17 1020 93 9000 1 0 07:59 17.10.2019
6056 Rain 17 1020 93 9000 1 0 07:41 17.10.2019
6057 Rain 17 1020 93 9000 1.5 80 07:21 17.10.2019
6058 Rain 17 1020 100 7000 2.1 290 06:43 17.10.2019
6059 Rain 17 1020 100 7000 2.1 290 06:24 17.10.2019
6060 Rain 17 1020 93 7000 2.1 20 05:59 17.10.2019
6061 Rain 17 1020 93 7000 2.1 20 05:35 17.10.2019
6062 Rain 17 1021 93 8000 2.6 160 04:58 17.10.2019
6063 Rain 17 1021 93 8000 2.6 160 04:31 17.10.2019
6064 Rain 16 1021 93 8000 3.1 110 03:45 17.10.2019
6065 Rain 16 1021 77 10000 1 0 01:56 17.10.2019
6066 Clouds 15 1020 82 10000 1.5 50 00:42 17.10.2019
6067 Clouds 15 1020 82 10000 1.5 50 00:20 17.10.2019
6068 Clouds 15 1021 82 10000 2.1 110 23:42 16.10.2019
6069 Clouds 14 1021 93 10000 2.1 330 23:22 16.10.2019
6070 Clouds 18 1021 67 0 2.24 140 22:58 16.10.2019
6071 Clouds 18 1021 67 0 2.24 140 22:38 16.10.2019
6072 Clouds 18 1021 67 0 2.24 140 22:20 16.10.2019
6073 Clouds 18 1021 67 0 2.24 140 21:58 16.10.2019
6074 Clouds 18 1021 67 0 2.24 140 21:38 16.10.2019
6075 Clear 18 1021 67 0 2.24 140 21:20 16.10.2019
6076 Clear 18 1021 67 0 2.24 140 20:58 16.10.2019
6077 Clear 18 1021 67 0 2.24 140 20:40 16.10.2019
6078 Clear 18 1021 67 0 2.24 140 20:21 16.10.2019
6079 Clear 18 1021 67 0 2.24 140 19:59 16.10.2019
6080 Clear 18 1021 67 0 2.24 140 19:39 16.10.2019
6081 Clear 18 1021 67 0 2.24 140 19:39 16.10.2019
6082 Clear 18 1021 67 0 2.24 140 19:21 16.10.2019
6083 Clear 18 1021 67 0 2.24 140 18:55 16.10.2019
6084 Clear 18 1021 67 0 2.24 140 18:37 16.10.2019
6085 Clear 18 1021 67 0 2.24 140 18:18 16.10.2019
6086 Clear 18 1021 67 0 2.24 140 17:54 16.10.2019
6087 Clear 18 1021 67 0 2.24 140 17:54 16.10.2019
6088 Clear 18 1021 67 0 2.24 140 17:36 16.10.2019
6089 Clear 18 1021 67 0 2.24 140 17:36 16.10.2019
6090 Clear 15 1022 87 10000 2.6 320 17:18 16.10.2019
6091 Clear 15 1022 87 10000 2.6 320 16:42 16.10.2019
6092 Clear 15 1022 87 10000 2.6 320 16:21 16.10.2019
6093 Clear 16 1021 82 10000 3.1 340 15:58 16.10.2019
6094 Clear 16 1021 82 10000 3.1 340 15:39 16.10.2019
6095 Clear 16 1021 82 10000 3.1 340 15:39 16.10.2019
6096 Clear 16 1021 82 10000 3.1 340 15:39 16.10.2019
6097 Clear 17 1021 68 10000 2.6 140 15:19 16.10.2019
6098 Clear 17 1021 68 10000 2.6 140 14:58 16.10.2019
6099 Clouds 17 1021 68 10000 2.6 140 14:38 16.10.2019
6100 Clouds 17 1021 68 10000 2.6 140 14:19 16.10.2019
6101 Clouds 16 1020 67 10000 1.5 120 13:57 16.10.2019
6102 Clouds 16 1020 67 10000 1.5 120 13:56 16.10.2019
6103 Clouds 16 1020 67 10000 1.5 120 13:38 16.10.2019
6104 Clouds 16 1020 67 10000 1.5 120 13:38 16.10.2019
6105 Clouds 16 1020 67 10000 1.5 120 13:19 16.10.2019
6106 Clouds 17 1020 68 10000 0.5 0 12:42 16.10.2019
6107 Clear 17 1020 68 10000 0.5 0 12:19 16.10.2019
6108 Clear 19 1020 68 10000 2.6 190 11:44 16.10.2019
6109 Clear 19 1020 68 10000 2.6 190 11:19 16.10.2019
6110 Clear 22 1020 53 10000 3.1 250 10:41 16.10.2019
6111 Clear 22 1020 53 10000 3.1 250 10:22 16.10.2019
6112 Clear 23 1020 43 10000 2.6 230 09:58 16.10.2019
6113 Clouds 23 1020 43 10000 2.6 230 09:38 16.10.2019
6114 Clear 23 1020 43 10000 2.6 230 09:20 16.10.2019
6115 Clear 23 1020 43 10000 2.6 200 08:43 16.10.2019
6116 Clear 23 1020 43 10000 2.6 200 08:25 16.10.2019
6117 Clear 23 1020 43 10000 2.1 160 07:55 16.10.2019
6118 Clear 23 1020 43 10000 2.1 160 07:55 16.10.2019
6119 Clear 23 1020 43 10000 2.1 160 07:37 16.10.2019
6120 Clear 23 1020 43 10000 2.1 160 07:18 16.10.2019
6121 Clouds 23 1020 43 10000 1 0 06:39 16.10.2019
6122 Clouds 23 1020 43 10000 1 0 06:39 16.10.2019
6123 Clouds 22 1021 49 10000 2.6 330 05:54 16.10.2019
6124 Clouds 21 1023 49 10000 2.1 190 03:26 16.10.2019
6125 Clouds 19 1023 55 10000 1.5 140 02:49 16.10.2019
6126 Clouds 17 1023 63 10000 1.5 50 01:19 16.10.2019
6127 Clouds 15 1022 63 10000 1.5 100 00:50 16.10.2019
6128 Clouds 15 1022 63 10000 1.5 100 00:28 16.10.2019
6129 Clouds 14 1023 67 10000 1.5 60 23:41 15.10.2019
6130 Clouds 14 1023 67 10000 1.5 60 23:22 15.10.2019
6131 Clear 18 1023 59 0 4.02 60 22:56 15.10.2019
6132 Clear 18 1023 59 0 4.02 60 22:38 15.10.2019
6133 Clear 18 1023 59 0 4.02 60 22:38 15.10.2019
6134 Clear 18 1023 59 0 4.02 60 22:20 15.10.2019
6135 Clear 18 1023 59 0 4.02 60 21:56 15.10.2019
6136 Clear 18 1023 59 0 4.02 60 21:56 15.10.2019
6137 Clear 18 1023 59 0 4.02 60 21:56 15.10.2019
6138 Clear 18 1023 59 0 4.02 60 21:38 15.10.2019
6139 Clear 18 1023 59 0 4.02 60 21:20 15.10.2019
6140 Clear 18 1023 59 0 4.02 60 20:57 15.10.2019
6141 Clear 18 1023 59 0 4.02 60 20:39 15.10.2019
6142 Clear 18 1023 59 0 4.02 60 20:39 15.10.2019
6143 Clear 18 1023 59 0 4.02 60 20:20 15.10.2019
6144 Clear 18 1023 59 0 4.02 60 19:58 15.10.2019
6145 Clear 18 1023 59 0 4.02 60 19:40 15.10.2019
6146 Clear 18 1023 59 0 4.02 60 19:20 15.10.2019
6147 Clear 18 1023 59 0 4.02 60 18:47 15.10.2019
6148 Clear 18 1023 59 0 4.02 60 18:29 15.10.2019
6149 Clouds 18 1023 59 0 4.02 60 17:59 15.10.2019
6150 Clouds 18 1023 59 0 4.02 60 17:39 15.10.2019
6151 Clouds 18 1023 59 0 4.02 60 17:39 15.10.2019
6152 Clouds 16 1024 72 10000 4.1 360 17:20 15.10.2019
6153 Clouds 16 1024 72 10000 4.1 360 16:55 15.10.2019
6154 Clouds 16 1024 72 10000 4.1 360 16:37 15.10.2019
6155 Clouds 17 1024 72 10000 4.1 360 16:19 15.10.2019
6156 Clouds 17 1024 59 10000 4.1 60 15:41 15.10.2019
6157 Clouds 17 1024 59 10000 4.1 60 15:41 15.10.2019
6158 Clouds 17 1024 59 10000 4.1 60 15:20 15.10.2019
6159 Clouds 17 1024 59 10000 4.1 60 14:58 15.10.2019
6160 Clouds 17 1023 63 10000 5.7 360 14:38 15.10.2019
6161 Clouds 17 1023 63 10000 5.7 360 14:19 15.10.2019
6162 Clouds 18 1023 63 10000 4.1 50 13:44 15.10.2019
6163 Clouds 18 1023 63 10000 4.1 50 13:21 15.10.2019
6164 Clouds 18 1022 68 10000 7.7 360 12:59 15.10.2019
6165 Clouds 18 1022 68 10000 7.7 360 12:39 15.10.2019
6166 Clouds 18 1022 68 10000 7.7 360 12:21 15.10.2019
6167 Clouds 19 1021 64 10000 7.7 10 11:55 15.10.2019
6168 Clouds 19 1021 64 10000 7.7 10 11:37 15.10.2019
6169 Clouds 19 1021 64 10000 7.7 10 11:18 15.10.2019
6170 Clouds 20 1021 64 10000 7.7 20 10:42 15.10.2019
6171 Clouds 20 1021 64 10000 7.7 20 10:19 15.10.2019
6172 Clouds 22 1020 56 10000 8.7 40 09:57 15.10.2019
6173 Clouds 22 1020 56 10000 8.7 40 09:57 15.10.2019
6174 Clouds 22 1020 56 10000 8.7 40 09:37 15.10.2019
6175 -273 0 0 0 0 0 09:19 15.10.2019
6176 Clouds 23 1020 50 10000 8.7 40 08:42 15.10.2019
6177 Clouds 23 1020 50 10000 8.7 40 08:22 15.10.2019
6178 Clouds 24 1020 47 10000 8.7 40 07:56 15.10.2019
6179 Clouds 24 1020 47 10000 8.7 40 07:56 15.10.2019
6180 Clouds 24 1020 47 10000 8.7 40 07:38 15.10.2019
6181 Clouds 24 1020 47 10000 8.7 40 07:19 15.10.2019
6182 Clouds 24 1020 47 10000 7.7 40 06:44 15.10.2019
6183 Clouds 24 1020 47 10000 7.7 40 06:25 15.10.2019
6184 Clouds 23 1021 47 10000 8.7 40 05:41 15.10.2019
6185 Clouds 24 1021 47 10000 8.7 40 05:22 15.10.2019
6186 Clouds 23 1022 44 10000 7.7 30 04:23 15.10.2019
6187 Clouds 23 1022 49 10000 8.2 360 03:37 15.10.2019
6188 Clouds 21 1022 53 10000 6.7 350 02:23 15.10.2019
6189 Clouds 19 1022 64 10000 1 0 01:47 15.10.2019
6190 Clouds 19 1022 64 10000 1 0 01:19 15.10.2019
6191 Clouds 17 1021 68 10000 3.1 40 00:48 15.10.2019
6192 Clouds 17 1021 68 10000 3.1 40 00:21 15.10.2019
6193 Clear 16 1022 63 10000 3.6 10 23:40 14.10.2019
6194 Clear 16 1022 63 10000 3.6 10 23:20 14.10.2019
6195 Clear 19 1021 72 0 6.71 360 22:41 14.10.2019
6196 Clear 19 1021 72 0 6.71 360 22:21 14.10.2019
6197 Clear 19 1021 72 0 6.71 360 21:59 14.10.2019
6198 Clear 19 1021 72 0 6.71 360 21:40 14.10.2019
6199 Clear 19 1021 72 0 6.71 360 21:22 14.10.2019
6200 Clear 19 1021 72 0 6.71 360 20:59 14.10.2019
6201 Clear 19 1021 72 0 6.71 360 20:39 14.10.2019
6202 Clear 19 1021 72 0 6.71 360 20:21 14.10.2019
6203 Clear 19 1021 72 0 6.71 360 19:59 14.10.2019
6204 Clear 19 1021 72 0 6.71 360 19:40 14.10.2019
6205 Clear 19 1021 72 0 6.71 360 19:22 14.10.2019
6206 Clear 19 1021 72 0 6.71 360 18:58 14.10.2019
6207 Clear 19 1021 72 0 6.71 360 18:38 14.10.2019
6208 Clear 19 1021 72 0 6.71 360 18:18 14.10.2019
6209 Clear 19 1021 72 0 6.71 360 18:18 14.10.2019
6210 Clear 19 1021 72 0 6.71 360 17:44 14.10.2019
6211 Clear 16 1022 87 10000 2.6 360 17:25 14.10.2019
6212 Clear 17 1022 87 10000 2.6 360 16:59 14.10.2019
6213 Clear 17 1022 87 10000 2.6 360 16:40 14.10.2019
6214 Clear 17 1022 87 10000 2.6 360 16:20 14.10.2019
6215 Clouds 17 1022 82 10000 2.1 360 15:41 14.10.2019
6216 Clouds 18 1022 82 10000 2.1 360 15:22 14.10.2019
6217 Clouds 18 1021 72 10000 6.7 360 14:46 14.10.2019
6218 Clouds 18 1021 72 10000 6.7 360 14:26 14.10.2019
6219 Clouds 18 1021 72 10000 6.7 360 14:26 14.10.2019
6220 Clouds 19 1021 68 10000 8.7 360 13:59 14.10.2019
6221 Clouds 19 1021 68 10000 8.7 360 13:59 14.10.2019
6222 Clouds 19 1021 68 10000 8.7 360 13:41 14.10.2019
6223 Clouds 19 1021 68 10000 8.7 360 13:21 14.10.2019
6224 Clouds 19 1020 68 10000 8.2 10 12:43 14.10.2019
6225 Clouds 19 1020 68 10000 8.2 10 12:21 14.10.2019
6226 -273 0 0 0 0 0 12:00 14.10.2019
6227 Clouds 20 1020 68 10000 8.2 360 11:41 14.10.2019
6228 Clouds 20 1020 68 10000 8.2 360 11:22 14.10.2019
6229 Clouds 22 1020 60 10000 7.2 360 10:44 14.10.2019
6230 Clouds 22 1020 60 10000 7.2 360 10:23 14.10.2019
6231 Clouds 24 1019 57 10000 7.7 340 09:59 14.10.2019
6232 Clouds 24 1019 57 10000 7.7 340 09:40 14.10.2019
6233 Clouds 24 1019 57 10000 7.7 340 09:40 14.10.2019
6234 Clouds 24 1019 57 10000 7.7 340 09:20 14.10.2019
6235 Clouds 24 1018 57 10000 7.7 340 08:48 14.10.2019
6236 Clouds 24 1018 57 10000 7.7 340 08:23 14.10.2019
6237 Clouds 25 1018 50 10000 6.7 330 07:45 14.10.2019
6238 Clouds 25 1018 50 10000 6.7 330 07:23 14.10.2019
6239 -273 0 0 0 0 0 06:56 14.10.2019
6240 Clouds 25 1018 50 10000 6.7 330 06:56 14.10.2019
6241 Clouds 25 1018 50 10000 6.7 330 06:28 14.10.2019
6242 Clouds 25 1019 50 10000 7.2 350 05:53 14.10.2019
6243 Clouds 24 1020 50 10000 7.2 350 04:53 14.10.2019
6244 Clouds 22 1020 53 10000 8.2 360 03:49 14.10.2019
6245 Clouds 22 1020 53 10000 8.2 360 03:22 14.10.2019
6246 Clouds 19 1020 68 10000 0.5 0 01:52 14.10.2019
6247 Clouds 19 1020 68 10000 0.5 0 01:18 14.10.2019
6248 Clouds 15 1019 93 10000 0.5 0 00:36 14.10.2019
6249 Clouds 15 1019 93 10000 0.5 0 00:18 14.10.2019
6250 Clouds 14 1019 93 10000 0.5 0 23:40 13.10.2019
6251 Clouds 14 1019 93 10000 0.5 0 23:19 13.10.2019
6252 Clear 20 1018 60 0 4.02 20 22:54 13.10.2019
6253 Clear 20 1018 60 0 4.02 20 22:36 13.10.2019
6254 Clear 20 1018 60 0 4.02 20 22:18 13.10.2019
6255 Clear 20 1018 60 0 4.02 20 22:18 13.10.2019
6256 Clear 20 1018 60 0 4.02 20 21:55 13.10.2019
6257 Clear 20 1018 60 0 4.02 20 21:36 13.10.2019
6258 Clear 20 1018 60 0 4.02 20 21:18 13.10.2019
6259 Clear 20 1018 60 0 4.02 20 21:18 13.10.2019
6260 Clear 20 1018 60 0 4.02 20 20:55 13.10.2019
6261 Clear 20 1018 60 0 4.02 20 20:55 13.10.2019
6262 Clear 20 1018 60 0 4.02 20 20:36 13.10.2019
6263 Clear 20 1018 60 0 4.02 20 20:18 13.10.2019
6264 Clear 20 1018 60 0 4.02 20 19:40 13.10.2019
6265 Clear 20 1018 60 0 4.02 20 19:22 13.10.2019
6266 Clear 20 1018 60 0 4.02 20 18:59 13.10.2019
6267 Clear 20 1018 60 0 4.02 20 18:38 13.10.2019
6268 Clear 20 1018 60 0 4.02 20 18:20 13.10.2019
6269 Clear 20 1018 60 0 4.02 20 17:58 13.10.2019
6270 Clear 20 1018 60 0 4.02 20 17:39 13.10.2019
6271 Clear 17 1019 82 10000 3.1 350 17:21 13.10.2019
6272 Clear 17 1019 82 10000 3.1 350 16:43 13.10.2019
6273 Clear 18 1019 82 10000 3.1 350 16:19 13.10.2019
6274 Clear 17 1019 82 10000 3.1 10 15:57 13.10.2019
6275 Clear 17 1019 82 10000 3.1 10 15:57 13.10.2019
6276 Clear 17 1019 82 10000 3.1 10 15:57 13.10.2019
6277 Clear 17 1019 82 10000 3.1 10 15:38 13.10.2019
6278 Clear 18 1019 82 10000 3.1 10 15:19 13.10.2019
6279 Clouds 19 1018 60 10000 4.1 20 14:57 13.10.2019
6280 Clouds 19 1018 60 10000 4.1 20 14:38 13.10.2019
6281 Clouds 19 1018 60 10000 4.1 20 14:19 13.10.2019
6282 Clouds 19 1017 68 10000 6.7 360 13:42 13.10.2019
6283 Clouds 19 1017 68 10000 6.7 360 13:42 13.10.2019
6284 Clouds 19 1017 68 10000 6.7 360 13:23 13.10.2019
6285 Clouds 19 1016 68 10000 9.3 360 12:59 13.10.2019
6286 Clouds 19 1016 68 10000 9.3 360 12:39 13.10.2019
6287 Clouds 19 1016 68 10000 9.3 360 12:21 13.10.2019
6288 Clouds 21 1016 64 10000 7.7 10 11:59 13.10.2019
6289 Clouds 21 1016 64 10000 7.7 10 11:39 13.10.2019
6290 Clouds 21 1016 64 10000 7.7 10 11:20 13.10.2019
6291 Clouds 23 1015 53 10000 8.2 30 10:57 13.10.2019
6292 Clouds 23 1015 53 10000 8.2 30 10:38 13.10.2019
6293 Clouds 22 1015 53 10000 8.2 30 10:20 13.10.2019
6294 Clouds 23 1015 50 10000 8.7 40 09:39 13.10.2019
6295 Clouds 23 1015 50 10000 8.7 40 09:21 13.10.2019
6296 Clouds 24 1014 44 10000 7.7 40 08:45 13.10.2019
6297 Clouds 24 1014 44 10000 7.7 40 08:26 13.10.2019
6298 Clouds 25 1014 39 10000 6.2 30 07:52 13.10.2019
6299 Clouds 26 1014 39 10000 6.2 30 07:33 13.10.2019
6300 Clouds 26 1014 39 10000 6.2 30 07:33 13.10.2019
6301 Clouds 25 1015 44 10000 7.7 40 06:54 13.10.2019
6302 Clouds 25 1015 44 10000 7.7 40 06:54 13.10.2019
6303 Clouds 25 1015 44 10000 7.7 40 06:24 13.10.2019
6304 Clouds 25 1015 44 10000 7.7 40 06:24 13.10.2019
6305 Clouds 24 1015 44 10000 6.7 60 05:22 13.10.2019
6306 Clouds 24 1015 44 10000 8.2 60 04:34 13.10.2019
6307 Clouds 24 1015 44 10000 8.2 60 04:34 13.10.2019
6308 Clouds 23 1015 46 10000 7.7 20 03:24 13.10.2019
6309 Clouds 22 1015 49 10000 10.8 50 02:30 13.10.2019
6310 Clouds 21 1015 56 10000 2.1 20 01:36 13.10.2019
6311 Clouds 19 1015 59 10000 2.1 30 00:56 13.10.2019
6312 Clouds 19 1015 59 10000 2.1 30 00:37 13.10.2019
6313 Clouds 19 1015 59 10000 2.1 30 00:18 13.10.2019
6314 Clouds 19 1015 59 10000 5.7 30 23:41 12.10.2019
6315 Clouds 18 1015 63 10000 5.7 20 23:22 12.10.2019
6316 Clear 21 1011 60 0 6.71 10 22:58 12.10.2019
6317 Clear 21 1011 60 0 6.71 10 22:40 12.10.2019
6318 Clear 21 1011 60 0 6.71 10 22:40 12.10.2019
6319 Clear 21 1011 60 0 6.71 10 22:22 12.10.2019
6320 Clear 21 1011 60 0 6.71 10 22:22 12.10.2019
6321 Clear 21 1011 60 0 6.71 10 21:57 12.10.2019
6322 Clear 21 1011 60 0 6.71 10 21:39 12.10.2019
6323 Clear 21 1011 60 0 6.71 10 21:20 12.10.2019
6324 Clear 21 1011 60 0 6.71 10 21:20 12.10.2019
6325 Clear 21 1011 60 0 6.71 10 20:45 12.10.2019
6326 Clear 21 1011 60 0 6.71 10 20:27 12.10.2019
6327 Clear 21 1011 60 0 6.71 10 19:42 12.10.2019
6328 Clear 21 1011 60 0 6.71 10 19:24 12.10.2019
6329 Clear 21 1011 60 0 6.71 10 18:59 12.10.2019
6330 Clear 21 1011 60 0 6.71 10 18:41 12.10.2019
6331 Clear 21 1011 60 0 6.71 10 18:41 12.10.2019
6332 Clear 21 1011 60 0 6.71 10 18:23 12.10.2019
6333 Clear 21 1011 60 0 6.71 10 17:45 12.10.2019
6334 Clouds 20 1012 63 10000 6.2 10 17:21 12.10.2019
6335 Clouds 20 1012 63 10000 6.2 10 16:57 12.10.2019
6336 Clouds 20 1012 63 10000 6.2 10 16:38 12.10.2019
6337 Clouds 20 1012 63 10000 6.2 10 16:19 12.10.2019
6338 Clouds 20 1012 64 10000 6.2 10 15:44 12.10.2019
6339 Clouds 21 1012 64 10000 6.2 10 15:25 12.10.2019
6340 Clouds 21 1012 64 10000 6.2 10 15:25 12.10.2019
6341 Clouds 21 1011 60 10000 6.7 10 14:57 12.10.2019
6342 Clouds 21 1011 60 10000 6.7 10 14:38 12.10.2019
6343 Clouds 21 1011 60 10000 6.7 10 14:19 12.10.2019
6344 Clouds 21 1010 64 10000 7.2 20 13:44 12.10.2019
6345 Clouds 21 1010 64 10000 7.2 20 13:26 12.10.2019
6346 Clouds 22 1009 60 10000 9.3 10 12:40 12.10.2019
6347 Clouds 22 1009 60 10000 9.3 10 12:22 12.10.2019
6348 Clouds 22 1009 60 10000 9.3 10 12:22 12.10.2019
6349 Clouds 22 1008 60 10000 8.7 20 11:59 12.10.2019
6350 Clouds 22 1008 60 10000 8.7 20 11:40 12.10.2019
6351 Clouds 22 1008 60 10000 8.7 20 11:22 12.10.2019
6352 Clouds 22 1007 64 10000 11.3 10 10:56 12.10.2019
6353 Clouds 22 1007 64 10000 11.3 10 10:36 12.10.2019
6354 Clouds 22 1007 64 10000 11.3 10 10:18 12.10.2019
6355 Clouds 23 1006 60 10000 11.3 360 09:54 12.10.2019
6356 Clouds 23 1006 60 10000 11.3 360 09:36 12.10.2019
6357 Clouds 23 1006 60 10000 11.3 360 09:18 12.10.2019
6358 Clouds 24 1006 57 10000 11.3 360 08:41 12.10.2019
6359 Clouds 24 1006 57 10000 11.3 360 08:41 12.10.2019
6360 Clouds 24 1006 60 10000 12.3 360 08:20 12.10.2019
6361 Clouds 24 1006 60 10000 12.3 360 08:20 12.10.2019
6362 Clouds 24 1006 60 10000 12.3 360 08:20 12.10.2019
6363 Clouds 23 1006 64 10000 8.7 350 07:36 12.10.2019
6364 Clouds 24 1005 57 10000 12.3 10 06:59 12.10.2019
6365 Clouds 24 1006 60 10000 8.2 360 05:49 12.10.2019
6366 Clouds 24 1006 60 10000 8.2 360 05:24 12.10.2019
6367 Clouds 25 1006 57 10000 11.8 10 04:26 12.10.2019
6368 Clouds 25 1006 57 10000 11.8 10 04:26 12.10.2019
6369 Clouds 24 1006 69 10000 10.3 360 03:41 12.10.2019
6370 Clouds 23 1006 78 10000 10.3 10 01:56 12.10.2019
6371 Clouds 23 1006 78 10000 10.8 10 01:29 12.10.2019
6372 Clouds 23 1005 78 10000 10.3 10 00:43 12.10.2019
6373 Clouds 23 1005 78 10000 10.3 10 00:19 12.10.2019
6374 Clouds 23 1005 78 10000 10.3 10 00:19 12.10.2019
6375 Clouds 23 1005 78 10000 9.8 10 23:40 11.10.2019
6376 Clouds 23 1005 78 10000 9.8 10 23:20 11.10.2019
6377 Clouds 23 1006 78 0 8.49 360 22:41 11.10.2019
6378 Clouds 23 1006 78 0 8.49 360 22:22 11.10.2019
6379 Clouds 23 1006 78 0 8.49 360 21:59 11.10.2019
6380 Clouds 23 1006 78 0 8.49 360 21:40 11.10.2019
6381 Clouds 23 1006 78 0 8.49 360 21:21 11.10.2019
6382 Clouds 23 1006 78 0 8.49 360 20:45 11.10.2019
6383 Clouds 23 1006 78 0 8.49 360 20:27 11.10.2019
6384 Clouds 23 1006 78 0 8.49 360 19:59 11.10.2019
6385 Clouds 23 1006 78 0 8.49 360 19:39 11.10.2019
6386 Clouds 23 1006 78 0 8.49 360 19:18 11.10.2019
6387 Clouds 23 1006 78 0 8.49 360 19:18 11.10.2019
6388 Clouds 23 1006 78 0 8.49 360 18:59 11.10.2019
6389 Clouds 23 1006 78 0 8.49 360 18:59 11.10.2019
6390 Clouds 23 1006 78 0 8.49 360 18:38 11.10.2019
6391 Clouds 23 1006 78 0 8.49 360 18:19 11.10.2019
6392 Clouds 23 1006 78 0 8.49 360 17:59 11.10.2019
6393 Clouds 23 1006 78 0 8.49 360 17:38 11.10.2019
6394 Clouds 23 1006 78 10000 3.6 350 17:19 11.10.2019
6395 Clouds 23 1006 78 10000 3.6 350 16:58 11.10.2019
6396 Clouds 23 1006 78 10000 3.6 350 16:39 11.10.2019
6397 Clouds 23 1006 78 10000 3.6 350 16:19 11.10.2019
6398 Clouds 23 1006 78 10000 3.6 350 16:19 11.10.2019
6399 Clouds 22 1007 83 10000 3.1 350 15:42 11.10.2019
6400 Clouds 23 1007 83 10000 3.1 350 15:21 11.10.2019
6401 Clouds 23 1006 78 10000 8.7 360 14:58 11.10.2019
6402 Clouds 23 1006 78 10000 8.7 360 14:39 11.10.2019
6403 Clouds 23 1006 78 10000 8.7 360 14:19 11.10.2019
6404 Clouds 23 1006 78 10000 8.2 350 13:45 11.10.2019
6405 Clouds 23 1006 78 10000 8.2 350 13:25 11.10.2019
6406 Clouds 23 1006 83 10000 8.2 360 12:57 11.10.2019
6407 Clouds 23 1006 83 10000 8.2 360 12:38 11.10.2019
6408 Clouds 23 1006 83 10000 8.2 360 12:20 11.10.2019
6409 Clouds 24 1006 73 10000 9.3 360 11:58 11.10.2019
6410 Clouds 24 1006 73 10000 9.3 360 11:38 11.10.2019
6411 Clouds 24 1006 73 10000 9.3 360 11:20 11.10.2019
6412 Clouds 25 1006 73 10000 9.8 360 10:54 11.10.2019
6413 Clouds 25 1006 73 10000 9.8 360 10:54 11.10.2019
6414 Clouds 25 1006 73 10000 9.8 360 10:36 11.10.2019
6415 Clouds 25 1006 73 10000 9.8 360 10:18 11.10.2019
6416 Clouds 27 1006 69 10000 10.3 360 09:41 11.10.2019
6417 Clouds 26 1006 69 10000 10.3 360 09:20 11.10.2019
6418 Clouds 27 1006 69 10000 8.2 340 08:56 11.10.2019
6419 Clouds 27 1006 69 10000 8.2 340 08:38 11.10.2019
6420 Clouds 27 1006 69 10000 8.2 340 08:19 11.10.2019
6421 Clouds 28 1006 61 10000 8.2 330 07:51 11.10.2019
6422 Clouds 28 1006 61 10000 8.2 330 07:33 11.10.2019
6423 Clouds 29 1007 61 10000 7.7 340 06:49 11.10.2019
6424 Clouds 29 1007 61 10000 7.7 340 06:24 11.10.2019
6425 Clouds 28 1008 61 10000 8.2 330 05:41 11.10.2019
6426 Clouds 28 1008 61 10000 8.2 330 05:23 11.10.2019
6427 Clouds 26 1009 65 10000 1.5 0 04:38 11.10.2019
6428 Clear 23 1010 73 10000 1 0 02:59 11.10.2019
6429 Clouds 18 1010 88 10000 1.5 310 00:52 11.10.2019
6430 Clouds 18 1010 88 10000 1.5 310 00:30 11.10.2019
6431 Clouds 15 1011 93 10000 7.03 18.525 23:50 10.10.2019
6432 Clouds 16 1010 93 10000 7.03 18.525 23:24 10.10.2019
6433 Clear 21 1012 68 0 2.68 50 22:59 10.10.2019
6434 Clear 21 1012 68 0 2.68 50 22:40 10.10.2019
6435 Clear 21 1012 68 0 2.68 50 22:21 10.10.2019
6436 Clear 21 1012 68 0 2.68 50 22:21 10.10.2019
6437 Clear 21 1012 68 0 2.68 50 22:21 10.10.2019
6438 Clear 21 1012 68 0 2.68 50 21:59 10.10.2019
6439 Clear 21 1012 68 0 2.68 50 21:40 10.10.2019
6440 Clear 21 1012 68 0 2.68 50 21:40 10.10.2019
6441 Clear 21 1012 68 0 2.68 50 21:22 10.10.2019
6442 Clear 21 1012 68 0 2.68 50 20:57 10.10.2019
6443 Clear 21 1012 68 0 2.68 50 20:39 10.10.2019
6444 Clear 21 1012 68 0 2.68 50 20:18 10.10.2019
6445 Clear 21 1012 68 0 2.68 50 20:18 10.10.2019
6446 Clear 21 1012 68 0 2.68 50 20:18 10.10.2019
6447 Clear 21 1012 68 0 2.68 50 19:54 10.10.2019
6448 Clear 21 1012 68 0 2.68 50 19:54 10.10.2019
6449 Clear 21 1012 68 0 2.68 50 19:36 10.10.2019
6450 Clear 21 1012 68 0 2.68 50 19:18 10.10.2019
6451 Clear 21 1012 68 0 2.68 50 18:41 10.10.2019
6452 Clear 21 1012 68 0 2.68 50 18:20 10.10.2019
6453 Clear 21 1012 68 0 2.68 50 17:56 10.10.2019
6454 Clear 21 1012 68 0 2.68 50 17:37 10.10.2019
6455 Clear 18 1012 88 10000 2.6 330 17:18 10.10.2019
6456 Clear 19 1012 88 10000 2.6 330 16:47 10.10.2019
6457 Clear 19 1012 88 10000 2.6 330 16:26 10.10.2019
6458 Clear 19 1012 88 10000 2.6 330 16:26 10.10.2019
6459 Clear 19 1013 82 10000 1.5 340 15:58 10.10.2019
6460 Clear 19 1013 82 10000 1.5 340 15:38 10.10.2019
6461 Clear 20 1013 82 10000 1.5 340 15:19 10.10.2019
6462 Clear 20 1012 68 10000 3.1 50 14:55 10.10.2019
6463 Clear 20 1012 68 10000 3.1 50 14:36 10.10.2019
6464 Clear 20 1012 68 10000 3.1 50 14:18 10.10.2019
6465 Clear 20 1012 73 10000 3.6 340 13:42 10.10.2019
6466 Clear 20 1012 73 10000 3.6 340 13:24 10.10.2019
6467 Clear 21 1012 68 10000 5.1 360 12:58 10.10.2019
6468 Clear 21 1012 68 10000 5.1 360 12:40 10.10.2019
6469 Clear 21 1012 68 10000 5.1 360 12:20 10.10.2019
6470 Clear 21 1012 68 10000 5.1 360 12:20 10.10.2019
6471 Clear 22 1011 68 10000 4.1 310 11:58 10.10.2019
6472 Clear 22 1011 68 10000 4.1 310 11:38 10.10.2019
6473 Clear 22 1011 68 10000 4.1 310 11:19 10.10.2019
6474 Clear 24 1011 57 10000 6.2 330 10:44 10.10.2019
6475 Clear 24 1011 57 10000 6.2 330 10:26 10.10.2019
6476 Clouds 25 1011 50 10000 3.6 360 09:56 10.10.2019
6477 Clouds 25 1011 50 10000 3.6 360 09:38 10.10.2019
6478 Clouds 25 1011 50 10000 3.6 360 09:38 10.10.2019
6479 Clouds 25 1011 50 10000 3.6 360 09:19 10.10.2019
6480 Clouds 26 1011 44 10000 2.1 270 08:56 10.10.2019
6481 Clouds 26 1011 44 10000 2.1 270 08:37 10.10.2019
6482 Clouds 26 1011 44 10000 2.1 270 08:18 10.10.2019
6483 Clouds 26 1011 44 10000 2.1 270 08:18 10.10.2019
6484 Clouds 26 1012 41 10000 1 0 07:42 10.10.2019
6485 Clouds 26 1012 41 10000 1 0 07:20 10.10.2019
6486 Clouds 25 1012 50 10000 1 0 06:48 10.10.2019
6487 Clouds 25 1012 50 10000 1 0 06:29 10.10.2019
6488 Clouds 24 1013 57 10000 1 0 05:27 10.10.2019
6489 Clouds 23 1014 60 10000 1 0 04:39 10.10.2019
6490 Clouds 23 1014 60 10000 1 0 04:21 10.10.2019
6491 Clear 18 1015 82 10000 2.1 130 01:43 10.10.2019
6492 Clear 18 1015 82 10000 2.1 130 01:24 10.10.2019
6493 Clouds 15 1014 88 10000 2.6 120 00:54 10.10.2019
6494 Clouds 16 1014 88 10000 2.6 120 00:22 10.10.2019
6495 Clear 15 1015 88 10000 3.1 140 23:40 09.10.2019
6496 Clear 15 1015 93 10000 2.6 350 23:20 09.10.2019
6497 Clear 20 1015 72 0 4.02 10 22:44 09.10.2019
6498 Clear 20 1015 72 0 4.02 10 22:24 09.10.2019
6499 Clear 20 1015 72 0 4.02 10 21:59 09.10.2019
6500 Clear 20 1015 72 0 4.02 10 21:40 09.10.2019
6501 Clear 20 1015 72 0 4.02 10 21:20 09.10.2019
6502 Clear 20 1015 72 0 4.02 10 20:56 09.10.2019
6503 Clear 20 1015 72 0 4.02 10 20:37 09.10.2019
6504 Clear 20 1015 72 0 4.02 10 20:19 09.10.2019
6505 Clear 20 1015 72 0 4.02 10 20:19 09.10.2019
6506 Clear 20 1015 72 0 4.02 10 19:57 09.10.2019
6507 Clear 20 1015 72 0 4.02 10 19:39 09.10.2019
6508 Clear 20 1015 72 0 4.02 10 19:20 09.10.2019
6509 Clear 20 1015 72 0 4.02 10 18:38 09.10.2019
6510 Clear 20 1015 72 0 4.02 10 18:19 09.10.2019
6511 Clear 20 1015 72 0 4.02 10 17:56 09.10.2019
6512 Clear 20 1015 72 0 4.02 10 17:37 09.10.2019
6513 Clear 17 1015 87 10000 1.5 320 17:19 09.10.2019
6514 Clear 18 1015 87 10000 1.5 320 16:42 09.10.2019
6515 Clear 18 1015 87 10000 1.5 320 16:23 09.10.2019
6516 Clear 18 1016 82 10000 2.6 320 15:58 09.10.2019
6517 Clear 18 1016 82 10000 2.6 320 15:39 09.10.2019
6518 Clear 19 1016 82 10000 2.6 320 15:20 09.10.2019
6519 Clear 19 1015 72 10000 4.1 10 14:58 09.10.2019
6520 Clear 19 1015 72 10000 4.1 10 14:58 09.10.2019
6521 Clear 19 1015 72 10000 4.1 10 14:40 09.10.2019
6522 Clear 19 1015 72 10000 4.1 10 14:18 09.10.2019
6523 Clouds 19 1015 77 10000 3.1 350 13:40 09.10.2019
6524 Clouds 19 1015 77 10000 3.1 350 13:40 09.10.2019
6525 Clouds 19 1015 77 10000 3.1 350 13:21 09.10.2019
6526 Clouds 20 1014 73 10000 7.2 10 12:59 09.10.2019
6527 Clouds 20 1014 73 10000 7.2 10 12:59 09.10.2019
6528 Clouds 20 1014 73 10000 7.2 10 12:40 09.10.2019
6529 Clouds 21 1014 73 10000 7.2 10 12:21 09.10.2019
6530 Clouds 22 1014 68 10000 6.7 360 11:55 09.10.2019
6531 Clouds 22 1014 68 10000 6.7 360 11:37 09.10.2019
6532 Clouds 22 1014 68 10000 6.7 360 11:19 09.10.2019
6533 Clouds 24 1014 60 10000 6.2 340 10:43 09.10.2019
6534 Clouds 24 1014 60 10000 6.2 340 10:43 09.10.2019
6535 Clouds 24 1014 60 10000 6.2 340 10:21 09.10.2019
6536 Clouds 25 1014 53 10000 4.6 320 09:59 09.10.2019
6537 Clouds 25 1014 53 10000 4.6 320 09:40 09.10.2019
6538 Clouds 25 1014 53 10000 4.6 320 09:40 09.10.2019
6539 Clouds 25 1014 53 10000 4.6 320 09:40 09.10.2019
6540 Clouds 25 1014 53 10000 4.6 320 09:18 09.10.2019
6541 Clouds 26 1013 50 10000 4.1 330 08:41 09.10.2019
6542 Clouds 26 1013 50 10000 4.1 330 08:21 09.10.2019
6543 Clouds 26 1014 50 10000 5.1 310 07:56 09.10.2019
6544 Clouds 26 1014 50 10000 5.1 310 07:37 09.10.2019
6545 Clouds 26 1014 50 10000 5.1 310 07:19 09.10.2019
6546 Clouds 26 1014 50 10000 5.1 310 07:19 09.10.2019
6547 Clouds 26 1015 54 10000 5.1 360 06:49 09.10.2019
6548 Clouds 25 1016 53 10000 5.1 360 05:55 09.10.2019
6549 Clouds 25 1016 53 10000 5.1 360 05:23 09.10.2019
6550 Clouds 23 1017 64 10000 2.6 330 04:20 09.10.2019
6551 Clouds 20 1018 73 10000 1.5 160 02:50 09.10.2019
6552 Clouds 18 1017 77 10000 2.1 100 01:43 09.10.2019
6553 Clouds 18 1017 77 10000 2.1 100 01:19 09.10.2019
6554 Clouds 18 1017 77 10000 2.1 100 01:19 09.10.2019
6555 Clouds 15 1017 82 10000 1.5 110 00:56 09.10.2019
6556 Clouds 15 1017 82 10000 1.5 110 00:38 09.10.2019
6557 Clouds 15 1017 82 10000 1.5 110 00:38 09.10.2019
6558 Clouds 16 1017 82 10000 1.5 110 00:19 09.10.2019
6559 Clouds 14 1017 100 8000 2.6 360 23:39 08.10.2019
6560 Clouds 16 1017 100 8000 2.6 360 23:18 08.10.2019
6561 Clouds 19 1017 77 0 2.24 60 22:56 08.10.2019
6562 Clouds 19 1017 77 0 2.24 60 22:37 08.10.2019
6563 Clouds 19 1017 77 0 2.24 60 22:18 08.10.2019
6564 Clouds 19 1017 77 0 2.24 60 21:57 08.10.2019
6565 Clouds 19 1017 77 0 2.24 60 21:38 08.10.2019
6566 Clouds 19 1017 77 0 2.24 60 21:18 08.10.2019
6567 Clouds 19 1017 77 0 2.24 60 20:55 08.10.2019
6568 Clouds 19 1017 77 0 2.24 60 20:37 08.10.2019
6569 Clouds 19 1017 77 0 2.24 60 20:18 08.10.2019
6570 Clouds 19 1017 77 0 2.24 60 19:55 08.10.2019
6571 Clouds 19 1017 77 0 2.24 60 19:36 08.10.2019
6572 Clouds 19 1017 77 0 2.24 60 19:18 08.10.2019
6573 Clouds 19 1017 77 0 2.24 60 18:42 08.10.2019
6574 Clouds 19 1017 77 0 2.24 60 18:24 08.10.2019
6575 Clouds 19 1017 77 0 2.24 60 17:57 08.10.2019
6576 Clouds 19 1017 77 0 2.24 60 17:57 08.10.2019
6577 Clouds 19 1017 77 0 2.24 60 17:39 08.10.2019
6578 Clear 17 1017 87 10000 1.5 30 17:19 08.10.2019
6579 Clear 17 1017 87 10000 1.5 30 16:56 08.10.2019
6580 Clear 17 1017 87 10000 1.5 30 16:56 08.10.2019
6581 Clear 17 1017 87 10000 1.5 30 16:37 08.10.2019
6582 Clear 18 1017 87 10000 1.5 30 16:18 08.10.2019
6583 Clear 17 1018 87 10000 2.1 340 15:38 08.10.2019
6584 Clear 18 1018 87 10000 2.1 340 15:20 08.10.2019
6585 Clear 18 1018 87 10000 2.1 340 15:20 08.10.2019
6586 Clouds 18 1017 77 10000 2.6 60 14:56 08.10.2019
6587 Clouds 18 1017 77 10000 2.6 60 14:37 08.10.2019
6588 Clouds 18 1017 77 10000 2.6 60 14:19 08.10.2019
6589 Clouds 19 1017 72 10000 2.6 30 13:55 08.10.2019
6590 Clouds 19 1017 72 10000 2.6 30 13:37 08.10.2019
6591 Clouds 19 1017 72 10000 2.6 30 13:18 08.10.2019
6592 Clouds 19 1017 72 10000 2.6 30 13:18 08.10.2019
6593 -273 0 0 0 0 0 13:18 08.10.2019
6594 Clouds 20 1016 64 10000 4.1 30 12:41 08.10.2019
6595 Clouds 20 1016 64 10000 4.1 30 12:20 08.10.2019
6596 Clouds 20 1016 60 10000 6.7 10 11:57 08.10.2019
6597 Clouds 20 1016 60 10000 6.7 10 11:57 08.10.2019
6598 Clouds 20 1016 60 10000 6.7 10 11:38 08.10.2019
6599 Clouds 20 1016 60 10000 6.7 10 11:20 08.10.2019
6600 Clouds 22 1015 60 10000 5.1 350 10:42 08.10.2019
6601 Clouds 22 1015 60 10000 5.1 350 10:23 08.10.2019
6602 Clouds 23 1015 64 10000 5.1 340 09:59 08.10.2019
6603 Clouds 23 1015 64 10000 5.1 340 09:40 08.10.2019
6604 Clouds 23 1015 64 10000 5.1 340 09:22 08.10.2019
6605 Clouds 24 1015 60 10000 6.7 350 08:45 08.10.2019
6606 Clouds 24 1015 60 10000 6.7 350 08:25 08.10.2019
6607 Clouds 24 1015 57 10000 8.2 320 07:48 08.10.2019
6608 Clouds 24 1015 57 10000 8.2 320 07:23 08.10.2019
6609 Clouds 24 1015 64 10000 7.7 320 06:59 08.10.2019
6610 Clouds 24 1015 64 10000 7.7 320 06:39 08.10.2019
6611 Clouds 24 1015 64 10000 7.7 320 06:21 08.10.2019
6612 Clouds 24 1016 57 10000 7.7 320 05:40 08.10.2019
6613 Clouds 23 1016 69 10000 6.7 310 04:56 08.10.2019
6614 Clouds 23 1017 60 10000 6.2 320 03:31 08.10.2019
6615 Clouds 24 1016 64 10000 6.2 320 02:41 08.10.2019
6616 Clouds 23 1016 69 10000 4.1 300 01:56 08.10.2019
6617 Clouds 23 1016 69 10000 4.1 300 01:38 08.10.2019
6618 Clouds 21 1016 73 10000 4.6 300 00:55 08.10.2019
6619 Clouds 21 1016 73 10000 4.6 300 00:23 08.10.2019
6620 Clouds 21 1016 73 10000 5.7 310 23:46 07.10.2019
6621 Clouds 21 1015 77 10000 3.6 300 23:21 07.10.2019
6622 Clouds 21 1015 77 10000 3.6 300 23:21 07.10.2019
6623 Clouds 21 1015 76 0 8.42 318.999 22:59 07.10.2019
6624 Clouds 21 1015 76 0 8.42 318.999 22:41 07.10.2019
6625 Clouds 21 1015 76 0 8.42 318.999 22:23 07.10.2019
6626 Clouds 21 1015 76 0 8.42 318.999 21:59 07.10.2019
6627 Clouds 21 1015 76 0 8.42 318.999 21:40 07.10.2019
6628 Rain 25 1015 83 0 4.02 230 21:21 07.10.2019
6629 Clouds 25 1015 83 0 4.02 230 20:59 07.10.2019
6630 Clouds 25 1015 83 0 4.02 230 20:40 07.10.2019
6631 Clouds 25 1015 83 0 4.02 230 20:21 07.10.2019
6632 Clouds 25 1015 83 0 4.02 230 19:59 07.10.2019
6633 Clouds 22 1015 80 0 8.18 306.642 19:41 07.10.2019
6634 Clouds 22 1015 80 0 8.18 306.642 19:41 07.10.2019
6635 Clouds 22 1015 80 0 8.18 306.642 19:20 07.10.2019
6636 Clouds 22 1015 80 0 8.18 306.642 18:59 07.10.2019
6637 Clouds 22 1015 80 0 8.18 306.642 18:39 07.10.2019
6638 Rain 25 1015 83 0 4.02 230 18:19 07.10.2019
6639 Rain 25 1015 83 0 4.02 230 17:43 07.10.2019
6640 Rain 25 1015 83 0 4.02 230 17:43 07.10.2019
6641 Clouds 25 1014 83 10000 4.6 220 17:23 07.10.2019
6642 Clouds 25 1014 83 10000 4.6 220 16:59 07.10.2019
6643 Clouds 25 1014 83 10000 4.6 220 16:41 07.10.2019
6644 Clouds 25 1014 83 10000 4.6 220 16:22 07.10.2019
6645 Clouds 24 1014 88 10000 5.1 180 15:46 07.10.2019
6646 Clouds 25 1014 88 10000 5.1 180 15:26 07.10.2019
6647 Clouds 25 1015 83 10000 4.1 230 14:58 07.10.2019
6648 Clouds 25 1015 83 10000 4.1 230 14:40 07.10.2019
6649 Clouds 25 1015 83 10000 4.1 230 14:21 07.10.2019
6650 Clouds 25 1015 83 10000 3.6 190 13:43 07.10.2019
6651 Clouds 25 1015 83 10000 3.6 190 13:21 07.10.2019
6652 Clouds 25 1015 78 10000 2.1 170 12:57 07.10.2019
6653 Clouds 25 1015 78 10000 2.1 170 12:39 07.10.2019
6654 Clouds 25 1015 78 10000 2.1 170 12:19 07.10.2019
6655 Clouds 25 1014 78 10000 3.1 200 11:57 07.10.2019
6656 Clouds 25 1014 78 10000 3.1 200 11:38 07.10.2019
6657 Clouds 25 1014 78 10000 3.1 200 11:20 07.10.2019
6658 Clouds 26 1015 74 10000 3.1 230 10:42 07.10.2019
6659 Clouds 26 1015 74 10000 3.1 230 10:21 07.10.2019
6660 Clouds 26 1015 69 10000 1 0 09:43 07.10.2019
6661 Clouds 26 1015 69 10000 1 0 09:25 07.10.2019
6662 Clouds 26 1015 74 10000 1.5 240 08:58 07.10.2019
6663 Clouds 26 1015 74 10000 1.5 240 08:39 07.10.2019
6664 Clouds 26 1015 74 10000 1.5 240 08:20 07.10.2019
6665 Clouds 26 1015 65 10000 1 0 07:43 07.10.2019
6666 Clouds 26 1015 65 10000 1 0 07:25 07.10.2019
6667 Rain 26 1016 65 10000 1 0 06:55 07.10.2019
6668 Rain 26 1016 65 10000 1 0 06:37 07.10.2019
6669 Clouds 25 1016 69 10000 1.5 130 05:50 07.10.2019
6670 Clouds 25 1016 69 10000 1.5 130 05:24 07.10.2019
6671 Clouds 25 1017 69 10000 2.1 130 04:42 07.10.2019
6672 Clouds 25 1018 73 10000 3.6 150 03:45 07.10.2019
6673 Clouds 25 1018 73 10000 3.6 150 03:45 07.10.2019
6674 Clouds 25 1018 73 10000 3.6 150 03:23 07.10.2019
6675 Clouds 25 1018 73 10000 3.6 150 03:23 07.10.2019
6676 Clouds 22 1018 83 10000 1.5 170 02:23 07.10.2019
6677 Clouds 22 1018 83 10000 1.5 170 02:23 07.10.2019
6678 Clouds 22 1018 83 10000 2.1 130 01:57 07.10.2019
6679 Clouds 22 1018 83 10000 2.1 130 01:22 07.10.2019
6680 Clouds 19 1018 94 10000 1.5 160 00:44 07.10.2019
6681 Clouds 19 1018 94 10000 1.5 160 00:22 07.10.2019
6682 Clouds 19 1018 94 10000 2.1 130 23:54 06.10.2019
6683 Clouds 19 1017 94 10000 2.1 130 23:36 06.10.2019
6684 Clouds 19 1017 94 10000 2.1 130 23:18 06.10.2019
6685 Clouds 22 1019 83 0 1.79 100 22:41 06.10.2019
6686 Clouds 22 1019 83 0 1.79 100 22:22 06.10.2019
6687 Clouds 22 1019 83 0 1.79 100 21:58 06.10.2019
6688 Clouds 22 1019 83 0 1.79 100 21:38 06.10.2019
6689 Clear 22 1019 83 0 1.79 100 21:19 06.10.2019
6690 Clear 22 1019 83 0 1.79 100 20:58 06.10.2019
6691 Clear 22 1019 83 0 1.79 100 20:40 06.10.2019
6692 Clear 22 1019 83 0 1.79 100 20:21 06.10.2019
6693 Clear 22 1019 83 0 1.79 100 19:57 06.10.2019
6694 Clear 22 1019 83 0 1.79 100 19:37 06.10.2019
6695 Clear 22 1019 83 0 1.79 100 19:19 06.10.2019
6696 Clear 22 1019 83 0 1.79 100 18:57 06.10.2019
6697 Clear 22 1019 83 0 1.79 100 18:38 06.10.2019
6698 Clear 22 1019 83 0 1.79 100 18:19 06.10.2019
6699 Clear 22 1019 83 0 1.79 100 17:57 06.10.2019
6700 Clear 22 1019 83 0 1.79 100 17:39 06.10.2019
6701 Clear 20 1019 82 10000 2.6 350 17:19 06.10.2019
6702 Clear 20 1019 82 10000 2.6 350 16:42 06.10.2019
6703 Clear 20 1019 82 10000 2.6 350 16:23 06.10.2019
6704 Clouds 20 1019 88 10000 2.1 330 15:56 06.10.2019
6705 Clouds 20 1019 88 10000 2.1 330 15:38 06.10.2019
6706 Clouds 21 1019 88 10000 2.1 330 15:18 06.10.2019
6707 Clouds 21 1019 83 10000 2.1 100 14:42 06.10.2019
6708 Clouds 21 1019 83 10000 2.1 100 14:24 06.10.2019
6709 Clouds 21 1019 78 10000 2.1 10 13:56 06.10.2019
6710 Clouds 21 1019 78 10000 2.1 10 13:38 06.10.2019
6711 Clouds 21 1019 78 10000 2.1 10 13:19 06.10.2019
6712 Clouds 21 1018 83 10000 6.7 360 12:56 06.10.2019
6713 Clouds 21 1018 83 10000 6.7 360 12:37 06.10.2019
6714 Clouds 21 1018 83 10000 6.7 360 12:19 06.10.2019
6715 Clouds 22 1018 73 10000 9.3 360 11:55 06.10.2019
6716 Clouds 22 1018 73 10000 9.3 360 11:36 06.10.2019
6717 Clouds 22 1018 73 10000 9.3 360 11:36 06.10.2019
6718 Clouds 22 1018 73 10000 9.3 360 11:18 06.10.2019
6719 Clouds 24 1017 73 10000 7.7 350 10:42 06.10.2019
6720 Clouds 24 1017 73 10000 7.7 350 10:24 06.10.2019
6721 Clouds 25 1017 69 10000 7.7 350 09:42 06.10.2019
6722 Clouds 24 1017 69 10000 7.7 350 09:21 06.10.2019
6723 Clouds 24 1017 69 10000 7.7 350 09:21 06.10.2019<